<?xml version="1.0" encoding="UTF-8"?>
<gpx version="1.1" creator="https://www.youtrack.es" xsi:schemaLocation="http://www.topografix.com/GPX/1/1 http://www.topografix.com/GPX/1/1/gpx.xsd http://www.garmin.com/xmlschemas/GpxExtensions/v3 http://www.garmin.com/xmlschemas/GpxExtensionsv3.xsd http://www.garmin.com/xmlschemas/TrackPointExtension/v1 http://www.garmin.com/xmlschemas/TrackPointExtensionv1.xsd" xmlns:gpxtpx="http://www.garmin.com/xmlschemas/TrackPointExtension/v1" xmlns:gpxx="http://www.garmin.com/xmlschemas/GpxExtensions/v3" xmlns:xsi="http://www.w3.org/2001/XMLSchema-instance">
  <metadata>
    <link href="https://www.youtrack.es">
      <text>YouTrack.es</text>
    </link>
    <time>2026-05-08T20:54:42Z</time>
  </metadata>
  <trk>
    <src>https://www.youtrack.es</src>
    <link href="https://www.youtrack.es/ruta/7198-pbp2019">
      <text>YouTrack.es</text>
    </link>
    <trkseg>
      <trkpt lat="48.654718" lon="1.816545">
        <ele>0</ele>
        <time>2019-08-01T17:54:31Z</time>
      </trkpt>
      <trkpt lat="48.722618" lon="1.766680">
        <ele>0</ele>
        <time>2019-08-01T17:54:47Z</time>
      </trkpt>
      <trkpt lat="48.742152" lon="1.659863">
        <ele>0</ele>
        <time>2019-08-01T17:54:54Z</time>
      </trkpt>
      <trkpt lat="48.688402" lon="1.578094">
        <ele>0</ele>
        <time>2019-08-01T17:54:54Z</time>
      </trkpt>
      <trkpt lat="48.599062" lon="1.377091">
        <ele>0</ele>
        <time>2019-08-01T17:55:37Z</time>
      </trkpt>
      <trkpt lat="48.648363" lon="1.530459">
        <ele>0</ele>
        <time>2019-08-01T17:55:37Z</time>
      </trkpt>
      <trkpt lat="48.522050" lon="0.540734">
        <ele>0</ele>
        <time>2019-08-01T17:55:39Z</time>
      </trkpt>
      <trkpt lat="48.562181" lon="1.033015">
        <ele>0</ele>
        <time>2019-08-01T17:55:43Z</time>
      </trkpt>
      <trkpt lat="48.654690" lon="1.816490">
        <ele>165</ele>
        <time>2019-08-01T17:55:56Z</time>
      </trkpt>
      <trkpt lat="48.655240" lon="1.817570">
        <ele>163</ele>
        <time>2019-08-01T17:56:11Z</time>
      </trkpt>
      <trkpt lat="48.655440" lon="1.818080">
        <ele>160</ele>
        <time>2019-08-01T17:56:16Z</time>
      </trkpt>
      <trkpt lat="48.655450" lon="1.818090">
        <ele>160</ele>
        <time>2019-08-01T17:56:21Z</time>
      </trkpt>
      <trkpt lat="48.656930" lon="1.820960">
        <ele>155</ele>
        <time>2019-08-01T17:56:24Z</time>
      </trkpt>
      <trkpt lat="48.656930" lon="1.820950">
        <ele>155</ele>
        <time>2019-08-01T17:57:22Z</time>
      </trkpt>
      <trkpt lat="48.657030" lon="1.820880">
        <ele>155</ele>
        <time>2019-08-01T17:57:25Z</time>
      </trkpt>
      <trkpt lat="48.657220" lon="1.820800">
        <ele>155</ele>
        <time>2019-08-01T17:57:25Z</time>
      </trkpt>
      <trkpt lat="48.657960" lon="1.820650">
        <ele>158</ele>
        <time>2019-08-01T17:57:27Z</time>
      </trkpt>
      <trkpt lat="48.658770" lon="1.820440">
        <ele>163</ele>
        <time>2019-08-01T17:57:48Z</time>
      </trkpt>
      <trkpt lat="48.659070" lon="1.820280">
        <ele>164</ele>
        <time>2019-08-01T18:00:10Z</time>
      </trkpt>
      <trkpt lat="48.659310" lon="1.820010">
        <ele>167</ele>
        <time>2019-08-01T18:00:32Z</time>
      </trkpt>
      <trkpt lat="48.659420" lon="1.819840">
        <ele>169</ele>
        <time>2019-08-01T18:00:42Z</time>
      </trkpt>
      <trkpt lat="48.661180" lon="1.815690">
        <ele>172</ele>
        <time>2019-08-01T18:02:07Z</time>
      </trkpt>
      <trkpt lat="48.661040" lon="1.815700">
        <ele>171</ele>
        <time>2019-08-01T18:03:06Z</time>
      </trkpt>
      <trkpt lat="48.661040" lon="1.815700">
        <ele>171</ele>
        <time>2019-08-01T18:03:54Z</time>
      </trkpt>
      <trkpt lat="48.661180" lon="1.815690">
        <ele>172</ele>
        <time>2019-08-01T18:04:37Z</time>
      </trkpt>
      <trkpt lat="48.661840" lon="1.814250">
        <ele>176</ele>
        <time>2019-08-01T18:06:11Z</time>
      </trkpt>
      <trkpt lat="48.666230" lon="1.804120">
        <ele>176</ele>
        <time>2019-08-01T18:06:51Z</time>
      </trkpt>
      <trkpt lat="48.666870" lon="1.802550">
        <ele>168</ele>
        <time>2019-08-01T18:07:43Z</time>
      </trkpt>
      <trkpt lat="48.667200" lon="1.801900">
        <ele>166</ele>
        <time>2019-08-01T18:08:42Z</time>
      </trkpt>
      <trkpt lat="48.670480" lon="1.796620">
        <ele>154</ele>
        <time>2019-08-01T18:09:02Z</time>
      </trkpt>
      <trkpt lat="48.672860" lon="1.793140">
        <ele>156</ele>
        <time>2019-08-01T18:09:06Z</time>
      </trkpt>
      <trkpt lat="48.674810" lon="1.790250">
        <ele>153</ele>
        <time>2019-08-01T18:09:15Z</time>
      </trkpt>
      <trkpt lat="48.676490" lon="1.787650">
        <ele>154</ele>
        <time>2019-08-01T18:09:22Z</time>
      </trkpt>
      <trkpt lat="48.680140" lon="1.781860">
        <ele>159</ele>
        <time>2019-08-01T18:09:32Z</time>
      </trkpt>
      <trkpt lat="48.681710" lon="1.779450">
        <ele>160</ele>
        <time>2019-08-01T18:09:56Z</time>
      </trkpt>
      <trkpt lat="48.683830" lon="1.776350">
        <ele>152</ele>
        <time>2019-08-01T18:10:03Z</time>
      </trkpt>
      <trkpt lat="48.686260" lon="1.772910">
        <ele>154</ele>
        <time>2019-08-01T18:10:07Z</time>
      </trkpt>
      <trkpt lat="48.687060" lon="1.771810">
        <ele>152</ele>
        <time>2019-08-01T18:10:12Z</time>
      </trkpt>
      <trkpt lat="48.687280" lon="1.771570">
        <ele>152</ele>
        <time>2019-08-01T18:10:32Z</time>
      </trkpt>
      <trkpt lat="48.687710" lon="1.771220">
        <ele>152</ele>
        <time>2019-08-01T18:10:32Z</time>
      </trkpt>
      <trkpt lat="48.688070" lon="1.771020">
        <ele>153</ele>
        <time>2019-08-01T18:11:31Z</time>
      </trkpt>
      <trkpt lat="48.688630" lon="1.770850">
        <ele>154</ele>
        <time>2019-08-01T18:11:41Z</time>
      </trkpt>
      <trkpt lat="48.689970" lon="1.770560">
        <ele>158</ele>
        <time>2019-08-01T18:11:51Z</time>
      </trkpt>
      <trkpt lat="48.690330" lon="1.770460">
        <ele>159</ele>
        <time>2019-08-01T18:13:22Z</time>
      </trkpt>
      <trkpt lat="48.690600" lon="1.770420">
        <ele>160</ele>
        <time>2019-08-01T18:13:52Z</time>
      </trkpt>
      <trkpt lat="48.690840" lon="1.770400">
        <ele>160</ele>
        <time>2019-08-01T18:13:56Z</time>
      </trkpt>
      <trkpt lat="48.691980" lon="1.770510">
        <ele>162</ele>
        <time>2019-08-01T18:14:01Z</time>
      </trkpt>
      <trkpt lat="48.691980" lon="1.770510">
        <ele>162</ele>
        <time>2019-08-01T18:15:02Z</time>
      </trkpt>
      <trkpt lat="48.695290" lon="1.770880">
        <ele>172</ele>
        <time>2019-08-01T18:15:06Z</time>
      </trkpt>
      <trkpt lat="48.695850" lon="1.770920">
        <ele>173</ele>
        <time>2019-08-01T18:16:48Z</time>
      </trkpt>
      <trkpt lat="48.696430" lon="1.770840">
        <ele>173</ele>
        <time>2019-08-01T18:18:44Z</time>
      </trkpt>
      <trkpt lat="48.701470" lon="1.769870">
        <ele>181</ele>
        <time>2019-08-01T18:18:48Z</time>
      </trkpt>
      <trkpt lat="48.703160" lon="1.769560">
        <ele>181</ele>
        <time>2019-08-01T18:18:49Z</time>
      </trkpt>
      <trkpt lat="48.703360" lon="1.769570">
        <ele>181</ele>
        <time>2019-08-01T18:18:50Z</time>
      </trkpt>
      <trkpt lat="48.703670" lon="1.769610">
        <ele>181</ele>
        <time>2019-08-01T18:18:51Z</time>
      </trkpt>
      <trkpt lat="48.707040" lon="1.770440">
        <ele>174</ele>
        <time>2019-08-01T18:18:52Z</time>
      </trkpt>
      <trkpt lat="48.707290" lon="1.770460">
        <ele>174</ele>
        <time>2019-08-01T18:18:53Z</time>
      </trkpt>
      <trkpt lat="48.712960" lon="1.769550">
        <ele>163</ele>
        <time>2019-08-01T18:18:54Z</time>
      </trkpt>
      <trkpt lat="48.719460" lon="1.768450">
        <ele>145</ele>
        <time>2019-08-01T18:18:55Z</time>
      </trkpt>
      <trkpt lat="48.719680" lon="1.768450">
        <ele>144</ele>
        <time>2019-08-01T18:18:56Z</time>
      </trkpt>
      <trkpt lat="48.719680" lon="1.768510">
        <ele>144</ele>
        <time>2019-08-01T18:18:57Z</time>
      </trkpt>
      <trkpt lat="48.719700" lon="1.768590">
        <ele>144</ele>
        <time>2019-08-01T18:19:20Z</time>
      </trkpt>
      <trkpt lat="48.719750" lon="1.768650">
        <ele>144</ele>
        <time>2019-08-01T18:19:24Z</time>
      </trkpt>
      <trkpt lat="48.719790" lon="1.768670">
        <ele>144</ele>
        <time>2019-08-01T18:19:30Z</time>
      </trkpt>
      <trkpt lat="48.719870" lon="1.768630">
        <ele>144</ele>
        <time>2019-08-01T18:19:35Z</time>
      </trkpt>
      <trkpt lat="48.719900" lon="1.768590">
        <ele>143</ele>
        <time>2019-08-01T18:19:46Z</time>
      </trkpt>
      <trkpt lat="48.719910" lon="1.768530">
        <ele>143</ele>
        <time>2019-08-01T18:19:46Z</time>
      </trkpt>
      <trkpt lat="48.719900" lon="1.768410">
        <ele>143</ele>
        <time>2019-08-01T18:19:48Z</time>
      </trkpt>
      <trkpt lat="48.719870" lon="1.768350">
        <ele>143</ele>
        <time>2019-08-01T18:19:57Z</time>
      </trkpt>
      <trkpt lat="48.720670" lon="1.766770">
        <ele>142</ele>
        <time>2019-08-01T18:19:58Z</time>
      </trkpt>
      <trkpt lat="48.720800" lon="1.766570">
        <ele>142</ele>
        <time>2019-08-01T18:20:00Z</time>
      </trkpt>
      <trkpt lat="48.721140" lon="1.766630">
        <ele>142</ele>
        <time>2019-08-01T18:20:01Z</time>
      </trkpt>
      <trkpt lat="48.721410" lon="1.766760">
        <ele>141</ele>
        <time>2019-08-01T18:20:14Z</time>
      </trkpt>
      <trkpt lat="48.721980" lon="1.767110">
        <ele>141</ele>
        <time>2019-08-01T18:20:28Z</time>
      </trkpt>
      <trkpt lat="48.721980" lon="1.767110">
        <ele>141</ele>
        <time>2019-08-01T18:20:29Z</time>
      </trkpt>
      <trkpt lat="48.722100" lon="1.767140">
        <ele>141</ele>
        <time>2019-08-01T18:20:36Z</time>
      </trkpt>
      <trkpt lat="48.722590" lon="1.767110">
        <ele>141</ele>
        <time>2019-08-01T18:20:49Z</time>
      </trkpt>
      <trkpt lat="48.722690" lon="1.767070">
        <ele>141</ele>
        <time>2019-08-01T18:21:41Z</time>
      </trkpt>
      <trkpt lat="48.722740" lon="1.766960">
        <ele>141</ele>
        <time>2019-08-01T18:21:48Z</time>
      </trkpt>
      <trkpt lat="48.722750" lon="1.766850">
        <ele>140</ele>
        <time>2019-08-01T18:22:00Z</time>
      </trkpt>
      <trkpt lat="48.722390" lon="1.765950">
        <ele>140</ele>
        <time>2019-08-01T18:22:05Z</time>
      </trkpt>
      <trkpt lat="48.721940" lon="1.764910">
        <ele>142</ele>
        <time>2019-08-01T18:22:12Z</time>
      </trkpt>
      <trkpt lat="48.721900" lon="1.764850">
        <ele>142</ele>
        <time>2019-08-01T18:22:19Z</time>
      </trkpt>
      <trkpt lat="48.721740" lon="1.764370">
        <ele>143</ele>
        <time>2019-08-01T18:22:54Z</time>
      </trkpt>
      <trkpt lat="48.721640" lon="1.763270">
        <ele>144</ele>
        <time>2019-08-01T18:23:06Z</time>
      </trkpt>
      <trkpt lat="48.720940" lon="1.758980">
        <ele>144</ele>
        <time>2019-08-01T18:23:06Z</time>
      </trkpt>
      <trkpt lat="48.720880" lon="1.758380">
        <ele>144</ele>
        <time>2019-08-01T18:24:04Z</time>
      </trkpt>
      <trkpt lat="48.720840" lon="1.757320">
        <ele>141</ele>
        <time>2019-08-01T18:27:47Z</time>
      </trkpt>
      <trkpt lat="48.720860" lon="1.756920">
        <ele>141</ele>
        <time>2019-08-01T18:27:55Z</time>
      </trkpt>
      <trkpt lat="48.720950" lon="1.756300">
        <ele>139</ele>
        <time>2019-08-01T18:30:09Z</time>
      </trkpt>
      <trkpt lat="48.721070" lon="1.755770">
        <ele>137</ele>
        <time>2019-08-01T18:31:31Z</time>
      </trkpt>
      <trkpt lat="48.721880" lon="1.753060">
        <ele>138</ele>
        <time>2019-08-01T18:32:04Z</time>
      </trkpt>
      <trkpt lat="48.722150" lon="1.752080">
        <ele>140</ele>
        <time>2019-08-01T18:32:10Z</time>
      </trkpt>
      <trkpt lat="48.722150" lon="1.752080">
        <ele>140</ele>
        <time>2019-08-01T18:32:21Z</time>
      </trkpt>
      <trkpt lat="48.723480" lon="1.747570">
        <ele>135</ele>
        <time>2019-08-01T18:33:24Z</time>
      </trkpt>
      <trkpt lat="48.728550" lon="1.730200">
        <ele>127</ele>
        <time>2019-08-01T18:33:46Z</time>
      </trkpt>
      <trkpt lat="48.728690" lon="1.729530">
        <ele>127</ele>
        <time>2019-08-01T18:33:57Z</time>
      </trkpt>
      <trkpt lat="48.730300" lon="1.718390">
        <ele>123</ele>
        <time>2019-08-01T18:34:40Z</time>
      </trkpt>
      <trkpt lat="48.730920" lon="1.711500">
        <ele>123</ele>
        <time>2019-08-01T18:34:40Z</time>
      </trkpt>
      <trkpt lat="48.731190" lon="1.708670">
        <ele>125</ele>
        <time>2019-08-01T18:35:09Z</time>
      </trkpt>
      <trkpt lat="48.731270" lon="1.708220">
        <ele>125</ele>
        <time>2019-08-01T18:35:40Z</time>
      </trkpt>
      <trkpt lat="48.731520" lon="1.707310">
        <ele>126</ele>
        <time>2019-08-01T18:36:37Z</time>
      </trkpt>
      <trkpt lat="48.732980" lon="1.702490">
        <ele>129</ele>
        <time>2019-08-01T18:37:06Z</time>
      </trkpt>
      <trkpt lat="48.733480" lon="1.700730">
        <ele>126</ele>
        <time>2019-08-01T18:38:10Z</time>
      </trkpt>
      <trkpt lat="48.733640" lon="1.699810">
        <ele>126</ele>
        <time>2019-08-01T18:38:28Z</time>
      </trkpt>
      <trkpt lat="48.734070" lon="1.696240">
        <ele>125</ele>
        <time>2019-08-01T18:38:35Z</time>
      </trkpt>
      <trkpt lat="48.734070" lon="1.696240">
        <ele>125</ele>
        <time>2019-08-01T18:38:41Z</time>
      </trkpt>
      <trkpt lat="48.734370" lon="1.693810">
        <ele>126</ele>
        <time>2019-08-01T18:39:31Z</time>
      </trkpt>
      <trkpt lat="48.734660" lon="1.691180">
        <ele>124</ele>
        <time>2019-08-01T18:39:38Z</time>
      </trkpt>
      <trkpt lat="48.735280" lon="1.686400">
        <ele>123</ele>
        <time>2019-08-01T18:39:41Z</time>
      </trkpt>
      <trkpt lat="48.735620" lon="1.684020">
        <ele>124</ele>
        <time>2019-08-01T18:39:50Z</time>
      </trkpt>
      <trkpt lat="48.736350" lon="1.678650">
        <ele>120</ele>
        <time>2019-08-01T18:40:12Z</time>
      </trkpt>
      <trkpt lat="48.736570" lon="1.677150">
        <ele>118</ele>
        <time>2019-08-01T18:40:41Z</time>
      </trkpt>
      <trkpt lat="48.736680" lon="1.676620">
        <ele>117</ele>
        <time>2019-08-01T18:40:47Z</time>
      </trkpt>
      <trkpt lat="48.736820" lon="1.676110">
        <ele>117</ele>
        <time>2019-08-01T18:40:54Z</time>
      </trkpt>
      <trkpt lat="48.738220" lon="1.672490">
        <ele>120</ele>
        <time>2019-08-01T18:41:02Z</time>
      </trkpt>
      <trkpt lat="48.738410" lon="1.671970">
        <ele>119</ele>
        <time>2019-08-01T18:41:18Z</time>
      </trkpt>
      <trkpt lat="48.738500" lon="1.671670">
        <ele>119</ele>
        <time>2019-08-01T18:41:37Z</time>
      </trkpt>
      <trkpt lat="48.738630" lon="1.670960">
        <ele>117</ele>
        <time>2019-08-01T18:41:45Z</time>
      </trkpt>
      <trkpt lat="48.739060" lon="1.669230">
        <ele>117</ele>
        <time>2019-08-01T18:41:49Z</time>
      </trkpt>
      <trkpt lat="48.739300" lon="1.666730">
        <ele>117</ele>
        <time>2019-08-01T18:42:02Z</time>
      </trkpt>
      <trkpt lat="48.739390" lon="1.666250">
        <ele>117</ele>
        <time>2019-08-01T18:42:06Z</time>
      </trkpt>
      <trkpt lat="48.739520" lon="1.665690">
        <ele>117</ele>
        <time>2019-08-01T18:42:19Z</time>
      </trkpt>
      <trkpt lat="48.739680" lon="1.665090">
        <ele>116</ele>
        <time>2019-08-01T18:42:21Z</time>
      </trkpt>
      <trkpt lat="48.740050" lon="1.663850">
        <ele>113</ele>
        <time>2019-08-01T18:42:31Z</time>
      </trkpt>
      <trkpt lat="48.740440" lon="1.662320">
        <ele>108</ele>
        <time>2019-08-01T18:42:36Z</time>
      </trkpt>
      <trkpt lat="48.740650" lon="1.661740">
        <ele>108</ele>
        <time>2019-08-01T18:42:36Z</time>
      </trkpt>
      <trkpt lat="48.740810" lon="1.661450">
        <ele>108</ele>
        <time>2019-08-01T18:42:42Z</time>
      </trkpt>
      <trkpt lat="48.741540" lon="1.661600">
        <ele>109</ele>
        <time>2019-08-01T18:43:02Z</time>
      </trkpt>
      <trkpt lat="48.741720" lon="1.661560">
        <ele>109</ele>
        <time>2019-08-01T18:43:06Z</time>
      </trkpt>
      <trkpt lat="48.742460" lon="1.661230">
        <ele>109</ele>
        <time>2019-08-01T18:43:27Z</time>
      </trkpt>
      <trkpt lat="48.742530" lon="1.661220">
        <ele>109</ele>
        <time>2019-08-01T18:44:08Z</time>
      </trkpt>
      <trkpt lat="48.742400" lon="1.660390">
        <ele>110</ele>
        <time>2019-08-01T18:46:04Z</time>
      </trkpt>
      <trkpt lat="48.742260" lon="1.659990">
        <ele>111</ele>
        <time>2019-08-01T18:46:04Z</time>
      </trkpt>
      <trkpt lat="48.742260" lon="1.659990">
        <ele>111</ele>
        <time>2019-08-01T18:46:43Z</time>
      </trkpt>
      <trkpt lat="48.742100" lon="1.659540">
        <ele>112</ele>
        <time>2019-08-01T18:47:26Z</time>
      </trkpt>
      <trkpt lat="48.741810" lon="1.657860">
        <ele>115</ele>
        <time>2019-08-01T18:48:07Z</time>
      </trkpt>
      <trkpt lat="48.741720" lon="1.657570">
        <ele>116</ele>
        <time>2019-08-01T18:48:11Z</time>
      </trkpt>
      <trkpt lat="48.741000" lon="1.656150">
        <ele>117</ele>
        <time>2019-08-01T18:50:14Z</time>
      </trkpt>
      <trkpt lat="48.739570" lon="1.653430">
        <ele>117</ele>
        <time>2019-08-01T18:52:14Z</time>
      </trkpt>
      <trkpt lat="48.735560" lon="1.645630">
        <ele>123</ele>
        <time>2019-08-01T18:52:27Z</time>
      </trkpt>
      <trkpt lat="48.735560" lon="1.645630">
        <ele>123</ele>
        <time>2019-08-01T18:52:35Z</time>
      </trkpt>
      <trkpt lat="48.734190" lon="1.642980">
        <ele>123</ele>
        <time>2019-08-01T18:53:10Z</time>
      </trkpt>
      <trkpt lat="48.732730" lon="1.640100">
        <ele>128</ele>
        <time>2019-08-01T18:55:42Z</time>
      </trkpt>
      <trkpt lat="48.731290" lon="1.637350">
        <ele>132</ele>
        <time>2019-08-01T18:55:42Z</time>
      </trkpt>
      <trkpt lat="48.731150" lon="1.637120">
        <ele>132</ele>
        <time>2019-08-01T18:59:49Z</time>
      </trkpt>
      <trkpt lat="48.726900" lon="1.628830">
        <ele>152</ele>
        <time>2019-08-01T19:01:27Z</time>
      </trkpt>
      <trkpt lat="48.722710" lon="1.620790">
        <ele>149</ele>
        <time>2019-08-01T19:03:20Z</time>
      </trkpt>
      <trkpt lat="48.722270" lon="1.619960">
        <ele>148</ele>
        <time>2019-08-01T19:04:22Z</time>
      </trkpt>
      <trkpt lat="48.721940" lon="1.619510">
        <ele>148</ele>
        <time>2019-08-01T19:04:59Z</time>
      </trkpt>
      <trkpt lat="48.720390" lon="1.617610">
        <ele>141</ele>
        <time>2019-08-01T19:05:15Z</time>
      </trkpt>
      <trkpt lat="48.713730" lon="1.609500">
        <ele>153</ele>
        <time>2019-08-01T19:05:22Z</time>
      </trkpt>
      <trkpt lat="48.713730" lon="1.609500">
        <ele>153</ele>
        <time>2019-08-01T19:05:30Z</time>
      </trkpt>
      <trkpt lat="48.702930" lon="1.596330">
        <ele>139</ele>
        <time>2019-08-01T19:05:34Z</time>
      </trkpt>
      <trkpt lat="48.698680" lon="1.591060">
        <ele>158</ele>
        <time>2019-08-01T19:06:17Z</time>
      </trkpt>
      <trkpt lat="48.693700" lon="1.585050">
        <ele>143</ele>
        <time>2019-08-01T19:06:29Z</time>
      </trkpt>
      <trkpt lat="48.691000" lon="1.581710">
        <ele>141</ele>
        <time>2019-08-01T19:06:43Z</time>
      </trkpt>
      <trkpt lat="48.689380" lon="1.579810">
        <ele>139</ele>
        <time>2019-08-01T19:07:12Z</time>
      </trkpt>
      <trkpt lat="48.688670" lon="1.578920">
        <ele>137</ele>
        <time>2019-08-01T19:07:22Z</time>
      </trkpt>
      <trkpt lat="48.688350" lon="1.578560">
        <ele>137</ele>
        <time>2019-08-01T19:07:22Z</time>
      </trkpt>
      <trkpt lat="48.687940" lon="1.578320">
        <ele>136</ele>
        <time>2019-08-01T19:08:26Z</time>
      </trkpt>
      <trkpt lat="48.687710" lon="1.578250">
        <ele>135</ele>
        <time>2019-08-01T19:08:33Z</time>
      </trkpt>
      <trkpt lat="48.685380" lon="1.577290">
        <ele>131</ele>
        <time>2019-08-01T19:08:41Z</time>
      </trkpt>
      <trkpt lat="48.684760" lon="1.576880">
        <ele>129</ele>
        <time>2019-08-01T19:08:45Z</time>
      </trkpt>
      <trkpt lat="48.684110" lon="1.576220">
        <ele>129</ele>
        <time>2019-08-01T19:09:58Z</time>
      </trkpt>
      <trkpt lat="48.682780" lon="1.574730">
        <ele>127</ele>
        <time>2019-08-01T19:10:30Z</time>
      </trkpt>
      <trkpt lat="48.682380" lon="1.574240">
        <ele>127</ele>
        <time>2019-08-01T19:10:38Z</time>
      </trkpt>
      <trkpt lat="48.682380" lon="1.574240">
        <ele>127</ele>
        <time>2019-08-01T19:11:25Z</time>
      </trkpt>
      <trkpt lat="48.679530" lon="1.570830">
        <ele>146</ele>
        <time>2019-08-01T19:11:30Z</time>
      </trkpt>
      <trkpt lat="48.679250" lon="1.570450">
        <ele>147</ele>
        <time>2019-08-01T19:11:34Z</time>
      </trkpt>
      <trkpt lat="48.678950" lon="1.569950">
        <ele>147</ele>
        <time>2019-08-01T19:11:44Z</time>
      </trkpt>
      <trkpt lat="48.678760" lon="1.569670">
        <ele>146</ele>
        <time>2019-08-01T19:12:11Z</time>
      </trkpt>
      <trkpt lat="48.675550" lon="1.565920">
        <ele>136</ele>
        <time>2019-08-01T19:12:22Z</time>
      </trkpt>
      <trkpt lat="48.674140" lon="1.564180">
        <ele>136</ele>
        <time>2019-08-01T19:12:37Z</time>
      </trkpt>
      <trkpt lat="48.673810" lon="1.563730">
        <ele>135</ele>
        <time>2019-08-01T19:12:41Z</time>
      </trkpt>
      <trkpt lat="48.672010" lon="1.560830">
        <ele>134</ele>
        <time>2019-08-01T19:12:45Z</time>
      </trkpt>
      <trkpt lat="48.671790" lon="1.560540">
        <ele>134</ele>
        <time>2019-08-01T19:12:54Z</time>
      </trkpt>
      <trkpt lat="48.671590" lon="1.560340">
        <ele>134</ele>
        <time>2019-08-01T19:13:30Z</time>
      </trkpt>
      <trkpt lat="48.671110" lon="1.559940">
        <ele>134</ele>
        <time>2019-08-01T19:13:44Z</time>
      </trkpt>
      <trkpt lat="48.669740" lon="1.558960">
        <ele>133</ele>
        <time>2019-08-01T19:13:59Z</time>
      </trkpt>
      <trkpt lat="48.669150" lon="1.558570">
        <ele>131</ele>
        <time>2019-08-01T19:14:23Z</time>
      </trkpt>
      <trkpt lat="48.668360" lon="1.558080">
        <ele>131</ele>
        <time>2019-08-01T19:14:29Z</time>
      </trkpt>
      <trkpt lat="48.668160" lon="1.558020">
        <ele>131</ele>
        <time>2019-08-01T19:14:32Z</time>
      </trkpt>
      <trkpt lat="48.667950" lon="1.558010">
        <ele>130</ele>
        <time>2019-08-01T19:14:37Z</time>
      </trkpt>
      <trkpt lat="48.667460" lon="1.558090">
        <ele>130</ele>
        <time>2019-08-01T19:14:42Z</time>
      </trkpt>
      <trkpt lat="48.665450" lon="1.558620">
        <ele>123</ele>
        <time>2019-08-01T19:15:31Z</time>
      </trkpt>
      <trkpt lat="48.664660" lon="1.558630">
        <ele>121</ele>
        <time>2019-08-01T19:15:37Z</time>
      </trkpt>
      <trkpt lat="48.663850" lon="1.558440">
        <ele>117</ele>
        <time>2019-08-01T19:15:42Z</time>
      </trkpt>
      <trkpt lat="48.662510" lon="1.558020">
        <ele>116</ele>
        <time>2019-08-01T19:15:49Z</time>
      </trkpt>
      <trkpt lat="48.662210" lon="1.557850">
        <ele>116</ele>
        <time>2019-08-01T19:16:01Z</time>
      </trkpt>
      <trkpt lat="48.662030" lon="1.557670">
        <ele>117</ele>
        <time>2019-08-01T19:16:09Z</time>
      </trkpt>
      <trkpt lat="48.661890" lon="1.557370">
        <ele>117</ele>
        <time>2019-08-01T19:16:16Z</time>
      </trkpt>
      <trkpt lat="48.661800" lon="1.556910">
        <ele>118</ele>
        <time>2019-08-01T19:16:42Z</time>
      </trkpt>
      <trkpt lat="48.661850" lon="1.552740">
        <ele>125</ele>
        <time>2019-08-01T19:17:26Z</time>
      </trkpt>
      <trkpt lat="48.661820" lon="1.552280">
        <ele>126</ele>
        <time>2019-08-01T19:17:37Z</time>
      </trkpt>
      <trkpt lat="48.661720" lon="1.551890">
        <ele>128</ele>
        <time>2019-08-01T19:17:54Z</time>
      </trkpt>
      <trkpt lat="48.661510" lon="1.551410">
        <ele>130</ele>
        <time>2019-08-01T19:18:00Z</time>
      </trkpt>
      <trkpt lat="48.661010" lon="1.550670">
        <ele>134</ele>
        <time>2019-08-01T19:18:09Z</time>
      </trkpt>
      <trkpt lat="48.660640" lon="1.550220">
        <ele>135</ele>
        <time>2019-08-01T19:18:13Z</time>
      </trkpt>
      <trkpt lat="48.660390" lon="1.549770">
        <ele>137</ele>
        <time>2019-08-01T19:18:13Z</time>
      </trkpt>
      <trkpt lat="48.659410" lon="1.548150">
        <ele>133</ele>
        <time>2019-08-01T19:18:17Z</time>
      </trkpt>
      <trkpt lat="48.657490" lon="1.545870">
        <ele>138</ele>
        <time>2019-08-01T19:18:24Z</time>
      </trkpt>
      <trkpt lat="48.657100" lon="1.545120">
        <ele>138</ele>
        <time>2019-08-01T19:18:32Z</time>
      </trkpt>
      <trkpt lat="48.656410" lon="1.544140">
        <ele>138</ele>
        <time>2019-08-01T19:18:53Z</time>
      </trkpt>
      <trkpt lat="48.656060" lon="1.543890">
        <ele>138</ele>
        <time>2019-08-01T19:19:06Z</time>
      </trkpt>
      <trkpt lat="48.655570" lon="1.543810">
        <ele>136</ele>
        <time>2019-08-01T19:19:10Z</time>
      </trkpt>
      <trkpt lat="48.655380" lon="1.543810">
        <ele>134</ele>
        <time>2019-08-01T19:19:17Z</time>
      </trkpt>
      <trkpt lat="48.655380" lon="1.543810">
        <ele>134</ele>
        <time>2019-08-01T19:19:21Z</time>
      </trkpt>
      <trkpt lat="48.655140" lon="1.543820">
        <ele>132</ele>
        <time>2019-08-01T19:19:25Z</time>
      </trkpt>
      <trkpt lat="48.654750" lon="1.543970">
        <ele>127</ele>
        <time>2019-08-01T19:19:27Z</time>
      </trkpt>
      <trkpt lat="48.654400" lon="1.544350">
        <ele>123</ele>
        <time>2019-08-01T19:19:30Z</time>
      </trkpt>
      <trkpt lat="48.653490" lon="1.545510">
        <ele>117</ele>
        <time>2019-08-01T19:19:31Z</time>
      </trkpt>
      <trkpt lat="48.652900" lon="1.546220">
        <ele>115</ele>
        <time>2019-08-01T19:19:34Z</time>
      </trkpt>
      <trkpt lat="48.652730" lon="1.546450">
        <ele>114</ele>
        <time>2019-08-01T19:19:35Z</time>
      </trkpt>
      <trkpt lat="48.652500" lon="1.546840">
        <ele>114</ele>
        <time>2019-08-01T19:19:36Z</time>
      </trkpt>
      <trkpt lat="48.652340" lon="1.547170">
        <ele>115</ele>
        <time>2019-08-01T19:19:37Z</time>
      </trkpt>
      <trkpt lat="48.652240" lon="1.547430">
        <ele>116</ele>
        <time>2019-08-01T19:19:40Z</time>
      </trkpt>
      <trkpt lat="48.652150" lon="1.547600">
        <ele>117</ele>
        <time>2019-08-01T19:19:44Z</time>
      </trkpt>
      <trkpt lat="48.652040" lon="1.547660">
        <ele>117</ele>
        <time>2019-08-01T19:19:50Z</time>
      </trkpt>
      <trkpt lat="48.651980" lon="1.547660">
        <ele>116</ele>
        <time>2019-08-01T19:19:56Z</time>
      </trkpt>
      <trkpt lat="48.651780" lon="1.547540">
        <ele>113</ele>
        <time>2019-08-01T19:20:08Z</time>
      </trkpt>
      <trkpt lat="48.651790" lon="1.547500">
        <ele>113</ele>
        <time>2019-08-01T19:20:10Z</time>
      </trkpt>
      <trkpt lat="48.651770" lon="1.547420">
        <ele>112</ele>
        <time>2019-08-01T19:20:15Z</time>
      </trkpt>
      <trkpt lat="48.651720" lon="1.547400">
        <ele>111</ele>
        <time>2019-08-01T19:20:18Z</time>
      </trkpt>
      <trkpt lat="48.651770" lon="1.547180">
        <ele>110</ele>
        <time>2019-08-01T19:20:23Z</time>
      </trkpt>
      <trkpt lat="48.651890" lon="1.546870">
        <ele>108</ele>
        <time>2019-08-01T19:20:25Z</time>
      </trkpt>
      <trkpt lat="48.652110" lon="1.546440">
        <ele>106</ele>
        <time>2019-08-01T19:20:28Z</time>
      </trkpt>
      <trkpt lat="48.652330" lon="1.546110">
        <ele>105</ele>
        <time>2019-08-01T19:20:31Z</time>
      </trkpt>
      <trkpt lat="48.652870" lon="1.545430">
        <ele>106</ele>
        <time>2019-08-01T19:20:57Z</time>
      </trkpt>
      <trkpt lat="48.652950" lon="1.545300">
        <ele>106</ele>
        <time>2019-08-01T19:21:07Z</time>
      </trkpt>
      <trkpt lat="48.653080" lon="1.544920">
        <ele>103</ele>
        <time>2019-08-01T19:21:09Z</time>
      </trkpt>
      <trkpt lat="48.653130" lon="1.544700">
        <ele>102</ele>
        <time>2019-08-01T19:21:10Z</time>
      </trkpt>
      <trkpt lat="48.653200" lon="1.544310">
        <ele>100</ele>
        <time>2019-08-01T19:21:21Z</time>
      </trkpt>
      <trkpt lat="48.653210" lon="1.544120">
        <ele>99</ele>
        <time>2019-08-01T19:21:23Z</time>
      </trkpt>
      <trkpt lat="48.653190" lon="1.543910">
        <ele>99</ele>
        <time>2019-08-01T19:21:26Z</time>
      </trkpt>
      <trkpt lat="48.653100" lon="1.543690">
        <ele>98</ele>
        <time>2019-08-01T19:21:29Z</time>
      </trkpt>
      <trkpt lat="48.651780" lon="1.542710">
        <ele>95</ele>
        <time>2019-08-01T19:22:21Z</time>
      </trkpt>
      <trkpt lat="48.651260" lon="1.542380">
        <ele>97</ele>
        <time>2019-08-01T19:22:27Z</time>
      </trkpt>
      <trkpt lat="48.651150" lon="1.542290">
        <ele>97</ele>
        <time>2019-08-01T19:22:46Z</time>
      </trkpt>
      <trkpt lat="48.651140" lon="1.542240">
        <ele>97</ele>
        <time>2019-08-01T19:22:48Z</time>
      </trkpt>
      <trkpt lat="48.651400" lon="1.541370">
        <ele>97</ele>
        <time>2019-08-01T19:22:49Z</time>
      </trkpt>
      <trkpt lat="48.651410" lon="1.541160">
        <ele>96</ele>
        <time>2019-08-01T19:23:00Z</time>
      </trkpt>
      <trkpt lat="48.651380" lon="1.540950">
        <ele>96</ele>
        <time>2019-08-01T19:23:08Z</time>
      </trkpt>
      <trkpt lat="48.651270" lon="1.540720">
        <ele>97</ele>
        <time>2019-08-01T19:23:21Z</time>
      </trkpt>
      <trkpt lat="48.649310" lon="1.537510">
        <ele>96</ele>
        <time>2019-08-01T19:23:25Z</time>
      </trkpt>
      <trkpt lat="48.648970" lon="1.537240">
        <ele>94</ele>
        <time>2019-08-01T19:23:26Z</time>
      </trkpt>
      <trkpt lat="48.647990" lon="1.536610">
        <ele>93</ele>
        <time>2019-08-01T19:23:28Z</time>
      </trkpt>
      <trkpt lat="48.647930" lon="1.536560">
        <ele>94</ele>
        <time>2019-08-01T19:23:30Z</time>
      </trkpt>
      <trkpt lat="48.647910" lon="1.536430">
        <ele>94</ele>
        <time>2019-08-01T19:23:33Z</time>
      </trkpt>
      <trkpt lat="48.648020" lon="1.535500">
        <ele>95</ele>
        <time>2019-08-01T19:23:38Z</time>
      </trkpt>
      <trkpt lat="48.648030" lon="1.534810">
        <ele>95</ele>
        <time>2019-08-01T19:23:43Z</time>
      </trkpt>
      <trkpt lat="48.648190" lon="1.533720">
        <ele>96</ele>
        <time>2019-08-01T19:24:00Z</time>
      </trkpt>
      <trkpt lat="48.648220" lon="1.533420">
        <ele>97</ele>
        <time>2019-08-01T19:24:01Z</time>
      </trkpt>
      <trkpt lat="48.648210" lon="1.533300">
        <ele>97</ele>
        <time>2019-08-01T19:24:02Z</time>
      </trkpt>
      <trkpt lat="48.648170" lon="1.533160">
        <ele>97</ele>
        <time>2019-08-01T19:24:06Z</time>
      </trkpt>
      <trkpt lat="48.648100" lon="1.533040">
        <ele>97</ele>
        <time>2019-08-01T19:24:07Z</time>
      </trkpt>
      <trkpt lat="48.647970" lon="1.532950">
        <ele>98</ele>
        <time>2019-08-01T19:24:08Z</time>
      </trkpt>
      <trkpt lat="48.648090" lon="1.532530">
        <ele>98</ele>
        <time>2019-08-01T19:24:20Z</time>
      </trkpt>
      <trkpt lat="48.648180" lon="1.532140">
        <ele>98</ele>
        <time>2019-08-01T19:24:38Z</time>
      </trkpt>
      <trkpt lat="48.648410" lon="1.530750">
        <ele>97</ele>
        <time>2019-08-01T19:24:52Z</time>
      </trkpt>
      <trkpt lat="48.648400" lon="1.530670">
        <ele>96</ele>
        <time>2019-08-01T19:24:52Z</time>
      </trkpt>
      <trkpt lat="48.648330" lon="1.530560">
        <ele>96</ele>
        <time>2019-08-01T19:24:58Z</time>
      </trkpt>
      <trkpt lat="48.648160" lon="1.530420">
        <ele>97</ele>
        <time>2019-08-01T19:25:07Z</time>
      </trkpt>
      <trkpt lat="48.648110" lon="1.530370">
        <ele>97</ele>
        <time>2019-08-01T19:25:14Z</time>
      </trkpt>
      <trkpt lat="48.648030" lon="1.530380">
        <ele>98</ele>
        <time>2019-08-01T19:25:33Z</time>
      </trkpt>
      <trkpt lat="48.647380" lon="1.530110">
        <ele>102</ele>
        <time>2019-08-01T19:25:41Z</time>
      </trkpt>
      <trkpt lat="48.646390" lon="1.529800">
        <ele>114</ele>
        <time>2019-08-01T19:25:54Z</time>
      </trkpt>
      <trkpt lat="48.645640" lon="1.529520">
        <ele>117</ele>
        <time>2019-08-01T19:26:17Z</time>
      </trkpt>
      <trkpt lat="48.645640" lon="1.529520">
        <ele>117</ele>
        <time>2019-08-01T19:26:57Z</time>
      </trkpt>
      <trkpt lat="48.645310" lon="1.529390">
        <ele>117</ele>
        <time>2019-08-01T19:27:35Z</time>
      </trkpt>
      <trkpt lat="48.644830" lon="1.529160">
        <ele>119</ele>
        <time>2019-08-01T19:27:36Z</time>
      </trkpt>
      <trkpt lat="48.644590" lon="1.528760">
        <ele>122</ele>
        <time>2019-08-01T19:27:36Z</time>
      </trkpt>
      <trkpt lat="48.643940" lon="1.527420">
        <ele>127</ele>
        <time>2019-08-01T19:27:37Z</time>
      </trkpt>
      <trkpt lat="48.643670" lon="1.526840">
        <ele>129</ele>
        <time>2019-08-01T19:27:37Z</time>
      </trkpt>
      <trkpt lat="48.643410" lon="1.525810">
        <ele>129</ele>
        <time>2019-08-01T19:27:38Z</time>
      </trkpt>
      <trkpt lat="48.642720" lon="1.524230">
        <ele>129</ele>
        <time>2019-08-01T19:27:39Z</time>
      </trkpt>
      <trkpt lat="48.641620" lon="1.521200">
        <ele>128</ele>
        <time>2019-08-01T19:27:55Z</time>
      </trkpt>
      <trkpt lat="48.640240" lon="1.518760">
        <ele>132</ele>
        <time>2019-08-01T19:28:08Z</time>
      </trkpt>
      <trkpt lat="48.640260" lon="1.518710">
        <ele>132</ele>
        <time>2019-08-01T19:28:18Z</time>
      </trkpt>
      <trkpt lat="48.640270" lon="1.518660">
        <ele>132</ele>
        <time>2019-08-01T19:28:23Z</time>
      </trkpt>
      <trkpt lat="48.640250" lon="1.518610">
        <ele>132</ele>
        <time>2019-08-01T19:28:28Z</time>
      </trkpt>
      <trkpt lat="48.640230" lon="1.518590">
        <ele>132</ele>
        <time>2019-08-01T19:28:30Z</time>
      </trkpt>
      <trkpt lat="48.640180" lon="1.518580">
        <ele>132</ele>
        <time>2019-08-01T19:28:31Z</time>
      </trkpt>
      <trkpt lat="48.640150" lon="1.518600">
        <ele>132</ele>
        <time>2019-08-01T19:28:33Z</time>
      </trkpt>
      <trkpt lat="48.639560" lon="1.517540">
        <ele>131</ele>
        <time>2019-08-01T19:28:34Z</time>
      </trkpt>
      <trkpt lat="48.639200" lon="1.516560">
        <ele>133</ele>
        <time>2019-08-01T19:28:36Z</time>
      </trkpt>
      <trkpt lat="48.638960" lon="1.515810">
        <ele>133</ele>
        <time>2019-08-01T19:28:38Z</time>
      </trkpt>
      <trkpt lat="48.638860" lon="1.515420">
        <ele>133</ele>
        <time>2019-08-01T19:28:43Z</time>
      </trkpt>
      <trkpt lat="48.638840" lon="1.515000">
        <ele>132</ele>
        <time>2019-08-01T19:28:46Z</time>
      </trkpt>
      <trkpt lat="48.638860" lon="1.514820">
        <ele>132</ele>
        <time>2019-08-01T19:28:52Z</time>
      </trkpt>
      <trkpt lat="48.638890" lon="1.514770">
        <ele>132</ele>
        <time>2019-08-01T19:29:00Z</time>
      </trkpt>
      <trkpt lat="48.638930" lon="1.514660">
        <ele>132</ele>
        <time>2019-08-01T19:29:21Z</time>
      </trkpt>
      <trkpt lat="48.638920" lon="1.514500">
        <ele>132</ele>
        <time>2019-08-01T19:29:44Z</time>
      </trkpt>
      <trkpt lat="48.638850" lon="1.514380">
        <ele>132</ele>
        <time>2019-08-01T19:30:08Z</time>
      </trkpt>
      <trkpt lat="48.638740" lon="1.514350">
        <ele>132</ele>
        <time>2019-08-01T19:30:26Z</time>
      </trkpt>
      <trkpt lat="48.638600" lon="1.513970">
        <ele>132</ele>
        <time>2019-08-01T19:31:03Z</time>
      </trkpt>
      <trkpt lat="48.638550" lon="1.513740">
        <ele>133</ele>
        <time>2019-08-01T19:31:11Z</time>
      </trkpt>
      <trkpt lat="48.638400" lon="1.513290">
        <ele>133</ele>
        <time>2019-08-01T19:31:12Z</time>
      </trkpt>
      <trkpt lat="48.638170" lon="1.512720">
        <ele>132</ele>
        <time>2019-08-01T19:31:14Z</time>
      </trkpt>
      <trkpt lat="48.637380" lon="1.511340">
        <ele>132</ele>
        <time>2019-08-01T19:31:15Z</time>
      </trkpt>
      <trkpt lat="48.636720" lon="1.509670">
        <ele>133</ele>
        <time>2019-08-01T19:31:16Z</time>
      </trkpt>
      <trkpt lat="48.636130" lon="1.507870">
        <ele>132</ele>
        <time>2019-08-01T19:31:17Z</time>
      </trkpt>
      <trkpt lat="48.635760" lon="1.506430">
        <ele>132</ele>
        <time>2019-08-01T19:31:18Z</time>
      </trkpt>
      <trkpt lat="48.635100" lon="1.503480">
        <ele>133</ele>
        <time>2019-08-01T19:31:20Z</time>
      </trkpt>
      <trkpt lat="48.635020" lon="1.502780">
        <ele>132</ele>
        <time>2019-08-01T19:31:23Z</time>
      </trkpt>
      <trkpt lat="48.635080" lon="1.502730">
        <ele>132</ele>
        <time>2019-08-01T19:31:34Z</time>
      </trkpt>
      <trkpt lat="48.635120" lon="1.502650">
        <ele>131</ele>
        <time>2019-08-01T19:31:51Z</time>
      </trkpt>
      <trkpt lat="48.635150" lon="1.502560">
        <ele>131</ele>
        <time>2019-08-01T19:32:02Z</time>
      </trkpt>
      <trkpt lat="48.635160" lon="1.502450">
        <ele>131</ele>
        <time>2019-08-01T19:32:20Z</time>
      </trkpt>
      <trkpt lat="48.635140" lon="1.502350">
        <ele>131</ele>
        <time>2019-08-01T19:32:52Z</time>
      </trkpt>
      <trkpt lat="48.635110" lon="1.502270">
        <ele>131</ele>
        <time>2019-08-01T19:33:07Z</time>
      </trkpt>
      <trkpt lat="48.635020" lon="1.502150">
        <ele>131</ele>
        <time>2019-08-01T19:33:46Z</time>
      </trkpt>
      <trkpt lat="48.634890" lon="1.502140">
        <ele>131</ele>
        <time>2019-08-01T19:34:12Z</time>
      </trkpt>
      <trkpt lat="48.634650" lon="1.501270">
        <ele>130</ele>
        <time>2019-08-01T19:34:48Z</time>
      </trkpt>
      <trkpt lat="48.634160" lon="1.499990">
        <ele>129</ele>
        <time>2019-08-01T19:36:13Z</time>
      </trkpt>
      <trkpt lat="48.633970" lon="1.499080">
        <ele>131</ele>
        <time>2019-08-01T19:36:19Z</time>
      </trkpt>
      <trkpt lat="48.633740" lon="1.497650">
        <ele>133</ele>
        <time>2019-08-01T19:36:25Z</time>
      </trkpt>
      <trkpt lat="48.633180" lon="1.495010">
        <ele>133</ele>
        <time>2019-08-01T19:36:29Z</time>
      </trkpt>
      <trkpt lat="48.632820" lon="1.493890">
        <ele>133</ele>
        <time>2019-08-01T19:37:53Z</time>
      </trkpt>
      <trkpt lat="48.631570" lon="1.491130">
        <ele>134</ele>
        <time>2019-08-01T19:38:06Z</time>
      </trkpt>
      <trkpt lat="48.630870" lon="1.489230">
        <ele>137</ele>
        <time>2019-08-01T19:38:13Z</time>
      </trkpt>
      <trkpt lat="48.629820" lon="1.486620">
        <ele>136</ele>
        <time>2019-08-01T19:38:14Z</time>
      </trkpt>
      <trkpt lat="48.627050" lon="1.480700">
        <ele>137</ele>
        <time>2019-08-01T19:38:15Z</time>
      </trkpt>
      <trkpt lat="48.626930" lon="1.480250">
        <ele>137</ele>
        <time>2019-08-01T19:38:17Z</time>
      </trkpt>
      <trkpt lat="48.626850" lon="1.479780">
        <ele>137</ele>
        <time>2019-08-01T19:38:19Z</time>
      </trkpt>
      <trkpt lat="48.626830" lon="1.479370">
        <ele>138</ele>
        <time>2019-08-01T19:38:20Z</time>
      </trkpt>
      <trkpt lat="48.626560" lon="1.472300">
        <ele>141</ele>
        <time>2019-08-01T19:38:22Z</time>
      </trkpt>
      <trkpt lat="48.626530" lon="1.471150">
        <ele>141</ele>
        <time>2019-08-01T19:38:22Z</time>
      </trkpt>
      <trkpt lat="48.626550" lon="1.470580">
        <ele>141</ele>
        <time>2019-08-01T19:38:24Z</time>
      </trkpt>
      <trkpt lat="48.626600" lon="1.470530">
        <ele>141</ele>
        <time>2019-08-01T19:38:26Z</time>
      </trkpt>
      <trkpt lat="48.626650" lon="1.470440">
        <ele>141</ele>
        <time>2019-08-01T19:38:28Z</time>
      </trkpt>
      <trkpt lat="48.626680" lon="1.470340">
        <ele>141</ele>
        <time>2019-08-01T19:38:33Z</time>
      </trkpt>
      <trkpt lat="48.626660" lon="1.470140">
        <ele>141</ele>
        <time>2019-08-01T19:40:50Z</time>
      </trkpt>
      <trkpt lat="48.626620" lon="1.470050">
        <ele>141</ele>
        <time>2019-08-01T19:40:50Z</time>
      </trkpt>
      <trkpt lat="48.626530" lon="1.469960">
        <ele>141</ele>
        <time>2019-08-01T19:40:59Z</time>
      </trkpt>
      <trkpt lat="48.626530" lon="1.469960">
        <ele>141</ele>
        <time>2019-08-01T19:41:06Z</time>
      </trkpt>
      <trkpt lat="48.626460" lon="1.469940">
        <ele>141</ele>
        <time>2019-08-01T19:41:12Z</time>
      </trkpt>
      <trkpt lat="48.626350" lon="1.469980">
        <ele>141</ele>
        <time>2019-08-01T19:41:19Z</time>
      </trkpt>
      <trkpt lat="48.626220" lon="1.469890">
        <ele>141</ele>
        <time>2019-08-01T19:41:27Z</time>
      </trkpt>
      <trkpt lat="48.625990" lon="1.469680">
        <ele>141</ele>
        <time>2019-08-01T19:41:47Z</time>
      </trkpt>
      <trkpt lat="48.619910" lon="1.462480">
        <ele>149</ele>
        <time>2019-08-01T19:41:55Z</time>
      </trkpt>
      <trkpt lat="48.619910" lon="1.462480">
        <ele>149</ele>
        <time>2019-08-01T19:42:03Z</time>
      </trkpt>
      <trkpt lat="48.619530" lon="1.462030">
        <ele>148</ele>
        <time>2019-08-01T19:42:26Z</time>
      </trkpt>
      <trkpt lat="48.619230" lon="1.461630">
        <ele>147</ele>
        <time>2019-08-01T19:42:37Z</time>
      </trkpt>
      <trkpt lat="48.619010" lon="1.461230">
        <ele>148</ele>
        <time>2019-08-01T19:43:57Z</time>
      </trkpt>
      <trkpt lat="48.618790" lon="1.460720">
        <ele>148</ele>
        <time>2019-08-01T19:44:03Z</time>
      </trkpt>
      <trkpt lat="48.618650" lon="1.460140">
        <ele>149</ele>
        <time>2019-08-01T19:44:54Z</time>
      </trkpt>
      <trkpt lat="48.618280" lon="1.458500">
        <ele>147</ele>
        <time>2019-08-01T19:45:04Z</time>
      </trkpt>
      <trkpt lat="48.618170" lon="1.457860">
        <ele>147</ele>
        <time>2019-08-01T19:45:53Z</time>
      </trkpt>
      <trkpt lat="48.618100" lon="1.457170">
        <ele>146</ele>
        <time>2019-08-01T19:46:46Z</time>
      </trkpt>
      <trkpt lat="48.618150" lon="1.455230">
        <ele>143</ele>
        <time>2019-08-01T19:46:54Z</time>
      </trkpt>
      <trkpt lat="48.618060" lon="1.454320">
        <ele>143</ele>
        <time>2019-08-01T19:47:06Z</time>
      </trkpt>
      <trkpt lat="48.616920" lon="1.447660">
        <ele>143</ele>
        <time>2019-08-01T19:47:33Z</time>
      </trkpt>
      <trkpt lat="48.616830" lon="1.447240">
        <ele>144</ele>
        <time>2019-08-01T19:47:58Z</time>
      </trkpt>
      <trkpt lat="48.615590" lon="1.443270">
        <ele>149</ele>
        <time>2019-08-01T19:48:24Z</time>
      </trkpt>
      <trkpt lat="48.615320" lon="1.442550">
        <ele>148</ele>
        <time>2019-08-01T19:48:35Z</time>
      </trkpt>
      <trkpt lat="48.613610" lon="1.439300">
        <ele>150</ele>
        <time>2019-08-01T19:48:43Z</time>
      </trkpt>
      <trkpt lat="48.611800" lon="1.435740">
        <ele>154</ele>
        <time>2019-08-01T19:49:13Z</time>
      </trkpt>
      <trkpt lat="48.611540" lon="1.435170">
        <ele>154</ele>
        <time>2019-08-01T19:49:26Z</time>
      </trkpt>
      <trkpt lat="48.611170" lon="1.434280">
        <ele>157</ele>
        <time>2019-08-01T19:49:46Z</time>
      </trkpt>
      <trkpt lat="48.610490" lon="1.432300">
        <ele>159</ele>
        <time>2019-08-01T19:49:56Z</time>
      </trkpt>
      <trkpt lat="48.609700" lon="1.430450">
        <ele>165</ele>
        <time>2019-08-01T19:50:27Z</time>
      </trkpt>
      <trkpt lat="48.608770" lon="1.428750">
        <ele>169</ele>
        <time>2019-08-01T19:50:55Z</time>
      </trkpt>
      <trkpt lat="48.608430" lon="1.427990">
        <ele>171</ele>
        <time>2019-08-01T19:51:07Z</time>
      </trkpt>
      <trkpt lat="48.608240" lon="1.427360">
        <ele>171</ele>
        <time>2019-08-01T19:51:18Z</time>
      </trkpt>
      <trkpt lat="48.607730" lon="1.424940">
        <ele>176</ele>
        <time>2019-08-01T19:51:37Z</time>
      </trkpt>
      <trkpt lat="48.607430" lon="1.423920">
        <ele>176</ele>
        <time>2019-08-01T19:52:14Z</time>
      </trkpt>
      <trkpt lat="48.606920" lon="1.422420">
        <ele>175</ele>
        <time>2019-08-01T19:52:23Z</time>
      </trkpt>
      <trkpt lat="48.606740" lon="1.421650">
        <ele>175</ele>
        <time>2019-08-01T19:52:33Z</time>
      </trkpt>
      <trkpt lat="48.606190" lon="1.419160">
        <ele>174</ele>
        <time>2019-08-01T19:52:42Z</time>
      </trkpt>
      <trkpt lat="48.605860" lon="1.416840">
        <ele>176</ele>
        <time>2019-08-01T19:53:06Z</time>
      </trkpt>
      <trkpt lat="48.605620" lon="1.415870">
        <ele>177</ele>
        <time>2019-08-01T19:53:15Z</time>
      </trkpt>
      <trkpt lat="48.605300" lon="1.415050">
        <ele>177</ele>
        <time>2019-08-01T19:53:32Z</time>
      </trkpt>
      <trkpt lat="48.604620" lon="1.413840">
        <ele>177</ele>
        <time>2019-08-01T19:54:02Z</time>
      </trkpt>
      <trkpt lat="48.603210" lon="1.411450">
        <ele>178</ele>
        <time>2019-08-01T19:54:24Z</time>
      </trkpt>
      <trkpt lat="48.602940" lon="1.410880">
        <ele>179</ele>
        <time>2019-08-01T19:55:18Z</time>
      </trkpt>
      <trkpt lat="48.602670" lon="1.410130">
        <ele>179</ele>
        <time>2019-08-01T19:55:23Z</time>
      </trkpt>
      <trkpt lat="48.602400" lon="1.409460">
        <ele>179</ele>
        <time>2019-08-01T19:55:30Z</time>
      </trkpt>
      <trkpt lat="48.601490" lon="1.407970">
        <ele>180</ele>
        <time>2019-08-01T19:55:34Z</time>
      </trkpt>
      <trkpt lat="48.601200" lon="1.407300">
        <ele>180</ele>
        <time>2019-08-01T19:55:34Z</time>
      </trkpt>
      <trkpt lat="48.600850" lon="1.405970">
        <ele>181</ele>
        <time>2019-08-01T19:56:17Z</time>
      </trkpt>
      <trkpt lat="48.600330" lon="1.403540">
        <ele>183</ele>
        <time>2019-08-01T19:56:22Z</time>
      </trkpt>
      <trkpt lat="48.599990" lon="1.401710">
        <ele>185</ele>
        <time>2019-08-01T19:56:24Z</time>
      </trkpt>
      <trkpt lat="48.599480" lon="1.397180">
        <ele>189</ele>
        <time>2019-08-01T19:56:26Z</time>
      </trkpt>
      <trkpt lat="48.599400" lon="1.396850">
        <ele>189</ele>
        <time>2019-08-01T19:56:29Z</time>
      </trkpt>
      <trkpt lat="48.599190" lon="1.396300">
        <ele>189</ele>
        <time>2019-08-01T19:56:32Z</time>
      </trkpt>
      <trkpt lat="48.599070" lon="1.396070">
        <ele>189</ele>
        <time>2019-08-01T19:56:36Z</time>
      </trkpt>
      <trkpt lat="48.599070" lon="1.396070">
        <ele>189</ele>
        <time>2019-08-01T19:56:41Z</time>
      </trkpt>
      <trkpt lat="48.597510" lon="1.393240">
        <ele>190</ele>
        <time>2019-08-01T19:56:59Z</time>
      </trkpt>
      <trkpt lat="48.597370" lon="1.392880">
        <ele>190</ele>
        <time>2019-08-01T19:57:05Z</time>
      </trkpt>
      <trkpt lat="48.597330" lon="1.392740">
        <ele>189</ele>
        <time>2019-08-01T19:57:16Z</time>
      </trkpt>
      <trkpt lat="48.597290" lon="1.392510">
        <ele>189</ele>
        <time>2019-08-01T19:57:18Z</time>
      </trkpt>
      <trkpt lat="48.597290" lon="1.392260">
        <ele>189</ele>
        <time>2019-08-01T19:57:19Z</time>
      </trkpt>
      <trkpt lat="48.597300" lon="1.392000">
        <ele>188</ele>
        <time>2019-08-01T19:57:20Z</time>
      </trkpt>
      <trkpt lat="48.597370" lon="1.391700">
        <ele>187</ele>
        <time>2019-08-01T19:57:24Z</time>
      </trkpt>
      <trkpt lat="48.597510" lon="1.391390">
        <ele>187</ele>
        <time>2019-08-01T19:58:04Z</time>
      </trkpt>
      <trkpt lat="48.598240" lon="1.390220">
        <ele>189</ele>
        <time>2019-08-01T19:58:08Z</time>
      </trkpt>
      <trkpt lat="48.598490" lon="1.389930">
        <ele>190</ele>
        <time>2019-08-01T19:58:11Z</time>
      </trkpt>
      <trkpt lat="48.598910" lon="1.389230">
        <ele>191</ele>
        <time>2019-08-01T19:58:25Z</time>
      </trkpt>
      <trkpt lat="48.598940" lon="1.389130">
        <ele>191</ele>
        <time>2019-08-01T19:58:46Z</time>
      </trkpt>
      <trkpt lat="48.598960" lon="1.389020">
        <ele>191</ele>
        <time>2019-08-01T19:58:56Z</time>
      </trkpt>
      <trkpt lat="48.598960" lon="1.388890">
        <ele>191</ele>
        <time>2019-08-01T19:58:59Z</time>
      </trkpt>
      <trkpt lat="48.598870" lon="1.388620">
        <ele>192</ele>
        <time>2019-08-01T19:59:03Z</time>
      </trkpt>
      <trkpt lat="48.597600" lon="1.385770">
        <ele>193</ele>
        <time>2019-08-01T19:59:05Z</time>
      </trkpt>
      <trkpt lat="48.597540" lon="1.385470">
        <ele>193</ele>
        <time>2019-08-01T19:59:07Z</time>
      </trkpt>
      <trkpt lat="48.597510" lon="1.385190">
        <ele>193</ele>
        <time>2019-08-01T19:59:14Z</time>
      </trkpt>
      <trkpt lat="48.597460" lon="1.384080">
        <ele>192</ele>
        <time>2019-08-01T19:59:18Z</time>
      </trkpt>
      <trkpt lat="48.598660" lon="1.383940">
        <ele>193</ele>
        <time>2019-08-01T19:59:18Z</time>
      </trkpt>
      <trkpt lat="48.599200" lon="1.383910">
        <ele>194</ele>
        <time>2019-08-01T19:59:26Z</time>
      </trkpt>
      <trkpt lat="48.599410" lon="1.383840">
        <ele>193</ele>
        <time>2019-08-01T19:59:38Z</time>
      </trkpt>
      <trkpt lat="48.599580" lon="1.383700">
        <ele>192</ele>
        <time>2019-08-01T19:59:42Z</time>
      </trkpt>
      <trkpt lat="48.599660" lon="1.383570">
        <ele>192</ele>
        <time>2019-08-01T19:59:46Z</time>
      </trkpt>
      <trkpt lat="48.599710" lon="1.383440">
        <ele>192</ele>
        <time>2019-08-01T20:00:09Z</time>
      </trkpt>
      <trkpt lat="48.599850" lon="1.382840">
        <ele>192</ele>
        <time>2019-08-01T20:00:12Z</time>
      </trkpt>
      <trkpt lat="48.599930" lon="1.382570">
        <ele>192</ele>
        <time>2019-08-01T20:00:13Z</time>
      </trkpt>
      <trkpt lat="48.599930" lon="1.382570">
        <ele>192</ele>
        <time>2019-08-01T20:00:14Z</time>
      </trkpt>
      <trkpt lat="48.600130" lon="1.381900">
        <ele>192</ele>
        <time>2019-08-01T20:00:23Z</time>
      </trkpt>
      <trkpt lat="48.600430" lon="1.381030">
        <ele>191</ele>
        <time>2019-08-01T20:00:29Z</time>
      </trkpt>
      <trkpt lat="48.600520" lon="1.380720">
        <ele>191</ele>
        <time>2019-08-01T20:00:30Z</time>
      </trkpt>
      <trkpt lat="48.600550" lon="1.380340">
        <ele>190</ele>
        <time>2019-08-01T20:00:37Z</time>
      </trkpt>
      <trkpt lat="48.600620" lon="1.378410">
        <ele>190</ele>
        <time>2019-08-01T20:00:57Z</time>
      </trkpt>
      <trkpt lat="48.600600" lon="1.378180">
        <ele>190</ele>
        <time>2019-08-01T20:01:21Z</time>
      </trkpt>
      <trkpt lat="48.600570" lon="1.378120">
        <ele>190</ele>
        <time>2019-08-01T20:01:21Z</time>
      </trkpt>
      <trkpt lat="48.600490" lon="1.378070">
        <ele>190</ele>
        <time>2019-08-01T20:01:38Z</time>
      </trkpt>
      <trkpt lat="48.599980" lon="1.378010">
        <ele>191</ele>
        <time>2019-08-01T20:01:57Z</time>
      </trkpt>
      <trkpt lat="48.599680" lon="1.377910">
        <ele>191</ele>
        <time>2019-08-01T20:02:02Z</time>
      </trkpt>
      <trkpt lat="48.599590" lon="1.377870">
        <ele>191</ele>
        <time>2019-08-01T20:02:09Z</time>
      </trkpt>
      <trkpt lat="48.599290" lon="1.377550">
        <ele>192</ele>
        <time>2019-08-01T20:02:17Z</time>
      </trkpt>
      <trkpt lat="48.598630" lon="1.376220">
        <ele>192</ele>
        <time>2019-08-01T20:02:58Z</time>
      </trkpt>
      <trkpt lat="48.597840" lon="1.374470">
        <ele>194</ele>
        <time>2019-08-01T20:03:06Z</time>
      </trkpt>
      <trkpt lat="48.597840" lon="1.374470">
        <ele>194</ele>
        <time>2019-08-01T20:03:17Z</time>
      </trkpt>
      <trkpt lat="48.597320" lon="1.373310">
        <ele>195</ele>
        <time>2019-08-01T20:03:22Z</time>
      </trkpt>
      <trkpt lat="48.596630" lon="1.372030">
        <ele>195</ele>
        <time>2019-08-01T20:03:46Z</time>
      </trkpt>
      <trkpt lat="48.596490" lon="1.371700">
        <ele>195</ele>
        <time>2019-08-01T20:03:59Z</time>
      </trkpt>
      <trkpt lat="48.596300" lon="1.371150">
        <ele>195</ele>
        <time>2019-08-01T20:04:17Z</time>
      </trkpt>
      <trkpt lat="48.596070" lon="1.370610">
        <ele>194</ele>
        <time>2019-08-01T20:04:37Z</time>
      </trkpt>
      <trkpt lat="48.594690" lon="1.367800">
        <ele>196</ele>
        <time>2019-08-01T20:04:56Z</time>
      </trkpt>
      <trkpt lat="48.594400" lon="1.367270">
        <ele>197</ele>
        <time>2019-08-01T20:05:19Z</time>
      </trkpt>
      <trkpt lat="48.594020" lon="1.366510">
        <ele>196</ele>
        <time>2019-08-01T20:05:27Z</time>
      </trkpt>
      <trkpt lat="48.593890" lon="1.366200">
        <ele>197</ele>
        <time>2019-08-01T20:05:31Z</time>
      </trkpt>
      <trkpt lat="48.593200" lon="1.364430">
        <ele>197</ele>
        <time>2019-08-01T20:05:58Z</time>
      </trkpt>
      <trkpt lat="48.592790" lon="1.363490">
        <ele>198</ele>
        <time>2019-08-01T20:06:41Z</time>
      </trkpt>
      <trkpt lat="48.592200" lon="1.362250">
        <ele>200</ele>
        <time>2019-08-01T20:06:54Z</time>
      </trkpt>
      <trkpt lat="48.591480" lon="1.360930">
        <ele>200</ele>
        <time>2019-08-01T20:07:05Z</time>
      </trkpt>
      <trkpt lat="48.590860" lon="1.359620">
        <ele>202</ele>
        <time>2019-08-01T20:07:33Z</time>
      </trkpt>
      <trkpt lat="48.590170" lon="1.358000">
        <ele>202</ele>
        <time>2019-08-01T20:07:41Z</time>
      </trkpt>
      <trkpt lat="48.589940" lon="1.357420">
        <ele>202</ele>
        <time>2019-08-01T20:07:44Z</time>
      </trkpt>
      <trkpt lat="48.589840" lon="1.357100">
        <ele>202</ele>
        <time>2019-08-01T20:07:59Z</time>
      </trkpt>
      <trkpt lat="48.589390" lon="1.354920">
        <ele>202</ele>
        <time>2019-08-01T20:08:08Z</time>
      </trkpt>
      <trkpt lat="48.588720" lon="1.351440">
        <ele>195</ele>
        <time>2019-08-01T20:08:20Z</time>
      </trkpt>
      <trkpt lat="48.588460" lon="1.350380">
        <ele>191</ele>
        <time>2019-08-01T20:08:24Z</time>
      </trkpt>
      <trkpt lat="48.588200" lon="1.349520">
        <ele>188</ele>
        <time>2019-08-01T20:08:27Z</time>
      </trkpt>
      <trkpt lat="48.587400" lon="1.347490">
        <ele>187</ele>
        <time>2019-08-01T20:08:44Z</time>
      </trkpt>
      <trkpt lat="48.587200" lon="1.346890">
        <ele>187</ele>
        <time>2019-08-01T20:08:49Z</time>
      </trkpt>
      <trkpt lat="48.587150" lon="1.346650">
        <ele>187</ele>
        <time>2019-08-01T20:08:58Z</time>
      </trkpt>
      <trkpt lat="48.586970" lon="1.345380">
        <ele>188</ele>
        <time>2019-08-01T20:09:02Z</time>
      </trkpt>
      <trkpt lat="48.586880" lon="1.344660">
        <ele>189</ele>
        <time>2019-08-01T20:09:10Z</time>
      </trkpt>
      <trkpt lat="48.586810" lon="1.343620">
        <ele>190</ele>
        <time>2019-08-01T20:09:15Z</time>
      </trkpt>
      <trkpt lat="48.586780" lon="1.343300">
        <ele>191</ele>
        <time>2019-08-01T20:09:19Z</time>
      </trkpt>
      <trkpt lat="48.586720" lon="1.342990">
        <ele>191</ele>
        <time>2019-08-01T20:09:35Z</time>
      </trkpt>
      <trkpt lat="48.586400" lon="1.341630">
        <ele>192</ele>
        <time>2019-08-01T20:09:45Z</time>
      </trkpt>
      <trkpt lat="48.586370" lon="1.341210">
        <ele>192</ele>
        <time>2019-08-01T20:10:01Z</time>
      </trkpt>
      <trkpt lat="48.586390" lon="1.340500">
        <ele>191</ele>
        <time>2019-08-01T20:10:04Z</time>
      </trkpt>
      <trkpt lat="48.586380" lon="1.340150">
        <ele>190</ele>
        <time>2019-08-01T20:10:39Z</time>
      </trkpt>
      <trkpt lat="48.586320" lon="1.339470">
        <ele>190</ele>
        <time>2019-08-01T20:10:55Z</time>
      </trkpt>
      <trkpt lat="48.586260" lon="1.339050">
        <ele>190</ele>
        <time>2019-08-01T20:11:22Z</time>
      </trkpt>
      <trkpt lat="48.586200" lon="1.338730">
        <ele>190</ele>
        <time>2019-08-01T20:11:43Z</time>
      </trkpt>
      <trkpt lat="48.585840" lon="1.337470">
        <ele>190</ele>
        <time>2019-08-01T20:11:48Z</time>
      </trkpt>
      <trkpt lat="48.585630" lon="1.336660">
        <ele>191</ele>
        <time>2019-08-01T20:12:42Z</time>
      </trkpt>
      <trkpt lat="48.585480" lon="1.335350">
        <ele>191</ele>
        <time>2019-08-01T20:12:47Z</time>
      </trkpt>
      <trkpt lat="48.585420" lon="1.335100">
        <ele>191</ele>
        <time>2019-08-01T20:12:52Z</time>
      </trkpt>
      <trkpt lat="48.584560" lon="1.332430">
        <ele>194</ele>
        <time>2019-08-01T20:13:17Z</time>
      </trkpt>
      <trkpt lat="48.584130" lon="1.331210">
        <ele>194</ele>
        <time>2019-08-01T20:13:44Z</time>
      </trkpt>
      <trkpt lat="48.583350" lon="1.329270">
        <ele>195</ele>
        <time>2019-08-01T20:13:47Z</time>
      </trkpt>
      <trkpt lat="48.582880" lon="1.327660">
        <ele>195</ele>
        <time>2019-08-01T20:13:51Z</time>
      </trkpt>
      <trkpt lat="48.582730" lon="1.327270">
        <ele>195</ele>
        <time>2019-08-01T20:14:06Z</time>
      </trkpt>
      <trkpt lat="48.581040" lon="1.323470">
        <ele>192</ele>
        <time>2019-08-01T20:14:21Z</time>
      </trkpt>
      <trkpt lat="48.580900" lon="1.323070">
        <ele>191</ele>
        <time>2019-08-01T20:14:30Z</time>
      </trkpt>
      <trkpt lat="48.580860" lon="1.322710">
        <ele>191</ele>
        <time>2019-08-01T20:14:33Z</time>
      </trkpt>
      <trkpt lat="48.580710" lon="1.320570">
        <ele>191</ele>
        <time>2019-08-01T20:14:37Z</time>
      </trkpt>
      <trkpt lat="48.580410" lon="1.318350">
        <ele>193</ele>
        <time>2019-08-01T20:15:02Z</time>
      </trkpt>
      <trkpt lat="48.580390" lon="1.318050">
        <ele>194</ele>
        <time>2019-08-01T20:15:23Z</time>
      </trkpt>
      <trkpt lat="48.580390" lon="1.317700">
        <ele>195</ele>
        <time>2019-08-01T20:15:38Z</time>
      </trkpt>
      <trkpt lat="48.580450" lon="1.316470">
        <ele>196</ele>
        <time>2019-08-01T20:15:48Z</time>
      </trkpt>
      <trkpt lat="48.580460" lon="1.315210">
        <ele>196</ele>
        <time>2019-08-01T20:17:48Z</time>
      </trkpt>
      <trkpt lat="48.580520" lon="1.314420">
        <ele>197</ele>
        <time>2019-08-01T20:18:20Z</time>
      </trkpt>
      <trkpt lat="48.580520" lon="1.314130">
        <ele>197</ele>
        <time>2019-08-01T20:18:34Z</time>
      </trkpt>
      <trkpt lat="48.580490" lon="1.313790">
        <ele>197</ele>
        <time>2019-08-01T20:18:46Z</time>
      </trkpt>
      <trkpt lat="48.580170" lon="1.311730">
        <ele>197</ele>
        <time>2019-08-01T20:18:53Z</time>
      </trkpt>
      <trkpt lat="48.579850" lon="1.310050">
        <ele>198</ele>
        <time>2019-08-01T20:19:08Z</time>
      </trkpt>
      <trkpt lat="48.579580" lon="1.308860">
        <ele>198</ele>
        <time>2019-08-01T20:19:32Z</time>
      </trkpt>
      <trkpt lat="48.579360" lon="1.308040">
        <ele>198</ele>
        <time>2019-08-01T20:19:32Z</time>
      </trkpt>
      <trkpt lat="48.576640" lon="1.298760">
        <ele>198</ele>
        <time>2019-08-01T20:20:06Z</time>
      </trkpt>
      <trkpt lat="48.576000" lon="1.296200">
        <ele>192</ele>
        <time>2019-08-01T20:20:11Z</time>
      </trkpt>
      <trkpt lat="48.575780" lon="1.295030">
        <ele>196</ele>
        <time>2019-08-01T20:20:16Z</time>
      </trkpt>
      <trkpt lat="48.575640" lon="1.294070">
        <ele>199</ele>
        <time>2019-08-01T20:20:47Z</time>
      </trkpt>
      <trkpt lat="48.575610" lon="1.293480">
        <ele>200</ele>
        <time>2019-08-01T20:21:15Z</time>
      </trkpt>
      <trkpt lat="48.575670" lon="1.292160">
        <ele>201</ele>
        <time>2019-08-01T20:21:25Z</time>
      </trkpt>
      <trkpt lat="48.575930" lon="1.290160">
        <ele>198</ele>
        <time>2019-08-01T20:22:11Z</time>
      </trkpt>
      <trkpt lat="48.575930" lon="1.290160">
        <ele>198</ele>
        <time>2019-08-01T20:22:28Z</time>
      </trkpt>
      <trkpt lat="48.576320" lon="1.287350">
        <ele>200</ele>
        <time>2019-08-01T20:22:40Z</time>
      </trkpt>
      <trkpt lat="48.576350" lon="1.286930">
        <ele>200</ele>
        <time>2019-08-01T20:23:36Z</time>
      </trkpt>
      <trkpt lat="48.576300" lon="1.286500">
        <ele>200</ele>
        <time>2019-08-01T20:23:49Z</time>
      </trkpt>
      <trkpt lat="48.575860" lon="1.283990">
        <ele>201</ele>
        <time>2019-08-01T20:23:57Z</time>
      </trkpt>
      <trkpt lat="48.575260" lon="1.281780">
        <ele>205</ele>
        <time>2019-08-01T20:24:12Z</time>
      </trkpt>
      <trkpt lat="48.575130" lon="1.280960">
        <ele>205</ele>
        <time>2019-08-01T20:25:14Z</time>
      </trkpt>
      <trkpt lat="48.574750" lon="1.277110">
        <ele>198</ele>
        <time>2019-08-01T20:25:20Z</time>
      </trkpt>
      <trkpt lat="48.574550" lon="1.275700">
        <ele>198</ele>
        <time>2019-08-01T20:25:46Z</time>
      </trkpt>
      <trkpt lat="48.574370" lon="1.274680">
        <ele>198</ele>
        <time>2019-08-01T20:26:41Z</time>
      </trkpt>
      <trkpt lat="48.573450" lon="1.270140">
        <ele>203</ele>
        <time>2019-08-01T20:26:47Z</time>
      </trkpt>
      <trkpt lat="48.573250" lon="1.269090">
        <ele>204</ele>
        <time>2019-08-01T20:26:54Z</time>
      </trkpt>
      <trkpt lat="48.573270" lon="1.268410">
        <ele>207</ele>
        <time>2019-08-01T20:27:24Z</time>
      </trkpt>
      <trkpt lat="48.573400" lon="1.267130">
        <ele>209</ele>
        <time>2019-08-01T20:27:29Z</time>
      </trkpt>
      <trkpt lat="48.574000" lon="1.261960">
        <ele>207</ele>
        <time>2019-08-01T20:27:37Z</time>
      </trkpt>
      <trkpt lat="48.574130" lon="1.261440">
        <ele>207</ele>
        <time>2019-08-01T20:28:20Z</time>
      </trkpt>
      <trkpt lat="48.574880" lon="1.259610">
        <ele>203</ele>
        <time>2019-08-01T20:28:23Z</time>
      </trkpt>
      <trkpt lat="48.576480" lon="1.255580">
        <ele>207</ele>
        <time>2019-08-01T20:28:25Z</time>
      </trkpt>
      <trkpt lat="48.576620" lon="1.255160">
        <ele>207</ele>
        <time>2019-08-01T20:28:31Z</time>
      </trkpt>
      <trkpt lat="48.576720" lon="1.254560">
        <ele>207</ele>
        <time>2019-08-01T20:28:44Z</time>
      </trkpt>
      <trkpt lat="48.576930" lon="1.252010">
        <ele>208</ele>
        <time>2019-08-01T20:28:48Z</time>
      </trkpt>
      <trkpt lat="48.577020" lon="1.251580">
        <ele>208</ele>
        <time>2019-08-01T20:28:50Z</time>
      </trkpt>
      <trkpt lat="48.577220" lon="1.251060">
        <ele>207</ele>
        <time>2019-08-01T20:28:57Z</time>
      </trkpt>
      <trkpt lat="48.578600" lon="1.248030">
        <ele>204</ele>
        <time>2019-08-01T20:29:01Z</time>
      </trkpt>
      <trkpt lat="48.578680" lon="1.247800">
        <ele>205</ele>
        <time>2019-08-01T20:29:05Z</time>
      </trkpt>
      <trkpt lat="48.578730" lon="1.247630">
        <ele>205</ele>
        <time>2019-08-01T20:29:07Z</time>
      </trkpt>
      <trkpt lat="48.578760" lon="1.247130">
        <ele>206</ele>
        <time>2019-08-01T20:29:14Z</time>
      </trkpt>
      <trkpt lat="48.578780" lon="1.246010">
        <ele>208</ele>
        <time>2019-08-01T20:29:19Z</time>
      </trkpt>
      <trkpt lat="48.578830" lon="1.245700">
        <ele>208</ele>
        <time>2019-08-01T20:29:29Z</time>
      </trkpt>
      <trkpt lat="48.578880" lon="1.245560">
        <ele>208</ele>
        <time>2019-08-01T20:29:29Z</time>
      </trkpt>
      <trkpt lat="48.579110" lon="1.245110">
        <ele>208</ele>
        <time>2019-08-01T20:29:34Z</time>
      </trkpt>
      <trkpt lat="48.579230" lon="1.244800">
        <ele>209</ele>
        <time>2019-08-01T20:29:44Z</time>
      </trkpt>
      <trkpt lat="48.579340" lon="1.244450">
        <ele>210</ele>
        <time>2019-08-01T20:29:47Z</time>
      </trkpt>
      <trkpt lat="48.579350" lon="1.244290">
        <ele>211</ele>
        <time>2019-08-01T20:29:49Z</time>
      </trkpt>
      <trkpt lat="48.579580" lon="1.243810">
        <ele>211</ele>
        <time>2019-08-01T20:29:54Z</time>
      </trkpt>
      <trkpt lat="48.579740" lon="1.243480">
        <ele>212</ele>
        <time>2019-08-01T20:29:57Z</time>
      </trkpt>
      <trkpt lat="48.580170" lon="1.242870">
        <ele>214</ele>
        <time>2019-08-01T20:30:00Z</time>
      </trkpt>
      <trkpt lat="48.580170" lon="1.242870">
        <ele>214</ele>
        <time>2019-08-01T20:30:05Z</time>
      </trkpt>
      <trkpt lat="48.580360" lon="1.242600">
        <ele>214</ele>
        <time>2019-08-01T20:30:12Z</time>
      </trkpt>
      <trkpt lat="48.580790" lon="1.242070">
        <ele>215</ele>
        <time>2019-08-01T20:30:16Z</time>
      </trkpt>
      <trkpt lat="48.580920" lon="1.241950">
        <ele>215</ele>
        <time>2019-08-01T20:30:18Z</time>
      </trkpt>
      <trkpt lat="48.581010" lon="1.241830">
        <ele>215</ele>
        <time>2019-08-01T20:30:32Z</time>
      </trkpt>
      <trkpt lat="48.581210" lon="1.241480">
        <ele>215</ele>
        <time>2019-08-01T20:30:37Z</time>
      </trkpt>
      <trkpt lat="48.581290" lon="1.241250">
        <ele>214</ele>
        <time>2019-08-01T20:30:47Z</time>
      </trkpt>
      <trkpt lat="48.581400" lon="1.241050">
        <ele>214</ele>
        <time>2019-08-01T20:30:52Z</time>
      </trkpt>
      <trkpt lat="48.581600" lon="1.240770">
        <ele>213</ele>
        <time>2019-08-01T20:31:11Z</time>
      </trkpt>
      <trkpt lat="48.581910" lon="1.240460">
        <ele>213</ele>
        <time>2019-08-01T20:31:37Z</time>
      </trkpt>
      <trkpt lat="48.582110" lon="1.240280">
        <ele>212</ele>
        <time>2019-08-01T20:31:51Z</time>
      </trkpt>
      <trkpt lat="48.582230" lon="1.240200">
        <ele>212</ele>
        <time>2019-08-01T20:32:00Z</time>
      </trkpt>
      <trkpt lat="48.582960" lon="1.239900">
        <ele>212</ele>
        <time>2019-08-01T20:32:05Z</time>
      </trkpt>
      <trkpt lat="48.582880" lon="1.239490">
        <ele>212</ele>
        <time>2019-08-01T20:32:09Z</time>
      </trkpt>
      <trkpt lat="48.582660" lon="1.238680">
        <ele>212</ele>
        <time>2019-08-01T20:32:21Z</time>
      </trkpt>
      <trkpt lat="48.582610" lon="1.238260">
        <ele>212</ele>
        <time>2019-08-01T20:32:33Z</time>
      </trkpt>
      <trkpt lat="48.582530" lon="1.236640">
        <ele>213</ele>
        <time>2019-08-01T20:33:09Z</time>
      </trkpt>
      <trkpt lat="48.582340" lon="1.234500">
        <ele>213</ele>
        <time>2019-08-01T20:33:32Z</time>
      </trkpt>
      <trkpt lat="48.582170" lon="1.233270">
        <ele>213</ele>
        <time>2019-08-01T20:33:37Z</time>
      </trkpt>
      <trkpt lat="48.582050" lon="1.232540">
        <ele>213</ele>
        <time>2019-08-01T20:33:55Z</time>
      </trkpt>
      <trkpt lat="48.581970" lon="1.232200">
        <ele>213</ele>
        <time>2019-08-01T20:33:55Z</time>
      </trkpt>
      <trkpt lat="48.581870" lon="1.231840">
        <ele>212</ele>
        <time>2019-08-01T20:34:23Z</time>
      </trkpt>
      <trkpt lat="48.581540" lon="1.231000">
        <ele>213</ele>
        <time>2019-08-01T20:35:01Z</time>
      </trkpt>
      <trkpt lat="48.581150" lon="1.230180">
        <ele>217</ele>
        <time>2019-08-01T20:36:22Z</time>
      </trkpt>
      <trkpt lat="48.580460" lon="1.227290">
        <ele>218</ele>
        <time>2019-08-01T20:36:56Z</time>
      </trkpt>
      <trkpt lat="48.581130" lon="1.225610">
        <ele>223</ele>
        <time>2019-08-01T20:37:01Z</time>
      </trkpt>
      <trkpt lat="48.581210" lon="1.225230">
        <ele>224</ele>
        <time>2019-08-01T20:37:06Z</time>
      </trkpt>
      <trkpt lat="48.581300" lon="1.223670">
        <ele>225</ele>
        <time>2019-08-01T20:37:32Z</time>
      </trkpt>
      <trkpt lat="48.581300" lon="1.223670">
        <ele>225</ele>
        <time>2019-08-01T20:37:51Z</time>
      </trkpt>
      <trkpt lat="48.581440" lon="1.221320">
        <ele>221</ele>
        <time>2019-08-01T20:38:15Z</time>
      </trkpt>
      <trkpt lat="48.581690" lon="1.218120">
        <ele>216</ele>
        <time>2019-08-01T20:38:30Z</time>
      </trkpt>
      <trkpt lat="48.582090" lon="1.211200">
        <ele>224</ele>
        <time>2019-08-01T20:38:36Z</time>
      </trkpt>
      <trkpt lat="48.582230" lon="1.208360">
        <ele>219</ele>
        <time>2019-08-01T20:38:40Z</time>
      </trkpt>
      <trkpt lat="48.582280" lon="1.207960">
        <ele>216</ele>
        <time>2019-08-01T20:38:45Z</time>
      </trkpt>
      <trkpt lat="48.582420" lon="1.207540">
        <ele>213</ele>
        <time>2019-08-01T20:38:49Z</time>
      </trkpt>
      <trkpt lat="48.583220" lon="1.205720">
        <ele>208</ele>
        <time>2019-08-01T20:38:55Z</time>
      </trkpt>
      <trkpt lat="48.583850" lon="1.204450">
        <ele>206</ele>
        <time>2019-08-01T20:39:04Z</time>
      </trkpt>
      <trkpt lat="48.584120" lon="1.202450">
        <ele>208</ele>
        <time>2019-08-01T20:39:08Z</time>
      </trkpt>
      <trkpt lat="48.584380" lon="1.201190">
        <ele>210</ele>
        <time>2019-08-01T20:39:13Z</time>
      </trkpt>
      <trkpt lat="48.584480" lon="1.200740">
        <ele>210</ele>
        <time>2019-08-01T20:39:19Z</time>
      </trkpt>
      <trkpt lat="48.584580" lon="1.200430">
        <ele>209</ele>
        <time>2019-08-01T20:40:00Z</time>
      </trkpt>
      <trkpt lat="48.584730" lon="1.200100">
        <ele>209</ele>
        <time>2019-08-01T20:40:20Z</time>
      </trkpt>
      <trkpt lat="48.584820" lon="1.199760">
        <ele>208</ele>
        <time>2019-08-01T20:40:32Z</time>
      </trkpt>
      <trkpt lat="48.584880" lon="1.199270">
        <ele>208</ele>
        <time>2019-08-01T20:41:01Z</time>
      </trkpt>
      <trkpt lat="48.584920" lon="1.198500">
        <ele>206</ele>
        <time>2019-08-01T20:41:30Z</time>
      </trkpt>
      <trkpt lat="48.584990" lon="1.198150">
        <ele>206</ele>
        <time>2019-08-01T20:41:44Z</time>
      </trkpt>
      <trkpt lat="48.585140" lon="1.197790">
        <ele>205</ele>
        <time>2019-08-01T20:41:49Z</time>
      </trkpt>
      <trkpt lat="48.585250" lon="1.197310">
        <ele>204</ele>
        <time>2019-08-01T20:42:14Z</time>
      </trkpt>
      <trkpt lat="48.585860" lon="1.193960">
        <ele>198</ele>
        <time>2019-08-01T20:42:17Z</time>
      </trkpt>
      <trkpt lat="48.586310" lon="1.192440">
        <ele>195</ele>
        <time>2019-08-01T20:42:19Z</time>
      </trkpt>
      <trkpt lat="48.586510" lon="1.191470">
        <ele>196</ele>
        <time>2019-08-01T20:42:20Z</time>
      </trkpt>
      <trkpt lat="48.586860" lon="1.189070">
        <ele>192</ele>
        <time>2019-08-01T20:42:26Z</time>
      </trkpt>
      <trkpt lat="48.587180" lon="1.186630">
        <ele>185</ele>
        <time>2019-08-01T20:42:28Z</time>
      </trkpt>
      <trkpt lat="48.587380" lon="1.185450">
        <ele>184</ele>
        <time>2019-08-01T20:42:32Z</time>
      </trkpt>
      <trkpt lat="48.587490" lon="1.185100">
        <ele>186</ele>
        <time>2019-08-01T20:42:44Z</time>
      </trkpt>
      <trkpt lat="48.588190" lon="1.183270">
        <ele>191</ele>
        <time>2019-08-01T20:42:52Z</time>
      </trkpt>
      <trkpt lat="48.588260" lon="1.183030">
        <ele>192</ele>
        <time>2019-08-01T20:42:54Z</time>
      </trkpt>
      <trkpt lat="48.588260" lon="1.182840">
        <ele>192</ele>
        <time>2019-08-01T20:43:08Z</time>
      </trkpt>
      <trkpt lat="48.588220" lon="1.182730">
        <ele>192</ele>
        <time>2019-08-01T20:43:15Z</time>
      </trkpt>
      <trkpt lat="48.587990" lon="1.182380">
        <ele>193</ele>
        <time>2019-08-01T20:43:39Z</time>
      </trkpt>
      <trkpt lat="48.587930" lon="1.182220">
        <ele>193</ele>
        <time>2019-08-01T20:43:39Z</time>
      </trkpt>
      <trkpt lat="48.587890" lon="1.181910">
        <ele>194</ele>
        <time>2019-08-01T20:43:53Z</time>
      </trkpt>
      <trkpt lat="48.588010" lon="1.180880">
        <ele>195</ele>
        <time>2019-08-01T20:43:56Z</time>
      </trkpt>
      <trkpt lat="48.587990" lon="1.180270">
        <ele>194</ele>
        <time>2019-08-01T20:43:59Z</time>
      </trkpt>
      <trkpt lat="48.588020" lon="1.180110">
        <ele>194</ele>
        <time>2019-08-01T20:44:04Z</time>
      </trkpt>
      <trkpt lat="48.588450" lon="1.179110">
        <ele>195</ele>
        <time>2019-08-01T20:44:28Z</time>
      </trkpt>
      <trkpt lat="48.588610" lon="1.178560">
        <ele>194</ele>
        <time>2019-08-01T20:45:36Z</time>
      </trkpt>
      <trkpt lat="48.589120" lon="1.176610">
        <ele>194</ele>
        <time>2019-08-01T20:45:42Z</time>
      </trkpt>
      <trkpt lat="48.589120" lon="1.176610">
        <ele>194</ele>
        <time>2019-08-01T20:47:24Z</time>
      </trkpt>
      <trkpt lat="48.589410" lon="1.175510">
        <ele>194</ele>
        <time>2019-08-01T20:49:12Z</time>
      </trkpt>
      <trkpt lat="48.589400" lon="1.175250">
        <ele>193</ele>
        <time>2019-08-01T20:49:18Z</time>
      </trkpt>
      <trkpt lat="48.589370" lon="1.174990">
        <ele>192</ele>
        <time>2019-08-01T20:49:53Z</time>
      </trkpt>
      <trkpt lat="48.589260" lon="1.174630">
        <ele>192</ele>
        <time>2019-08-01T20:49:58Z</time>
      </trkpt>
      <trkpt lat="48.588560" lon="1.172850">
        <ele>193</ele>
        <time>2019-08-01T20:50:20Z</time>
      </trkpt>
      <trkpt lat="48.586670" lon="1.167920">
        <ele>195</ele>
        <time>2019-08-01T20:50:23Z</time>
      </trkpt>
      <trkpt lat="48.586490" lon="1.167480">
        <ele>198</ele>
        <time>2019-08-01T20:50:31Z</time>
      </trkpt>
      <trkpt lat="48.583060" lon="1.160480">
        <ele>199</ele>
        <time>2019-08-01T20:51:04Z</time>
      </trkpt>
      <trkpt lat="48.579430" lon="1.153150">
        <ele>197</ele>
        <time>2019-08-01T20:51:29Z</time>
      </trkpt>
      <trkpt lat="48.579240" lon="1.152700">
        <ele>197</ele>
        <time>2019-08-01T20:51:45Z</time>
      </trkpt>
      <trkpt lat="48.578450" lon="1.150000">
        <ele>197</ele>
        <time>2019-08-01T20:51:56Z</time>
      </trkpt>
      <trkpt lat="48.578380" lon="1.149610">
        <ele>199</ele>
        <time>2019-08-01T20:52:02Z</time>
      </trkpt>
      <trkpt lat="48.578360" lon="1.147730">
        <ele>200</ele>
        <time>2019-08-01T20:52:18Z</time>
      </trkpt>
      <trkpt lat="48.578330" lon="1.147510">
        <ele>201</ele>
        <time>2019-08-01T20:52:40Z</time>
      </trkpt>
      <trkpt lat="48.578170" lon="1.146800">
        <ele>204</ele>
        <time>2019-08-01T20:53:18Z</time>
      </trkpt>
      <trkpt lat="48.577230" lon="1.144390">
        <ele>203</ele>
        <time>2019-08-01T20:53:28Z</time>
      </trkpt>
      <trkpt lat="48.576810" lon="1.142420">
        <ele>201</ele>
        <time>2019-08-01T20:53:43Z</time>
      </trkpt>
      <trkpt lat="48.576610" lon="1.141020">
        <ele>193</ele>
        <time>2019-08-01T20:53:50Z</time>
      </trkpt>
      <trkpt lat="48.576550" lon="1.140120">
        <ele>191</ele>
        <time>2019-08-01T20:54:03Z</time>
      </trkpt>
      <trkpt lat="48.576500" lon="1.139650">
        <ele>190</ele>
        <time>2019-08-01T20:54:05Z</time>
      </trkpt>
      <trkpt lat="48.576450" lon="1.138310">
        <ele>189</ele>
        <time>2019-08-01T20:54:10Z</time>
      </trkpt>
      <trkpt lat="48.576470" lon="1.136430">
        <ele>192</ele>
        <time>2019-08-01T20:54:18Z</time>
      </trkpt>
      <trkpt lat="48.576260" lon="1.133170">
        <ele>184</ele>
        <time>2019-08-01T20:54:21Z</time>
      </trkpt>
      <trkpt lat="48.576200" lon="1.132380">
        <ele>178</ele>
        <time>2019-08-01T20:54:49Z</time>
      </trkpt>
      <trkpt lat="48.575970" lon="1.131110">
        <ele>180</ele>
        <time>2019-08-01T20:54:55Z</time>
      </trkpt>
      <trkpt lat="48.575920" lon="1.130500">
        <ele>182</ele>
        <time>2019-08-01T20:55:01Z</time>
      </trkpt>
      <trkpt lat="48.575930" lon="1.129430">
        <ele>182</ele>
        <time>2019-08-01T20:55:05Z</time>
      </trkpt>
      <trkpt lat="48.575970" lon="1.129230">
        <ele>182</ele>
        <time>2019-08-01T20:55:10Z</time>
      </trkpt>
      <trkpt lat="48.576110" lon="1.128940">
        <ele>181</ele>
        <time>2019-08-01T20:55:16Z</time>
      </trkpt>
      <trkpt lat="48.576530" lon="1.128710">
        <ele>179</ele>
        <time>2019-08-01T20:55:21Z</time>
      </trkpt>
      <trkpt lat="48.576710" lon="1.128530">
        <ele>178</ele>
        <time>2019-08-01T20:55:23Z</time>
      </trkpt>
      <trkpt lat="48.577860" lon="1.126920">
        <ele>177</ele>
        <time>2019-08-01T20:55:26Z</time>
      </trkpt>
      <trkpt lat="48.578010" lon="1.126460">
        <ele>178</ele>
        <time>2019-08-01T20:55:38Z</time>
      </trkpt>
      <trkpt lat="48.578130" lon="1.125990">
        <ele>179</ele>
        <time>2019-08-01T20:55:47Z</time>
      </trkpt>
      <trkpt lat="48.578170" lon="1.125680">
        <ele>180</ele>
        <time>2019-08-01T20:55:59Z</time>
      </trkpt>
      <trkpt lat="48.578160" lon="1.125230">
        <ele>180</ele>
        <time>2019-08-01T20:56:10Z</time>
      </trkpt>
      <trkpt lat="48.578130" lon="1.124760">
        <ele>181</ele>
        <time>2019-08-01T20:56:27Z</time>
      </trkpt>
      <trkpt lat="48.578170" lon="1.124300">
        <ele>183</ele>
        <time>2019-08-01T20:56:41Z</time>
      </trkpt>
      <trkpt lat="48.578070" lon="1.124220">
        <ele>183</ele>
        <time>2019-08-01T20:57:07Z</time>
      </trkpt>
      <trkpt lat="48.578010" lon="1.123980">
        <ele>183</ele>
        <time>2019-08-01T20:57:13Z</time>
      </trkpt>
      <trkpt lat="48.577980" lon="1.122990">
        <ele>186</ele>
        <time>2019-08-01T20:57:19Z</time>
      </trkpt>
      <trkpt lat="48.577970" lon="1.122250">
        <ele>188</ele>
        <time>2019-08-01T20:57:28Z</time>
      </trkpt>
      <trkpt lat="48.577900" lon="1.121190">
        <ele>188</ele>
        <time>2019-08-01T20:57:36Z</time>
      </trkpt>
      <trkpt lat="48.577800" lon="1.120310">
        <ele>189</ele>
        <time>2019-08-01T20:57:46Z</time>
      </trkpt>
      <trkpt lat="48.577570" lon="1.118860">
        <ele>191</ele>
        <time>2019-08-01T20:57:51Z</time>
      </trkpt>
      <trkpt lat="48.577520" lon="1.117700">
        <ele>194</ele>
        <time>2019-08-01T20:58:09Z</time>
      </trkpt>
      <trkpt lat="48.577290" lon="1.115520">
        <ele>197</ele>
        <time>2019-08-01T20:58:32Z</time>
      </trkpt>
      <trkpt lat="48.577300" lon="1.115050">
        <ele>197</ele>
        <time>2019-08-01T20:58:51Z</time>
      </trkpt>
      <trkpt lat="48.577370" lon="1.114530">
        <ele>197</ele>
        <time>2019-08-01T20:59:07Z</time>
      </trkpt>
      <trkpt lat="48.577610" lon="1.113820">
        <ele>198</ele>
        <time>2019-08-01T20:59:18Z</time>
      </trkpt>
      <trkpt lat="48.577790" lon="1.113180">
        <ele>199</ele>
        <time>2019-08-01T20:59:23Z</time>
      </trkpt>
      <trkpt lat="48.577930" lon="1.112410">
        <ele>197</ele>
        <time>2019-08-01T21:00:06Z</time>
      </trkpt>
      <trkpt lat="48.577960" lon="1.111960">
        <ele>196</ele>
        <time>2019-08-01T21:00:19Z</time>
      </trkpt>
      <trkpt lat="48.577770" lon="1.110500">
        <ele>195</ele>
        <time>2019-08-01T21:00:29Z</time>
      </trkpt>
      <trkpt lat="48.577410" lon="1.108570">
        <ele>197</ele>
        <time>2019-08-01T21:00:49Z</time>
      </trkpt>
      <trkpt lat="48.577210" lon="1.106980">
        <ele>200</ele>
        <time>2019-08-01T21:01:08Z</time>
      </trkpt>
      <trkpt lat="48.577030" lon="1.105660">
        <ele>201</ele>
        <time>2019-08-01T21:01:34Z</time>
      </trkpt>
      <trkpt lat="48.576760" lon="1.104850">
        <ele>200</ele>
        <time>2019-08-01T21:01:44Z</time>
      </trkpt>
      <trkpt lat="48.576650" lon="1.104420">
        <ele>199</ele>
        <time>2019-08-01T21:01:44Z</time>
      </trkpt>
      <trkpt lat="48.575890" lon="1.101000">
        <ele>197</ele>
        <time>2019-08-01T21:02:23Z</time>
      </trkpt>
      <trkpt lat="48.575460" lon="1.100040">
        <ele>200</ele>
        <time>2019-08-01T21:03:57Z</time>
      </trkpt>
      <trkpt lat="48.575210" lon="1.099290">
        <ele>201</ele>
        <time>2019-08-01T21:07:06Z</time>
      </trkpt>
      <trkpt lat="48.574900" lon="1.097710">
        <ele>203</ele>
        <time>2019-08-01T21:07:16Z</time>
      </trkpt>
      <trkpt lat="48.574500" lon="1.096140">
        <ele>204</ele>
        <time>2019-08-01T21:07:26Z</time>
      </trkpt>
      <trkpt lat="48.573620" lon="1.094420">
        <ele>207</ele>
        <time>2019-08-01T21:08:19Z</time>
      </trkpt>
      <trkpt lat="48.573360" lon="1.093680">
        <ele>210</ele>
        <time>2019-08-01T21:08:27Z</time>
      </trkpt>
      <trkpt lat="48.573360" lon="1.093680">
        <ele>210</ele>
        <time>2019-08-01T21:08:40Z</time>
      </trkpt>
      <trkpt lat="48.572310" lon="1.090780">
        <ele>204</ele>
        <time>2019-08-01T21:08:47Z</time>
      </trkpt>
      <trkpt lat="48.570060" lon="1.083520">
        <ele>209</ele>
        <time>2019-08-01T21:08:53Z</time>
      </trkpt>
      <trkpt lat="48.565500" lon="1.069020">
        <ele>219</ele>
        <time>2019-08-01T21:09:30Z</time>
      </trkpt>
      <trkpt lat="48.565280" lon="1.068270">
        <ele>220</ele>
        <time>2019-08-01T21:09:45Z</time>
      </trkpt>
      <trkpt lat="48.565200" lon="1.067410">
        <ele>220</ele>
        <time>2019-08-01T21:09:55Z</time>
      </trkpt>
      <trkpt lat="48.564280" lon="1.063110">
        <ele>221</ele>
        <time>2019-08-01T21:10:18Z</time>
      </trkpt>
      <trkpt lat="48.564060" lon="1.062570">
        <ele>221</ele>
        <time>2019-08-01T21:10:29Z</time>
      </trkpt>
      <trkpt lat="48.563690" lon="1.061600">
        <ele>223</ele>
        <time>2019-08-01T21:11:25Z</time>
      </trkpt>
      <trkpt lat="48.563620" lon="1.060990">
        <ele>223</ele>
        <time>2019-08-01T21:11:32Z</time>
      </trkpt>
      <trkpt lat="48.563540" lon="1.060550">
        <ele>223</ele>
        <time>2019-08-01T21:11:52Z</time>
      </trkpt>
      <trkpt lat="48.562540" lon="1.057740">
        <ele>225</ele>
        <time>2019-08-01T21:11:54Z</time>
      </trkpt>
      <trkpt lat="48.562130" lon="1.056690">
        <ele>225</ele>
        <time>2019-08-01T21:11:56Z</time>
      </trkpt>
      <trkpt lat="48.561870" lon="1.055850">
        <ele>226</ele>
        <time>2019-08-01T21:11:57Z</time>
      </trkpt>
      <trkpt lat="48.561410" lon="1.054030">
        <ele>225</ele>
        <time>2019-08-01T21:11:58Z</time>
      </trkpt>
      <trkpt lat="48.561180" lon="1.053230">
        <ele>224</ele>
        <time>2019-08-01T21:12:01Z</time>
      </trkpt>
      <trkpt lat="48.559750" lon="1.049000">
        <ele>223</ele>
        <time>2019-08-01T21:12:05Z</time>
      </trkpt>
      <trkpt lat="48.559610" lon="1.048380">
        <ele>223</ele>
        <time>2019-08-01T21:12:11Z</time>
      </trkpt>
      <trkpt lat="48.559420" lon="1.046710">
        <ele>224</ele>
        <time>2019-08-01T21:12:21Z</time>
      </trkpt>
      <trkpt lat="48.559360" lon="1.046560">
        <ele>224</ele>
        <time>2019-08-01T21:12:29Z</time>
      </trkpt>
      <trkpt lat="48.559400" lon="1.046470">
        <ele>224</ele>
        <time>2019-08-01T21:12:36Z</time>
      </trkpt>
      <trkpt lat="48.559390" lon="1.046350">
        <ele>224</ele>
        <time>2019-08-01T21:12:41Z</time>
      </trkpt>
      <trkpt lat="48.559370" lon="1.046300">
        <ele>224</ele>
        <time>2019-08-01T21:13:00Z</time>
      </trkpt>
      <trkpt lat="48.559460" lon="1.046080">
        <ele>223</ele>
        <time>2019-08-01T21:13:07Z</time>
      </trkpt>
      <trkpt lat="48.559530" lon="1.045710">
        <ele>223</ele>
        <time>2019-08-01T21:13:11Z</time>
      </trkpt>
      <trkpt lat="48.559690" lon="1.045320">
        <ele>223</ele>
        <time>2019-08-01T21:13:30Z</time>
      </trkpt>
      <trkpt lat="48.560050" lon="1.044610">
        <ele>221</ele>
        <time>2019-08-01T21:13:31Z</time>
      </trkpt>
      <trkpt lat="48.560350" lon="1.044090">
        <ele>220</ele>
        <time>2019-08-01T21:13:32Z</time>
      </trkpt>
      <trkpt lat="48.560640" lon="1.043760">
        <ele>219</ele>
        <time>2019-08-01T21:13:33Z</time>
      </trkpt>
      <trkpt lat="48.560900" lon="1.043560">
        <ele>219</ele>
        <time>2019-08-01T21:13:34Z</time>
      </trkpt>
      <trkpt lat="48.561930" lon="1.043020">
        <ele>213</ele>
        <time>2019-08-01T21:13:35Z</time>
      </trkpt>
      <trkpt lat="48.562270" lon="1.042790">
        <ele>212</ele>
        <time>2019-08-01T21:13:36Z</time>
      </trkpt>
      <trkpt lat="48.562400" lon="1.042500">
        <ele>211</ele>
        <time>2019-08-01T21:13:42Z</time>
      </trkpt>
      <trkpt lat="48.562900" lon="1.041110">
        <ele>212</ele>
        <time>2019-08-01T21:13:47Z</time>
      </trkpt>
      <trkpt lat="48.562970" lon="1.041110">
        <ele>212</ele>
        <time>2019-08-01T21:13:52Z</time>
      </trkpt>
      <trkpt lat="48.563000" lon="1.041080">
        <ele>212</ele>
        <time>2019-08-01T21:13:58Z</time>
      </trkpt>
      <trkpt lat="48.563030" lon="1.040990">
        <ele>212</ele>
        <time>2019-08-01T21:14:05Z</time>
      </trkpt>
      <trkpt lat="48.563010" lon="1.040900">
        <ele>212</ele>
        <time>2019-08-01T21:14:08Z</time>
      </trkpt>
      <trkpt lat="48.562960" lon="1.040840">
        <ele>212</ele>
        <time>2019-08-01T21:14:11Z</time>
      </trkpt>
      <trkpt lat="48.562900" lon="1.040840">
        <ele>212</ele>
        <time>2019-08-01T21:14:18Z</time>
      </trkpt>
      <trkpt lat="48.562800" lon="1.040390">
        <ele>213</ele>
        <time>2019-08-01T21:14:24Z</time>
      </trkpt>
      <trkpt lat="48.562680" lon="1.040030">
        <ele>213</ele>
        <time>2019-08-01T21:14:31Z</time>
      </trkpt>
      <trkpt lat="48.562500" lon="1.039650">
        <ele>214</ele>
        <time>2019-08-01T21:14:41Z</time>
      </trkpt>
      <trkpt lat="48.562280" lon="1.039260">
        <ele>215</ele>
        <time>2019-08-01T21:14:55Z</time>
      </trkpt>
      <trkpt lat="48.562000" lon="1.038870">
        <ele>215</ele>
        <time>2019-08-01T21:15:05Z</time>
      </trkpt>
      <trkpt lat="48.561890" lon="1.038630">
        <ele>215</ele>
        <time>2019-08-01T21:15:19Z</time>
      </trkpt>
      <trkpt lat="48.561870" lon="1.038380">
        <ele>215</ele>
        <time>2019-08-01T21:15:21Z</time>
      </trkpt>
      <trkpt lat="48.561860" lon="1.037850">
        <ele>216</ele>
        <time>2019-08-01T21:15:22Z</time>
      </trkpt>
      <trkpt lat="48.561880" lon="1.037330">
        <ele>217</ele>
        <time>2019-08-01T21:15:47Z</time>
      </trkpt>
      <trkpt lat="48.561980" lon="1.036700">
        <ele>219</ele>
        <time>2019-08-01T21:15:49Z</time>
      </trkpt>
      <trkpt lat="48.562070" lon="1.035860">
        <ele>219</ele>
        <time>2019-08-01T21:15:49Z</time>
      </trkpt>
      <trkpt lat="48.562150" lon="1.034700">
        <ele>215</ele>
        <time>2019-08-01T21:16:07Z</time>
      </trkpt>
      <trkpt lat="48.562230" lon="1.033840">
        <ele>215</ele>
        <time>2019-08-01T21:16:15Z</time>
      </trkpt>
      <trkpt lat="48.562190" lon="1.032710">
        <ele>217</ele>
        <time>2019-08-01T21:16:18Z</time>
      </trkpt>
      <trkpt lat="48.562160" lon="1.032510">
        <ele>217</ele>
        <time>2019-08-01T21:17:06Z</time>
      </trkpt>
      <trkpt lat="48.562110" lon="1.032430">
        <ele>217</ele>
        <time>2019-08-01T21:17:11Z</time>
      </trkpt>
      <trkpt lat="48.561970" lon="1.030380">
        <ele>224</ele>
        <time>2019-08-01T21:17:20Z</time>
      </trkpt>
      <trkpt lat="48.561970" lon="1.030180">
        <ele>223</ele>
        <time>2019-08-01T21:17:31Z</time>
      </trkpt>
      <trkpt lat="48.561970" lon="1.030180">
        <ele>223</ele>
        <time>2019-08-01T21:17:45Z</time>
      </trkpt>
      <trkpt lat="48.561920" lon="1.028640">
        <ele>221</ele>
        <time>2019-08-01T21:18:13Z</time>
      </trkpt>
      <trkpt lat="48.561800" lon="1.028000">
        <ele>221</ele>
        <time>2019-08-01T21:18:42Z</time>
      </trkpt>
      <trkpt lat="48.561810" lon="1.027760">
        <ele>221</ele>
        <time>2019-08-01T21:18:54Z</time>
      </trkpt>
      <trkpt lat="48.562810" lon="1.023940">
        <ele>225</ele>
        <time>2019-08-01T21:19:27Z</time>
      </trkpt>
      <trkpt lat="48.562900" lon="1.023520">
        <ele>225</ele>
        <time>2019-08-01T21:19:35Z</time>
      </trkpt>
      <trkpt lat="48.562970" lon="1.022770">
        <ele>225</ele>
        <time>2019-08-01T21:19:47Z</time>
      </trkpt>
      <trkpt lat="48.563000" lon="1.021870">
        <ele>227</ele>
        <time>2019-08-01T21:20:04Z</time>
      </trkpt>
      <trkpt lat="48.563010" lon="1.020660">
        <ele>227</ele>
        <time>2019-08-01T21:20:07Z</time>
      </trkpt>
      <trkpt lat="48.562950" lon="1.018270">
        <ele>229</ele>
        <time>2019-08-01T21:20:14Z</time>
      </trkpt>
      <trkpt lat="48.562810" lon="1.015860">
        <ele>230</ele>
        <time>2019-08-01T21:21:29Z</time>
      </trkpt>
      <trkpt lat="48.562720" lon="1.014860">
        <ele>232</ele>
        <time>2019-08-01T21:21:37Z</time>
      </trkpt>
      <trkpt lat="48.562410" lon="1.012040">
        <ele>234</ele>
        <time>2019-08-01T21:21:51Z</time>
      </trkpt>
      <trkpt lat="48.562300" lon="1.011370">
        <ele>234</ele>
        <time>2019-08-01T21:22:36Z</time>
      </trkpt>
      <trkpt lat="48.562130" lon="1.010460">
        <ele>235</ele>
        <time>2019-08-01T21:22:59Z</time>
      </trkpt>
      <trkpt lat="48.561810" lon="1.009100">
        <ele>235</ele>
        <time>2019-08-01T21:23:05Z</time>
      </trkpt>
      <trkpt lat="48.561720" lon="1.008820">
        <ele>236</ele>
        <time>2019-08-01T21:23:11Z</time>
      </trkpt>
      <trkpt lat="48.561530" lon="1.008330">
        <ele>236</ele>
        <time>2019-08-01T21:23:19Z</time>
      </trkpt>
      <trkpt lat="48.559100" lon="1.003120">
        <ele>243</ele>
        <time>2019-08-01T21:23:50Z</time>
      </trkpt>
      <trkpt lat="48.558780" lon="1.002640">
        <ele>245</ele>
        <time>2019-08-01T21:23:57Z</time>
      </trkpt>
      <trkpt lat="48.558260" lon="1.001790">
        <ele>247</ele>
        <time>2019-08-01T21:24:00Z</time>
      </trkpt>
      <trkpt lat="48.556690" lon="0.998790">
        <ele>250</ele>
        <time>2019-08-01T21:24:05Z</time>
      </trkpt>
      <trkpt lat="48.555940" lon="0.997180">
        <ele>253</ele>
        <time>2019-08-01T21:24:27Z</time>
      </trkpt>
      <trkpt lat="48.555720" lon="0.996740">
        <ele>254</ele>
        <time>2019-08-01T21:24:33Z</time>
      </trkpt>
      <trkpt lat="48.555510" lon="0.996360">
        <ele>254</ele>
        <time>2019-08-01T21:24:39Z</time>
      </trkpt>
      <trkpt lat="48.555230" lon="0.995860">
        <ele>254</ele>
        <time>2019-08-01T21:26:02Z</time>
      </trkpt>
      <trkpt lat="48.553990" lon="0.993940">
        <ele>255</ele>
        <time>2019-08-01T21:28:37Z</time>
      </trkpt>
      <trkpt lat="48.553760" lon="0.993540">
        <ele>255</ele>
        <time>2019-08-01T21:28:44Z</time>
      </trkpt>
      <trkpt lat="48.553660" lon="0.993310">
        <ele>256</ele>
        <time>2019-08-01T21:28:50Z</time>
      </trkpt>
      <trkpt lat="48.553540" lon="0.992920">
        <ele>256</ele>
        <time>2019-08-01T21:30:17Z</time>
      </trkpt>
      <trkpt lat="48.553110" lon="0.991210">
        <ele>257</ele>
        <time>2019-08-01T21:30:44Z</time>
      </trkpt>
      <trkpt lat="48.552970" lon="0.990660">
        <ele>258</ele>
        <time>2019-08-01T21:31:39Z</time>
      </trkpt>
      <trkpt lat="48.552880" lon="0.990200">
        <ele>258</ele>
        <time>2019-08-01T21:31:48Z</time>
      </trkpt>
      <trkpt lat="48.551640" lon="0.983440">
        <ele>266</ele>
        <time>2019-08-01T21:31:54Z</time>
      </trkpt>
      <trkpt lat="48.549350" lon="0.970730">
        <ele>273</ele>
        <time>2019-08-01T21:32:05Z</time>
      </trkpt>
      <trkpt lat="48.549220" lon="0.970130">
        <ele>272</ele>
        <time>2019-08-01T21:33:04Z</time>
      </trkpt>
      <trkpt lat="48.549070" lon="0.969660">
        <ele>271</ele>
        <time>2019-08-01T21:33:11Z</time>
      </trkpt>
      <trkpt lat="48.546440" lon="0.963490">
        <ele>265</ele>
        <time>2019-08-01T21:33:16Z</time>
      </trkpt>
      <trkpt lat="48.545720" lon="0.961500">
        <ele>266</ele>
        <time>2019-08-01T21:35:08Z</time>
      </trkpt>
      <trkpt lat="48.544290" lon="0.957320">
        <ele>269</ele>
        <time>2019-08-01T21:35:11Z</time>
      </trkpt>
      <trkpt lat="48.544000" lon="0.956710">
        <ele>267</ele>
        <time>2019-08-01T21:35:14Z</time>
      </trkpt>
      <trkpt lat="48.543770" lon="0.956310">
        <ele>266</ele>
        <time>2019-08-01T21:36:58Z</time>
      </trkpt>
      <trkpt lat="48.543340" lon="0.955710">
        <ele>263</ele>
        <time>2019-08-01T21:37:06Z</time>
      </trkpt>
      <trkpt lat="48.540930" lon="0.952170">
        <ele>248</ele>
        <time>2019-08-01T21:37:07Z</time>
      </trkpt>
      <trkpt lat="48.540680" lon="0.951780">
        <ele>246</ele>
        <time>2019-08-01T21:37:14Z</time>
      </trkpt>
      <trkpt lat="48.540530" lon="0.951430">
        <ele>245</ele>
        <time>2019-08-01T21:37:20Z</time>
      </trkpt>
      <trkpt lat="48.537820" lon="0.942790">
        <ele>225</ele>
        <time>2019-08-01T21:37:56Z</time>
      </trkpt>
      <trkpt lat="48.537740" lon="0.942580">
        <ele>225</ele>
        <time>2019-08-01T21:37:56Z</time>
      </trkpt>
      <trkpt lat="48.537640" lon="0.942360">
        <ele>225</ele>
        <time>2019-08-01T21:38:10Z</time>
      </trkpt>
      <trkpt lat="48.533730" lon="0.935830">
        <ele>210</ele>
        <time>2019-08-01T21:38:16Z</time>
      </trkpt>
      <trkpt lat="48.533450" lon="0.935290">
        <ele>210</ele>
        <time>2019-08-01T21:38:24Z</time>
      </trkpt>
      <trkpt lat="48.533430" lon="0.935240">
        <ele>210</ele>
        <time>2019-08-01T21:38:38Z</time>
      </trkpt>
      <trkpt lat="48.533510" lon="0.934670">
        <ele>210</ele>
        <time>2019-08-01T21:38:42Z</time>
      </trkpt>
      <trkpt lat="48.533650" lon="0.934170">
        <ele>210</ele>
        <time>2019-08-01T21:38:48Z</time>
      </trkpt>
      <trkpt lat="48.534720" lon="0.931550">
        <ele>208</ele>
        <time>2019-08-01T21:38:54Z</time>
      </trkpt>
      <trkpt lat="48.534720" lon="0.931550">
        <ele>208</ele>
        <time>2019-08-01T21:39:31Z</time>
      </trkpt>
      <trkpt lat="48.535140" lon="0.930570">
        <ele>208</ele>
        <time>2019-08-01T21:39:41Z</time>
      </trkpt>
      <trkpt lat="48.535300" lon="0.930110">
        <ele>210</ele>
        <time>2019-08-01T21:39:45Z</time>
      </trkpt>
      <trkpt lat="48.535470" lon="0.929470">
        <ele>211</ele>
        <time>2019-08-01T21:40:21Z</time>
      </trkpt>
      <trkpt lat="48.535690" lon="0.928360">
        <ele>210</ele>
        <time>2019-08-01T21:40:27Z</time>
      </trkpt>
      <trkpt lat="48.535770" lon="0.928040">
        <ele>211</ele>
        <time>2019-08-01T21:40:35Z</time>
      </trkpt>
      <trkpt lat="48.535930" lon="0.927580">
        <ele>212</ele>
        <time>2019-08-01T21:41:19Z</time>
      </trkpt>
      <trkpt lat="48.536120" lon="0.927170">
        <ele>211</ele>
        <time>2019-08-01T21:41:33Z</time>
      </trkpt>
      <trkpt lat="48.537400" lon="0.924690">
        <ele>213</ele>
        <time>2019-08-01T21:41:40Z</time>
      </trkpt>
      <trkpt lat="48.537690" lon="0.924010">
        <ele>211</ele>
        <time>2019-08-01T21:41:57Z</time>
      </trkpt>
      <trkpt lat="48.537800" lon="0.923680">
        <ele>211</ele>
        <time>2019-08-01T21:42:13Z</time>
      </trkpt>
      <trkpt lat="48.538560" lon="0.920860">
        <ele>211</ele>
        <time>2019-08-01T21:42:16Z</time>
      </trkpt>
      <trkpt lat="48.538680" lon="0.920330">
        <ele>212</ele>
        <time>2019-08-01T21:42:29Z</time>
      </trkpt>
      <trkpt lat="48.538780" lon="0.919680">
        <ele>212</ele>
        <time>2019-08-01T21:42:36Z</time>
      </trkpt>
      <trkpt lat="48.539290" lon="0.916030">
        <ele>212</ele>
        <time>2019-08-01T21:42:44Z</time>
      </trkpt>
      <trkpt lat="48.539460" lon="0.914930">
        <ele>212</ele>
        <time>2019-08-01T21:42:50Z</time>
      </trkpt>
      <trkpt lat="48.539590" lon="0.914300">
        <ele>213</ele>
        <time>2019-08-01T21:43:03Z</time>
      </trkpt>
      <trkpt lat="48.539890" lon="0.912970">
        <ele>216</ele>
        <time>2019-08-01T21:43:23Z</time>
      </trkpt>
      <trkpt lat="48.540170" lon="0.911670">
        <ele>214</ele>
        <time>2019-08-01T21:43:33Z</time>
      </trkpt>
      <trkpt lat="48.540200" lon="0.911400">
        <ele>213</ele>
        <time>2019-08-01T21:43:44Z</time>
      </trkpt>
      <trkpt lat="48.540220" lon="0.910280">
        <ele>212</ele>
        <time>2019-08-01T21:43:55Z</time>
      </trkpt>
      <trkpt lat="48.540260" lon="0.909740">
        <ele>211</ele>
        <time>2019-08-01T21:43:59Z</time>
      </trkpt>
      <trkpt lat="48.540360" lon="0.909040">
        <ele>211</ele>
        <time>2019-08-01T21:45:03Z</time>
      </trkpt>
      <trkpt lat="48.540460" lon="0.908550">
        <ele>211</ele>
        <time>2019-08-01T21:45:17Z</time>
      </trkpt>
      <trkpt lat="48.540750" lon="0.907520">
        <ele>211</ele>
        <time>2019-08-01T21:46:34Z</time>
      </trkpt>
      <trkpt lat="48.541200" lon="0.906030">
        <ele>215</ele>
        <time>2019-08-01T21:46:41Z</time>
      </trkpt>
      <trkpt lat="48.541400" lon="0.905200">
        <ele>215</ele>
        <time>2019-08-01T21:46:50Z</time>
      </trkpt>
      <trkpt lat="48.541580" lon="0.904350">
        <ele>217</ele>
        <time>2019-08-01T21:47:06Z</time>
      </trkpt>
      <trkpt lat="48.541680" lon="0.903370">
        <ele>217</ele>
        <time>2019-08-01T21:47:34Z</time>
      </trkpt>
      <trkpt lat="48.541670" lon="0.903090">
        <ele>217</ele>
        <time>2019-08-01T21:47:42Z</time>
      </trkpt>
      <trkpt lat="48.541980" lon="0.897610">
        <ele>217</ele>
        <time>2019-08-01T21:47:47Z</time>
      </trkpt>
      <trkpt lat="48.542020" lon="0.896420">
        <ele>218</ele>
        <time>2019-08-01T21:47:54Z</time>
      </trkpt>
      <trkpt lat="48.542090" lon="0.889920">
        <ele>222</ele>
        <time>2019-08-01T21:49:08Z</time>
      </trkpt>
      <trkpt lat="48.542060" lon="0.889350">
        <ele>221</ele>
        <time>2019-08-01T21:49:18Z</time>
      </trkpt>
      <trkpt lat="48.541890" lon="0.888640">
        <ele>219</ele>
        <time>2019-08-01T21:49:29Z</time>
      </trkpt>
      <trkpt lat="48.541540" lon="0.887400">
        <ele>216</ele>
        <time>2019-08-01T21:49:59Z</time>
      </trkpt>
      <trkpt lat="48.540880" lon="0.885170">
        <ele>219</ele>
        <time>2019-08-01T21:50:42Z</time>
      </trkpt>
      <trkpt lat="48.540720" lon="0.884600">
        <ele>221</ele>
        <time>2019-08-01T21:51:02Z</time>
      </trkpt>
      <trkpt lat="48.540620" lon="0.884160">
        <ele>221</ele>
        <time>2019-08-01T21:51:14Z</time>
      </trkpt>
      <trkpt lat="48.540520" lon="0.883590">
        <ele>221</ele>
        <time>2019-08-01T21:52:09Z</time>
      </trkpt>
      <trkpt lat="48.539580" lon="0.877460">
        <ele>220</ele>
        <time>2019-08-01T21:52:09Z</time>
      </trkpt>
      <trkpt lat="48.539490" lon="0.876610">
        <ele>220</ele>
        <time>2019-08-01T21:53:28Z</time>
      </trkpt>
      <trkpt lat="48.539430" lon="0.875710">
        <ele>221</ele>
        <time>2019-08-01T21:53:39Z</time>
      </trkpt>
      <trkpt lat="48.539390" lon="0.873140">
        <ele>224</ele>
        <time>2019-08-01T21:55:59Z</time>
      </trkpt>
      <trkpt lat="48.539240" lon="0.869480">
        <ele>227</ele>
        <time>2019-08-01T21:56:03Z</time>
      </trkpt>
      <trkpt lat="48.539140" lon="0.867800">
        <ele>228</ele>
        <time>2019-08-01T21:56:06Z</time>
      </trkpt>
      <trkpt lat="48.539020" lon="0.866790">
        <ele>229</ele>
        <time>2019-08-01T21:56:11Z</time>
      </trkpt>
      <trkpt lat="48.538350" lon="0.862260">
        <ele>231</ele>
        <time>2019-08-01T21:56:14Z</time>
      </trkpt>
      <trkpt lat="48.538350" lon="0.862260">
        <ele>231</ele>
        <time>2019-08-01T21:56:17Z</time>
      </trkpt>
      <trkpt lat="48.537680" lon="0.855670">
        <ele>235</ele>
        <time>2019-08-01T21:56:43Z</time>
      </trkpt>
      <trkpt lat="48.537550" lon="0.854710">
        <ele>235</ele>
        <time>2019-08-01T21:56:53Z</time>
      </trkpt>
      <trkpt lat="48.535830" lon="0.843120">
        <ele>234</ele>
        <time>2019-08-01T21:57:01Z</time>
      </trkpt>
      <trkpt lat="48.535770" lon="0.842810">
        <ele>234</ele>
        <time>2019-08-01T21:57:04Z</time>
      </trkpt>
      <trkpt lat="48.535700" lon="0.842610">
        <ele>233</ele>
        <time>2019-08-01T21:57:11Z</time>
      </trkpt>
      <trkpt lat="48.535540" lon="0.842270">
        <ele>233</ele>
        <time>2019-08-01T21:57:20Z</time>
      </trkpt>
      <trkpt lat="48.535400" lon="0.842110">
        <ele>233</ele>
        <time>2019-08-01T21:57:35Z</time>
      </trkpt>
      <trkpt lat="48.535260" lon="0.841980">
        <ele>232</ele>
        <time>2019-08-01T21:57:51Z</time>
      </trkpt>
      <trkpt lat="48.533900" lon="0.841080">
        <ele>233</ele>
        <time>2019-08-01T21:57:57Z</time>
      </trkpt>
      <trkpt lat="48.533410" lon="0.840640">
        <ele>236</ele>
        <time>2019-08-01T21:58:06Z</time>
      </trkpt>
      <trkpt lat="48.533100" lon="0.840220">
        <ele>236</ele>
        <time>2019-08-01T21:58:22Z</time>
      </trkpt>
      <trkpt lat="48.532960" lon="0.839980">
        <ele>236</ele>
        <time>2019-08-01T21:58:33Z</time>
      </trkpt>
      <trkpt lat="48.532750" lon="0.839470">
        <ele>237</ele>
        <time>2019-08-01T21:59:01Z</time>
      </trkpt>
      <trkpt lat="48.532570" lon="0.838830">
        <ele>238</ele>
        <time>2019-08-01T21:59:20Z</time>
      </trkpt>
      <trkpt lat="48.532300" lon="0.837600">
        <ele>238</ele>
        <time>2019-08-01T21:59:26Z</time>
      </trkpt>
      <trkpt lat="48.532000" lon="0.836340">
        <ele>240</ele>
        <time>2019-08-01T21:59:33Z</time>
      </trkpt>
      <trkpt lat="48.531860" lon="0.835850">
        <ele>241</ele>
        <time>2019-08-01T21:59:37Z</time>
      </trkpt>
      <trkpt lat="48.531620" lon="0.835170">
        <ele>243</ele>
        <time>2019-08-01T21:59:57Z</time>
      </trkpt>
      <trkpt lat="48.531080" lon="0.834100">
        <ele>246</ele>
        <time>2019-08-01T22:00:48Z</time>
      </trkpt>
      <trkpt lat="48.530700" lon="0.833380">
        <ele>248</ele>
        <time>2019-08-01T22:01:01Z</time>
      </trkpt>
      <trkpt lat="48.529570" lon="0.831650">
        <ele>245</ele>
        <time>2019-08-01T22:01:42Z</time>
      </trkpt>
      <trkpt lat="48.528820" lon="0.830560">
        <ele>244</ele>
        <time>2019-08-01T22:01:47Z</time>
      </trkpt>
      <trkpt lat="48.528590" lon="0.830180">
        <ele>244</ele>
        <time>2019-08-01T22:01:54Z</time>
      </trkpt>
      <trkpt lat="48.528350" lon="0.829690">
        <ele>243</ele>
        <time>2019-08-01T22:02:00Z</time>
      </trkpt>
      <trkpt lat="48.528250" lon="0.829430">
        <ele>242</ele>
        <time>2019-08-01T22:02:09Z</time>
      </trkpt>
      <trkpt lat="48.527800" lon="0.827810">
        <ele>239</ele>
        <time>2019-08-01T22:02:14Z</time>
      </trkpt>
      <trkpt lat="48.526680" lon="0.823900">
        <ele>243</ele>
        <time>2019-08-01T22:02:20Z</time>
      </trkpt>
      <trkpt lat="48.526330" lon="0.822900">
        <ele>245</ele>
        <time>2019-08-01T22:02:28Z</time>
      </trkpt>
      <trkpt lat="48.525350" lon="0.819710">
        <ele>241</ele>
        <time>2019-08-01T22:03:43Z</time>
      </trkpt>
      <trkpt lat="48.525220" lon="0.819390">
        <ele>241</ele>
        <time>2019-08-01T22:03:53Z</time>
      </trkpt>
      <trkpt lat="48.524950" lon="0.818910">
        <ele>241</ele>
        <time>2019-08-01T22:04:01Z</time>
      </trkpt>
      <trkpt lat="48.524720" lon="0.818540">
        <ele>242</ele>
        <time>2019-08-01T22:04:08Z</time>
      </trkpt>
      <trkpt lat="48.524370" lon="0.818030">
        <ele>243</ele>
        <time>2019-08-01T22:04:20Z</time>
      </trkpt>
      <trkpt lat="48.524190" lon="0.817680">
        <ele>244</ele>
        <time>2019-08-01T22:04:29Z</time>
      </trkpt>
      <trkpt lat="48.524000" lon="0.817210">
        <ele>244</ele>
        <time>2019-08-01T22:04:35Z</time>
      </trkpt>
      <trkpt lat="48.523830" lon="0.816650">
        <ele>243</ele>
        <time>2019-08-01T22:04:45Z</time>
      </trkpt>
      <trkpt lat="48.521960" lon="0.810930">
        <ele>247</ele>
        <time>2019-08-01T22:04:48Z</time>
      </trkpt>
      <trkpt lat="48.521700" lon="0.810200">
        <ele>245</ele>
        <time>2019-08-01T22:04:53Z</time>
      </trkpt>
      <trkpt lat="48.521460" lon="0.809590">
        <ele>246</ele>
        <time>2019-08-01T22:04:56Z</time>
      </trkpt>
      <trkpt lat="48.521240" lon="0.809080">
        <ele>247</ele>
        <time>2019-08-01T22:05:02Z</time>
      </trkpt>
      <trkpt lat="48.520850" lon="0.808260">
        <ele>245</ele>
        <time>2019-08-01T22:05:11Z</time>
      </trkpt>
      <trkpt lat="48.520530" lon="0.807690">
        <ele>241</ele>
        <time>2019-08-01T22:05:17Z</time>
      </trkpt>
      <trkpt lat="48.520290" lon="0.807320">
        <ele>238</ele>
        <time>2019-08-01T22:05:22Z</time>
      </trkpt>
      <trkpt lat="48.519880" lon="0.806760">
        <ele>232</ele>
        <time>2019-08-01T22:05:24Z</time>
      </trkpt>
      <trkpt lat="48.519760" lon="0.806520">
        <ele>231</ele>
        <time>2019-08-01T22:05:37Z</time>
      </trkpt>
      <trkpt lat="48.519680" lon="0.806130">
        <ele>230</ele>
        <time>2019-08-01T22:05:44Z</time>
      </trkpt>
      <trkpt lat="48.519660" lon="0.805870">
        <ele>228</ele>
        <time>2019-08-01T22:05:46Z</time>
      </trkpt>
      <trkpt lat="48.519700" lon="0.805370">
        <ele>225</ele>
        <time>2019-08-01T22:05:53Z</time>
      </trkpt>
      <trkpt lat="48.519800" lon="0.804630">
        <ele>219</ele>
        <time>2019-08-01T22:05:57Z</time>
      </trkpt>
      <trkpt lat="48.519810" lon="0.804160">
        <ele>215</ele>
        <time>2019-08-01T22:06:13Z</time>
      </trkpt>
      <trkpt lat="48.519750" lon="0.803730">
        <ele>213</ele>
        <time>2019-08-01T22:06:17Z</time>
      </trkpt>
      <trkpt lat="48.519690" lon="0.803530">
        <ele>212</ele>
        <time>2019-08-01T22:06:24Z</time>
      </trkpt>
      <trkpt lat="48.519370" lon="0.802620">
        <ele>208</ele>
        <time>2019-08-01T22:06:27Z</time>
      </trkpt>
      <trkpt lat="48.519220" lon="0.802070">
        <ele>206</ele>
        <time>2019-08-01T22:06:39Z</time>
      </trkpt>
      <trkpt lat="48.519190" lon="0.801840">
        <ele>205</ele>
        <time>2019-08-01T22:06:45Z</time>
      </trkpt>
      <trkpt lat="48.519170" lon="0.801320">
        <ele>203</ele>
        <time>2019-08-01T22:06:53Z</time>
      </trkpt>
      <trkpt lat="48.519180" lon="0.800980">
        <ele>202</ele>
        <time>2019-08-01T22:06:56Z</time>
      </trkpt>
      <trkpt lat="48.519280" lon="0.799620">
        <ele>202</ele>
        <time>2019-08-01T22:07:37Z</time>
      </trkpt>
      <trkpt lat="48.519290" lon="0.799220">
        <ele>201</ele>
        <time>2019-08-01T22:07:41Z</time>
      </trkpt>
      <trkpt lat="48.519250" lon="0.798670">
        <ele>200</ele>
        <time>2019-08-01T22:07:49Z</time>
      </trkpt>
      <trkpt lat="48.519210" lon="0.798420">
        <ele>199</ele>
        <time>2019-08-01T22:08:11Z</time>
      </trkpt>
      <trkpt lat="48.518970" lon="0.797470">
        <ele>199</ele>
        <time>2019-08-01T22:08:15Z</time>
      </trkpt>
      <trkpt lat="48.518870" lon="0.796970">
        <ele>198</ele>
        <time>2019-08-01T22:08:16Z</time>
      </trkpt>
      <trkpt lat="48.518770" lon="0.796320">
        <ele>199</ele>
        <time>2019-08-01T22:08:19Z</time>
      </trkpt>
      <trkpt lat="48.518740" lon="0.796020">
        <ele>199</ele>
        <time>2019-08-01T22:08:42Z</time>
      </trkpt>
      <trkpt lat="48.518600" lon="0.792570">
        <ele>199</ele>
        <time>2019-08-01T22:08:42Z</time>
      </trkpt>
      <trkpt lat="48.518600" lon="0.792220">
        <ele>200</ele>
        <time>2019-08-01T22:09:17Z</time>
      </trkpt>
      <trkpt lat="48.518640" lon="0.791560">
        <ele>201</ele>
        <time>2019-08-01T22:09:20Z</time>
      </trkpt>
      <trkpt lat="48.518890" lon="0.789720">
        <ele>205</ele>
        <time>2019-08-01T22:09:25Z</time>
      </trkpt>
      <trkpt lat="48.518910" lon="0.789440">
        <ele>205</ele>
        <time>2019-08-01T22:09:31Z</time>
      </trkpt>
      <trkpt lat="48.518890" lon="0.789310">
        <ele>206</ele>
        <time>2019-08-01T22:09:37Z</time>
      </trkpt>
      <trkpt lat="48.518800" lon="0.789120">
        <ele>206</ele>
        <time>2019-08-01T22:09:41Z</time>
      </trkpt>
      <trkpt lat="48.519650" lon="0.787610">
        <ele>213</ele>
        <time>2019-08-01T22:09:49Z</time>
      </trkpt>
      <trkpt lat="48.519650" lon="0.787610">
        <ele>213</ele>
        <time>2019-08-01T22:10:07Z</time>
      </trkpt>
      <trkpt lat="48.520900" lon="0.785390">
        <ele>223</ele>
        <time>2019-08-01T22:10:17Z</time>
      </trkpt>
      <trkpt lat="48.521000" lon="0.785160">
        <ele>223</ele>
        <time>2019-08-01T22:10:28Z</time>
      </trkpt>
      <trkpt lat="48.521140" lon="0.784780">
        <ele>222</ele>
        <time>2019-08-01T22:10:32Z</time>
      </trkpt>
      <trkpt lat="48.521250" lon="0.784280">
        <ele>219</ele>
        <time>2019-08-01T22:10:37Z</time>
      </trkpt>
      <trkpt lat="48.521310" lon="0.783770">
        <ele>217</ele>
        <time>2019-08-01T22:10:52Z</time>
      </trkpt>
      <trkpt lat="48.521330" lon="0.783430">
        <ele>216</ele>
        <time>2019-08-01T22:10:57Z</time>
      </trkpt>
      <trkpt lat="48.521300" lon="0.782810">
        <ele>214</ele>
        <time>2019-08-01T22:11:05Z</time>
      </trkpt>
      <trkpt lat="48.521150" lon="0.781270">
        <ele>216</ele>
        <time>2019-08-01T22:11:16Z</time>
      </trkpt>
      <trkpt lat="48.521100" lon="0.780460">
        <ele>214</ele>
        <time>2019-08-01T22:11:23Z</time>
      </trkpt>
      <trkpt lat="48.521160" lon="0.779480">
        <ele>210</ele>
        <time>2019-08-01T22:12:09Z</time>
      </trkpt>
      <trkpt lat="48.521220" lon="0.779160">
        <ele>209</ele>
        <time>2019-08-01T22:12:16Z</time>
      </trkpt>
      <trkpt lat="48.521270" lon="0.778730">
        <ele>207</ele>
        <time>2019-08-01T22:12:20Z</time>
      </trkpt>
      <trkpt lat="48.521460" lon="0.777520">
        <ele>206</ele>
        <time>2019-08-01T22:12:25Z</time>
      </trkpt>
      <trkpt lat="48.521540" lon="0.777130">
        <ele>206</ele>
        <time>2019-08-01T22:12:28Z</time>
      </trkpt>
      <trkpt lat="48.521760" lon="0.776490">
        <ele>205</ele>
        <time>2019-08-01T22:12:35Z</time>
      </trkpt>
      <trkpt lat="48.522150" lon="0.775790">
        <ele>197</ele>
        <time>2019-08-01T22:12:57Z</time>
      </trkpt>
      <trkpt lat="48.522430" lon="0.775420">
        <ele>192</ele>
        <time>2019-08-01T22:13:11Z</time>
      </trkpt>
      <trkpt lat="48.524480" lon="0.772930">
        <ele>180</ele>
        <time>2019-08-01T22:13:45Z</time>
      </trkpt>
      <trkpt lat="48.524750" lon="0.772550">
        <ele>181</ele>
        <time>2019-08-01T22:14:05Z</time>
      </trkpt>
      <trkpt lat="48.524910" lon="0.772270">
        <ele>182</ele>
        <time>2019-08-01T22:14:11Z</time>
      </trkpt>
      <trkpt lat="48.525050" lon="0.771980">
        <ele>183</ele>
        <time>2019-08-01T22:14:18Z</time>
      </trkpt>
      <trkpt lat="48.525140" lon="0.771720">
        <ele>185</ele>
        <time>2019-08-01T22:14:30Z</time>
      </trkpt>
      <trkpt lat="48.525310" lon="0.771170">
        <ele>185</ele>
        <time>2019-08-01T22:14:36Z</time>
      </trkpt>
      <trkpt lat="48.525670" lon="0.769390">
        <ele>185</ele>
        <time>2019-08-01T22:14:42Z</time>
      </trkpt>
      <trkpt lat="48.525970" lon="0.768290">
        <ele>184</ele>
        <time>2019-08-01T22:15:02Z</time>
      </trkpt>
      <trkpt lat="48.526860" lon="0.765750">
        <ele>183</ele>
        <time>2019-08-01T22:15:08Z</time>
      </trkpt>
      <trkpt lat="48.527410" lon="0.764320">
        <ele>179</ele>
        <time>2019-08-01T22:15:25Z</time>
      </trkpt>
      <trkpt lat="48.527550" lon="0.763790">
        <ele>179</ele>
        <time>2019-08-01T22:15:32Z</time>
      </trkpt>
      <trkpt lat="48.527650" lon="0.763230">
        <ele>179</ele>
        <time>2019-08-01T22:15:36Z</time>
      </trkpt>
      <trkpt lat="48.527750" lon="0.762240">
        <ele>179</ele>
        <time>2019-08-01T22:15:40Z</time>
      </trkpt>
      <trkpt lat="48.527830" lon="0.761770">
        <ele>178</ele>
        <time>2019-08-01T22:15:42Z</time>
      </trkpt>
      <trkpt lat="48.527950" lon="0.761300">
        <ele>179</ele>
        <time>2019-08-01T22:15:46Z</time>
      </trkpt>
      <trkpt lat="48.528440" lon="0.759770">
        <ele>177</ele>
        <time>2019-08-01T22:15:55Z</time>
      </trkpt>
      <trkpt lat="48.528570" lon="0.759240">
        <ele>178</ele>
        <time>2019-08-01T22:15:57Z</time>
      </trkpt>
      <trkpt lat="48.528830" lon="0.757840">
        <ele>175</ele>
        <time>2019-08-01T22:15:59Z</time>
      </trkpt>
      <trkpt lat="48.528960" lon="0.757330">
        <ele>173</ele>
        <time>2019-08-01T22:16:03Z</time>
      </trkpt>
      <trkpt lat="48.529080" lon="0.757030">
        <ele>172</ele>
        <time>2019-08-01T22:16:14Z</time>
      </trkpt>
      <trkpt lat="48.529270" lon="0.756770">
        <ele>172</ele>
        <time>2019-08-01T22:16:23Z</time>
      </trkpt>
      <trkpt lat="48.529360" lon="0.756730">
        <ele>172</ele>
        <time>2019-08-01T22:16:27Z</time>
      </trkpt>
      <trkpt lat="48.529590" lon="0.756660">
        <ele>172</ele>
        <time>2019-08-01T22:16:36Z</time>
      </trkpt>
      <trkpt lat="48.530080" lon="0.756590">
        <ele>173</ele>
        <time>2019-08-01T22:16:40Z</time>
      </trkpt>
      <trkpt lat="48.530180" lon="0.756510">
        <ele>173</ele>
        <time>2019-08-01T22:16:42Z</time>
      </trkpt>
      <trkpt lat="48.530240" lon="0.756380">
        <ele>172</ele>
        <time>2019-08-01T22:16:49Z</time>
      </trkpt>
      <trkpt lat="48.530340" lon="0.756090">
        <ele>170</ele>
        <time>2019-08-01T22:16:51Z</time>
      </trkpt>
      <trkpt lat="48.530590" lon="0.755250">
        <ele>169</ele>
        <time>2019-08-01T22:16:52Z</time>
      </trkpt>
      <trkpt lat="48.530840" lon="0.754510">
        <ele>168</ele>
        <time>2019-08-01T22:16:54Z</time>
      </trkpt>
      <trkpt lat="48.530890" lon="0.754230">
        <ele>168</ele>
        <time>2019-08-01T22:16:56Z</time>
      </trkpt>
      <trkpt lat="48.530970" lon="0.753480">
        <ele>170</ele>
        <time>2019-08-01T22:17:01Z</time>
      </trkpt>
      <trkpt lat="48.531040" lon="0.753120">
        <ele>170</ele>
        <time>2019-08-01T22:17:03Z</time>
      </trkpt>
      <trkpt lat="48.531100" lon="0.752980">
        <ele>170</ele>
        <time>2019-08-01T22:17:05Z</time>
      </trkpt>
      <trkpt lat="48.531350" lon="0.752580">
        <ele>172</ele>
        <time>2019-08-01T22:17:10Z</time>
      </trkpt>
      <trkpt lat="48.531320" lon="0.752400">
        <ele>171</ele>
        <time>2019-08-01T22:17:23Z</time>
      </trkpt>
      <trkpt lat="48.531280" lon="0.752310">
        <ele>171</ele>
        <time>2019-08-01T22:17:23Z</time>
      </trkpt>
      <trkpt lat="48.531200" lon="0.752270">
        <ele>171</ele>
        <time>2019-08-01T22:17:33Z</time>
      </trkpt>
      <trkpt lat="48.531080" lon="0.752260">
        <ele>170</ele>
        <time>2019-08-01T22:17:38Z</time>
      </trkpt>
      <trkpt lat="48.530880" lon="0.752550">
        <ele>169</ele>
        <time>2019-08-01T22:17:49Z</time>
      </trkpt>
      <trkpt lat="48.530780" lon="0.752610">
        <ele>169</ele>
        <time>2019-08-01T22:17:55Z</time>
      </trkpt>
      <trkpt lat="48.530620" lon="0.752600">
        <ele>168</ele>
        <time>2019-08-01T22:17:59Z</time>
      </trkpt>
      <trkpt lat="48.530400" lon="0.752490">
        <ele>168</ele>
        <time>2019-08-01T22:18:03Z</time>
      </trkpt>
      <trkpt lat="48.529740" lon="0.751980">
        <ele>168</ele>
        <time>2019-08-01T22:18:05Z</time>
      </trkpt>
      <trkpt lat="48.529740" lon="0.751980">
        <ele>168</ele>
        <time>2019-08-01T22:18:07Z</time>
      </trkpt>
      <trkpt lat="48.529220" lon="0.751620">
        <ele>168</ele>
        <time>2019-08-01T22:18:15Z</time>
      </trkpt>
      <trkpt lat="48.529010" lon="0.751390">
        <ele>168</ele>
        <time>2019-08-01T22:18:21Z</time>
      </trkpt>
      <trkpt lat="48.529350" lon="0.750600">
        <ele>171</ele>
        <time>2019-08-01T22:18:23Z</time>
      </trkpt>
      <trkpt lat="48.529560" lon="0.750210">
        <ele>173</ele>
        <time>2019-08-01T22:18:31Z</time>
      </trkpt>
      <trkpt lat="48.529730" lon="0.749920">
        <ele>174</ele>
        <time>2019-08-01T22:18:34Z</time>
      </trkpt>
      <trkpt lat="48.529920" lon="0.749840">
        <ele>175</ele>
        <time>2019-08-01T22:18:38Z</time>
      </trkpt>
      <trkpt lat="48.530010" lon="0.749750">
        <ele>176</ele>
        <time>2019-08-01T22:18:42Z</time>
      </trkpt>
      <trkpt lat="48.530060" lon="0.749600">
        <ele>177</ele>
        <time>2019-08-01T22:18:54Z</time>
      </trkpt>
      <trkpt lat="48.530220" lon="0.748890">
        <ele>181</ele>
        <time>2019-08-01T22:19:03Z</time>
      </trkpt>
      <trkpt lat="48.530270" lon="0.748460">
        <ele>183</ele>
        <time>2019-08-01T22:19:08Z</time>
      </trkpt>
      <trkpt lat="48.530240" lon="0.748230">
        <ele>184</ele>
        <time>2019-08-01T22:19:13Z</time>
      </trkpt>
      <trkpt lat="48.530120" lon="0.747630">
        <ele>188</ele>
        <time>2019-08-01T22:19:25Z</time>
      </trkpt>
      <trkpt lat="48.530090" lon="0.747320">
        <ele>190</ele>
        <time>2019-08-01T22:19:42Z</time>
      </trkpt>
      <trkpt lat="48.530100" lon="0.747050">
        <ele>192</ele>
        <time>2019-08-01T22:19:51Z</time>
      </trkpt>
      <trkpt lat="48.530180" lon="0.746670">
        <ele>194</ele>
        <time>2019-08-01T22:20:12Z</time>
      </trkpt>
      <trkpt lat="48.530440" lon="0.745720">
        <ele>198</ele>
        <time>2019-08-01T22:20:14Z</time>
      </trkpt>
      <trkpt lat="48.530590" lon="0.744990">
        <ele>201</ele>
        <time>2019-08-01T22:20:14Z</time>
      </trkpt>
      <trkpt lat="48.530650" lon="0.744570">
        <ele>204</ele>
        <time>2019-08-01T22:20:25Z</time>
      </trkpt>
      <trkpt lat="48.530680" lon="0.744150">
        <ele>208</ele>
        <time>2019-08-01T22:20:33Z</time>
      </trkpt>
      <trkpt lat="48.530700" lon="0.743170">
        <ele>213</ele>
        <time>2019-08-01T22:20:55Z</time>
      </trkpt>
      <trkpt lat="48.530440" lon="0.741790">
        <ele>219</ele>
        <time>2019-08-01T22:21:05Z</time>
      </trkpt>
      <trkpt lat="48.530350" lon="0.741000">
        <ele>219</ele>
        <time>2019-08-01T22:21:18Z</time>
      </trkpt>
      <trkpt lat="48.530230" lon="0.739290">
        <ele>219</ele>
        <time>2019-08-01T22:21:30Z</time>
      </trkpt>
      <trkpt lat="48.530200" lon="0.739100">
        <ele>219</ele>
        <time>2019-08-01T22:21:38Z</time>
      </trkpt>
      <trkpt lat="48.530200" lon="0.739100">
        <ele>219</ele>
        <time>2019-08-01T22:21:50Z</time>
      </trkpt>
      <trkpt lat="48.530040" lon="0.738190">
        <ele>220</ele>
        <time>2019-08-01T22:22:12Z</time>
      </trkpt>
      <trkpt lat="48.529970" lon="0.737520">
        <ele>219</ele>
        <time>2019-08-01T22:22:24Z</time>
      </trkpt>
      <trkpt lat="48.529850" lon="0.735650">
        <ele>220</ele>
        <time>2019-08-01T22:22:34Z</time>
      </trkpt>
      <trkpt lat="48.529740" lon="0.734840">
        <ele>221</ele>
        <time>2019-08-01T22:22:45Z</time>
      </trkpt>
      <trkpt lat="48.529540" lon="0.733730">
        <ele>222</ele>
        <time>2019-08-01T22:22:51Z</time>
      </trkpt>
      <trkpt lat="48.529410" lon="0.732730">
        <ele>224</ele>
        <time>2019-08-01T22:23:13Z</time>
      </trkpt>
      <trkpt lat="48.529380" lon="0.732090">
        <ele>224</ele>
        <time>2019-08-01T22:23:37Z</time>
      </trkpt>
      <trkpt lat="48.529410" lon="0.731030">
        <ele>224</ele>
        <time>2019-08-01T22:23:47Z</time>
      </trkpt>
      <trkpt lat="48.529540" lon="0.729200">
        <ele>223</ele>
        <time>2019-08-01T22:23:53Z</time>
      </trkpt>
      <trkpt lat="48.529550" lon="0.728230">
        <ele>223</ele>
        <time>2019-08-01T22:24:04Z</time>
      </trkpt>
      <trkpt lat="48.529500" lon="0.727310">
        <ele>223</ele>
        <time>2019-08-01T22:24:27Z</time>
      </trkpt>
      <trkpt lat="48.529400" lon="0.726470">
        <ele>222</ele>
        <time>2019-08-01T22:25:17Z</time>
      </trkpt>
      <trkpt lat="48.529370" lon="0.725930">
        <ele>221</ele>
        <time>2019-08-01T22:25:30Z</time>
      </trkpt>
      <trkpt lat="48.529380" lon="0.724050">
        <ele>221</ele>
        <time>2019-08-01T22:25:41Z</time>
      </trkpt>
      <trkpt lat="48.529270" lon="0.722000">
        <ele>222</ele>
        <time>2019-08-01T22:25:46Z</time>
      </trkpt>
      <trkpt lat="48.529190" lon="0.721210">
        <ele>222</ele>
        <time>2019-08-01T22:25:52Z</time>
      </trkpt>
      <trkpt lat="48.529100" lon="0.720720">
        <ele>222</ele>
        <time>2019-08-01T22:26:01Z</time>
      </trkpt>
      <trkpt lat="48.528830" lon="0.719830">
        <ele>224</ele>
        <time>2019-08-01T22:26:13Z</time>
      </trkpt>
      <trkpt lat="48.528240" lon="0.718110">
        <ele>227</ele>
        <time>2019-08-01T22:27:08Z</time>
      </trkpt>
      <trkpt lat="48.526890" lon="0.714410">
        <ele>231</ele>
        <time>2019-08-01T22:27:13Z</time>
      </trkpt>
      <trkpt lat="48.526420" lon="0.713530">
        <ele>231</ele>
        <time>2019-08-01T22:27:17Z</time>
      </trkpt>
      <trkpt lat="48.526060" lon="0.712770">
        <ele>233</ele>
        <time>2019-08-01T22:27:29Z</time>
      </trkpt>
      <trkpt lat="48.525940" lon="0.712390">
        <ele>234</ele>
        <time>2019-08-01T22:27:34Z</time>
      </trkpt>
      <trkpt lat="48.525830" lon="0.711930">
        <ele>233</ele>
        <time>2019-08-01T22:27:43Z</time>
      </trkpt>
      <trkpt lat="48.525690" lon="0.711170">
        <ele>232</ele>
        <time>2019-08-01T22:27:50Z</time>
      </trkpt>
      <trkpt lat="48.525460" lon="0.710270">
        <ele>230</ele>
        <time>2019-08-01T22:27:54Z</time>
      </trkpt>
      <trkpt lat="48.524190" lon="0.705930">
        <ele>221</ele>
        <time>2019-08-01T22:27:59Z</time>
      </trkpt>
      <trkpt lat="48.524010" lon="0.705640">
        <ele>220</ele>
        <time>2019-08-01T22:28:17Z</time>
      </trkpt>
      <trkpt lat="48.523820" lon="0.705480">
        <ele>221</ele>
        <time>2019-08-01T22:28:31Z</time>
      </trkpt>
      <trkpt lat="48.523220" lon="0.705100">
        <ele>222</ele>
        <time>2019-08-01T22:28:44Z</time>
      </trkpt>
      <trkpt lat="48.522980" lon="0.704890">
        <ele>221</ele>
        <time>2019-08-01T22:28:56Z</time>
      </trkpt>
      <trkpt lat="48.522570" lon="0.704420">
        <ele>213</ele>
        <time>2019-08-01T22:29:04Z</time>
      </trkpt>
      <trkpt lat="48.522230" lon="0.704080">
        <ele>207</ele>
        <time>2019-08-01T22:29:08Z</time>
      </trkpt>
      <trkpt lat="48.522040" lon="0.703950">
        <ele>205</ele>
        <time>2019-08-01T22:29:31Z</time>
      </trkpt>
      <trkpt lat="48.521730" lon="0.703900">
        <ele>205</ele>
        <time>2019-08-01T22:29:39Z</time>
      </trkpt>
      <trkpt lat="48.520710" lon="0.703900">
        <ele>197</ele>
        <time>2019-08-01T22:29:45Z</time>
      </trkpt>
      <trkpt lat="48.519930" lon="0.703950">
        <ele>193</ele>
        <time>2019-08-01T22:29:52Z</time>
      </trkpt>
      <trkpt lat="48.519220" lon="0.703890">
        <ele>191</ele>
        <time>2019-08-01T22:29:58Z</time>
      </trkpt>
      <trkpt lat="48.518530" lon="0.703750">
        <ele>187</ele>
        <time>2019-08-01T22:30:03Z</time>
      </trkpt>
      <trkpt lat="48.518090" lon="0.703690">
        <ele>186</ele>
        <time>2019-08-01T22:30:10Z</time>
      </trkpt>
      <trkpt lat="48.517880" lon="0.703680">
        <ele>185</ele>
        <time>2019-08-01T22:30:17Z</time>
      </trkpt>
      <trkpt lat="48.516620" lon="0.703960">
        <ele>181</ele>
        <time>2019-08-01T22:30:23Z</time>
      </trkpt>
      <trkpt lat="48.516130" lon="0.703990">
        <ele>173</ele>
        <time>2019-08-01T22:30:30Z</time>
      </trkpt>
      <trkpt lat="48.515830" lon="0.703950">
        <ele>168</ele>
        <time>2019-08-01T22:30:37Z</time>
      </trkpt>
      <trkpt lat="48.515420" lon="0.703810">
        <ele>165</ele>
        <time>2019-08-01T22:30:42Z</time>
      </trkpt>
      <trkpt lat="48.515120" lon="0.703660">
        <ele>163</ele>
        <time>2019-08-01T22:30:47Z</time>
      </trkpt>
      <trkpt lat="48.514850" lon="0.703480">
        <ele>161</ele>
        <time>2019-08-01T22:30:51Z</time>
      </trkpt>
      <trkpt lat="48.514490" lon="0.703160">
        <ele>159</ele>
        <time>2019-08-01T22:30:57Z</time>
      </trkpt>
      <trkpt lat="48.514200" lon="0.702810">
        <ele>158</ele>
        <time>2019-08-01T22:31:00Z</time>
      </trkpt>
      <trkpt lat="48.513940" lon="0.702430">
        <ele>157</ele>
        <time>2019-08-01T22:31:07Z</time>
      </trkpt>
      <trkpt lat="48.513710" lon="0.701950">
        <ele>158</ele>
        <time>2019-08-01T22:31:14Z</time>
      </trkpt>
      <trkpt lat="48.513520" lon="0.701510">
        <ele>160</ele>
        <time>2019-08-01T22:31:20Z</time>
      </trkpt>
      <trkpt lat="48.513400" lon="0.701060">
        <ele>160</ele>
        <time>2019-08-01T22:31:37Z</time>
      </trkpt>
      <trkpt lat="48.513340" lon="0.700650">
        <ele>162</ele>
        <time>2019-08-01T22:31:47Z</time>
      </trkpt>
      <trkpt lat="48.513320" lon="0.700310">
        <ele>165</ele>
        <time>2019-08-01T22:31:55Z</time>
      </trkpt>
      <trkpt lat="48.513330" lon="0.699870">
        <ele>168</ele>
        <time>2019-08-01T22:32:08Z</time>
      </trkpt>
      <trkpt lat="48.513360" lon="0.699580">
        <ele>169</ele>
        <time>2019-08-01T22:32:34Z</time>
      </trkpt>
      <trkpt lat="48.513490" lon="0.698990">
        <ele>172</ele>
        <time>2019-08-01T22:32:36Z</time>
      </trkpt>
      <trkpt lat="48.513670" lon="0.698470">
        <ele>175</ele>
        <time>2019-08-01T22:32:39Z</time>
      </trkpt>
      <trkpt lat="48.513840" lon="0.698070">
        <ele>177</ele>
        <time>2019-08-01T22:32:44Z</time>
      </trkpt>
      <trkpt lat="48.514440" lon="0.696930">
        <ele>181</ele>
        <time>2019-08-01T22:32:48Z</time>
      </trkpt>
      <trkpt lat="48.514760" lon="0.696270">
        <ele>183</ele>
        <time>2019-08-01T22:32:55Z</time>
      </trkpt>
      <trkpt lat="48.514970" lon="0.695680">
        <ele>184</ele>
        <time>2019-08-01T22:32:57Z</time>
      </trkpt>
      <trkpt lat="48.515260" lon="0.694630">
        <ele>195</ele>
        <time>2019-08-01T22:33:04Z</time>
      </trkpt>
      <trkpt lat="48.515750" lon="0.692550">
        <ele>208</ele>
        <time>2019-08-01T22:33:07Z</time>
      </trkpt>
      <trkpt lat="48.515820" lon="0.692370">
        <ele>209</ele>
        <time>2019-08-01T22:33:10Z</time>
      </trkpt>
      <trkpt lat="48.515930" lon="0.692190">
        <ele>210</ele>
        <time>2019-08-01T22:33:14Z</time>
      </trkpt>
      <trkpt lat="48.516120" lon="0.691940">
        <ele>212</ele>
        <time>2019-08-01T22:34:08Z</time>
      </trkpt>
      <trkpt lat="48.516320" lon="0.691760">
        <ele>214</ele>
        <time>2019-08-01T22:34:47Z</time>
      </trkpt>
      <trkpt lat="48.516660" lon="0.691530">
        <ele>216</ele>
        <time>2019-08-01T22:34:56Z</time>
      </trkpt>
      <trkpt lat="48.516770" lon="0.691420">
        <ele>216</ele>
        <time>2019-08-01T22:35:08Z</time>
      </trkpt>
      <trkpt lat="48.517030" lon="0.691010">
        <ele>219</ele>
        <time>2019-08-01T22:35:22Z</time>
      </trkpt>
      <trkpt lat="48.517110" lon="0.690780">
        <ele>220</ele>
        <time>2019-08-01T22:35:32Z</time>
      </trkpt>
      <trkpt lat="48.517170" lon="0.690490">
        <ele>221</ele>
        <time>2019-08-01T22:35:41Z</time>
      </trkpt>
      <trkpt lat="48.517200" lon="0.690140">
        <ele>223</ele>
        <time>2019-08-01T22:35:47Z</time>
      </trkpt>
      <trkpt lat="48.516990" lon="0.685620">
        <ele>240</ele>
        <time>2019-08-01T22:35:47Z</time>
      </trkpt>
      <trkpt lat="48.516710" lon="0.682330">
        <ele>238</ele>
        <time>2019-08-01T22:35:54Z</time>
      </trkpt>
      <trkpt lat="48.516670" lon="0.681600">
        <ele>237</ele>
        <time>2019-08-01T22:36:17Z</time>
      </trkpt>
      <trkpt lat="48.516660" lon="0.680560">
        <ele>241</ele>
        <time>2019-08-01T22:36:30Z</time>
      </trkpt>
      <trkpt lat="48.516730" lon="0.679340">
        <ele>244</ele>
        <time>2019-08-01T22:36:46Z</time>
      </trkpt>
      <trkpt lat="48.516910" lon="0.678580">
        <ele>244</ele>
        <time>2019-08-01T22:36:55Z</time>
      </trkpt>
      <trkpt lat="48.517200" lon="0.677970">
        <ele>247</ele>
        <time>2019-08-01T22:37:07Z</time>
      </trkpt>
      <trkpt lat="48.517480" lon="0.677580">
        <ele>249</ele>
        <time>2019-08-01T22:37:13Z</time>
      </trkpt>
      <trkpt lat="48.517480" lon="0.677580">
        <ele>249</ele>
        <time>2019-08-01T22:37:20Z</time>
      </trkpt>
      <trkpt lat="48.517770" lon="0.677170">
        <ele>251</ele>
        <time>2019-08-01T22:37:27Z</time>
      </trkpt>
      <trkpt lat="48.518780" lon="0.676000">
        <ele>251</ele>
        <time>2019-08-01T22:37:48Z</time>
      </trkpt>
      <trkpt lat="48.519350" lon="0.675390">
        <ele>249</ele>
        <time>2019-08-01T22:37:54Z</time>
      </trkpt>
      <trkpt lat="48.520060" lon="0.674480">
        <ele>251</ele>
        <time>2019-08-01T22:37:58Z</time>
      </trkpt>
      <trkpt lat="48.520440" lon="0.673970">
        <ele>251</ele>
        <time>2019-08-01T22:38:06Z</time>
      </trkpt>
      <trkpt lat="48.520820" lon="0.673140">
        <ele>250</ele>
        <time>2019-08-01T22:38:12Z</time>
      </trkpt>
      <trkpt lat="48.520980" lon="0.672690">
        <ele>248</ele>
        <time>2019-08-01T22:38:16Z</time>
      </trkpt>
      <trkpt lat="48.521040" lon="0.672140">
        <ele>246</ele>
        <time>2019-08-01T22:38:21Z</time>
      </trkpt>
      <trkpt lat="48.521050" lon="0.671540">
        <ele>244</ele>
        <time>2019-08-01T22:38:26Z</time>
      </trkpt>
      <trkpt lat="48.520710" lon="0.669800">
        <ele>233</ele>
        <time>2019-08-01T22:39:08Z</time>
      </trkpt>
      <trkpt lat="48.520640" lon="0.669310">
        <ele>230</ele>
        <time>2019-08-01T22:39:17Z</time>
      </trkpt>
      <trkpt lat="48.520650" lon="0.668950">
        <ele>229</ele>
        <time>2019-08-01T22:39:24Z</time>
      </trkpt>
      <trkpt lat="48.520880" lon="0.668350">
        <ele>225</ele>
        <time>2019-08-01T22:39:27Z</time>
      </trkpt>
      <trkpt lat="48.521060" lon="0.667980">
        <ele>223</ele>
        <time>2019-08-01T22:39:31Z</time>
      </trkpt>
      <trkpt lat="48.521140" lon="0.667640">
        <ele>222</ele>
        <time>2019-08-01T22:39:41Z</time>
      </trkpt>
      <trkpt lat="48.521150" lon="0.667240">
        <ele>220</ele>
        <time>2019-08-01T22:39:49Z</time>
      </trkpt>
      <trkpt lat="48.521090" lon="0.666810">
        <ele>217</ele>
        <time>2019-08-01T22:39:54Z</time>
      </trkpt>
      <trkpt lat="48.520140" lon="0.663580">
        <ele>204</ele>
        <time>2019-08-01T22:39:57Z</time>
      </trkpt>
      <trkpt lat="48.519910" lon="0.662900">
        <ele>205</ele>
        <time>2019-08-01T22:40:01Z</time>
      </trkpt>
      <trkpt lat="48.519660" lon="0.662420">
        <ele>205</ele>
        <time>2019-08-01T22:40:03Z</time>
      </trkpt>
      <trkpt lat="48.519560" lon="0.662160">
        <ele>205</ele>
        <time>2019-08-01T22:40:13Z</time>
      </trkpt>
      <trkpt lat="48.519480" lon="0.661890">
        <ele>206</ele>
        <time>2019-08-01T22:40:53Z</time>
      </trkpt>
      <trkpt lat="48.519310" lon="0.661040">
        <ele>201</ele>
        <time>2019-08-01T22:41:03Z</time>
      </trkpt>
      <trkpt lat="48.519120" lon="0.660470">
        <ele>197</ele>
        <time>2019-08-01T22:41:09Z</time>
      </trkpt>
      <trkpt lat="48.518960" lon="0.660150">
        <ele>196</ele>
        <time>2019-08-01T22:41:12Z</time>
      </trkpt>
      <trkpt lat="48.518800" lon="0.659960">
        <ele>196</ele>
        <time>2019-08-01T22:41:16Z</time>
      </trkpt>
      <trkpt lat="48.518640" lon="0.659810">
        <ele>197</ele>
        <time>2019-08-01T22:41:19Z</time>
      </trkpt>
      <trkpt lat="48.518500" lon="0.659720">
        <ele>197</ele>
        <time>2019-08-01T22:41:23Z</time>
      </trkpt>
      <trkpt lat="48.518000" lon="0.659500">
        <ele>198</ele>
        <time>2019-08-01T22:41:26Z</time>
      </trkpt>
      <trkpt lat="48.515770" lon="0.658680">
        <ele>196</ele>
        <time>2019-08-01T22:41:30Z</time>
      </trkpt>
      <trkpt lat="48.515260" lon="0.658450">
        <ele>194</ele>
        <time>2019-08-01T22:41:37Z</time>
      </trkpt>
      <trkpt lat="48.514980" lon="0.658210">
        <ele>193</ele>
        <time>2019-08-01T22:42:23Z</time>
      </trkpt>
      <trkpt lat="48.514810" lon="0.658010">
        <ele>192</ele>
        <time>2019-08-01T22:43:28Z</time>
      </trkpt>
      <trkpt lat="48.514670" lon="0.657800">
        <ele>192</ele>
        <time>2019-08-01T22:43:36Z</time>
      </trkpt>
      <trkpt lat="48.514540" lon="0.657570">
        <ele>191</ele>
        <time>2019-08-01T22:43:43Z</time>
      </trkpt>
      <trkpt lat="48.514440" lon="0.657310">
        <ele>189</ele>
        <time>2019-08-01T22:43:51Z</time>
      </trkpt>
      <trkpt lat="48.514360" lon="0.657080">
        <ele>187</ele>
        <time>2019-08-01T22:45:15Z</time>
      </trkpt>
      <trkpt lat="48.514300" lon="0.656780">
        <ele>186</ele>
        <time>2019-08-01T22:46:01Z</time>
      </trkpt>
      <trkpt lat="48.514230" lon="0.656210">
        <ele>183</ele>
        <time>2019-08-01T22:46:05Z</time>
      </trkpt>
      <trkpt lat="48.513860" lon="0.652350">
        <ele>172</ele>
        <time>2019-08-01T22:46:09Z</time>
      </trkpt>
      <trkpt lat="48.513310" lon="0.646840">
        <ele>168</ele>
        <time>2019-08-01T22:46:15Z</time>
      </trkpt>
      <trkpt lat="48.513220" lon="0.646230">
        <ele>170</ele>
        <time>2019-08-01T22:46:18Z</time>
      </trkpt>
      <trkpt lat="48.513110" lon="0.645650">
        <ele>173</ele>
        <time>2019-08-01T22:46:23Z</time>
      </trkpt>
      <trkpt lat="48.512950" lon="0.644990">
        <ele>175</ele>
        <time>2019-08-01T22:46:25Z</time>
      </trkpt>
      <trkpt lat="48.511040" lon="0.638440">
        <ele>193</ele>
        <time>2019-08-01T22:46:29Z</time>
      </trkpt>
      <trkpt lat="48.510000" lon="0.634940">
        <ele>196</ele>
        <time>2019-08-01T22:46:31Z</time>
      </trkpt>
      <trkpt lat="48.509910" lon="0.634590">
        <ele>197</ele>
        <time>2019-08-01T22:46:33Z</time>
      </trkpt>
      <trkpt lat="48.509860" lon="0.634220">
        <ele>197</ele>
        <time>2019-08-01T22:46:45Z</time>
      </trkpt>
      <trkpt lat="48.509810" lon="0.633730">
        <ele>199</ele>
        <time>2019-08-01T22:46:49Z</time>
      </trkpt>
      <trkpt lat="48.509810" lon="0.633510">
        <ele>200</ele>
        <time>2019-08-01T22:47:24Z</time>
      </trkpt>
      <trkpt lat="48.509860" lon="0.633110">
        <ele>201</ele>
        <time>2019-08-01T22:47:34Z</time>
      </trkpt>
      <trkpt lat="48.509830" lon="0.632950">
        <ele>202</ele>
        <time>2019-08-01T22:47:40Z</time>
      </trkpt>
      <trkpt lat="48.509820" lon="0.632580">
        <ele>202</ele>
        <time>2019-08-01T22:47:51Z</time>
      </trkpt>
      <trkpt lat="48.509840" lon="0.632410">
        <ele>203</ele>
        <time>2019-08-01T22:47:55Z</time>
      </trkpt>
      <trkpt lat="48.509830" lon="0.632260">
        <ele>203</ele>
        <time>2019-08-01T22:48:04Z</time>
      </trkpt>
      <trkpt lat="48.509620" lon="0.631250">
        <ele>207</ele>
        <time>2019-08-01T22:48:16Z</time>
      </trkpt>
      <trkpt lat="48.509610" lon="0.630930">
        <ele>209</ele>
        <time>2019-08-01T22:49:11Z</time>
      </trkpt>
      <trkpt lat="48.510020" lon="0.628010">
        <ele>214</ele>
        <time>2019-08-01T22:49:16Z</time>
      </trkpt>
      <trkpt lat="48.510120" lon="0.627170">
        <ele>219</ele>
        <time>2019-08-01T22:49:18Z</time>
      </trkpt>
      <trkpt lat="48.510150" lon="0.626660">
        <ele>222</ele>
        <time>2019-08-01T22:49:20Z</time>
      </trkpt>
      <trkpt lat="48.510190" lon="0.625790">
        <ele>226</ele>
        <time>2019-08-01T22:49:23Z</time>
      </trkpt>
      <trkpt lat="48.510190" lon="0.625420">
        <ele>227</ele>
        <time>2019-08-01T22:49:25Z</time>
      </trkpt>
      <trkpt lat="48.510150" lon="0.624700">
        <ele>227</ele>
        <time>2019-08-01T22:49:29Z</time>
      </trkpt>
      <trkpt lat="48.510060" lon="0.623630">
        <ele>221</ele>
        <time>2019-08-01T22:49:36Z</time>
      </trkpt>
      <trkpt lat="48.509620" lon="0.619030">
        <ele>207</ele>
        <time>2019-08-01T22:49:48Z</time>
      </trkpt>
      <trkpt lat="48.509610" lon="0.618640">
        <ele>206</ele>
        <time>2019-08-01T22:49:56Z</time>
      </trkpt>
      <trkpt lat="48.509620" lon="0.618440">
        <ele>206</ele>
        <time>2019-08-01T22:50:04Z</time>
      </trkpt>
      <trkpt lat="48.509650" lon="0.618250">
        <ele>205</ele>
        <time>2019-08-01T22:50:07Z</time>
      </trkpt>
      <trkpt lat="48.509710" lon="0.618070">
        <ele>204</ele>
        <time>2019-08-01T22:50:13Z</time>
      </trkpt>
      <trkpt lat="48.509790" lon="0.617920">
        <ele>203</ele>
        <time>2019-08-01T22:50:28Z</time>
      </trkpt>
      <trkpt lat="48.509950" lon="0.617700">
        <ele>201</ele>
        <time>2019-08-01T22:50:47Z</time>
      </trkpt>
      <trkpt lat="48.510310" lon="0.617430">
        <ele>199</ele>
        <time>2019-08-01T22:50:51Z</time>
      </trkpt>
      <trkpt lat="48.510950" lon="0.617100">
        <ele>195</ele>
        <time>2019-08-01T22:50:57Z</time>
      </trkpt>
      <trkpt lat="48.511340" lon="0.616790">
        <ele>190</ele>
        <time>2019-08-01T22:51:02Z</time>
      </trkpt>
      <trkpt lat="48.511690" lon="0.616380">
        <ele>188</ele>
        <time>2019-08-01T22:51:06Z</time>
      </trkpt>
      <trkpt lat="48.511840" lon="0.616180">
        <ele>187</ele>
        <time>2019-08-01T22:51:11Z</time>
      </trkpt>
      <trkpt lat="48.512000" lon="0.615800">
        <ele>186</ele>
        <time>2019-08-01T22:51:21Z</time>
      </trkpt>
      <trkpt lat="48.512420" lon="0.614660">
        <ele>181</ele>
        <time>2019-08-01T22:51:25Z</time>
      </trkpt>
      <trkpt lat="48.512960" lon="0.613300">
        <ele>177</ele>
        <time>2019-08-01T22:51:30Z</time>
      </trkpt>
      <trkpt lat="48.513070" lon="0.612960">
        <ele>176</ele>
        <time>2019-08-01T22:51:46Z</time>
      </trkpt>
      <trkpt lat="48.513140" lon="0.612430">
        <ele>176</ele>
        <time>2019-08-01T22:51:46Z</time>
      </trkpt>
      <trkpt lat="48.513160" lon="0.612050">
        <ele>176</ele>
        <time>2019-08-01T22:52:17Z</time>
      </trkpt>
      <trkpt lat="48.513130" lon="0.611690">
        <ele>176</ele>
        <time>2019-08-01T22:52:23Z</time>
      </trkpt>
      <trkpt lat="48.513060" lon="0.611340">
        <ele>176</ele>
        <time>2019-08-01T22:52:29Z</time>
      </trkpt>
      <trkpt lat="48.512850" lon="0.610480">
        <ele>175</ele>
        <time>2019-08-01T22:52:43Z</time>
      </trkpt>
      <trkpt lat="48.512800" lon="0.610160">
        <ele>175</ele>
        <time>2019-08-01T22:52:50Z</time>
      </trkpt>
      <trkpt lat="48.512760" lon="0.609740">
        <ele>176</ele>
        <time>2019-08-01T22:52:56Z</time>
      </trkpt>
      <trkpt lat="48.512740" lon="0.608390">
        <ele>178</ele>
        <time>2019-08-01T22:53:06Z</time>
      </trkpt>
      <trkpt lat="48.512740" lon="0.608390">
        <ele>178</ele>
        <time>2019-08-01T22:53:14Z</time>
      </trkpt>
      <trkpt lat="48.512720" lon="0.605790">
        <ele>184</ele>
        <time>2019-08-01T22:53:21Z</time>
      </trkpt>
      <trkpt lat="48.512690" lon="0.605250">
        <ele>186</ele>
        <time>2019-08-01T22:53:51Z</time>
      </trkpt>
      <trkpt lat="48.512640" lon="0.604780">
        <ele>188</ele>
        <time>2019-08-01T22:54:14Z</time>
      </trkpt>
      <trkpt lat="48.512480" lon="0.603640">
        <ele>191</ele>
        <time>2019-08-01T22:54:17Z</time>
      </trkpt>
      <trkpt lat="48.512410" lon="0.602990">
        <ele>193</ele>
        <time>2019-08-01T22:54:24Z</time>
      </trkpt>
      <trkpt lat="48.512370" lon="0.602550">
        <ele>195</ele>
        <time>2019-08-01T22:54:46Z</time>
      </trkpt>
      <trkpt lat="48.512360" lon="0.601680">
        <ele>196</ele>
        <time>2019-08-01T22:54:57Z</time>
      </trkpt>
      <trkpt lat="48.512400" lon="0.600950">
        <ele>198</ele>
        <time>2019-08-01T22:55:05Z</time>
      </trkpt>
      <trkpt lat="48.512460" lon="0.600390">
        <ele>199</ele>
        <time>2019-08-01T22:55:13Z</time>
      </trkpt>
      <trkpt lat="48.512810" lon="0.597870">
        <ele>197</ele>
        <time>2019-08-01T22:55:22Z</time>
      </trkpt>
      <trkpt lat="48.513230" lon="0.596080">
        <ele>196</ele>
        <time>2019-08-01T22:55:34Z</time>
      </trkpt>
      <trkpt lat="48.513280" lon="0.595790">
        <ele>196</ele>
        <time>2019-08-01T22:55:44Z</time>
      </trkpt>
      <trkpt lat="48.513330" lon="0.595230">
        <ele>197</ele>
        <time>2019-08-01T22:55:51Z</time>
      </trkpt>
      <trkpt lat="48.513390" lon="0.593360">
        <ele>190</ele>
        <time>2019-08-01T22:56:36Z</time>
      </trkpt>
      <trkpt lat="48.513480" lon="0.592450">
        <ele>183</ele>
        <time>2019-08-01T22:57:35Z</time>
      </trkpt>
      <trkpt lat="48.513580" lon="0.591810">
        <ele>180</ele>
        <time>2019-08-01T22:57:41Z</time>
      </trkpt>
      <trkpt lat="48.513710" lon="0.591110">
        <ele>179</ele>
        <time>2019-08-01T22:57:48Z</time>
      </trkpt>
      <trkpt lat="48.513880" lon="0.590380">
        <ele>179</ele>
        <time>2019-08-01T22:57:58Z</time>
      </trkpt>
      <trkpt lat="48.514130" lon="0.589490">
        <ele>178</ele>
        <time>2019-08-01T22:58:39Z</time>
      </trkpt>
      <trkpt lat="48.514380" lon="0.588750">
        <ele>179</ele>
        <time>2019-08-01T22:59:06Z</time>
      </trkpt>
      <trkpt lat="48.514590" lon="0.588210">
        <ele>181</ele>
        <time>2019-08-01T22:59:13Z</time>
      </trkpt>
      <trkpt lat="48.516000" lon="0.585080">
        <ele>191</ele>
        <time>2019-08-01T22:59:20Z</time>
      </trkpt>
      <trkpt lat="48.517890" lon="0.580970">
        <ele>211</ele>
        <time>2019-08-01T22:59:33Z</time>
      </trkpt>
      <trkpt lat="48.518040" lon="0.580440">
        <ele>206</ele>
        <time>2019-08-01T22:59:40Z</time>
      </trkpt>
      <trkpt lat="48.518180" lon="0.579910">
        <ele>201</ele>
        <time>2019-08-01T22:59:46Z</time>
      </trkpt>
      <trkpt lat="48.518320" lon="0.579070">
        <ele>197</ele>
        <time>2019-08-01T23:00:04Z</time>
      </trkpt>
      <trkpt lat="48.518750" lon="0.575700">
        <ele>190</ele>
        <time>2019-08-01T23:00:09Z</time>
      </trkpt>
      <trkpt lat="48.519030" lon="0.573420">
        <ele>195</ele>
        <time>2019-08-01T23:00:12Z</time>
      </trkpt>
      <trkpt lat="48.519060" lon="0.572850">
        <ele>196</ele>
        <time>2019-08-01T23:00:15Z</time>
      </trkpt>
      <trkpt lat="48.519070" lon="0.572220">
        <ele>197</ele>
        <time>2019-08-01T23:00:24Z</time>
      </trkpt>
      <trkpt lat="48.519020" lon="0.571160">
        <ele>195</ele>
        <time>2019-08-01T23:00:32Z</time>
      </trkpt>
      <trkpt lat="48.518950" lon="0.570580">
        <ele>193</ele>
        <time>2019-08-01T23:00:37Z</time>
      </trkpt>
      <trkpt lat="48.518860" lon="0.570020">
        <ele>190</ele>
        <time>2019-08-01T23:00:44Z</time>
      </trkpt>
      <trkpt lat="48.518570" lon="0.568630">
        <ele>191</ele>
        <time>2019-08-01T23:00:49Z</time>
      </trkpt>
      <trkpt lat="48.518550" lon="0.568210">
        <ele>191</ele>
        <time>2019-08-01T23:00:58Z</time>
      </trkpt>
      <trkpt lat="48.518610" lon="0.567900">
        <ele>191</ele>
        <time>2019-08-01T23:01:59Z</time>
      </trkpt>
      <trkpt lat="48.518670" lon="0.567700">
        <ele>191</ele>
        <time>2019-08-01T23:01:59Z</time>
      </trkpt>
      <trkpt lat="48.519050" lon="0.567200">
        <ele>192</ele>
        <time>2019-08-01T23:02:13Z</time>
      </trkpt>
      <trkpt lat="48.519320" lon="0.566680">
        <ele>191</ele>
        <time>2019-08-01T23:02:20Z</time>
      </trkpt>
      <trkpt lat="48.519480" lon="0.566320">
        <ele>190</ele>
        <time>2019-08-01T23:02:26Z</time>
      </trkpt>
      <trkpt lat="48.519660" lon="0.565810">
        <ele>189</ele>
        <time>2019-08-01T23:02:32Z</time>
      </trkpt>
      <trkpt lat="48.519770" lon="0.565360">
        <ele>187</ele>
        <time>2019-08-01T23:02:42Z</time>
      </trkpt>
      <trkpt lat="48.519890" lon="0.564640">
        <ele>184</ele>
        <time>2019-08-01T23:03:00Z</time>
      </trkpt>
      <trkpt lat="48.520320" lon="0.559510">
        <ele>202</ele>
        <time>2019-08-01T23:03:04Z</time>
      </trkpt>
      <trkpt lat="48.520320" lon="0.559510">
        <ele>202</ele>
        <time>2019-08-01T23:03:06Z</time>
      </trkpt>
      <trkpt lat="48.520440" lon="0.558300">
        <ele>207</ele>
        <time>2019-08-01T23:03:09Z</time>
      </trkpt>
      <trkpt lat="48.520520" lon="0.557780">
        <ele>209</ele>
        <time>2019-08-01T23:03:28Z</time>
      </trkpt>
      <trkpt lat="48.520640" lon="0.557270">
        <ele>211</ele>
        <time>2019-08-01T23:03:44Z</time>
      </trkpt>
      <trkpt lat="48.520810" lon="0.556790">
        <ele>213</ele>
        <time>2019-08-01T23:03:55Z</time>
      </trkpt>
      <trkpt lat="48.521100" lon="0.556130">
        <ele>217</ele>
        <time>2019-08-01T23:04:01Z</time>
      </trkpt>
      <trkpt lat="48.521750" lon="0.554980">
        <ele>222</ele>
        <time>2019-08-01T23:04:02Z</time>
      </trkpt>
      <trkpt lat="48.521910" lon="0.554650">
        <ele>224</ele>
        <time>2019-08-01T23:04:04Z</time>
      </trkpt>
      <trkpt lat="48.521940" lon="0.554540">
        <ele>224</ele>
        <time>2019-08-01T23:04:07Z</time>
      </trkpt>
      <trkpt lat="48.522000" lon="0.554290">
        <ele>225</ele>
        <time>2019-08-01T23:04:10Z</time>
      </trkpt>
      <trkpt lat="48.522200" lon="0.552680">
        <ele>229</ele>
        <time>2019-08-01T23:04:14Z</time>
      </trkpt>
      <trkpt lat="48.522390" lon="0.551400">
        <ele>231</ele>
        <time>2019-08-01T23:04:34Z</time>
      </trkpt>
      <trkpt lat="48.522560" lon="0.550440">
        <ele>232</ele>
        <time>2019-08-01T23:04:44Z</time>
      </trkpt>
      <trkpt lat="48.522670" lon="0.550040">
        <ele>232</ele>
        <time>2019-08-01T23:04:54Z</time>
      </trkpt>
      <trkpt lat="48.522680" lon="0.549910">
        <ele>232</ele>
        <time>2019-08-01T23:04:54Z</time>
      </trkpt>
      <trkpt lat="48.522620" lon="0.549790">
        <ele>233</ele>
        <time>2019-08-01T23:05:01Z</time>
      </trkpt>
      <trkpt lat="48.522470" lon="0.549650">
        <ele>235</ele>
        <time>2019-08-01T23:05:12Z</time>
      </trkpt>
      <trkpt lat="48.522350" lon="0.549510">
        <ele>236</ele>
        <time>2019-08-01T23:05:13Z</time>
      </trkpt>
      <trkpt lat="48.522210" lon="0.549210">
        <ele>238</ele>
        <time>2019-08-01T23:05:20Z</time>
      </trkpt>
      <trkpt lat="48.521680" lon="0.547720">
        <ele>246</ele>
        <time>2019-08-01T23:05:23Z</time>
      </trkpt>
      <trkpt lat="48.521470" lon="0.546960">
        <ele>250</ele>
        <time>2019-08-01T23:05:27Z</time>
      </trkpt>
      <trkpt lat="48.520900" lon="0.547210">
        <ele>251</ele>
        <time>2019-08-01T23:05:30Z</time>
      </trkpt>
      <trkpt lat="48.520900" lon="0.547210">
        <ele>251</ele>
        <time>2019-08-01T23:05:33Z</time>
      </trkpt>
      <trkpt lat="48.520530" lon="0.547370">
        <ele>251</ele>
        <time>2019-08-01T23:05:36Z</time>
      </trkpt>
      <trkpt lat="48.519990" lon="0.547760">
        <ele>250</ele>
        <time>2019-08-01T23:05:38Z</time>
      </trkpt>
      <trkpt lat="48.519910" lon="0.547750">
        <ele>250</ele>
        <time>2019-08-01T23:05:39Z</time>
      </trkpt>
      <trkpt lat="48.519870" lon="0.547160">
        <ele>252</ele>
        <time>2019-08-01T23:05:45Z</time>
      </trkpt>
      <trkpt lat="48.519880" lon="0.546920">
        <ele>252</ele>
        <time>2019-08-01T23:05:52Z</time>
      </trkpt>
      <trkpt lat="48.519930" lon="0.546560">
        <ele>253</ele>
        <time>2019-08-01T23:05:53Z</time>
      </trkpt>
      <trkpt lat="48.519990" lon="0.546370">
        <ele>254</ele>
        <time>2019-08-01T23:05:54Z</time>
      </trkpt>
      <trkpt lat="48.520090" lon="0.546120">
        <ele>254</ele>
        <time>2019-08-01T23:06:03Z</time>
      </trkpt>
      <trkpt lat="48.520200" lon="0.545910">
        <ele>255</ele>
        <time>2019-08-01T23:06:05Z</time>
      </trkpt>
      <trkpt lat="48.520270" lon="0.545830">
        <ele>255</ele>
        <time>2019-08-01T23:06:24Z</time>
      </trkpt>
      <trkpt lat="48.520320" lon="0.545730">
        <ele>255</ele>
        <time>2019-08-01T23:06:28Z</time>
      </trkpt>
      <trkpt lat="48.520560" lon="0.545380">
        <ele>255</ele>
        <time>2019-08-01T23:06:29Z</time>
      </trkpt>
      <trkpt lat="48.520840" lon="0.545040">
        <ele>257</ele>
        <time>2019-08-01T23:06:31Z</time>
      </trkpt>
      <trkpt lat="48.520840" lon="0.544920">
        <ele>257</ele>
        <time>2019-08-01T23:06:35Z</time>
      </trkpt>
      <trkpt lat="48.520870" lon="0.544820">
        <ele>257</ele>
        <time>2019-08-01T23:06:48Z</time>
      </trkpt>
      <trkpt lat="48.521200" lon="0.544280">
        <ele>257</ele>
        <time>2019-08-01T23:06:48Z</time>
      </trkpt>
      <trkpt lat="48.521290" lon="0.544170">
        <ele>257</ele>
        <time>2019-08-01T23:06:58Z</time>
      </trkpt>
      <trkpt lat="48.522270" lon="0.543610">
        <ele>256</ele>
        <time>2019-08-01T23:07:04Z</time>
      </trkpt>
      <trkpt lat="48.522470" lon="0.543480">
        <ele>255</ele>
        <time>2019-08-01T23:07:08Z</time>
      </trkpt>
      <trkpt lat="48.522520" lon="0.543430">
        <ele>254</ele>
        <time>2019-08-01T23:07:15Z</time>
      </trkpt>
      <trkpt lat="48.522600" lon="0.543290">
        <ele>253</ele>
        <time>2019-08-01T23:07:17Z</time>
      </trkpt>
      <trkpt lat="48.522680" lon="0.542940">
        <ele>253</ele>
        <time>2019-08-01T23:07:18Z</time>
      </trkpt>
      <trkpt lat="48.522800" lon="0.541870">
        <ele>252</ele>
        <time>2019-08-01T23:07:18Z</time>
      </trkpt>
      <trkpt lat="48.522800" lon="0.541870">
        <ele>252</ele>
        <time>2019-08-01T23:07:21Z</time>
      </trkpt>
      <trkpt lat="48.522910" lon="0.541040">
        <ele>252</ele>
        <time>2019-08-01T23:07:24Z</time>
      </trkpt>
      <trkpt lat="48.523010" lon="0.540580">
        <ele>253</ele>
        <time>2019-08-01T23:07:32Z</time>
      </trkpt>
      <trkpt lat="48.523100" lon="0.540270">
        <ele>253</ele>
        <time>2019-08-01T23:07:36Z</time>
      </trkpt>
      <trkpt lat="48.523290" lon="0.539750">
        <ele>254</ele>
        <time>2019-08-01T23:07:49Z</time>
      </trkpt>
      <trkpt lat="48.523190" lon="0.539710">
        <ele>254</ele>
        <time>2019-08-01T23:07:59Z</time>
      </trkpt>
      <trkpt lat="48.523110" lon="0.539730">
        <ele>254</ele>
      </trkpt>
      <trkpt lat="48.523110" lon="0.539730">
        <ele>254</ele>
      </trkpt>
      <trkpt lat="48.522940" lon="0.539790">
        <ele>254</ele>
      </trkpt>
      <trkpt lat="48.522770" lon="0.539890">
        <ele>255</ele>
      </trkpt>
      <trkpt lat="48.522410" lon="0.540210">
        <ele>256</ele>
      </trkpt>
      <trkpt lat="48.522230" lon="0.540430">
        <ele>256</ele>
      </trkpt>
      <trkpt lat="48.521750" lon="0.541240">
        <ele>258</ele>
      </trkpt>
      <trkpt lat="48.521310" lon="0.540660">
        <ele>257</ele>
      </trkpt>
      <trkpt lat="48.520940" lon="0.540230">
        <ele>0</ele>
        <time>2019-08-01T17:55:27Z</time>
      </trkpt>
      <trkpt lat="48.360583" lon="0.368214">
        <ele>0</ele>
        <time>2019-08-01T17:55:29Z</time>
      </trkpt>
      <trkpt lat="48.281915" lon="0.022746">
        <ele>0</ele>
        <time>2019-08-01T17:55:31Z</time>
      </trkpt>
      <trkpt lat="48.346070" lon="-0.278030">
        <ele>0</ele>
        <time>2019-08-01T17:55:32Z</time>
      </trkpt>
      <trkpt lat="48.226433" lon="0.131047">
        <ele>0</ele>
        <time>2019-08-01T17:55:39Z</time>
      </trkpt>
      <trkpt lat="48.200231" lon="0.027263">
        <ele>0</ele>
        <time>2019-08-01T17:55:52Z</time>
      </trkpt>
      <trkpt lat="48.520930" lon="0.540240">
        <ele>256</ele>
        <time>2019-08-01T17:55:52Z</time>
      </trkpt>
      <trkpt lat="48.520830" lon="0.540110">
        <ele>255</ele>
        <time>2019-08-01T17:55:57Z</time>
      </trkpt>
      <trkpt lat="48.520730" lon="0.540070">
        <ele>255</ele>
        <time>2019-08-01T17:56:00Z</time>
      </trkpt>
      <trkpt lat="48.520680" lon="0.540080">
        <ele>255</ele>
        <time>2019-08-01T17:56:02Z</time>
      </trkpt>
      <trkpt lat="48.520430" lon="0.540500">
        <ele>255</ele>
        <time>2019-08-01T17:56:05Z</time>
      </trkpt>
      <trkpt lat="48.519930" lon="0.541280">
        <ele>252</ele>
        <time>2019-08-01T17:56:08Z</time>
      </trkpt>
      <trkpt lat="48.519930" lon="0.541280">
        <ele>252</ele>
        <time>2019-08-01T17:56:21Z</time>
      </trkpt>
      <trkpt lat="48.519720" lon="0.541600">
        <ele>250</ele>
        <time>2019-08-01T17:56:22Z</time>
      </trkpt>
      <trkpt lat="48.519590" lon="0.541760">
        <ele>248</ele>
        <time>2019-08-01T17:56:25Z</time>
      </trkpt>
      <trkpt lat="48.519500" lon="0.541650">
        <ele>248</ele>
        <time>2019-08-01T17:56:31Z</time>
      </trkpt>
      <trkpt lat="48.519360" lon="0.541530">
        <ele>248</ele>
        <time>2019-08-01T17:56:35Z</time>
      </trkpt>
      <trkpt lat="48.519180" lon="0.541520">
        <ele>247</ele>
        <time>2019-08-01T17:56:42Z</time>
      </trkpt>
      <trkpt lat="48.518550" lon="0.542010">
        <ele>240</ele>
        <time>2019-08-01T17:56:42Z</time>
      </trkpt>
      <trkpt lat="48.518470" lon="0.542060">
        <ele>239</ele>
        <time>2019-08-01T17:56:52Z</time>
      </trkpt>
      <trkpt lat="48.518310" lon="0.542100">
        <ele>237</ele>
        <time>2019-08-01T17:57:28Z</time>
      </trkpt>
      <trkpt lat="48.518000" lon="0.542090">
        <ele>234</ele>
        <time>2019-08-01T17:57:28Z</time>
      </trkpt>
      <trkpt lat="48.517760" lon="0.542020">
        <ele>233</ele>
        <time>2019-08-01T17:57:32Z</time>
      </trkpt>
      <trkpt lat="48.517360" lon="0.541840">
        <ele>231</ele>
        <time>2019-08-01T17:57:43Z</time>
      </trkpt>
      <trkpt lat="48.517360" lon="0.541840">
        <ele>231</ele>
        <time>2019-08-01T17:58:07Z</time>
      </trkpt>
      <trkpt lat="48.516840" lon="0.541590">
        <ele>230</ele>
        <time>2019-08-01T17:58:23Z</time>
      </trkpt>
      <trkpt lat="48.514880" lon="0.540750">
        <ele>221</ele>
        <time>2019-08-01T17:58:29Z</time>
      </trkpt>
      <trkpt lat="48.514880" lon="0.540750">
        <ele>221</ele>
        <time>2019-08-01T17:58:35Z</time>
      </trkpt>
      <trkpt lat="48.514660" lon="0.540660">
        <ele>220</ele>
        <time>2019-08-01T17:58:43Z</time>
      </trkpt>
      <trkpt lat="48.514080" lon="0.540500">
        <ele>216</ele>
        <time>2019-08-01T17:58:47Z</time>
      </trkpt>
      <trkpt lat="48.512740" lon="0.540220">
        <ele>208</ele>
        <time>2019-08-01T17:58:50Z</time>
      </trkpt>
      <trkpt lat="48.511830" lon="0.539990">
        <ele>205</ele>
        <time>2019-08-01T18:00:44Z</time>
      </trkpt>
      <trkpt lat="48.511530" lon="0.539860">
        <ele>203</ele>
        <time>2019-08-01T18:00:53Z</time>
      </trkpt>
      <trkpt lat="48.511220" lon="0.539650">
        <ele>201</ele>
        <time>2019-08-01T18:00:56Z</time>
      </trkpt>
      <trkpt lat="48.510870" lon="0.539270">
        <ele>198</ele>
        <time>2019-08-01T18:00:58Z</time>
      </trkpt>
      <trkpt lat="48.510710" lon="0.539020">
        <ele>198</ele>
        <time>2019-08-01T18:00:59Z</time>
      </trkpt>
      <trkpt lat="48.510590" lon="0.538770">
        <ele>197</ele>
        <time>2019-08-01T18:01:00Z</time>
      </trkpt>
      <trkpt lat="48.507300" lon="0.530480">
        <ele>175</ele>
        <time>2019-08-01T18:01:02Z</time>
      </trkpt>
      <trkpt lat="48.507070" lon="0.529800">
        <ele>172</ele>
        <time>2019-08-01T18:01:04Z</time>
      </trkpt>
      <trkpt lat="48.507020" lon="0.529610">
        <ele>172</ele>
        <time>2019-08-01T18:01:09Z</time>
      </trkpt>
      <trkpt lat="48.507060" lon="0.529460">
        <ele>173</ele>
        <time>2019-08-01T18:01:51Z</time>
      </trkpt>
      <trkpt lat="48.507050" lon="0.529330">
        <ele>173</ele>
        <time>2019-08-01T18:03:14Z</time>
      </trkpt>
      <trkpt lat="48.507020" lon="0.529270">
        <ele>173</ele>
        <time>2019-08-01T18:03:18Z</time>
      </trkpt>
      <trkpt lat="48.506940" lon="0.529190">
        <ele>172</ele>
        <time>2019-08-01T18:03:23Z</time>
      </trkpt>
      <trkpt lat="48.506830" lon="0.529200">
        <ele>172</ele>
        <time>2019-08-01T18:03:31Z</time>
      </trkpt>
      <trkpt lat="48.506570" lon="0.528980">
        <ele>172</ele>
        <time>2019-08-01T18:03:38Z</time>
      </trkpt>
      <trkpt lat="48.504880" lon="0.526460">
        <ele>171</ele>
        <time>2019-08-01T18:03:42Z</time>
      </trkpt>
      <trkpt lat="48.501370" lon="0.521800">
        <ele>192</ele>
        <time>2019-08-01T18:03:48Z</time>
      </trkpt>
      <trkpt lat="48.501220" lon="0.521610">
        <ele>191</ele>
        <time>2019-08-01T18:03:52Z</time>
      </trkpt>
      <trkpt lat="48.500990" lon="0.521380">
        <ele>190</ele>
        <time>2019-08-01T18:03:58Z</time>
      </trkpt>
      <trkpt lat="48.500570" lon="0.521090">
        <ele>190</ele>
        <time>2019-08-01T18:04:08Z</time>
      </trkpt>
      <trkpt lat="48.500210" lon="0.520920">
        <ele>190</ele>
        <time>2019-08-01T18:04:13Z</time>
      </trkpt>
      <trkpt lat="48.499970" lon="0.520870">
        <ele>190</ele>
        <time>2019-08-01T18:04:15Z</time>
      </trkpt>
      <trkpt lat="48.499610" lon="0.520860">
        <ele>188</ele>
        <time>2019-08-01T18:04:22Z</time>
      </trkpt>
      <trkpt lat="48.499420" lon="0.520880">
        <ele>187</ele>
        <time>2019-08-01T18:04:24Z</time>
      </trkpt>
      <trkpt lat="48.499050" lon="0.520980">
        <ele>186</ele>
        <time>2019-08-01T18:04:28Z</time>
      </trkpt>
      <trkpt lat="48.498550" lon="0.521250">
        <ele>182</ele>
        <time>2019-08-01T18:04:34Z</time>
      </trkpt>
      <trkpt lat="48.498290" lon="0.521360">
        <ele>180</ele>
        <time>2019-08-01T18:04:37Z</time>
      </trkpt>
      <trkpt lat="48.498140" lon="0.521390">
        <ele>180</ele>
        <time>2019-08-01T18:04:40Z</time>
      </trkpt>
      <trkpt lat="48.497780" lon="0.521350">
        <ele>178</ele>
        <time>2019-08-01T18:04:46Z</time>
      </trkpt>
      <trkpt lat="48.497640" lon="0.521300">
        <ele>177</ele>
        <time>2019-08-01T18:05:48Z</time>
      </trkpt>
      <trkpt lat="48.497460" lon="0.521190">
        <ele>176</ele>
        <time>2019-08-01T18:06:00Z</time>
      </trkpt>
      <trkpt lat="48.497170" lon="0.520940">
        <ele>174</ele>
        <time>2019-08-01T18:06:05Z</time>
      </trkpt>
      <trkpt lat="48.497050" lon="0.520800">
        <ele>173</ele>
        <time>2019-08-01T18:06:10Z</time>
      </trkpt>
      <trkpt lat="48.496930" lon="0.520580">
        <ele>172</ele>
        <time>2019-08-01T18:06:16Z</time>
      </trkpt>
      <trkpt lat="48.496740" lon="0.520180">
        <ele>169</ele>
        <time>2019-08-01T18:06:19Z</time>
      </trkpt>
      <trkpt lat="48.494830" lon="0.515700">
        <ele>183</ele>
        <time>2019-08-01T18:06:23Z</time>
      </trkpt>
      <trkpt lat="48.494460" lon="0.514890">
        <ele>186</ele>
        <time>2019-08-01T18:06:26Z</time>
      </trkpt>
      <trkpt lat="48.494290" lon="0.514600">
        <ele>187</ele>
        <time>2019-08-01T18:06:36Z</time>
      </trkpt>
      <trkpt lat="48.494030" lon="0.514310">
        <ele>188</ele>
        <time>2019-08-01T18:06:47Z</time>
      </trkpt>
      <trkpt lat="48.493750" lon="0.514110">
        <ele>189</ele>
        <time>2019-08-01T18:07:41Z</time>
      </trkpt>
      <trkpt lat="48.493590" lon="0.514040">
        <ele>190</ele>
        <time>2019-08-01T18:07:59Z</time>
      </trkpt>
      <trkpt lat="48.493380" lon="0.514000">
        <ele>192</ele>
        <time>2019-08-01T18:08:13Z</time>
      </trkpt>
      <trkpt lat="48.493180" lon="0.514000">
        <ele>193</ele>
        <time>2019-08-01T18:08:39Z</time>
      </trkpt>
      <trkpt lat="48.492660" lon="0.514110">
        <ele>195</ele>
        <time>2019-08-01T18:08:44Z</time>
      </trkpt>
      <trkpt lat="48.492020" lon="0.514080">
        <ele>197</ele>
        <time>2019-08-01T18:08:47Z</time>
      </trkpt>
      <trkpt lat="48.488990" lon="0.513640">
        <ele>198</ele>
        <time>2019-08-01T18:09:06Z</time>
      </trkpt>
      <trkpt lat="48.488010" lon="0.513470">
        <ele>197</ele>
        <time>2019-08-01T18:09:06Z</time>
      </trkpt>
      <trkpt lat="48.487200" lon="0.513210">
        <ele>194</ele>
        <time>2019-08-01T18:09:46Z</time>
      </trkpt>
      <trkpt lat="48.485820" lon="0.512730">
        <ele>194</ele>
        <time>2019-08-01T18:09:54Z</time>
      </trkpt>
      <trkpt lat="48.485520" lon="0.512560">
        <ele>194</ele>
        <time>2019-08-01T18:09:57Z</time>
      </trkpt>
      <trkpt lat="48.485370" lon="0.512420">
        <ele>195</ele>
        <time>2019-08-01T18:10:03Z</time>
      </trkpt>
      <trkpt lat="48.484520" lon="0.511480">
        <ele>194</ele>
        <time>2019-08-01T18:10:11Z</time>
      </trkpt>
      <trkpt lat="48.484520" lon="0.511480">
        <ele>194</ele>
        <time>2019-08-01T18:10:18Z</time>
      </trkpt>
      <trkpt lat="48.482750" lon="0.509470">
        <ele>196</ele>
        <time>2019-08-01T18:10:22Z</time>
      </trkpt>
      <trkpt lat="48.482370" lon="0.508980">
        <ele>196</ele>
        <time>2019-08-01T18:10:28Z</time>
      </trkpt>
      <trkpt lat="48.482260" lon="0.508790">
        <ele>196</ele>
        <time>2019-08-01T18:10:37Z</time>
      </trkpt>
      <trkpt lat="48.482070" lon="0.508380">
        <ele>195</ele>
        <time>2019-08-01T18:10:45Z</time>
      </trkpt>
      <trkpt lat="48.481870" lon="0.507800">
        <ele>193</ele>
        <time>2019-08-01T18:10:47Z</time>
      </trkpt>
      <trkpt lat="48.481730" lon="0.507260">
        <ele>191</ele>
        <time>2019-08-01T18:10:49Z</time>
      </trkpt>
      <trkpt lat="48.481680" lon="0.506920">
        <ele>190</ele>
        <time>2019-08-01T18:10:51Z</time>
      </trkpt>
      <trkpt lat="48.481670" lon="0.506420">
        <ele>188</ele>
        <time>2019-08-01T18:10:53Z</time>
      </trkpt>
      <trkpt lat="48.481700" lon="0.505690">
        <ele>187</ele>
        <time>2019-08-01T18:10:55Z</time>
      </trkpt>
      <trkpt lat="48.481750" lon="0.504990">
        <ele>184</ele>
        <time>2019-08-01T18:10:57Z</time>
      </trkpt>
      <trkpt lat="48.481750" lon="0.504780">
        <ele>183</ele>
        <time>2019-08-01T18:11:01Z</time>
      </trkpt>
      <trkpt lat="48.481720" lon="0.504620">
        <ele>182</ele>
        <time>2019-08-01T18:11:05Z</time>
      </trkpt>
      <trkpt lat="48.481670" lon="0.504470">
        <ele>181</ele>
        <time>2019-08-01T18:11:09Z</time>
      </trkpt>
      <trkpt lat="48.481600" lon="0.504330">
        <ele>181</ele>
        <time>2019-08-01T18:11:23Z</time>
      </trkpt>
      <trkpt lat="48.481530" lon="0.504220">
        <ele>182</ele>
        <time>2019-08-01T18:11:27Z</time>
      </trkpt>
      <trkpt lat="48.481420" lon="0.504110">
        <ele>183</ele>
        <time>2019-08-01T18:11:30Z</time>
      </trkpt>
      <trkpt lat="48.481220" lon="0.504030">
        <ele>185</ele>
        <time>2019-08-01T18:11:36Z</time>
      </trkpt>
      <trkpt lat="48.481000" lon="0.504060">
        <ele>188</ele>
        <time>2019-08-01T18:11:40Z</time>
      </trkpt>
      <trkpt lat="48.480810" lon="0.504180">
        <ele>189</ele>
        <time>2019-08-01T18:11:43Z</time>
      </trkpt>
      <trkpt lat="48.480090" lon="0.504780">
        <ele>189</ele>
        <time>2019-08-01T18:11:47Z</time>
      </trkpt>
      <trkpt lat="48.479900" lon="0.504880">
        <ele>189</ele>
        <time>2019-08-01T18:11:50Z</time>
      </trkpt>
      <trkpt lat="48.479720" lon="0.504930">
        <ele>190</ele>
        <time>2019-08-01T18:11:53Z</time>
      </trkpt>
      <trkpt lat="48.479420" lon="0.504950">
        <ele>192</ele>
        <time>2019-08-01T18:11:59Z</time>
      </trkpt>
      <trkpt lat="48.479170" lon="0.504900">
        <ele>193</ele>
        <time>2019-08-01T18:12:16Z</time>
      </trkpt>
      <trkpt lat="48.479030" lon="0.504830">
        <ele>193</ele>
        <time>2019-08-01T18:14:03Z</time>
      </trkpt>
      <trkpt lat="48.478810" lon="0.504660">
        <ele>192</ele>
        <time>2019-08-01T18:14:09Z</time>
      </trkpt>
      <trkpt lat="48.478680" lon="0.504540">
        <ele>192</ele>
        <time>2019-08-01T18:14:14Z</time>
      </trkpt>
      <trkpt lat="48.478530" lon="0.504360">
        <ele>191</ele>
        <time>2019-08-01T18:14:19Z</time>
      </trkpt>
      <trkpt lat="48.478300" lon="0.503960">
        <ele>192</ele>
        <time>2019-08-01T18:14:24Z</time>
      </trkpt>
      <trkpt lat="48.477720" lon="0.502880">
        <ele>193</ele>
        <time>2019-08-01T18:14:29Z</time>
      </trkpt>
      <trkpt lat="48.473900" lon="0.495870">
        <ele>197</ele>
        <time>2019-08-01T18:14:40Z</time>
      </trkpt>
      <trkpt lat="48.473670" lon="0.495480">
        <ele>196</ele>
        <time>2019-08-01T18:15:15Z</time>
      </trkpt>
      <trkpt lat="48.473440" lon="0.495190">
        <ele>196</ele>
        <time>2019-08-01T18:15:21Z</time>
      </trkpt>
      <trkpt lat="48.473240" lon="0.495000">
        <ele>196</ele>
        <time>2019-08-01T18:15:25Z</time>
      </trkpt>
      <trkpt lat="48.472970" lon="0.494830">
        <ele>195</ele>
        <time>2019-08-01T18:15:27Z</time>
      </trkpt>
      <trkpt lat="48.472660" lon="0.494740">
        <ele>194</ele>
        <time>2019-08-01T18:15:31Z</time>
      </trkpt>
      <trkpt lat="48.472070" lon="0.494700">
        <ele>192</ele>
        <time>2019-08-01T18:15:35Z</time>
      </trkpt>
      <trkpt lat="48.470110" lon="0.494620">
        <ele>186</ele>
        <time>2019-08-01T18:15:38Z</time>
      </trkpt>
      <trkpt lat="48.469780" lon="0.494570">
        <ele>184</ele>
        <time>2019-08-01T18:15:43Z</time>
      </trkpt>
      <trkpt lat="48.469570" lon="0.494450">
        <ele>183</ele>
        <time>2019-08-01T18:15:47Z</time>
      </trkpt>
      <trkpt lat="48.469460" lon="0.494370">
        <ele>182</ele>
        <time>2019-08-01T18:15:49Z</time>
      </trkpt>
      <trkpt lat="48.469270" lon="0.494130">
        <ele>181</ele>
        <time>2019-08-01T18:15:52Z</time>
      </trkpt>
      <trkpt lat="48.469130" lon="0.493850">
        <ele>179</ele>
        <time>2019-08-01T18:16:00Z</time>
      </trkpt>
      <trkpt lat="48.469060" lon="0.493650">
        <ele>177</ele>
        <time>2019-08-01T18:16:03Z</time>
      </trkpt>
      <trkpt lat="48.468990" lon="0.493250">
        <ele>175</ele>
        <time>2019-08-01T18:16:08Z</time>
      </trkpt>
      <trkpt lat="48.468990" lon="0.492910">
        <ele>173</ele>
        <time>2019-08-01T18:16:16Z</time>
      </trkpt>
      <trkpt lat="48.469000" lon="0.492710">
        <ele>172</ele>
        <time>2019-08-01T18:16:22Z</time>
      </trkpt>
      <trkpt lat="48.469030" lon="0.492520">
        <ele>171</ele>
        <time>2019-08-01T18:16:28Z</time>
      </trkpt>
      <trkpt lat="48.469190" lon="0.491890">
        <ele>171</ele>
        <time>2019-08-01T18:17:30Z</time>
      </trkpt>
      <trkpt lat="48.469230" lon="0.491650">
        <ele>171</ele>
        <time>2019-08-01T18:17:50Z</time>
      </trkpt>
      <trkpt lat="48.469280" lon="0.491160">
        <ele>171</ele>
        <time>2019-08-01T18:18:00Z</time>
      </trkpt>
      <trkpt lat="48.469220" lon="0.490540">
        <ele>171</ele>
        <time>2019-08-01T18:18:03Z</time>
      </trkpt>
      <trkpt lat="48.469110" lon="0.490040">
        <ele>171</ele>
        <time>2019-08-01T18:18:06Z</time>
      </trkpt>
      <trkpt lat="48.468950" lon="0.489580">
        <ele>171</ele>
        <time>2019-08-01T18:18:10Z</time>
      </trkpt>
      <trkpt lat="48.466970" lon="0.485240">
        <ele>180</ele>
        <time>2019-08-01T18:18:14Z</time>
      </trkpt>
      <trkpt lat="48.466360" lon="0.483860">
        <ele>181</ele>
        <time>2019-08-01T18:18:45Z</time>
      </trkpt>
      <trkpt lat="48.466000" lon="0.483150">
        <ele>184</ele>
        <time>2019-08-01T18:19:59Z</time>
      </trkpt>
      <trkpt lat="48.465890" lon="0.483000">
        <ele>184</ele>
        <time>2019-08-01T18:20:17Z</time>
      </trkpt>
      <trkpt lat="48.465770" lon="0.482880">
        <ele>184</ele>
        <time>2019-08-01T18:20:27Z</time>
      </trkpt>
      <trkpt lat="48.465560" lon="0.482740">
        <ele>185</ele>
        <time>2019-08-01T18:20:36Z</time>
      </trkpt>
      <trkpt lat="48.465330" lon="0.482660">
        <ele>186</ele>
        <time>2019-08-01T18:20:42Z</time>
      </trkpt>
      <trkpt lat="48.463580" lon="0.482280">
        <ele>189</ele>
        <time>2019-08-01T18:20:47Z</time>
      </trkpt>
      <trkpt lat="48.459480" lon="0.481470">
        <ele>174</ele>
        <time>2019-08-01T18:22:08Z</time>
      </trkpt>
      <trkpt lat="48.458450" lon="0.481240">
        <ele>174</ele>
        <time>2019-08-01T18:22:21Z</time>
      </trkpt>
      <trkpt lat="48.457920" lon="0.481040">
        <ele>172</ele>
        <time>2019-08-01T18:23:02Z</time>
      </trkpt>
      <trkpt lat="48.457470" lon="0.480750">
        <ele>169</ele>
        <time>2019-08-01T18:25:03Z</time>
      </trkpt>
      <trkpt lat="48.457180" lon="0.480510">
        <ele>169</ele>
        <time>2019-08-01T18:26:09Z</time>
      </trkpt>
      <trkpt lat="48.456910" lon="0.480240">
        <ele>169</ele>
        <time>2019-08-01T18:26:18Z</time>
      </trkpt>
      <trkpt lat="48.453300" lon="0.476120">
        <ele>183</ele>
        <time>2019-08-01T18:26:25Z</time>
      </trkpt>
      <trkpt lat="48.452750" lon="0.475450">
        <ele>187</ele>
        <time>2019-08-01T18:26:25Z</time>
      </trkpt>
      <trkpt lat="48.450890" lon="0.473350">
        <ele>185</ele>
        <time>2019-08-01T18:26:27Z</time>
      </trkpt>
      <trkpt lat="48.445480" lon="0.467170">
        <ele>168</ele>
        <time>2019-08-01T18:26:34Z</time>
      </trkpt>
      <trkpt lat="48.442530" lon="0.463770">
        <ele>169</ele>
        <time>2019-08-01T18:26:37Z</time>
      </trkpt>
      <trkpt lat="48.442150" lon="0.463260">
        <ele>168</ele>
        <time>2019-08-01T18:26:43Z</time>
      </trkpt>
      <trkpt lat="48.441870" lon="0.462830">
        <ele>167</ele>
        <time>2019-08-01T18:27:16Z</time>
      </trkpt>
      <trkpt lat="48.441870" lon="0.462830">
        <ele>167</ele>
        <time>2019-08-01T18:27:20Z</time>
      </trkpt>
      <trkpt lat="48.441800" lon="0.462730">
        <ele>167</ele>
        <time>2019-08-01T18:27:26Z</time>
      </trkpt>
      <trkpt lat="48.441570" lon="0.462220">
        <ele>167</ele>
        <time>2019-08-01T18:27:32Z</time>
      </trkpt>
      <trkpt lat="48.441490" lon="0.461960">
        <ele>167</ele>
        <time>2019-08-01T18:27:46Z</time>
      </trkpt>
      <trkpt lat="48.441350" lon="0.461490">
        <ele>167</ele>
        <time>2019-08-01T18:27:51Z</time>
      </trkpt>
      <trkpt lat="48.440690" lon="0.458900">
        <ele>168</ele>
        <time>2019-08-01T18:30:01Z</time>
      </trkpt>
      <trkpt lat="48.440610" lon="0.458620">
        <ele>168</ele>
        <time>2019-08-01T18:30:20Z</time>
      </trkpt>
      <trkpt lat="48.440430" lon="0.458160">
        <ele>168</ele>
        <time>2019-08-01T18:30:30Z</time>
      </trkpt>
      <trkpt lat="48.440240" lon="0.457780">
        <ele>169</ele>
        <time>2019-08-01T18:30:35Z</time>
      </trkpt>
      <trkpt lat="48.439680" lon="0.456930">
        <ele>168</ele>
        <time>2019-08-01T18:30:49Z</time>
      </trkpt>
      <trkpt lat="48.439500" lon="0.456570">
        <ele>168</ele>
        <time>2019-08-01T18:30:58Z</time>
      </trkpt>
      <trkpt lat="48.436030" lon="0.446890">
        <ele>166</ele>
        <time>2019-08-01T18:31:15Z</time>
      </trkpt>
      <trkpt lat="48.435510" lon="0.445460">
        <ele>169</ele>
        <time>2019-08-01T18:31:27Z</time>
      </trkpt>
      <trkpt lat="48.435220" lon="0.444790">
        <ele>170</ele>
        <time>2019-08-01T18:31:35Z</time>
      </trkpt>
      <trkpt lat="48.435070" lon="0.444450">
        <ele>169</ele>
        <time>2019-08-01T18:31:44Z</time>
      </trkpt>
      <trkpt lat="48.434570" lon="0.443530">
        <ele>169</ele>
        <time>2019-08-01T18:31:54Z</time>
      </trkpt>
      <trkpt lat="48.434230" lon="0.442970">
        <ele>170</ele>
        <time>2019-08-01T18:33:06Z</time>
      </trkpt>
      <trkpt lat="48.433510" lon="0.442000">
        <ele>168</ele>
        <time>2019-08-01T18:33:13Z</time>
      </trkpt>
      <trkpt lat="48.432970" lon="0.441390">
        <ele>167</ele>
        <time>2019-08-01T18:33:21Z</time>
      </trkpt>
      <trkpt lat="48.432590" lon="0.441010">
        <ele>166</ele>
        <time>2019-08-01T18:33:42Z</time>
      </trkpt>
      <trkpt lat="48.432130" lon="0.440580">
        <ele>167</ele>
        <time>2019-08-01T18:33:51Z</time>
      </trkpt>
      <trkpt lat="48.431670" lon="0.440190">
        <ele>167</ele>
        <time>2019-08-01T18:34:00Z</time>
      </trkpt>
      <trkpt lat="48.428050" lon="0.437470">
        <ele>168</ele>
        <time>2019-08-01T18:34:20Z</time>
      </trkpt>
      <trkpt lat="48.427670" lon="0.437210">
        <ele>168</ele>
        <time>2019-08-01T18:34:27Z</time>
      </trkpt>
      <trkpt lat="48.427270" lon="0.436990">
        <ele>168</ele>
        <time>2019-08-01T18:34:31Z</time>
      </trkpt>
      <trkpt lat="48.426140" lon="0.436550">
        <ele>171</ele>
        <time>2019-08-01T18:34:40Z</time>
      </trkpt>
      <trkpt lat="48.425630" lon="0.436320">
        <ele>173</ele>
        <time>2019-08-01T18:34:48Z</time>
      </trkpt>
      <trkpt lat="48.425180" lon="0.436000">
        <ele>173</ele>
        <time>2019-08-01T18:34:57Z</time>
      </trkpt>
      <trkpt lat="48.424200" lon="0.435210">
        <ele>175</ele>
        <time>2019-08-01T18:35:11Z</time>
      </trkpt>
      <trkpt lat="48.423830" lon="0.434940">
        <ele>177</ele>
        <time>2019-08-01T18:35:35Z</time>
      </trkpt>
      <trkpt lat="48.423610" lon="0.434800">
        <ele>177</ele>
        <time>2019-08-01T18:35:50Z</time>
      </trkpt>
      <trkpt lat="48.423140" lon="0.434570">
        <ele>179</ele>
        <time>2019-08-01T18:35:55Z</time>
      </trkpt>
      <trkpt lat="48.422710" lon="0.434430">
        <ele>182</ele>
        <time>2019-08-01T18:36:12Z</time>
      </trkpt>
      <trkpt lat="48.422200" lon="0.434330">
        <ele>182</ele>
        <time>2019-08-01T18:36:19Z</time>
      </trkpt>
      <trkpt lat="48.421420" lon="0.434270">
        <ele>180</ele>
        <time>2019-08-01T18:36:30Z</time>
      </trkpt>
      <trkpt lat="48.420090" lon="0.434260">
        <ele>180</ele>
        <time>2019-08-01T18:36:35Z</time>
      </trkpt>
      <trkpt lat="48.419230" lon="0.434370">
        <ele>187</ele>
        <time>2019-08-01T18:36:44Z</time>
      </trkpt>
      <trkpt lat="48.418970" lon="0.434420">
        <ele>187</ele>
        <time>2019-08-01T18:36:53Z</time>
      </trkpt>
      <trkpt lat="48.418040" lon="0.434770">
        <ele>185</ele>
        <time>2019-08-01T18:37:02Z</time>
      </trkpt>
      <trkpt lat="48.417640" lon="0.434950">
        <ele>185</ele>
        <time>2019-08-01T18:37:53Z</time>
      </trkpt>
      <trkpt lat="48.417040" lon="0.435070">
        <ele>184</ele>
        <time>2019-08-01T18:39:24Z</time>
      </trkpt>
      <trkpt lat="48.416770" lon="0.435110">
        <ele>184</ele>
        <time>2019-08-01T18:39:32Z</time>
      </trkpt>
      <trkpt lat="48.416260" lon="0.435100">
        <ele>184</ele>
        <time>2019-08-01T18:39:37Z</time>
      </trkpt>
      <trkpt lat="48.415720" lon="0.435010">
        <ele>184</ele>
        <time>2019-08-01T18:39:45Z</time>
      </trkpt>
      <trkpt lat="48.415270" lon="0.434860">
        <ele>183</ele>
        <time>2019-08-01T18:39:58Z</time>
      </trkpt>
      <trkpt lat="48.412500" lon="0.433770">
        <ele>184</ele>
        <time>2019-08-01T18:40:10Z</time>
      </trkpt>
      <trkpt lat="48.407530" lon="0.431770">
        <ele>190</ele>
        <time>2019-08-01T18:41:10Z</time>
      </trkpt>
      <trkpt lat="48.407130" lon="0.431590">
        <ele>189</ele>
        <time>2019-08-01T18:41:16Z</time>
      </trkpt>
      <trkpt lat="48.406850" lon="0.431410">
        <ele>189</ele>
        <time>2019-08-01T18:41:22Z</time>
      </trkpt>
      <trkpt lat="48.406470" lon="0.431120">
        <ele>190</ele>
        <time>2019-08-01T18:41:32Z</time>
      </trkpt>
      <trkpt lat="48.405810" lon="0.430530">
        <ele>189</ele>
        <time>2019-08-01T18:41:32Z</time>
      </trkpt>
      <trkpt lat="48.405290" lon="0.429900">
        <ele>187</ele>
        <time>2019-08-01T18:41:38Z</time>
      </trkpt>
      <trkpt lat="48.402800" lon="0.426470">
        <ele>187</ele>
        <time>2019-08-01T18:41:46Z</time>
      </trkpt>
      <trkpt lat="48.402550" lon="0.426180">
        <ele>187</ele>
        <time>2019-08-01T18:42:34Z</time>
      </trkpt>
      <trkpt lat="48.402280" lon="0.425900">
        <ele>187</ele>
        <time>2019-08-01T18:42:43Z</time>
      </trkpt>
      <trkpt lat="48.401760" lon="0.425480">
        <ele>187</ele>
        <time>2019-08-01T18:42:51Z</time>
      </trkpt>
      <trkpt lat="48.401760" lon="0.425480">
        <ele>187</ele>
        <time>2019-08-01T18:42:55Z</time>
      </trkpt>
      <trkpt lat="48.401440" lon="0.425290">
        <ele>186</ele>
        <time>2019-08-01T18:44:09Z</time>
      </trkpt>
      <trkpt lat="48.401010" lon="0.425090">
        <ele>185</ele>
        <time>2019-08-01T18:44:20Z</time>
      </trkpt>
      <trkpt lat="48.398400" lon="0.424150">
        <ele>183</ele>
        <time>2019-08-01T18:44:25Z</time>
      </trkpt>
      <trkpt lat="48.397900" lon="0.423860">
        <ele>183</ele>
        <time>2019-08-01T18:44:38Z</time>
      </trkpt>
      <trkpt lat="48.397520" lon="0.423570">
        <ele>183</ele>
        <time>2019-08-01T18:45:52Z</time>
      </trkpt>
      <trkpt lat="48.397320" lon="0.423360">
        <ele>182</ele>
        <time>2019-08-01T18:45:58Z</time>
      </trkpt>
      <trkpt lat="48.394000" lon="0.419580">
        <ele>170</ele>
        <time>2019-08-01T18:46:03Z</time>
      </trkpt>
      <trkpt lat="48.393520" lon="0.419080">
        <ele>169</ele>
        <time>2019-08-01T18:46:45Z</time>
      </trkpt>
      <trkpt lat="48.393250" lon="0.418860">
        <ele>169</ele>
        <time>2019-08-01T18:46:48Z</time>
      </trkpt>
      <trkpt lat="48.392580" lon="0.418460">
        <ele>169</ele>
        <time>2019-08-01T18:46:51Z</time>
      </trkpt>
      <trkpt lat="48.388720" lon="0.416200">
        <ele>148</ele>
        <time>2019-08-01T18:46:54Z</time>
      </trkpt>
      <trkpt lat="48.388380" lon="0.416020">
        <ele>148</ele>
        <time>2019-08-01T18:46:58Z</time>
      </trkpt>
      <trkpt lat="48.388100" lon="0.415980">
        <ele>148</ele>
        <time>2019-08-01T18:47:05Z</time>
      </trkpt>
      <trkpt lat="48.385780" lon="0.416080">
        <ele>146</ele>
        <time>2019-08-01T18:47:16Z</time>
      </trkpt>
      <trkpt lat="48.385580" lon="0.416050">
        <ele>146</ele>
        <time>2019-08-01T18:47:22Z</time>
      </trkpt>
      <trkpt lat="48.385430" lon="0.415980">
        <ele>145</ele>
        <time>2019-08-01T18:47:29Z</time>
      </trkpt>
      <trkpt lat="48.385240" lon="0.415890">
        <ele>145</ele>
        <time>2019-08-01T18:47:34Z</time>
      </trkpt>
      <trkpt lat="48.385070" lon="0.415750">
        <ele>145</ele>
        <time>2019-08-01T18:47:45Z</time>
      </trkpt>
      <trkpt lat="48.384790" lon="0.415380">
        <ele>144</ele>
        <time>2019-08-01T18:48:17Z</time>
      </trkpt>
      <trkpt lat="48.384410" lon="0.414620">
        <ele>142</ele>
        <time>2019-08-01T18:48:33Z</time>
      </trkpt>
      <trkpt lat="48.384170" lon="0.414210">
        <ele>141</ele>
        <time>2019-08-01T18:49:27Z</time>
      </trkpt>
      <trkpt lat="48.383890" lon="0.413810">
        <ele>139</ele>
        <time>2019-08-01T18:49:52Z</time>
      </trkpt>
      <trkpt lat="48.383680" lon="0.413560">
        <ele>138</ele>
        <time>2019-08-01T18:50:46Z</time>
      </trkpt>
      <trkpt lat="48.383130" lon="0.413060">
        <ele>138</ele>
        <time>2019-08-01T18:51:03Z</time>
      </trkpt>
      <trkpt lat="48.381550" lon="0.411740">
        <ele>141</ele>
        <time>2019-08-01T18:51:08Z</time>
      </trkpt>
      <trkpt lat="48.380830" lon="0.411020">
        <ele>138</ele>
        <time>2019-08-01T18:52:06Z</time>
      </trkpt>
      <trkpt lat="48.378390" lon="0.408290">
        <ele>133</ele>
        <time>2019-08-01T18:52:22Z</time>
      </trkpt>
      <trkpt lat="48.377270" lon="0.407000">
        <ele>138</ele>
        <time>2019-08-01T18:52:29Z</time>
      </trkpt>
      <trkpt lat="48.374950" lon="0.404000">
        <ele>138</ele>
        <time>2019-08-01T18:52:32Z</time>
      </trkpt>
      <trkpt lat="48.374210" lon="0.403200">
        <ele>140</ele>
        <time>2019-08-01T18:52:35Z</time>
      </trkpt>
      <trkpt lat="48.373940" lon="0.402950">
        <ele>141</ele>
        <time>2019-08-01T18:52:39Z</time>
      </trkpt>
      <trkpt lat="48.371090" lon="0.400640">
        <ele>135</ele>
        <time>2019-08-01T18:52:44Z</time>
      </trkpt>
      <trkpt lat="48.370270" lon="0.400010">
        <ele>131</ele>
        <time>2019-08-01T18:52:53Z</time>
      </trkpt>
      <trkpt lat="48.369960" lon="0.399730">
        <ele>128</ele>
        <time>2019-08-01T18:52:56Z</time>
      </trkpt>
      <trkpt lat="48.369800" lon="0.399550">
        <ele>128</ele>
        <time>2019-08-01T18:53:10Z</time>
      </trkpt>
      <trkpt lat="48.369690" lon="0.399360">
        <ele>127</ele>
        <time>2019-08-01T18:53:18Z</time>
      </trkpt>
      <trkpt lat="48.369590" lon="0.399110">
        <ele>126</ele>
        <time>2019-08-01T18:53:22Z</time>
      </trkpt>
      <trkpt lat="48.369460" lon="0.398700">
        <ele>125</ele>
        <time>2019-08-01T18:53:29Z</time>
      </trkpt>
      <trkpt lat="48.369330" lon="0.397950">
        <ele>122</ele>
        <time>2019-08-01T18:53:39Z</time>
      </trkpt>
      <trkpt lat="48.369290" lon="0.397700">
        <ele>120</ele>
        <time>2019-08-01T18:54:23Z</time>
      </trkpt>
      <trkpt lat="48.369190" lon="0.396510">
        <ele>114</ele>
        <time>2019-08-01T18:54:33Z</time>
      </trkpt>
      <trkpt lat="48.369070" lon="0.395890">
        <ele>116</ele>
        <time>2019-08-01T18:56:05Z</time>
      </trkpt>
      <trkpt lat="48.369000" lon="0.395610">
        <ele>116</ele>
        <time>2019-08-01T18:56:26Z</time>
      </trkpt>
      <trkpt lat="48.368800" lon="0.395040">
        <ele>119</ele>
        <time>2019-08-01T18:56:35Z</time>
      </trkpt>
      <trkpt lat="48.368470" lon="0.394330">
        <ele>121</ele>
        <time>2019-08-01T18:56:42Z</time>
      </trkpt>
      <trkpt lat="48.366930" lon="0.391410">
        <ele>133</ele>
        <time>2019-08-01T18:56:53Z</time>
      </trkpt>
      <trkpt lat="48.366600" lon="0.390830">
        <ele>134</ele>
        <time>2019-08-01T18:56:59Z</time>
      </trkpt>
      <trkpt lat="48.363320" lon="0.384800">
        <ele>155</ele>
        <time>2019-08-01T18:57:05Z</time>
      </trkpt>
      <trkpt lat="48.362560" lon="0.383430">
        <ele>159</ele>
        <time>2019-08-01T18:57:12Z</time>
      </trkpt>
      <trkpt lat="48.362240" lon="0.382800">
        <ele>159</ele>
        <time>2019-08-01T18:57:21Z</time>
      </trkpt>
      <trkpt lat="48.362050" lon="0.382310">
        <ele>160</ele>
        <time>2019-08-01T18:57:27Z</time>
      </trkpt>
      <trkpt lat="48.361770" lon="0.381480">
        <ele>159</ele>
        <time>2019-08-01T18:57:37Z</time>
      </trkpt>
      <trkpt lat="48.361580" lon="0.381000">
        <ele>157</ele>
        <time>2019-08-01T18:57:45Z</time>
      </trkpt>
      <trkpt lat="48.361360" lon="0.380650">
        <ele>156</ele>
        <time>2019-08-01T18:57:45Z</time>
      </trkpt>
      <trkpt lat="48.361090" lon="0.380290">
        <ele>156</ele>
        <time>2019-08-01T18:58:15Z</time>
      </trkpt>
      <trkpt lat="48.360660" lon="0.379790">
        <ele>156</ele>
        <time>2019-08-01T18:58:18Z</time>
      </trkpt>
      <trkpt lat="48.360380" lon="0.379520">
        <ele>155</ele>
        <time>2019-08-01T18:59:02Z</time>
      </trkpt>
      <trkpt lat="48.359890" lon="0.379200">
        <ele>155</ele>
        <time>2019-08-01T18:59:09Z</time>
      </trkpt>
      <trkpt lat="48.359420" lon="0.379000">
        <ele>154</ele>
        <time>2019-08-01T18:59:14Z</time>
      </trkpt>
      <trkpt lat="48.359420" lon="0.379000">
        <ele>154</ele>
        <time>2019-08-01T18:59:21Z</time>
      </trkpt>
      <trkpt lat="48.357800" lon="0.378290">
        <ele>149</ele>
        <time>2019-08-01T18:59:26Z</time>
      </trkpt>
      <trkpt lat="48.357660" lon="0.378180">
        <ele>148</ele>
        <time>2019-08-01T18:59:33Z</time>
      </trkpt>
      <trkpt lat="48.359320" lon="0.375450">
        <ele>134</ele>
        <time>2019-08-01T18:59:42Z</time>
      </trkpt>
      <trkpt lat="48.359570" lon="0.374960">
        <ele>129</ele>
        <time>2019-08-01T18:59:51Z</time>
      </trkpt>
      <trkpt lat="48.359730" lon="0.374610">
        <ele>126</ele>
        <time>2019-08-01T18:59:58Z</time>
      </trkpt>
      <trkpt lat="48.359920" lon="0.374110">
        <ele>123</ele>
        <time>2019-08-01T19:00:06Z</time>
      </trkpt>
      <trkpt lat="48.360040" lon="0.373730">
        <ele>121</ele>
        <time>2019-08-01T19:00:12Z</time>
      </trkpt>
      <trkpt lat="48.360190" lon="0.373210">
        <ele>119</ele>
        <time>2019-08-01T19:00:23Z</time>
      </trkpt>
      <trkpt lat="48.360330" lon="0.372430">
        <ele>119</ele>
        <time>2019-08-01T19:00:55Z</time>
      </trkpt>
      <trkpt lat="48.360420" lon="0.371690">
        <ele>120</ele>
        <time>2019-08-01T19:00:55Z</time>
      </trkpt>
      <trkpt lat="48.360450" lon="0.371130">
        <ele>122</ele>
        <time>2019-08-01T19:01:31Z</time>
      </trkpt>
      <trkpt lat="48.360440" lon="0.370430">
        <ele>126</ele>
        <time>2019-08-01T19:01:50Z</time>
      </trkpt>
      <trkpt lat="48.360410" lon="0.369920">
        <ele>129</ele>
        <time>2019-08-01T19:01:55Z</time>
      </trkpt>
      <trkpt lat="48.360290" lon="0.369000">
        <ele>129</ele>
        <time>2019-08-01T19:01:56Z</time>
      </trkpt>
      <trkpt lat="48.359900" lon="0.366380">
        <ele>134</ele>
        <time>2019-08-01T19:01:57Z</time>
      </trkpt>
      <trkpt lat="48.359900" lon="0.366380">
        <ele>134</ele>
        <time>2019-08-01T19:01:58Z</time>
      </trkpt>
      <trkpt lat="48.359450" lon="0.363390">
        <ele>143</ele>
        <time>2019-08-01T19:01:59Z</time>
      </trkpt>
      <trkpt lat="48.359250" lon="0.361850">
        <ele>147</ele>
        <time>2019-08-01T19:02:00Z</time>
      </trkpt>
      <trkpt lat="48.359250" lon="0.361440">
        <ele>148</ele>
        <time>2019-08-01T19:02:01Z</time>
      </trkpt>
      <trkpt lat="48.359290" lon="0.361370">
        <ele>148</ele>
        <time>2019-08-01T19:02:03Z</time>
      </trkpt>
      <trkpt lat="48.359310" lon="0.361300">
        <ele>148</ele>
        <time>2019-08-01T19:02:07Z</time>
      </trkpt>
      <trkpt lat="48.359300" lon="0.361190">
        <ele>149</ele>
        <time>2019-08-01T19:02:17Z</time>
      </trkpt>
      <trkpt lat="48.359280" lon="0.361120">
        <ele>149</ele>
        <time>2019-08-01T19:02:23Z</time>
      </trkpt>
      <trkpt lat="48.359220" lon="0.361050">
        <ele>149</ele>
        <time>2019-08-01T19:02:31Z</time>
      </trkpt>
      <trkpt lat="48.359160" lon="0.361020">
        <ele>149</ele>
        <time>2019-08-01T19:04:06Z</time>
      </trkpt>
      <trkpt lat="48.359090" lon="0.361040">
        <ele>149</ele>
        <time>2019-08-01T19:04:11Z</time>
      </trkpt>
      <trkpt lat="48.358930" lon="0.360790">
        <ele>150</ele>
        <time>2019-08-01T19:04:12Z</time>
      </trkpt>
      <trkpt lat="48.358570" lon="0.360110">
        <ele>154</ele>
        <time>2019-08-01T19:04:14Z</time>
      </trkpt>
      <trkpt lat="48.358320" lon="0.359710">
        <ele>157</ele>
        <time>2019-08-01T19:04:16Z</time>
      </trkpt>
      <trkpt lat="48.358000" lon="0.359330">
        <ele>160</ele>
        <time>2019-08-01T19:04:18Z</time>
      </trkpt>
      <trkpt lat="48.353450" lon="0.355120">
        <ele>168</ele>
        <time>2019-08-01T19:04:20Z</time>
      </trkpt>
      <trkpt lat="48.353230" lon="0.354840">
        <ele>167</ele>
        <time>2019-08-01T19:04:21Z</time>
      </trkpt>
      <trkpt lat="48.353220" lon="0.354740">
        <ele>167</ele>
        <time>2019-08-01T19:04:27Z</time>
      </trkpt>
      <trkpt lat="48.353160" lon="0.354600">
        <ele>167</ele>
        <time>2019-08-01T19:04:31Z</time>
      </trkpt>
      <trkpt lat="48.353050" lon="0.354540">
        <ele>166</ele>
        <time>2019-08-01T19:05:06Z</time>
      </trkpt>
      <trkpt lat="48.352940" lon="0.354570">
        <ele>166</ele>
        <time>2019-08-01T19:05:16Z</time>
      </trkpt>
      <trkpt lat="48.352870" lon="0.354660">
        <ele>166</ele>
        <time>2019-08-01T19:05:32Z</time>
      </trkpt>
      <trkpt lat="48.352840" lon="0.354770">
        <ele>166</ele>
        <time>2019-08-01T19:05:41Z</time>
      </trkpt>
      <trkpt lat="48.352550" lon="0.354910">
        <ele>165</ele>
        <time>2019-08-01T19:05:51Z</time>
      </trkpt>
      <trkpt lat="48.352290" lon="0.355000">
        <ele>164</ele>
        <time>2019-08-01T19:06:01Z</time>
      </trkpt>
      <trkpt lat="48.350580" lon="0.356400">
        <ele>157</ele>
        <time>2019-08-01T19:06:14Z</time>
      </trkpt>
      <trkpt lat="48.350080" lon="0.356720">
        <ele>157</ele>
        <time>2019-08-01T19:06:15Z</time>
      </trkpt>
      <trkpt lat="48.349230" lon="0.357170">
        <ele>155</ele>
        <time>2019-08-01T19:06:17Z</time>
      </trkpt>
      <trkpt lat="48.348700" lon="0.357410">
        <ele>156</ele>
        <time>2019-08-01T19:06:18Z</time>
      </trkpt>
      <trkpt lat="48.348170" lon="0.357600">
        <ele>157</ele>
        <time>2019-08-01T19:06:20Z</time>
      </trkpt>
      <trkpt lat="48.347650" lon="0.357700">
        <ele>156</ele>
        <time>2019-08-01T19:06:21Z</time>
      </trkpt>
      <trkpt lat="48.346900" lon="0.357760">
        <ele>156</ele>
        <time>2019-08-01T19:06:25Z</time>
      </trkpt>
      <trkpt lat="48.346880" lon="0.357660">
        <ele>156</ele>
        <time>2019-08-01T19:06:38Z</time>
      </trkpt>
      <trkpt lat="48.346830" lon="0.357560">
        <ele>156</ele>
        <time>2019-08-01T19:07:00Z</time>
      </trkpt>
      <trkpt lat="48.346770" lon="0.357510">
        <ele>156</ele>
        <time>2019-08-01T19:07:06Z</time>
      </trkpt>
      <trkpt lat="48.346670" lon="0.357500">
        <ele>156</ele>
        <time>2019-08-01T19:07:19Z</time>
      </trkpt>
      <trkpt lat="48.346610" lon="0.357530">
        <ele>156</ele>
        <time>2019-08-01T19:07:34Z</time>
      </trkpt>
      <trkpt lat="48.346550" lon="0.357180">
        <ele>156</ele>
        <time>2019-08-01T19:07:46Z</time>
      </trkpt>
      <trkpt lat="48.346200" lon="0.356190">
        <ele>153</ele>
        <time>2019-08-01T19:08:14Z</time>
      </trkpt>
      <trkpt lat="48.345580" lon="0.354650">
        <ele>146</ele>
        <time>2019-08-01T19:08:38Z</time>
      </trkpt>
      <trkpt lat="48.345370" lon="0.354220">
        <ele>145</ele>
        <time>2019-08-01T19:08:46Z</time>
      </trkpt>
      <trkpt lat="48.344840" lon="0.353490">
        <ele>142</ele>
        <time>2019-08-01T19:08:52Z</time>
      </trkpt>
      <trkpt lat="48.344200" lon="0.352660">
        <ele>137</ele>
        <time>2019-08-01T19:08:57Z</time>
      </trkpt>
      <trkpt lat="48.343650" lon="0.352000">
        <ele>132</ele>
        <time>2019-08-01T19:09:02Z</time>
      </trkpt>
      <trkpt lat="48.342410" lon="0.350610">
        <ele>125</ele>
        <time>2019-08-01T19:09:06Z</time>
      </trkpt>
      <trkpt lat="48.341320" lon="0.349410">
        <ele>118</ele>
        <time>2019-08-01T19:09:31Z</time>
      </trkpt>
      <trkpt lat="48.340940" lon="0.348940">
        <ele>116</ele>
        <time>2019-08-01T19:09:39Z</time>
      </trkpt>
      <trkpt lat="48.340750" lon="0.348610">
        <ele>115</ele>
        <time>2019-08-01T19:09:52Z</time>
      </trkpt>
      <trkpt lat="48.340560" lon="0.348240">
        <ele>114</ele>
        <time>2019-08-01T19:10:11Z</time>
      </trkpt>
      <trkpt lat="48.340450" lon="0.347910">
        <ele>112</ele>
        <time>2019-08-01T19:10:30Z</time>
      </trkpt>
      <trkpt lat="48.340350" lon="0.347530">
        <ele>109</ele>
        <time>2019-08-01T19:10:50Z</time>
      </trkpt>
      <trkpt lat="48.340030" lon="0.345490">
        <ele>115</ele>
        <time>2019-08-01T19:11:18Z</time>
      </trkpt>
      <trkpt lat="48.339910" lon="0.344890">
        <ele>117</ele>
        <time>2019-08-01T19:11:30Z</time>
      </trkpt>
      <trkpt lat="48.339670" lon="0.343780">
        <ele>119</ele>
        <time>2019-08-01T19:11:39Z</time>
      </trkpt>
      <trkpt lat="48.339250" lon="0.342360">
        <ele>125</ele>
        <time>2019-08-01T19:11:46Z</time>
      </trkpt>
      <trkpt lat="48.338690" lon="0.340960">
        <ele>128</ele>
        <time>2019-08-01T19:11:52Z</time>
      </trkpt>
      <trkpt lat="48.338020" lon="0.339660">
        <ele>134</ele>
        <time>2019-08-01T19:11:59Z</time>
      </trkpt>
      <trkpt lat="48.336930" lon="0.337930">
        <ele>141</ele>
        <time>2019-08-01T19:12:08Z</time>
      </trkpt>
      <trkpt lat="48.336500" lon="0.337150">
        <ele>143</ele>
        <time>2019-08-01T19:12:15Z</time>
      </trkpt>
      <trkpt lat="48.336240" lon="0.336490">
        <ele>144</ele>
        <time>2019-08-01T19:12:35Z</time>
      </trkpt>
      <trkpt lat="48.336070" lon="0.335930">
        <ele>146</ele>
        <time>2019-08-01T19:12:45Z</time>
      </trkpt>
      <trkpt lat="48.335970" lon="0.335490">
        <ele>149</ele>
        <time>2019-08-01T19:12:50Z</time>
      </trkpt>
      <trkpt lat="48.335880" lon="0.334840">
        <ele>153</ele>
        <time>2019-08-01T19:13:00Z</time>
      </trkpt>
      <trkpt lat="48.335850" lon="0.334100">
        <ele>159</ele>
        <time>2019-08-01T19:13:07Z</time>
      </trkpt>
      <trkpt lat="48.335850" lon="0.333530">
        <ele>162</ele>
        <time>2019-08-01T19:13:07Z</time>
      </trkpt>
      <trkpt lat="48.335960" lon="0.331810">
        <ele>166</ele>
        <time>2019-08-01T19:13:13Z</time>
      </trkpt>
      <trkpt lat="48.335970" lon="0.331020">
        <ele>168</ele>
        <time>2019-08-01T19:13:21Z</time>
      </trkpt>
      <trkpt lat="48.335960" lon="0.330570">
        <ele>168</ele>
        <time>2019-08-01T19:13:45Z</time>
      </trkpt>
      <trkpt lat="48.335880" lon="0.329760">
        <ele>168</ele>
        <time>2019-08-01T19:13:49Z</time>
      </trkpt>
      <trkpt lat="48.335800" lon="0.329180">
        <ele>168</ele>
        <time>2019-08-01T19:13:54Z</time>
      </trkpt>
      <trkpt lat="48.335800" lon="0.329180">
        <ele>168</ele>
        <time>2019-08-01T19:14:17Z</time>
      </trkpt>
      <trkpt lat="48.335690" lon="0.328640">
        <ele>167</ele>
        <time>2019-08-01T19:14:23Z</time>
      </trkpt>
      <trkpt lat="48.335550" lon="0.328080">
        <ele>167</ele>
        <time>2019-08-01T19:14:29Z</time>
      </trkpt>
      <trkpt lat="48.334930" lon="0.326230">
        <ele>165</ele>
        <time>2019-08-01T19:14:36Z</time>
      </trkpt>
      <trkpt lat="48.334850" lon="0.325900">
        <ele>164</ele>
        <time>2019-08-01T19:14:42Z</time>
      </trkpt>
      <trkpt lat="48.334760" lon="0.325480">
        <ele>164</ele>
        <time>2019-08-01T19:14:48Z</time>
      </trkpt>
      <trkpt lat="48.334430" lon="0.323620">
        <ele>162</ele>
        <time>2019-08-01T19:15:07Z</time>
      </trkpt>
      <trkpt lat="48.334310" lon="0.323150">
        <ele>162</ele>
        <time>2019-08-01T19:15:13Z</time>
      </trkpt>
      <trkpt lat="48.334170" lon="0.322700">
        <ele>162</ele>
        <time>2019-08-01T19:15:22Z</time>
      </trkpt>
      <trkpt lat="48.333960" lon="0.322230">
        <ele>162</ele>
        <time>2019-08-01T19:15:59Z</time>
      </trkpt>
      <trkpt lat="48.333710" lon="0.321860">
        <ele>162</ele>
        <time>2019-08-01T19:16:18Z</time>
      </trkpt>
      <trkpt lat="48.333420" lon="0.321540">
        <ele>162</ele>
        <time>2019-08-01T19:16:31Z</time>
      </trkpt>
      <trkpt lat="48.332540" lon="0.320760">
        <ele>158</ele>
        <time>2019-08-01T19:16:45Z</time>
      </trkpt>
      <trkpt lat="48.332240" lon="0.320430">
        <ele>156</ele>
        <time>2019-08-01T19:17:00Z</time>
      </trkpt>
      <trkpt lat="48.331900" lon="0.319900">
        <ele>154</ele>
        <time>2019-08-01T19:17:33Z</time>
      </trkpt>
      <trkpt lat="48.330570" lon="0.317470">
        <ele>151</ele>
        <time>2019-08-01T19:18:13Z</time>
      </trkpt>
      <trkpt lat="48.329840" lon="0.316350">
        <ele>153</ele>
        <time>2019-08-01T19:18:26Z</time>
      </trkpt>
      <trkpt lat="48.329340" lon="0.315500">
        <ele>153</ele>
        <time>2019-08-01T19:18:41Z</time>
      </trkpt>
      <trkpt lat="48.328850" lon="0.314560">
        <ele>153</ele>
        <time>2019-08-01T19:18:53Z</time>
      </trkpt>
      <trkpt lat="48.328300" lon="0.313670">
        <ele>155</ele>
        <time>2019-08-01T19:18:59Z</time>
      </trkpt>
      <trkpt lat="48.326980" lon="0.311700">
        <ele>155</ele>
        <time>2019-08-01T19:19:04Z</time>
      </trkpt>
      <trkpt lat="48.325340" lon="0.309320">
        <ele>153</ele>
        <time>2019-08-01T19:19:15Z</time>
      </trkpt>
      <trkpt lat="48.324850" lon="0.308470">
        <ele>152</ele>
        <time>2019-08-01T19:19:25Z</time>
      </trkpt>
      <trkpt lat="48.324330" lon="0.307530">
        <ele>153</ele>
        <time>2019-08-01T19:19:41Z</time>
      </trkpt>
      <trkpt lat="48.323870" lon="0.306750">
        <ele>153</ele>
        <time>2019-08-01T19:19:47Z</time>
      </trkpt>
      <trkpt lat="48.323650" lon="0.306440">
        <ele>154</ele>
        <time>2019-08-01T19:19:52Z</time>
      </trkpt>
      <trkpt lat="48.323420" lon="0.306190">
        <ele>154</ele>
        <time>2019-08-01T19:20:40Z</time>
      </trkpt>
      <trkpt lat="48.322900" lon="0.305710">
        <ele>153</ele>
        <time>2019-08-01T19:20:52Z</time>
      </trkpt>
      <trkpt lat="48.322370" lon="0.305440">
        <ele>151</ele>
        <time>2019-08-01T19:21:04Z</time>
      </trkpt>
      <trkpt lat="48.321470" lon="0.305220">
        <ele>149</ele>
        <time>2019-08-01T19:21:41Z</time>
      </trkpt>
      <trkpt lat="48.321100" lon="0.305100">
        <ele>150</ele>
        <time>2019-08-01T19:22:07Z</time>
      </trkpt>
      <trkpt lat="48.320870" lon="0.304990">
        <ele>151</ele>
        <time>2019-08-01T19:22:27Z</time>
      </trkpt>
      <trkpt lat="48.318490" lon="0.303110">
        <ele>149</ele>
        <time>2019-08-01T19:22:45Z</time>
      </trkpt>
      <trkpt lat="48.317820" lon="0.302710">
        <ele>148</ele>
        <time>2019-08-01T19:22:57Z</time>
      </trkpt>
      <trkpt lat="48.317210" lon="0.302460">
        <ele>147</ele>
        <time>2019-08-01T19:23:20Z</time>
      </trkpt>
      <trkpt lat="48.315190" lon="0.301730">
        <ele>143</ele>
        <time>2019-08-01T19:23:34Z</time>
      </trkpt>
      <trkpt lat="48.313790" lon="0.301080">
        <ele>143</ele>
        <time>2019-08-01T19:23:52Z</time>
      </trkpt>
      <trkpt lat="48.312730" lon="0.300560">
        <ele>144</ele>
        <time>2019-08-01T19:25:57Z</time>
      </trkpt>
      <trkpt lat="48.311790" lon="0.299960">
        <ele>142</ele>
        <time>2019-08-01T19:26:16Z</time>
      </trkpt>
      <trkpt lat="48.311180" lon="0.299460">
        <ele>141</ele>
        <time>2019-08-01T19:26:26Z</time>
      </trkpt>
      <trkpt lat="48.310070" lon="0.298420">
        <ele>139</ele>
        <time>2019-08-01T19:26:37Z</time>
      </trkpt>
      <trkpt lat="48.309420" lon="0.297880">
        <ele>139</ele>
        <time>2019-08-01T19:26:50Z</time>
      </trkpt>
      <trkpt lat="48.308470" lon="0.297320">
        <ele>138</ele>
        <time>2019-08-01T19:27:12Z</time>
      </trkpt>
      <trkpt lat="48.301700" lon="0.294280">
        <ele>119</ele>
        <time>2019-08-01T19:27:34Z</time>
      </trkpt>
      <trkpt lat="48.300730" lon="0.293790">
        <ele>119</ele>
        <time>2019-08-01T19:27:51Z</time>
      </trkpt>
      <trkpt lat="48.300210" lon="0.293470">
        <ele>121</ele>
        <time>2019-08-01T19:28:06Z</time>
      </trkpt>
      <trkpt lat="48.299670" lon="0.292960">
        <ele>122</ele>
        <time>2019-08-01T19:28:31Z</time>
      </trkpt>
      <trkpt lat="48.299140" lon="0.292240">
        <ele>123</ele>
        <time>2019-08-01T19:28:44Z</time>
      </trkpt>
      <trkpt lat="48.298350" lon="0.290830">
        <ele>121</ele>
        <time>2019-08-01T19:28:52Z</time>
      </trkpt>
      <trkpt lat="48.297550" lon="0.289340">
        <ele>123</ele>
        <time>2019-08-01T19:29:02Z</time>
      </trkpt>
      <trkpt lat="48.296980" lon="0.288180">
        <ele>123</ele>
        <time>2019-08-01T19:29:10Z</time>
      </trkpt>
      <trkpt lat="48.296550" lon="0.287160">
        <ele>122</ele>
        <time>2019-08-01T19:29:20Z</time>
      </trkpt>
      <trkpt lat="48.296060" lon="0.285150">
        <ele>118</ele>
        <time>2019-08-01T19:29:52Z</time>
      </trkpt>
      <trkpt lat="48.295780" lon="0.284130">
        <ele>116</ele>
        <time>2019-08-01T19:31:52Z</time>
      </trkpt>
      <trkpt lat="48.295570" lon="0.283560">
        <ele>115</ele>
        <time>2019-08-01T19:32:00Z</time>
      </trkpt>
      <trkpt lat="48.295190" lon="0.282860">
        <ele>115</ele>
        <time>2019-08-01T19:32:07Z</time>
      </trkpt>
      <trkpt lat="48.294860" lon="0.282420">
        <ele>114</ele>
        <time>2019-08-01T19:32:13Z</time>
      </trkpt>
      <trkpt lat="48.294400" lon="0.281920">
        <ele>112</ele>
        <time>2019-08-01T19:32:19Z</time>
      </trkpt>
      <trkpt lat="48.292770" lon="0.280950">
        <ele>107</ele>
        <time>2019-08-01T19:32:33Z</time>
      </trkpt>
      <trkpt lat="48.286390" lon="0.277610">
        <ele>101</ele>
        <time>2019-08-01T19:33:05Z</time>
      </trkpt>
      <trkpt lat="48.285960" lon="0.277430">
        <ele>101</ele>
        <time>2019-08-01T19:33:14Z</time>
      </trkpt>
      <trkpt lat="48.285530" lon="0.277370">
        <ele>101</ele>
        <time>2019-08-01T19:33:21Z</time>
      </trkpt>
      <trkpt lat="48.285190" lon="0.277380">
        <ele>100</ele>
        <time>2019-08-01T19:33:27Z</time>
      </trkpt>
      <trkpt lat="48.284890" lon="0.277440">
        <ele>100</ele>
        <time>2019-08-01T19:34:04Z</time>
      </trkpt>
      <trkpt lat="48.284140" lon="0.277720">
        <ele>98</ele>
        <time>2019-08-01T19:34:13Z</time>
      </trkpt>
      <trkpt lat="48.282400" lon="0.278470">
        <ele>94</ele>
        <time>2019-08-01T19:34:22Z</time>
      </trkpt>
      <trkpt lat="48.281890" lon="0.278640">
        <ele>93</ele>
        <time>2019-08-01T19:34:41Z</time>
      </trkpt>
      <trkpt lat="48.281490" lon="0.278720">
        <ele>91</ele>
        <time>2019-08-01T19:35:02Z</time>
      </trkpt>
      <trkpt lat="48.281140" lon="0.278720">
        <ele>91</ele>
        <time>2019-08-01T19:35:14Z</time>
      </trkpt>
      <trkpt lat="48.279080" lon="0.278500">
        <ele>93</ele>
        <time>2019-08-01T19:35:19Z</time>
      </trkpt>
      <trkpt lat="48.278560" lon="0.278490">
        <ele>91</ele>
        <time>2019-08-01T19:35:26Z</time>
      </trkpt>
      <trkpt lat="48.278090" lon="0.278510">
        <ele>90</ele>
        <time>2019-08-01T19:35:41Z</time>
      </trkpt>
      <trkpt lat="48.276990" lon="0.278600">
        <ele>88</ele>
        <time>2019-08-01T19:35:52Z</time>
      </trkpt>
      <trkpt lat="48.275810" lon="0.278720">
        <ele>84</ele>
        <time>2019-08-01T19:36:03Z</time>
      </trkpt>
      <trkpt lat="48.275170" lon="0.278730">
        <ele>83</ele>
        <time>2019-08-01T19:36:03Z</time>
      </trkpt>
      <trkpt lat="48.274860" lon="0.278720">
        <ele>82</ele>
        <time>2019-08-01T19:36:11Z</time>
      </trkpt>
      <trkpt lat="48.274490" lon="0.278650">
        <ele>81</ele>
        <time>2019-08-01T19:36:25Z</time>
      </trkpt>
      <trkpt lat="48.273660" lon="0.278470">
        <ele>80</ele>
        <time>2019-08-01T19:36:33Z</time>
      </trkpt>
      <trkpt lat="48.273050" lon="0.278260">
        <ele>79</ele>
        <time>2019-08-01T19:36:48Z</time>
      </trkpt>
      <trkpt lat="48.272490" lon="0.277980">
        <ele>79</ele>
        <time>2019-08-01T19:36:57Z</time>
      </trkpt>
      <trkpt lat="48.272490" lon="0.277980">
        <ele>79</ele>
        <time>2019-08-01T19:37:04Z</time>
      </trkpt>
      <trkpt lat="48.272070" lon="0.277710">
        <ele>79</ele>
        <time>2019-08-01T19:37:26Z</time>
      </trkpt>
      <trkpt lat="48.271340" lon="0.277170">
        <ele>78</ele>
        <time>2019-08-01T19:37:31Z</time>
      </trkpt>
      <trkpt lat="48.270940" lon="0.276950">
        <ele>78</ele>
        <time>2019-08-01T19:38:01Z</time>
      </trkpt>
      <trkpt lat="48.270120" lon="0.276660">
        <ele>78</ele>
        <time>2019-08-01T19:38:11Z</time>
      </trkpt>
      <trkpt lat="48.269610" lon="0.276520">
        <ele>79</ele>
        <time>2019-08-01T19:38:19Z</time>
      </trkpt>
      <trkpt lat="48.269200" lon="0.276460">
        <ele>80</ele>
        <time>2019-08-01T19:38:34Z</time>
      </trkpt>
      <trkpt lat="48.268000" lon="0.276360">
        <ele>81</ele>
        <time>2019-08-01T19:38:39Z</time>
      </trkpt>
      <trkpt lat="48.267700" lon="0.276320">
        <ele>81</ele>
        <time>2019-08-01T19:38:42Z</time>
      </trkpt>
      <trkpt lat="48.266060" lon="0.275800">
        <ele>83</ele>
        <time>2019-08-01T19:38:48Z</time>
      </trkpt>
      <trkpt lat="48.265490" lon="0.275800">
        <ele>84</ele>
        <time>2019-08-01T19:38:57Z</time>
      </trkpt>
      <trkpt lat="48.265040" lon="0.275930">
        <ele>86</ele>
        <time>2019-08-01T19:39:02Z</time>
      </trkpt>
      <trkpt lat="48.264210" lon="0.276220">
        <ele>89</ele>
        <time>2019-08-01T19:39:10Z</time>
      </trkpt>
      <trkpt lat="48.263950" lon="0.276250">
        <ele>90</ele>
        <time>2019-08-01T19:39:15Z</time>
      </trkpt>
      <trkpt lat="48.263750" lon="0.276240">
        <ele>91</ele>
        <time>2019-08-01T19:39:20Z</time>
      </trkpt>
      <trkpt lat="48.263450" lon="0.276110">
        <ele>91</ele>
        <time>2019-08-01T19:39:25Z</time>
      </trkpt>
      <trkpt lat="48.263010" lon="0.275820">
        <ele>92</ele>
        <time>2019-08-01T19:39:31Z</time>
      </trkpt>
      <trkpt lat="48.262710" lon="0.275740">
        <ele>93</ele>
        <time>2019-08-01T19:39:38Z</time>
      </trkpt>
      <trkpt lat="48.262280" lon="0.275700">
        <ele>95</ele>
        <time>2019-08-01T19:39:48Z</time>
      </trkpt>
      <trkpt lat="48.262010" lon="0.275640">
        <ele>96</ele>
        <time>2019-08-01T19:40:19Z</time>
      </trkpt>
      <trkpt lat="48.261740" lon="0.275530">
        <ele>97</ele>
        <time>2019-08-01T19:40:26Z</time>
      </trkpt>
      <trkpt lat="48.261470" lon="0.275390">
        <ele>98</ele>
        <time>2019-08-01T19:40:32Z</time>
      </trkpt>
      <trkpt lat="48.261150" lon="0.275140">
        <ele>98</ele>
        <time>2019-08-01T19:40:36Z</time>
      </trkpt>
      <trkpt lat="48.260830" lon="0.274830">
        <ele>99</ele>
        <time>2019-08-01T19:40:42Z</time>
      </trkpt>
      <trkpt lat="48.260400" lon="0.274290">
        <ele>99</ele>
        <time>2019-08-01T19:41:02Z</time>
      </trkpt>
      <trkpt lat="48.259150" lon="0.272480">
        <ele>98</ele>
        <time>2019-08-01T19:41:09Z</time>
      </trkpt>
      <trkpt lat="48.258810" lon="0.272180">
        <ele>99</ele>
        <time>2019-08-01T19:41:19Z</time>
      </trkpt>
      <trkpt lat="48.258470" lon="0.271960">
        <ele>100</ele>
        <time>2019-08-01T19:41:37Z</time>
      </trkpt>
      <trkpt lat="48.258250" lon="0.271870">
        <ele>100</ele>
        <time>2019-08-01T19:41:45Z</time>
      </trkpt>
      <trkpt lat="48.257940" lon="0.271810">
        <ele>100</ele>
        <time>2019-08-01T19:42:03Z</time>
      </trkpt>
      <trkpt lat="48.256800" lon="0.271790">
        <ele>100</ele>
        <time>2019-08-01T19:42:11Z</time>
      </trkpt>
      <trkpt lat="48.256440" lon="0.271690">
        <ele>100</ele>
        <time>2019-08-01T19:42:23Z</time>
      </trkpt>
      <trkpt lat="48.255940" lon="0.271330">
        <ele>99</ele>
        <time>2019-08-01T19:42:32Z</time>
      </trkpt>
      <trkpt lat="48.255130" lon="0.270350">
        <ele>96</ele>
        <time>2019-08-01T19:44:01Z</time>
      </trkpt>
      <trkpt lat="48.254740" lon="0.270050">
        <ele>95</ele>
        <time>2019-08-01T19:44:08Z</time>
      </trkpt>
      <trkpt lat="48.253750" lon="0.269750">
        <ele>94</ele>
        <time>2019-08-01T19:45:04Z</time>
      </trkpt>
      <trkpt lat="48.253330" lon="0.269510">
        <ele>94</ele>
        <time>2019-08-01T19:45:06Z</time>
      </trkpt>
      <trkpt lat="48.252750" lon="0.268930">
        <ele>92</ele>
        <time>2019-08-01T19:45:08Z</time>
      </trkpt>
      <trkpt lat="48.252400" lon="0.268370">
        <ele>93</ele>
        <time>2019-08-01T19:45:35Z</time>
      </trkpt>
      <trkpt lat="48.249380" lon="0.262380">
        <ele>93</ele>
        <time>2019-08-01T19:45:39Z</time>
      </trkpt>
      <trkpt lat="48.249180" lon="0.261940">
        <ele>92</ele>
        <time>2019-08-01T19:46:13Z</time>
      </trkpt>
      <trkpt lat="48.247270" lon="0.258160">
        <ele>92</ele>
        <time>2019-08-01T19:46:17Z</time>
      </trkpt>
      <trkpt lat="48.247190" lon="0.258060">
        <ele>92</ele>
        <time>2019-08-01T19:46:22Z</time>
      </trkpt>
      <trkpt lat="48.247070" lon="0.257980">
        <ele>92</ele>
        <time>2019-08-01T19:46:28Z</time>
      </trkpt>
      <trkpt lat="48.245640" lon="0.257230">
        <ele>92</ele>
        <time>2019-08-01T19:46:36Z</time>
      </trkpt>
      <trkpt lat="48.245430" lon="0.257080">
        <ele>92</ele>
        <time>2019-08-01T19:46:40Z</time>
      </trkpt>
      <trkpt lat="48.244030" lon="0.255170">
        <ele>90</ele>
        <time>2019-08-01T19:46:49Z</time>
      </trkpt>
      <trkpt lat="48.243830" lon="0.254940">
        <ele>90</ele>
        <time>2019-08-01T19:46:53Z</time>
      </trkpt>
      <trkpt lat="48.243610" lon="0.254770">
        <ele>89</ele>
        <time>2019-08-01T19:46:57Z</time>
      </trkpt>
      <trkpt lat="48.243280" lon="0.254580">
        <ele>89</ele>
        <time>2019-08-01T19:47:01Z</time>
      </trkpt>
      <trkpt lat="48.242820" lon="0.254450">
        <ele>88</ele>
        <time>2019-08-01T19:47:03Z</time>
      </trkpt>
      <trkpt lat="48.242880" lon="0.254110">
        <ele>88</ele>
        <time>2019-08-01T19:47:21Z</time>
      </trkpt>
      <trkpt lat="48.243090" lon="0.253450">
        <ele>88</ele>
        <time>2019-08-01T19:47:47Z</time>
      </trkpt>
      <trkpt lat="48.243170" lon="0.253110">
        <ele>89</ele>
        <time>2019-08-01T19:48:02Z</time>
      </trkpt>
      <trkpt lat="48.243210" lon="0.252820">
        <ele>89</ele>
        <time>2019-08-01T19:48:46Z</time>
      </trkpt>
      <trkpt lat="48.243220" lon="0.252510">
        <ele>89</ele>
        <time>2019-08-01T19:49:10Z</time>
      </trkpt>
      <trkpt lat="48.243210" lon="0.252270">
        <ele>88</ele>
        <time>2019-08-01T19:49:27Z</time>
      </trkpt>
      <trkpt lat="48.243030" lon="0.250810">
        <ele>86</ele>
        <time>2019-08-01T19:49:38Z</time>
      </trkpt>
      <trkpt lat="48.242630" lon="0.248720">
        <ele>84</ele>
        <time>2019-08-01T19:49:48Z</time>
      </trkpt>
      <trkpt lat="48.242350" lon="0.247540">
        <ele>83</ele>
        <time>2019-08-01T19:49:59Z</time>
      </trkpt>
      <trkpt lat="48.241940" lon="0.243870">
        <ele>75</ele>
        <time>2019-08-01T19:50:09Z</time>
      </trkpt>
      <trkpt lat="48.241430" lon="0.241980">
        <ele>75</ele>
        <time>2019-08-01T19:50:16Z</time>
      </trkpt>
      <trkpt lat="48.240860" lon="0.240830">
        <ele>75</ele>
        <time>2019-08-01T19:50:31Z</time>
      </trkpt>
      <trkpt lat="48.240510" lon="0.240090">
        <ele>74</ele>
        <time>2019-08-01T19:50:34Z</time>
      </trkpt>
      <trkpt lat="48.240250" lon="0.239350">
        <ele>73</ele>
        <time>2019-08-01T19:50:39Z</time>
      </trkpt>
      <trkpt lat="48.240010" lon="0.238440">
        <ele>72</ele>
        <time>2019-08-01T19:50:42Z</time>
      </trkpt>
      <trkpt lat="48.239830" lon="0.237640">
        <ele>72</ele>
        <time>2019-08-01T19:50:53Z</time>
      </trkpt>
      <trkpt lat="48.239770" lon="0.237040">
        <ele>72</ele>
        <time>2019-08-01T19:50:56Z</time>
      </trkpt>
      <trkpt lat="48.239600" lon="0.235800">
        <ele>72</ele>
        <time>2019-08-01T19:50:58Z</time>
      </trkpt>
      <trkpt lat="48.239600" lon="0.235590">
        <ele>72</ele>
        <time>2019-08-01T19:51:02Z</time>
      </trkpt>
      <trkpt lat="48.239650" lon="0.235150">
        <ele>72</ele>
        <time>2019-08-01T19:51:05Z</time>
      </trkpt>
      <trkpt lat="48.239710" lon="0.234910">
        <ele>72</ele>
        <time>2019-08-01T19:51:14Z</time>
      </trkpt>
      <trkpt lat="48.239970" lon="0.234110">
        <ele>72</ele>
        <time>2019-08-01T19:51:34Z</time>
      </trkpt>
      <trkpt lat="48.240010" lon="0.233880">
        <ele>72</ele>
        <time>2019-08-01T19:51:40Z</time>
      </trkpt>
      <trkpt lat="48.240020" lon="0.233680">
        <ele>73</ele>
        <time>2019-08-01T19:51:45Z</time>
      </trkpt>
      <trkpt lat="48.239990" lon="0.233350">
        <ele>73</ele>
        <time>2019-08-01T19:52:01Z</time>
      </trkpt>
      <trkpt lat="48.239950" lon="0.233100">
        <ele>73</ele>
        <time>2019-08-01T19:52:07Z</time>
      </trkpt>
      <trkpt lat="48.239750" lon="0.232380">
        <ele>74</ele>
        <time>2019-08-01T19:52:10Z</time>
      </trkpt>
      <trkpt lat="48.239230" lon="0.230890">
        <ele>74</ele>
        <time>2019-08-01T19:52:13Z</time>
      </trkpt>
      <trkpt lat="48.239110" lon="0.230400">
        <ele>73</ele>
        <time>2019-08-01T19:52:31Z</time>
      </trkpt>
      <trkpt lat="48.239060" lon="0.230020">
        <ele>73</ele>
        <time>2019-08-01T19:52:36Z</time>
      </trkpt>
      <trkpt lat="48.239000" lon="0.228700">
        <ele>70</ele>
        <time>2019-08-01T19:52:43Z</time>
      </trkpt>
      <trkpt lat="48.238950" lon="0.228200">
        <ele>69</ele>
        <time>2019-08-01T19:52:46Z</time>
      </trkpt>
      <trkpt lat="48.238900" lon="0.227940">
        <ele>69</ele>
        <time>2019-08-01T19:52:47Z</time>
      </trkpt>
      <trkpt lat="48.238810" lon="0.227740">
        <ele>69</ele>
        <time>2019-08-01T19:53:12Z</time>
      </trkpt>
      <trkpt lat="48.238060" lon="0.226680">
        <ele>69</ele>
        <time>2019-08-01T19:53:23Z</time>
      </trkpt>
      <trkpt lat="48.237850" lon="0.226350">
        <ele>69</ele>
        <time>2019-08-01T19:53:30Z</time>
      </trkpt>
      <trkpt lat="48.237660" lon="0.225880">
        <ele>69</ele>
        <time>2019-08-01T19:53:36Z</time>
      </trkpt>
      <trkpt lat="48.237630" lon="0.225660">
        <ele>69</ele>
        <time>2019-08-01T19:53:39Z</time>
      </trkpt>
      <trkpt lat="48.237660" lon="0.225530">
        <ele>68</ele>
        <time>2019-08-01T19:53:48Z</time>
      </trkpt>
      <trkpt lat="48.238530" lon="0.223860">
        <ele>62</ele>
        <time>2019-08-01T19:53:50Z</time>
      </trkpt>
      <trkpt lat="48.238840" lon="0.223090">
        <ele>63</ele>
        <time>2019-08-01T19:53:51Z</time>
      </trkpt>
      <trkpt lat="48.238890" lon="0.222510">
        <ele>63</ele>
        <time>2019-08-01T19:53:55Z</time>
      </trkpt>
      <trkpt lat="48.238910" lon="0.221960">
        <ele>63</ele>
        <time>2019-08-01T19:54:00Z</time>
      </trkpt>
      <trkpt lat="48.238940" lon="0.221750">
        <ele>63</ele>
        <time>2019-08-01T19:54:24Z</time>
      </trkpt>
      <trkpt lat="48.239220" lon="0.221090">
        <ele>64</ele>
        <time>2019-08-01T19:54:31Z</time>
      </trkpt>
      <trkpt lat="48.239210" lon="0.220980">
        <ele>64</ele>
        <time>2019-08-01T19:54:39Z</time>
      </trkpt>
      <trkpt lat="48.239180" lon="0.220860">
        <ele>64</ele>
        <time>2019-08-01T19:55:04Z</time>
      </trkpt>
      <trkpt lat="48.238990" lon="0.220690">
        <ele>63</ele>
        <time>2019-08-01T19:55:21Z</time>
      </trkpt>
      <trkpt lat="48.238720" lon="0.220470">
        <ele>62</ele>
        <time>2019-08-01T19:55:26Z</time>
      </trkpt>
      <trkpt lat="48.237490" lon="0.219760">
        <ele>62</ele>
        <time>2019-08-01T19:55:31Z</time>
      </trkpt>
      <trkpt lat="48.237150" lon="0.219500">
        <ele>61</ele>
        <time>2019-08-01T19:55:34Z</time>
      </trkpt>
      <trkpt lat="48.236760" lon="0.219050">
        <ele>61</ele>
        <time>2019-08-01T19:55:38Z</time>
      </trkpt>
      <trkpt lat="48.235700" lon="0.217760">
        <ele>61</ele>
        <time>2019-08-01T19:55:41Z</time>
      </trkpt>
      <trkpt lat="48.234900" lon="0.216960">
        <ele>60</ele>
        <time>2019-08-01T19:55:49Z</time>
      </trkpt>
      <trkpt lat="48.234670" lon="0.216630">
        <ele>61</ele>
        <time>2019-08-01T19:55:53Z</time>
      </trkpt>
      <trkpt lat="48.234530" lon="0.216330">
        <ele>61</ele>
        <time>2019-08-01T19:56:02Z</time>
      </trkpt>
      <trkpt lat="48.234440" lon="0.216090">
        <ele>61</ele>
        <time>2019-08-01T19:56:13Z</time>
      </trkpt>
      <trkpt lat="48.234390" lon="0.215790">
        <ele>62</ele>
        <time>2019-08-01T19:56:16Z</time>
      </trkpt>
      <trkpt lat="48.234360" lon="0.215500">
        <ele>62</ele>
        <time>2019-08-01T19:56:20Z</time>
      </trkpt>
      <trkpt lat="48.234370" lon="0.214810">
        <ele>62</ele>
        <time>2019-08-01T19:56:32Z</time>
      </trkpt>
      <trkpt lat="48.234410" lon="0.214470">
        <ele>62</ele>
        <time>2019-08-01T19:56:38Z</time>
      </trkpt>
      <trkpt lat="48.234540" lon="0.213820">
        <ele>63</ele>
        <time>2019-08-01T19:56:45Z</time>
      </trkpt>
      <trkpt lat="48.234760" lon="0.212920">
        <ele>64</ele>
        <time>2019-08-01T19:56:57Z</time>
      </trkpt>
      <trkpt lat="48.234810" lon="0.212680">
        <ele>64</ele>
        <time>2019-08-01T19:57:29Z</time>
      </trkpt>
      <trkpt lat="48.234800" lon="0.212320">
        <ele>64</ele>
        <time>2019-08-01T19:57:42Z</time>
      </trkpt>
      <trkpt lat="48.234700" lon="0.211370">
        <ele>64</ele>
        <time>2019-08-01T19:57:48Z</time>
      </trkpt>
      <trkpt lat="48.234670" lon="0.210850">
        <ele>64</ele>
        <time>2019-08-01T19:57:51Z</time>
      </trkpt>
      <trkpt lat="48.234740" lon="0.210280">
        <ele>64</ele>
        <time>2019-08-01T19:57:53Z</time>
      </trkpt>
      <trkpt lat="48.234910" lon="0.209260">
        <ele>65</ele>
        <time>2019-08-01T19:57:57Z</time>
      </trkpt>
      <trkpt lat="48.235540" lon="0.206750">
        <ele>65</ele>
        <time>2019-08-01T19:58:41Z</time>
      </trkpt>
      <trkpt lat="48.235870" lon="0.205760">
        <ele>64</ele>
        <time>2019-08-01T19:58:48Z</time>
      </trkpt>
      <trkpt lat="48.235990" lon="0.205320">
        <ele>63</ele>
        <time>2019-08-01T19:59:05Z</time>
      </trkpt>
      <trkpt lat="48.235990" lon="0.205050">
        <ele>62</ele>
        <time>2019-08-01T19:59:16Z</time>
      </trkpt>
      <trkpt lat="48.235960" lon="0.204870">
        <ele>62</ele>
        <time>2019-08-01T19:59:22Z</time>
      </trkpt>
      <trkpt lat="48.235840" lon="0.204550">
        <ele>63</ele>
        <time>2019-08-01T19:59:35Z</time>
      </trkpt>
      <trkpt lat="48.234350" lon="0.201630">
        <ele>71</ele>
        <time>2019-08-01T19:59:46Z</time>
      </trkpt>
      <trkpt lat="48.234150" lon="0.201150">
        <ele>73</ele>
        <time>2019-08-01T19:59:46Z</time>
      </trkpt>
      <trkpt lat="48.233680" lon="0.199900">
        <ele>73</ele>
        <time>2019-08-01T19:59:54Z</time>
      </trkpt>
      <trkpt lat="48.233390" lon="0.199020">
        <ele>71</ele>
        <time>2019-08-01T20:00:04Z</time>
      </trkpt>
      <trkpt lat="48.233330" lon="0.198570">
        <ele>70</ele>
        <time>2019-08-01T20:00:25Z</time>
      </trkpt>
      <trkpt lat="48.233310" lon="0.197450">
        <ele>69</ele>
        <time>2019-08-01T20:01:53Z</time>
      </trkpt>
      <trkpt lat="48.233320" lon="0.196550">
        <ele>69</ele>
        <time>2019-08-01T20:02:04Z</time>
      </trkpt>
      <trkpt lat="48.233320" lon="0.196550">
        <ele>69</ele>
        <time>2019-08-01T20:02:20Z</time>
      </trkpt>
      <trkpt lat="48.233330" lon="0.195860">
        <ele>66</ele>
        <time>2019-08-01T20:02:46Z</time>
      </trkpt>
      <trkpt lat="48.233260" lon="0.194980">
        <ele>66</ele>
        <time>2019-08-01T20:03:13Z</time>
      </trkpt>
      <trkpt lat="48.233080" lon="0.193250">
        <ele>67</ele>
        <time>2019-08-01T20:03:19Z</time>
      </trkpt>
      <trkpt lat="48.232790" lon="0.185860">
        <ele>69</ele>
        <time>2019-08-01T20:03:23Z</time>
      </trkpt>
      <trkpt lat="48.232930" lon="0.184980">
        <ele>69</ele>
        <time>2019-08-01T20:03:50Z</time>
      </trkpt>
      <trkpt lat="48.233200" lon="0.183680">
        <ele>69</ele>
        <time>2019-08-01T20:04:03Z</time>
      </trkpt>
      <trkpt lat="48.233540" lon="0.181500">
        <ele>66</ele>
        <time>2019-08-01T20:04:17Z</time>
      </trkpt>
      <trkpt lat="48.233990" lon="0.179330">
        <ele>65</ele>
        <time>2019-08-01T20:04:34Z</time>
      </trkpt>
      <trkpt lat="48.234030" lon="0.178820">
        <ele>66</ele>
        <time>2019-08-01T20:04:52Z</time>
      </trkpt>
      <trkpt lat="48.234000" lon="0.178540">
        <ele>66</ele>
        <time>2019-08-01T20:05:06Z</time>
      </trkpt>
      <trkpt lat="48.233490" lon="0.176330">
        <ele>66</ele>
        <time>2019-08-01T20:05:31Z</time>
      </trkpt>
      <trkpt lat="48.233300" lon="0.175310">
        <ele>68</ele>
        <time>2019-08-01T20:05:41Z</time>
      </trkpt>
      <trkpt lat="48.233120" lon="0.174170">
        <ele>66</ele>
        <time>2019-08-01T20:05:55Z</time>
      </trkpt>
      <trkpt lat="48.232950" lon="0.172720">
        <ele>68</ele>
        <time>2019-08-01T20:06:11Z</time>
      </trkpt>
      <trkpt lat="48.232820" lon="0.171250">
        <ele>69</ele>
        <time>2019-08-01T20:07:47Z</time>
      </trkpt>
      <trkpt lat="48.232690" lon="0.170080">
        <ele>70</ele>
        <time>2019-08-01T20:07:55Z</time>
      </trkpt>
      <trkpt lat="48.232490" lon="0.167980">
        <ele>69</ele>
        <time>2019-08-01T20:07:57Z</time>
      </trkpt>
      <trkpt lat="48.232460" lon="0.167140">
        <ele>71</ele>
        <time>2019-08-01T20:08:02Z</time>
      </trkpt>
      <trkpt lat="48.232500" lon="0.165960">
        <ele>71</ele>
        <time>2019-08-01T20:08:13Z</time>
      </trkpt>
      <trkpt lat="48.232600" lon="0.164660">
        <ele>70</ele>
        <time>2019-08-01T20:08:35Z</time>
      </trkpt>
      <trkpt lat="48.233610" lon="0.156690">
        <ele>63</ele>
        <time>2019-08-01T20:08:39Z</time>
      </trkpt>
      <trkpt lat="48.233800" lon="0.156010">
        <ele>64</ele>
        <time>2019-08-01T20:08:40Z</time>
      </trkpt>
      <trkpt lat="48.233790" lon="0.155910">
        <ele>64</ele>
        <time>2019-08-01T20:08:42Z</time>
      </trkpt>
      <trkpt lat="48.233720" lon="0.155440">
        <ele>63</ele>
        <time>2019-08-01T20:08:55Z</time>
      </trkpt>
      <trkpt lat="48.233480" lon="0.154600">
        <ele>63</ele>
        <time>2019-08-01T20:09:21Z</time>
      </trkpt>
      <trkpt lat="48.233350" lon="0.152730">
        <ele>63</ele>
        <time>2019-08-01T20:09:25Z</time>
      </trkpt>
      <trkpt lat="48.233290" lon="0.152450">
        <ele>63</ele>
        <time>2019-08-01T20:09:29Z</time>
      </trkpt>
      <trkpt lat="48.233290" lon="0.152350">
        <ele>63</ele>
        <time>2019-08-01T20:09:32Z</time>
      </trkpt>
      <trkpt lat="48.233320" lon="0.152180">
        <ele>63</ele>
        <time>2019-08-01T20:09:35Z</time>
      </trkpt>
      <trkpt lat="48.232640" lon="0.151840">
        <ele>63</ele>
        <time>2019-08-01T20:09:38Z</time>
      </trkpt>
      <trkpt lat="48.231200" lon="0.151310">
        <ele>61</ele>
        <time>2019-08-01T20:09:41Z</time>
      </trkpt>
      <trkpt lat="48.231000" lon="0.151210">
        <ele>61</ele>
        <time>2019-08-01T20:09:54Z</time>
      </trkpt>
      <trkpt lat="48.230820" lon="0.151100">
        <ele>60</ele>
        <time>2019-08-01T20:10:06Z</time>
      </trkpt>
      <trkpt lat="48.230660" lon="0.150900">
        <ele>60</ele>
        <time>2019-08-01T20:10:40Z</time>
      </trkpt>
      <trkpt lat="48.230580" lon="0.150700">
        <ele>60</ele>
        <time>2019-08-01T20:10:44Z</time>
      </trkpt>
      <trkpt lat="48.230520" lon="0.150490">
        <ele>60</ele>
        <time>2019-08-01T20:10:49Z</time>
      </trkpt>
      <trkpt lat="48.230490" lon="0.150230">
        <ele>60</ele>
        <time>2019-08-01T20:10:56Z</time>
      </trkpt>
      <trkpt lat="48.230410" lon="0.149090">
        <ele>62</ele>
        <time>2019-08-01T20:11:00Z</time>
      </trkpt>
      <trkpt lat="48.230390" lon="0.148150">
        <ele>63</ele>
        <time>2019-08-01T20:11:11Z</time>
      </trkpt>
      <trkpt lat="48.230440" lon="0.145270">
        <ele>66</ele>
        <time>2019-08-01T20:11:18Z</time>
      </trkpt>
      <trkpt lat="48.230420" lon="0.144940">
        <ele>66</ele>
        <time>2019-08-01T20:12:02Z</time>
      </trkpt>
      <trkpt lat="48.230370" lon="0.144500">
        <ele>67</ele>
        <time>2019-08-01T20:12:09Z</time>
      </trkpt>
      <trkpt lat="48.230260" lon="0.143910">
        <ele>68</ele>
        <time>2019-08-01T20:12:15Z</time>
      </trkpt>
      <trkpt lat="48.230180" lon="0.143580">
        <ele>69</ele>
        <time>2019-08-01T20:12:19Z</time>
      </trkpt>
      <trkpt lat="48.229890" lon="0.142820">
        <ele>71</ele>
        <time>2019-08-01T20:12:24Z</time>
      </trkpt>
      <trkpt lat="48.229680" lon="0.142330">
        <ele>71</ele>
        <time>2019-08-01T20:13:00Z</time>
      </trkpt>
      <trkpt lat="48.228060" lon="0.139480">
        <ele>72</ele>
        <time>2019-08-01T20:13:23Z</time>
      </trkpt>
      <trkpt lat="48.227840" lon="0.139030">
        <ele>71</ele>
        <time>2019-08-01T20:13:24Z</time>
      </trkpt>
      <trkpt lat="48.227680" lon="0.138600">
        <ele>72</ele>
        <time>2019-08-01T20:13:34Z</time>
      </trkpt>
      <trkpt lat="48.227590" lon="0.138260">
        <ele>72</ele>
        <time>2019-08-01T20:13:38Z</time>
      </trkpt>
      <trkpt lat="48.227510" lon="0.137820">
        <ele>74</ele>
        <time>2019-08-01T20:13:39Z</time>
      </trkpt>
      <trkpt lat="48.227100" lon="0.134880">
        <ele>77</ele>
        <time>2019-08-01T20:13:40Z</time>
      </trkpt>
      <trkpt lat="48.226940" lon="0.132950">
        <ele>76</ele>
        <time>2019-08-01T20:13:42Z</time>
      </trkpt>
      <trkpt lat="48.226920" lon="0.132830">
        <ele>76</ele>
        <time>2019-08-01T20:13:45Z</time>
      </trkpt>
      <trkpt lat="48.226590" lon="0.132140">
        <ele>77</ele>
        <time>2019-08-01T20:14:25Z</time>
      </trkpt>
      <trkpt lat="48.226470" lon="0.131920">
        <ele>77</ele>
        <time>2019-08-01T20:14:30Z</time>
      </trkpt>
      <trkpt lat="48.226450" lon="0.131850">
        <ele>77</ele>
        <time>2019-08-01T20:14:35Z</time>
      </trkpt>
      <trkpt lat="48.226450" lon="0.131730">
        <ele>77</ele>
        <time>2019-08-01T20:15:04Z</time>
      </trkpt>
      <trkpt lat="48.226480" lon="0.131540">
        <ele>78</ele>
        <time>2019-08-01T20:15:10Z</time>
      </trkpt>
      <trkpt lat="48.226470" lon="0.131330">
        <ele>78</ele>
        <time>2019-08-01T20:15:26Z</time>
      </trkpt>
      <trkpt lat="48.226030" lon="0.128000">
        <ele>78</ele>
        <time>2019-08-01T20:15:31Z</time>
      </trkpt>
      <trkpt lat="48.225920" lon="0.127620">
        <ele>76</ele>
        <time>2019-08-01T20:15:35Z</time>
      </trkpt>
      <trkpt lat="48.225770" lon="0.127300">
        <ele>74</ele>
        <time>2019-08-01T20:15:42Z</time>
      </trkpt>
      <trkpt lat="48.224660" lon="0.125430">
        <ele>76</ele>
        <time>2019-08-01T20:15:52Z</time>
      </trkpt>
      <trkpt lat="48.224450" lon="0.125030">
        <ele>77</ele>
        <time>2019-08-01T20:15:59Z</time>
      </trkpt>
      <trkpt lat="48.223940" lon="0.123970">
        <ele>79</ele>
        <time>2019-08-01T20:16:02Z</time>
      </trkpt>
      <trkpt lat="48.223780" lon="0.123580">
        <ele>79</ele>
        <time>2019-08-01T20:16:09Z</time>
      </trkpt>
      <trkpt lat="48.223710" lon="0.123320">
        <ele>80</ele>
        <time>2019-08-01T20:16:18Z</time>
      </trkpt>
      <trkpt lat="48.223610" lon="0.122690">
        <ele>80</ele>
        <time>2019-08-01T20:16:27Z</time>
      </trkpt>
      <trkpt lat="48.223530" lon="0.121850">
        <ele>81</ele>
        <time>2019-08-01T20:16:35Z</time>
      </trkpt>
      <trkpt lat="48.223490" lon="0.121330">
        <ele>82</ele>
        <time>2019-08-01T20:16:49Z</time>
      </trkpt>
      <trkpt lat="48.223430" lon="0.121020">
        <ele>82</ele>
        <time>2019-08-01T20:16:59Z</time>
      </trkpt>
      <trkpt lat="48.223240" lon="0.120520">
        <ele>84</ele>
        <time>2019-08-01T20:17:08Z</time>
      </trkpt>
      <trkpt lat="48.223080" lon="0.119800">
        <ele>85</ele>
        <time>2019-08-01T20:17:26Z</time>
      </trkpt>
      <trkpt lat="48.222830" lon="0.119190">
        <ele>86</ele>
        <time>2019-08-01T20:17:30Z</time>
      </trkpt>
      <trkpt lat="48.222500" lon="0.118660">
        <ele>85</ele>
        <time>2019-08-01T20:17:34Z</time>
      </trkpt>
      <trkpt lat="48.221920" lon="0.117930">
        <ele>86</ele>
        <time>2019-08-01T20:17:41Z</time>
      </trkpt>
      <trkpt lat="48.221490" lon="0.117420">
        <ele>86</ele>
        <time>2019-08-01T20:17:45Z</time>
      </trkpt>
      <trkpt lat="48.221120" lon="0.116800">
        <ele>85</ele>
        <time>2019-08-01T20:18:01Z</time>
      </trkpt>
      <trkpt lat="48.220540" lon="0.115640">
        <ele>85</ele>
        <time>2019-08-01T20:18:04Z</time>
      </trkpt>
      <trkpt lat="48.220400" lon="0.115320">
        <ele>85</ele>
        <time>2019-08-01T20:18:08Z</time>
      </trkpt>
      <trkpt lat="48.220320" lon="0.115000">
        <ele>86</ele>
        <time>2019-08-01T20:18:16Z</time>
      </trkpt>
      <trkpt lat="48.220270" lon="0.114450">
        <ele>87</ele>
        <time>2019-08-01T20:18:20Z</time>
      </trkpt>
      <trkpt lat="48.220190" lon="0.114080">
        <ele>87</ele>
        <time>2019-08-01T20:19:02Z</time>
      </trkpt>
      <trkpt lat="48.219810" lon="0.112910">
        <ele>86</ele>
        <time>2019-08-01T20:19:14Z</time>
      </trkpt>
      <trkpt lat="48.219750" lon="0.112630">
        <ele>86</ele>
        <time>2019-08-01T20:19:14Z</time>
      </trkpt>
      <trkpt lat="48.219720" lon="0.112340">
        <ele>86</ele>
        <time>2019-08-01T20:19:17Z</time>
      </trkpt>
      <trkpt lat="48.219700" lon="0.111670">
        <ele>88</ele>
        <time>2019-08-01T20:19:32Z</time>
      </trkpt>
      <trkpt lat="48.219640" lon="0.111360">
        <ele>88</ele>
        <time>2019-08-01T20:19:37Z</time>
      </trkpt>
      <trkpt lat="48.218670" lon="0.108070">
        <ele>94</ele>
        <time>2019-08-01T20:19:42Z</time>
      </trkpt>
      <trkpt lat="48.218450" lon="0.107110">
        <ele>93</ele>
        <time>2019-08-01T20:19:46Z</time>
      </trkpt>
      <trkpt lat="48.218450" lon="0.107110">
        <ele>93</ele>
        <time>2019-08-01T20:19:53Z</time>
      </trkpt>
      <trkpt lat="48.218400" lon="0.106880">
        <ele>93</ele>
        <time>2019-08-01T20:19:56Z</time>
      </trkpt>
      <trkpt lat="48.218190" lon="0.105630">
        <ele>92</ele>
        <time>2019-08-01T20:19:59Z</time>
      </trkpt>
      <trkpt lat="48.218150" lon="0.105240">
        <ele>91</ele>
        <time>2019-08-01T20:20:19Z</time>
      </trkpt>
      <trkpt lat="48.218160" lon="0.104820">
        <ele>91</ele>
        <time>2019-08-01T20:20:31Z</time>
      </trkpt>
      <trkpt lat="48.218190" lon="0.104490">
        <ele>91</ele>
        <time>2019-08-01T20:20:40Z</time>
      </trkpt>
      <trkpt lat="48.218300" lon="0.103920">
        <ele>91</ele>
        <time>2019-08-01T20:20:55Z</time>
      </trkpt>
      <trkpt lat="48.218330" lon="0.103670">
        <ele>92</ele>
        <time>2019-08-01T20:21:18Z</time>
      </trkpt>
      <trkpt lat="48.218330" lon="0.103390">
        <ele>92</ele>
        <time>2019-08-01T20:21:24Z</time>
      </trkpt>
      <trkpt lat="48.218270" lon="0.101750">
        <ele>92</ele>
        <time>2019-08-01T20:21:36Z</time>
      </trkpt>
      <trkpt lat="48.218210" lon="0.100730">
        <ele>92</ele>
        <time>2019-08-01T20:21:43Z</time>
      </trkpt>
      <trkpt lat="48.218120" lon="0.099970">
        <ele>93</ele>
        <time>2019-08-01T20:22:06Z</time>
      </trkpt>
      <trkpt lat="48.217850" lon="0.098770">
        <ele>95</ele>
        <time>2019-08-01T20:22:23Z</time>
      </trkpt>
      <trkpt lat="48.217540" lon="0.096890">
        <ele>97</ele>
        <time>2019-08-01T20:22:50Z</time>
      </trkpt>
      <trkpt lat="48.217450" lon="0.096430">
        <ele>97</ele>
        <time>2019-08-01T20:23:26Z</time>
      </trkpt>
      <trkpt lat="48.217210" lon="0.095430">
        <ele>98</ele>
        <time>2019-08-01T20:23:34Z</time>
      </trkpt>
      <trkpt lat="48.217080" lon="0.094950">
        <ele>98</ele>
        <time>2019-08-01T20:24:02Z</time>
      </trkpt>
      <trkpt lat="48.216490" lon="0.093200">
        <ele>99</ele>
        <time>2019-08-01T20:24:07Z</time>
      </trkpt>
      <trkpt lat="48.216100" lon="0.091860">
        <ele>99</ele>
        <time>2019-08-01T20:24:20Z</time>
      </trkpt>
      <trkpt lat="48.215570" lon="0.089750">
        <ele>99</ele>
        <time>2019-08-01T20:24:26Z</time>
      </trkpt>
      <trkpt lat="48.214790" lon="0.086960">
        <ele>104</ele>
        <time>2019-08-01T20:24:34Z</time>
      </trkpt>
      <trkpt lat="48.214650" lon="0.086320">
        <ele>104</ele>
        <time>2019-08-01T20:24:40Z</time>
      </trkpt>
      <trkpt lat="48.214310" lon="0.083990">
        <ele>108</ele>
        <time>2019-08-01T20:24:52Z</time>
      </trkpt>
      <trkpt lat="48.214300" lon="0.083580">
        <ele>109</ele>
        <time>2019-08-01T20:25:03Z</time>
      </trkpt>
      <trkpt lat="48.214360" lon="0.082450">
        <ele>108</ele>
        <time>2019-08-01T20:25:08Z</time>
      </trkpt>
      <trkpt lat="48.214340" lon="0.081970">
        <ele>109</ele>
        <time>2019-08-01T20:25:29Z</time>
      </trkpt>
      <trkpt lat="48.214270" lon="0.081300">
        <ele>109</ele>
        <time>2019-08-01T20:25:37Z</time>
      </trkpt>
      <trkpt lat="48.214240" lon="0.080820">
        <ele>110</ele>
        <time>2019-08-01T20:25:42Z</time>
      </trkpt>
      <trkpt lat="48.214260" lon="0.079780">
        <ele>110</ele>
        <time>2019-08-01T20:25:48Z</time>
      </trkpt>
      <trkpt lat="48.214310" lon="0.078910">
        <ele>108</ele>
        <time>2019-08-01T20:25:54Z</time>
      </trkpt>
      <trkpt lat="48.214310" lon="0.078480">
        <ele>107</ele>
        <time>2019-08-01T20:25:58Z</time>
      </trkpt>
      <trkpt lat="48.214230" lon="0.076660">
        <ele>107</ele>
        <time>2019-08-01T20:26:03Z</time>
      </trkpt>
      <trkpt lat="48.214180" lon="0.076000">
        <ele>107</ele>
        <time>2019-08-01T20:26:07Z</time>
      </trkpt>
      <trkpt lat="48.214110" lon="0.075560">
        <ele>107</ele>
        <time>2019-08-01T20:26:12Z</time>
      </trkpt>
      <trkpt lat="48.214000" lon="0.075110">
        <ele>107</ele>
        <time>2019-08-01T20:27:22Z</time>
      </trkpt>
      <trkpt lat="48.213850" lon="0.074690">
        <ele>108</ele>
        <time>2019-08-01T20:27:27Z</time>
      </trkpt>
      <trkpt lat="48.213680" lon="0.074390">
        <ele>108</ele>
        <time>2019-08-01T20:27:28Z</time>
      </trkpt>
      <trkpt lat="48.213500" lon="0.074150">
        <ele>108</ele>
        <time>2019-08-01T20:27:52Z</time>
      </trkpt>
      <trkpt lat="48.213300" lon="0.073970">
        <ele>108</ele>
        <time>2019-08-01T20:28:03Z</time>
      </trkpt>
      <trkpt lat="48.213060" lon="0.073810">
        <ele>108</ele>
        <time>2019-08-01T20:28:11Z</time>
      </trkpt>
      <trkpt lat="48.209280" lon="0.072060">
        <ele>117</ele>
        <time>2019-08-01T20:28:18Z</time>
      </trkpt>
      <trkpt lat="48.209040" lon="0.071840">
        <ele>118</ele>
        <time>2019-08-01T20:28:40Z</time>
      </trkpt>
      <trkpt lat="48.208980" lon="0.071770">
        <ele>118</ele>
        <time>2019-08-01T20:28:45Z</time>
      </trkpt>
      <trkpt lat="48.208100" lon="0.070260">
        <ele>122</ele>
        <time>2019-08-01T20:29:03Z</time>
      </trkpt>
      <trkpt lat="48.207710" lon="0.069520">
        <ele>123</ele>
        <time>2019-08-01T20:29:09Z</time>
      </trkpt>
      <trkpt lat="48.207500" lon="0.068990">
        <ele>124</ele>
        <time>2019-08-01T20:29:29Z</time>
      </trkpt>
      <trkpt lat="48.207340" lon="0.068410">
        <ele>122</ele>
        <time>2019-08-01T20:30:03Z</time>
      </trkpt>
      <trkpt lat="48.207070" lon="0.066610">
        <ele>120</ele>
        <time>2019-08-01T20:30:10Z</time>
      </trkpt>
      <trkpt lat="48.207050" lon="0.066150">
        <ele>119</ele>
        <time>2019-08-01T20:30:16Z</time>
      </trkpt>
      <trkpt lat="48.207110" lon="0.064710">
        <ele>115</ele>
        <time>2019-08-01T20:30:19Z</time>
      </trkpt>
      <trkpt lat="48.207160" lon="0.064160">
        <ele>114</ele>
        <time>2019-08-01T20:30:24Z</time>
      </trkpt>
      <trkpt lat="48.207450" lon="0.062550">
        <ele>115</ele>
        <time>2019-08-01T20:30:29Z</time>
      </trkpt>
      <trkpt lat="48.207980" lon="0.059790">
        <ele>109</ele>
        <time>2019-08-01T20:30:48Z</time>
      </trkpt>
      <trkpt lat="48.208060" lon="0.059200">
        <ele>107</ele>
        <time>2019-08-01T20:30:48Z</time>
      </trkpt>
      <trkpt lat="48.208090" lon="0.058700">
        <ele>107</ele>
        <time>2019-08-01T20:31:12Z</time>
      </trkpt>
      <trkpt lat="48.208060" lon="0.058420">
        <ele>106</ele>
        <time>2019-08-01T20:31:39Z</time>
      </trkpt>
      <trkpt lat="48.207980" lon="0.058070">
        <ele>106</ele>
        <time>2019-08-01T20:31:50Z</time>
      </trkpt>
      <trkpt lat="48.207830" lon="0.057660">
        <ele>106</ele>
        <time>2019-08-01T20:32:01Z</time>
      </trkpt>
      <trkpt lat="48.207280" lon="0.056340">
        <ele>104</ele>
        <time>2019-08-01T20:32:08Z</time>
      </trkpt>
      <trkpt lat="48.207280" lon="0.056340">
        <ele>104</ele>
        <time>2019-08-01T20:32:16Z</time>
      </trkpt>
      <trkpt lat="48.206540" lon="0.054580">
        <ele>102</ele>
        <time>2019-08-01T20:33:20Z</time>
      </trkpt>
      <trkpt lat="48.205780" lon="0.052620">
        <ele>94</ele>
        <time>2019-08-01T20:33:24Z</time>
      </trkpt>
      <trkpt lat="48.205500" lon="0.051850">
        <ele>94</ele>
        <time>2019-08-01T20:33:32Z</time>
      </trkpt>
      <trkpt lat="48.205270" lon="0.050990">
        <ele>93</ele>
        <time>2019-08-01T20:33:39Z</time>
      </trkpt>
      <trkpt lat="48.205130" lon="0.050410">
        <ele>90</ele>
        <time>2019-08-01T20:34:10Z</time>
      </trkpt>
      <trkpt lat="48.205120" lon="0.049750">
        <ele>89</ele>
        <time>2019-08-01T20:34:15Z</time>
      </trkpt>
      <trkpt lat="48.205460" lon="0.044370">
        <ele>83</ele>
        <time>2019-08-01T20:34:21Z</time>
      </trkpt>
      <trkpt lat="48.205450" lon="0.044030">
        <ele>83</ele>
        <time>2019-08-01T20:34:25Z</time>
      </trkpt>
      <trkpt lat="48.205370" lon="0.043370">
        <ele>84</ele>
        <time>2019-08-01T20:34:32Z</time>
      </trkpt>
      <trkpt lat="48.205210" lon="0.042870">
        <ele>85</ele>
        <time>2019-08-01T20:34:45Z</time>
      </trkpt>
      <trkpt lat="48.204270" lon="0.040590">
        <ele>88</ele>
        <time>2019-08-01T20:34:51Z</time>
      </trkpt>
      <trkpt lat="48.204160" lon="0.040270">
        <ele>87</ele>
        <time>2019-08-01T20:34:57Z</time>
      </trkpt>
      <trkpt lat="48.204050" lon="0.039780">
        <ele>87</ele>
        <time>2019-08-01T20:35:04Z</time>
      </trkpt>
      <trkpt lat="48.203950" lon="0.039470">
        <ele>87</ele>
        <time>2019-08-01T20:35:06Z</time>
      </trkpt>
      <trkpt lat="48.203740" lon="0.038920">
        <ele>88</ele>
        <time>2019-08-01T20:35:10Z</time>
      </trkpt>
      <trkpt lat="48.203340" lon="0.037990">
        <ele>88</ele>
        <time>2019-08-01T20:35:19Z</time>
      </trkpt>
      <trkpt lat="48.203170" lon="0.037640">
        <ele>88</ele>
        <time>2019-08-01T20:35:33Z</time>
      </trkpt>
      <trkpt lat="48.202910" lon="0.037260">
        <ele>87</ele>
        <time>2019-08-01T20:35:37Z</time>
      </trkpt>
      <trkpt lat="48.202670" lon="0.036810">
        <ele>87</ele>
        <time>2019-08-01T20:35:46Z</time>
      </trkpt>
      <trkpt lat="48.202590" lon="0.036630">
        <ele>87</ele>
        <time>2019-08-01T20:35:46Z</time>
      </trkpt>
      <trkpt lat="48.202520" lon="0.036320">
        <ele>86</ele>
        <time>2019-08-01T20:35:52Z</time>
      </trkpt>
      <trkpt lat="48.202390" lon="0.035610">
        <ele>85</ele>
        <time>2019-08-01T20:36:18Z</time>
      </trkpt>
      <trkpt lat="48.202060" lon="0.034540">
        <ele>85</ele>
        <time>2019-08-01T20:36:25Z</time>
      </trkpt>
      <trkpt lat="48.201990" lon="0.034240">
        <ele>85</ele>
        <time>2019-08-01T20:36:50Z</time>
      </trkpt>
      <trkpt lat="48.201890" lon="0.033490">
        <ele>85</ele>
        <time>2019-08-01T20:37:02Z</time>
      </trkpt>
      <trkpt lat="48.201890" lon="0.033490">
        <ele>85</ele>
        <time>2019-08-01T20:37:08Z</time>
      </trkpt>
      <trkpt lat="48.201790" lon="0.032980">
        <ele>85</ele>
        <time>2019-08-01T20:37:12Z</time>
      </trkpt>
      <trkpt lat="48.201240" lon="0.031010">
        <ele>88</ele>
        <time>2019-08-01T20:37:17Z</time>
      </trkpt>
      <trkpt lat="48.201100" lon="0.030460">
        <ele>89</ele>
        <time>2019-08-01T20:37:22Z</time>
      </trkpt>
      <trkpt lat="48.200760" lon="0.028340">
        <ele>88</ele>
        <time>2019-08-01T20:37:31Z</time>
      </trkpt>
      <trkpt lat="48.200530" lon="0.027420">
        <ele>87</ele>
        <time>2019-08-01T20:37:58Z</time>
      </trkpt>
      <trkpt lat="48.200370" lon="0.027000">
        <ele>86</ele>
        <time>2019-08-01T20:38:21Z</time>
      </trkpt>
      <trkpt lat="48.200220" lon="0.026710">
        <ele>85</ele>
        <time>2019-08-01T20:38:26Z</time>
      </trkpt>
      <trkpt lat="48.200470" lon="0.026800">
        <ele>86</ele>
        <time>2019-08-01T20:38:34Z</time>
      </trkpt>
      <trkpt lat="48.200730" lon="0.026990">
        <ele>86</ele>
        <time>2019-08-01T20:38:45Z</time>
      </trkpt>
      <trkpt lat="48.201220" lon="0.027300">
        <ele>85</ele>
        <time>2019-08-01T20:39:01Z</time>
      </trkpt>
      <trkpt lat="48.202640" lon="0.028140">
        <ele>83</ele>
        <time>2019-08-01T20:39:08Z</time>
      </trkpt>
      <trkpt lat="48.203810" lon="0.028870">
        <ele>85</ele>
        <time>2019-08-01T20:39:11Z</time>
      </trkpt>
      <trkpt lat="48.204080" lon="0.028970">
        <ele>85</ele>
        <time>2019-08-01T20:39:27Z</time>
      </trkpt>
      <trkpt lat="48.204550" lon="0.029090">
        <ele>86</ele>
        <time>2019-08-01T20:39:33Z</time>
      </trkpt>
      <trkpt lat="48.205150" lon="0.029300">
        <ele>86</ele>
        <time>2019-08-01T20:39:39Z</time>
      </trkpt>
      <trkpt lat="48.205940" lon="0.029790">
        <ele>88</ele>
        <time>2019-08-01T20:40:07Z</time>
      </trkpt>
      <trkpt lat="48.206280" lon="0.030070">
        <ele>88</ele>
        <time>2019-08-01T20:40:30Z</time>
      </trkpt>
      <trkpt lat="48.206460" lon="0.030250">
        <ele>88</ele>
        <time>2019-08-01T20:40:39Z</time>
      </trkpt>
      <trkpt lat="48.207140" lon="0.031100">
        <ele>88</ele>
        <time>2019-08-01T20:41:24Z</time>
      </trkpt>
      <trkpt lat="48.207430" lon="0.031390">
        <ele>88</ele>
        <time>2019-08-01T20:41:45Z</time>
      </trkpt>
      <trkpt lat="48.207740" lon="0.031560">
        <ele>88</ele>
        <time>2019-08-01T20:41:51Z</time>
      </trkpt>
      <trkpt lat="48.209230" lon="0.032120">
        <ele>84</ele>
        <time>2019-08-01T20:42:18Z</time>
      </trkpt>
      <trkpt lat="48.210520" lon="0.032370">
        <ele>86</ele>
        <time>2019-08-01T20:42:22Z</time>
      </trkpt>
      <trkpt lat="48.211060" lon="0.032390">
        <ele>87</ele>
        <time>2019-08-01T20:42:36Z</time>
      </trkpt>
      <trkpt lat="48.213560" lon="0.032390">
        <ele>93</ele>
        <time>2019-08-01T20:42:59Z</time>
      </trkpt>
      <trkpt lat="48.214730" lon="0.032320">
        <ele>96</ele>
        <time>2019-08-01T20:43:11Z</time>
      </trkpt>
      <trkpt lat="48.215070" lon="0.032400">
        <ele>97</ele>
        <time>2019-08-01T20:43:17Z</time>
      </trkpt>
      <trkpt lat="48.216570" lon="0.032800">
        <ele>102</ele>
        <time>2019-08-01T20:43:28Z</time>
      </trkpt>
      <trkpt lat="48.216820" lon="0.032910">
        <ele>102</ele>
        <time>2019-08-01T20:43:30Z</time>
      </trkpt>
      <trkpt lat="48.217530" lon="0.033360">
        <ele>104</ele>
        <time>2019-08-01T20:43:34Z</time>
      </trkpt>
      <trkpt lat="48.218750" lon="0.033980">
        <ele>107</ele>
        <time>2019-08-01T20:43:44Z</time>
      </trkpt>
      <trkpt lat="48.219350" lon="0.034360">
        <ele>108</ele>
        <time>2019-08-01T20:43:51Z</time>
      </trkpt>
      <trkpt lat="48.219690" lon="0.034540">
        <ele>110</ele>
        <time>2019-08-01T20:43:57Z</time>
      </trkpt>
      <trkpt lat="48.220280" lon="0.034610">
        <ele>113</ele>
        <time>2019-08-01T20:44:06Z</time>
      </trkpt>
      <trkpt lat="48.220420" lon="0.034680">
        <ele>114</ele>
        <time>2019-08-01T20:44:09Z</time>
      </trkpt>
      <trkpt lat="48.220610" lon="0.034790">
        <ele>115</ele>
        <time>2019-08-01T20:44:13Z</time>
      </trkpt>
      <trkpt lat="48.221090" lon="0.035310">
        <ele>116</ele>
        <time>2019-08-01T20:44:16Z</time>
      </trkpt>
      <trkpt lat="48.221420" lon="0.035620">
        <ele>117</ele>
        <time>2019-08-01T20:44:20Z</time>
      </trkpt>
      <trkpt lat="48.221750" lon="0.035770">
        <ele>118</ele>
        <time>2019-08-01T20:44:23Z</time>
      </trkpt>
      <trkpt lat="48.222240" lon="0.035870">
        <ele>117</ele>
        <time>2019-08-01T20:44:27Z</time>
      </trkpt>
      <trkpt lat="48.222410" lon="0.035880">
        <ele>116</ele>
        <time>2019-08-01T20:44:40Z</time>
      </trkpt>
      <trkpt lat="48.222600" lon="0.035810">
        <ele>115</ele>
        <time>2019-08-01T20:45:04Z</time>
      </trkpt>
      <trkpt lat="48.222770" lon="0.035680">
        <ele>115</ele>
        <time>2019-08-01T20:45:10Z</time>
      </trkpt>
      <trkpt lat="48.222940" lon="0.035460">
        <ele>114</ele>
        <time>2019-08-01T20:45:41Z</time>
      </trkpt>
      <trkpt lat="48.223030" lon="0.035230">
        <ele>113</ele>
        <time>2019-08-01T20:45:44Z</time>
      </trkpt>
      <trkpt lat="48.223080" lon="0.034970">
        <ele>113</ele>
        <time>2019-08-01T20:45:46Z</time>
      </trkpt>
      <trkpt lat="48.223240" lon="0.033870">
        <ele>110</ele>
        <time>2019-08-01T20:45:48Z</time>
      </trkpt>
      <trkpt lat="48.223430" lon="0.031860">
        <ele>108</ele>
        <time>2019-08-01T20:45:51Z</time>
      </trkpt>
      <trkpt lat="48.223510" lon="0.031370">
        <ele>108</ele>
        <time>2019-08-01T20:46:00Z</time>
      </trkpt>
      <trkpt lat="48.224070" lon="0.028880">
        <ele>102</ele>
        <time>2019-08-01T20:46:06Z</time>
      </trkpt>
      <trkpt lat="48.224160" lon="0.028650">
        <ele>100</ele>
        <time>2019-08-01T20:46:09Z</time>
      </trkpt>
      <trkpt lat="48.224250" lon="0.028540">
        <ele>100</ele>
        <time>2019-08-01T20:46:12Z</time>
      </trkpt>
      <trkpt lat="48.224330" lon="0.028470">
        <ele>100</ele>
        <time>2019-08-01T20:46:16Z</time>
      </trkpt>
      <trkpt lat="48.224480" lon="0.028430">
        <ele>100</ele>
        <time>2019-08-01T20:46:20Z</time>
      </trkpt>
      <trkpt lat="48.225010" lon="0.028520">
        <ele>100</ele>
        <time>2019-08-01T20:46:28Z</time>
      </trkpt>
      <trkpt lat="48.225310" lon="0.028640">
        <ele>103</ele>
        <time>2019-08-01T20:46:31Z</time>
      </trkpt>
      <trkpt lat="48.225470" lon="0.028760">
        <ele>105</ele>
        <time>2019-08-01T20:46:33Z</time>
      </trkpt>
      <trkpt lat="48.225620" lon="0.028930">
        <ele>106</ele>
        <time>2019-08-01T20:47:03Z</time>
      </trkpt>
      <trkpt lat="48.225750" lon="0.029140">
        <ele>107</ele>
        <time>2019-08-01T20:47:11Z</time>
      </trkpt>
      <trkpt lat="48.225880" lon="0.029440">
        <ele>108</ele>
        <time>2019-08-01T20:47:28Z</time>
      </trkpt>
      <trkpt lat="48.226090" lon="0.030040">
        <ele>108</ele>
        <time>2019-08-01T20:47:40Z</time>
      </trkpt>
      <trkpt lat="48.226180" lon="0.030220">
        <ele>109</ele>
        <time>2019-08-01T20:47:52Z</time>
      </trkpt>
      <trkpt lat="48.226300" lon="0.030330">
        <ele>110</ele>
        <time>2019-08-01T20:48:06Z</time>
      </trkpt>
      <trkpt lat="48.227810" lon="0.031450">
        <ele>120</ele>
        <time>2019-08-01T20:48:15Z</time>
      </trkpt>
      <trkpt lat="48.228180" lon="0.031770">
        <ele>122</ele>
        <time>2019-08-01T20:48:20Z</time>
      </trkpt>
      <trkpt lat="48.228880" lon="0.032830">
        <ele>129</ele>
        <time>2019-08-01T20:48:23Z</time>
      </trkpt>
      <trkpt lat="48.229320" lon="0.033560">
        <ele>132</ele>
        <time>2019-08-01T20:48:26Z</time>
      </trkpt>
      <trkpt lat="48.229750" lon="0.034370">
        <ele>135</ele>
        <time>2019-08-01T20:48:29Z</time>
      </trkpt>
      <trkpt lat="48.230220" lon="0.035340">
        <ele>139</ele>
        <time>2019-08-01T20:48:31Z</time>
      </trkpt>
      <trkpt lat="48.230550" lon="0.035870">
        <ele>142</ele>
        <time>2019-08-01T20:48:34Z</time>
      </trkpt>
      <trkpt lat="48.230760" lon="0.036150">
        <ele>143</ele>
        <time>2019-08-01T20:48:40Z</time>
      </trkpt>
      <trkpt lat="48.230900" lon="0.036280">
        <ele>144</ele>
        <time>2019-08-01T20:48:42Z</time>
      </trkpt>
      <trkpt lat="48.231040" lon="0.036380">
        <ele>144</ele>
        <time>2019-08-01T20:48:46Z</time>
      </trkpt>
      <trkpt lat="48.231200" lon="0.036430">
        <ele>145</ele>
        <time>2019-08-01T20:48:51Z</time>
      </trkpt>
      <trkpt lat="48.231350" lon="0.036440">
        <ele>147</ele>
        <time>2019-08-01T20:48:55Z</time>
      </trkpt>
      <trkpt lat="48.231520" lon="0.036360">
        <ele>148</ele>
        <time>2019-08-01T20:48:58Z</time>
      </trkpt>
      <trkpt lat="48.231850" lon="0.036320">
        <ele>149</ele>
        <time>2019-08-01T20:49:10Z</time>
      </trkpt>
      <trkpt lat="48.231910" lon="0.036280">
        <ele>149</ele>
        <time>2019-08-01T20:49:14Z</time>
      </trkpt>
      <trkpt lat="48.232110" lon="0.036030">
        <ele>149</ele>
        <time>2019-08-01T20:49:18Z</time>
      </trkpt>
      <trkpt lat="48.232330" lon="0.035850">
        <ele>149</ele>
        <time>2019-08-01T20:49:20Z</time>
      </trkpt>
      <trkpt lat="48.232530" lon="0.035720">
        <ele>149</ele>
        <time>2019-08-01T20:49:28Z</time>
      </trkpt>
      <trkpt lat="48.232740" lon="0.035640">
        <ele>148</ele>
        <time>2019-08-01T20:49:50Z</time>
      </trkpt>
      <trkpt lat="48.233380" lon="0.035450">
        <ele>147</ele>
        <time>2019-08-01T20:50:07Z</time>
      </trkpt>
      <trkpt lat="48.233620" lon="0.035350">
        <ele>145</ele>
        <time>2019-08-01T20:50:26Z</time>
      </trkpt>
      <trkpt lat="48.233780" lon="0.035220">
        <ele>145</ele>
        <time>2019-08-01T20:50:26Z</time>
      </trkpt>
      <trkpt lat="48.233870" lon="0.035110">
        <ele>144</ele>
        <time>2019-08-01T20:50:36Z</time>
      </trkpt>
      <trkpt lat="48.234200" lon="0.034570">
        <ele>143</ele>
        <time>2019-08-01T20:50:52Z</time>
      </trkpt>
      <trkpt lat="48.234970" lon="0.033110">
        <ele>147</ele>
        <time>2019-08-01T20:51:02Z</time>
      </trkpt>
      <trkpt lat="48.235450" lon="0.031880">
        <ele>148</ele>
        <time>2019-08-01T20:51:31Z</time>
      </trkpt>
      <trkpt lat="48.236230" lon="0.030860">
        <ele>142</ele>
        <time>2019-08-01T20:51:43Z</time>
      </trkpt>
      <trkpt lat="48.236230" lon="0.030860">
        <ele>142</ele>
        <time>2019-08-01T20:51:52Z</time>
      </trkpt>
      <trkpt lat="48.236610" lon="0.030260">
        <ele>139</ele>
        <time>2019-08-01T20:51:58Z</time>
      </trkpt>
      <trkpt lat="48.237250" lon="0.029210">
        <ele>139</ele>
        <time>2019-08-01T20:52:10Z</time>
      </trkpt>
      <trkpt lat="48.237630" lon="0.028640">
        <ele>141</ele>
        <time>2019-08-01T20:52:14Z</time>
      </trkpt>
      <trkpt lat="48.238830" lon="0.027010">
        <ele>152</ele>
        <time>2019-08-01T20:52:27Z</time>
      </trkpt>
      <trkpt lat="48.239340" lon="0.026350">
        <ele>156</ele>
        <time>2019-08-01T20:52:33Z</time>
      </trkpt>
      <trkpt lat="48.239680" lon="0.025810">
        <ele>159</ele>
        <time>2019-08-01T20:52:36Z</time>
      </trkpt>
      <trkpt lat="48.239920" lon="0.025360">
        <ele>160</ele>
        <time>2019-08-01T20:52:42Z</time>
      </trkpt>
      <trkpt lat="48.240280" lon="0.024580">
        <ele>162</ele>
        <time>2019-08-01T20:52:44Z</time>
      </trkpt>
      <trkpt lat="48.240380" lon="0.024240">
        <ele>162</ele>
        <time>2019-08-01T20:52:47Z</time>
      </trkpt>
      <trkpt lat="48.240570" lon="0.023170">
        <ele>155</ele>
        <time>2019-08-01T20:52:51Z</time>
      </trkpt>
      <trkpt lat="48.240700" lon="0.022720">
        <ele>152</ele>
        <time>2019-08-01T20:53:05Z</time>
      </trkpt>
      <trkpt lat="48.240790" lon="0.022500">
        <ele>150</ele>
        <time>2019-08-01T20:53:11Z</time>
      </trkpt>
      <trkpt lat="48.241060" lon="0.022200">
        <ele>148</ele>
        <time>2019-08-01T20:53:19Z</time>
      </trkpt>
      <trkpt lat="48.241170" lon="0.022130">
        <ele>148</ele>
        <time>2019-08-01T20:53:23Z</time>
      </trkpt>
      <trkpt lat="48.241330" lon="0.022080">
        <ele>147</ele>
        <time>2019-08-01T20:53:28Z</time>
      </trkpt>
      <trkpt lat="48.241560" lon="0.022050">
        <ele>146</ele>
        <time>2019-08-01T20:53:34Z</time>
      </trkpt>
      <trkpt lat="48.242310" lon="0.022030">
        <ele>145</ele>
        <time>2019-08-01T20:53:45Z</time>
      </trkpt>
      <trkpt lat="48.242660" lon="0.021960">
        <ele>145</ele>
        <time>2019-08-01T20:53:50Z</time>
      </trkpt>
      <trkpt lat="48.243100" lon="0.021820">
        <ele>143</ele>
        <time>2019-08-01T20:53:54Z</time>
      </trkpt>
      <trkpt lat="48.243360" lon="0.021780">
        <ele>142</ele>
        <time>2019-08-01T20:54:00Z</time>
      </trkpt>
      <trkpt lat="48.243610" lon="0.021780">
        <ele>139</ele>
        <time>2019-08-01T20:54:16Z</time>
      </trkpt>
      <trkpt lat="48.243940" lon="0.021820">
        <ele>137</ele>
        <time>2019-08-01T20:54:21Z</time>
      </trkpt>
      <trkpt lat="48.244570" lon="0.021950">
        <ele>132</ele>
        <time>2019-08-01T20:54:31Z</time>
      </trkpt>
      <trkpt lat="48.244820" lon="0.022020">
        <ele>130</ele>
        <time>2019-08-01T20:54:40Z</time>
      </trkpt>
      <trkpt lat="48.245070" lon="0.022170">
        <ele>129</ele>
        <time>2019-08-01T20:55:04Z</time>
      </trkpt>
      <trkpt lat="48.245340" lon="0.022380">
        <ele>128</ele>
        <time>2019-08-01T20:55:35Z</time>
      </trkpt>
      <trkpt lat="48.246080" lon="0.023150">
        <ele>127</ele>
        <time>2019-08-01T20:55:39Z</time>
      </trkpt>
      <trkpt lat="48.246340" lon="0.023370">
        <ele>127</ele>
        <time>2019-08-01T20:55:44Z</time>
      </trkpt>
      <trkpt lat="48.246810" lon="0.023720">
        <ele>126</ele>
        <time>2019-08-01T20:55:48Z</time>
      </trkpt>
      <trkpt lat="48.247330" lon="0.024020">
        <ele>124</ele>
        <time>2019-08-01T20:55:51Z</time>
      </trkpt>
      <trkpt lat="48.248540" lon="0.024800">
        <ele>115</ele>
        <time>2019-08-01T20:55:55Z</time>
      </trkpt>
      <trkpt lat="48.250150" lon="0.025900">
        <ele>100</ele>
        <time>2019-08-01T20:56:03Z</time>
      </trkpt>
      <trkpt lat="48.250380" lon="0.025960">
        <ele>98</ele>
        <time>2019-08-01T20:56:21Z</time>
      </trkpt>
      <trkpt lat="48.250620" lon="0.026000">
        <ele>95</ele>
        <time>2019-08-01T20:56:29Z</time>
      </trkpt>
      <trkpt lat="48.250840" lon="0.025980">
        <ele>92</ele>
        <time>2019-08-01T20:56:35Z</time>
      </trkpt>
      <trkpt lat="48.251030" lon="0.025920">
        <ele>90</ele>
        <time>2019-08-01T20:57:05Z</time>
      </trkpt>
      <trkpt lat="48.251230" lon="0.025810">
        <ele>89</ele>
        <time>2019-08-01T20:57:11Z</time>
      </trkpt>
      <trkpt lat="48.251620" lon="0.025470">
        <ele>88</ele>
        <time>2019-08-01T20:57:15Z</time>
      </trkpt>
      <trkpt lat="48.252360" lon="0.024480">
        <ele>92</ele>
        <time>2019-08-01T20:57:20Z</time>
      </trkpt>
      <trkpt lat="48.252740" lon="0.024060">
        <ele>96</ele>
        <time>2019-08-01T20:57:24Z</time>
      </trkpt>
      <trkpt lat="48.253030" lon="0.023830">
        <ele>97</ele>
        <time>2019-08-01T20:57:31Z</time>
      </trkpt>
      <trkpt lat="48.254570" lon="0.022800">
        <ele>102</ele>
        <time>2019-08-01T20:57:52Z</time>
      </trkpt>
      <trkpt lat="48.254900" lon="0.022710">
        <ele>102</ele>
        <time>2019-08-01T20:58:26Z</time>
      </trkpt>
      <trkpt lat="48.255160" lon="0.022690">
        <ele>101</ele>
        <time>2019-08-01T20:58:26Z</time>
      </trkpt>
      <trkpt lat="48.255410" lon="0.022720">
        <ele>101</ele>
        <time>2019-08-01T20:58:36Z</time>
      </trkpt>
      <trkpt lat="48.255640" lon="0.022810">
        <ele>100</ele>
        <time>2019-08-01T20:58:39Z</time>
      </trkpt>
      <trkpt lat="48.256000" lon="0.023020">
        <ele>99</ele>
        <time>2019-08-01T20:58:42Z</time>
      </trkpt>
      <trkpt lat="48.257110" lon="0.023740">
        <ele>98</ele>
        <time>2019-08-01T20:58:56Z</time>
      </trkpt>
      <trkpt lat="48.258850" lon="0.024900">
        <ele>92</ele>
        <time>2019-08-01T20:59:13Z</time>
      </trkpt>
      <trkpt lat="48.258850" lon="0.024900">
        <ele>92</ele>
        <time>2019-08-01T20:59:25Z</time>
      </trkpt>
      <trkpt lat="48.259360" lon="0.025240">
        <ele>90</ele>
        <time>2019-08-01T20:59:36Z</time>
      </trkpt>
      <trkpt lat="48.259500" lon="0.025300">
        <ele>89</ele>
        <time>2019-08-01T20:59:45Z</time>
      </trkpt>
      <trkpt lat="48.259650" lon="0.025320">
        <ele>89</ele>
        <time>2019-08-01T21:00:01Z</time>
      </trkpt>
      <trkpt lat="48.260470" lon="0.025250">
        <ele>88</ele>
        <time>2019-08-01T21:00:06Z</time>
      </trkpt>
      <trkpt lat="48.261390" lon="0.025090">
        <ele>86</ele>
        <time>2019-08-01T21:00:08Z</time>
      </trkpt>
      <trkpt lat="48.262050" lon="0.024820">
        <ele>86</ele>
        <time>2019-08-01T21:00:16Z</time>
      </trkpt>
      <trkpt lat="48.262680" lon="0.024600">
        <ele>85</ele>
        <time>2019-08-01T21:00:19Z</time>
      </trkpt>
      <trkpt lat="48.263160" lon="0.024530">
        <ele>84</ele>
        <time>2019-08-01T21:00:21Z</time>
      </trkpt>
      <trkpt lat="48.264070" lon="0.024480">
        <ele>85</ele>
        <time>2019-08-01T21:00:23Z</time>
      </trkpt>
      <trkpt lat="48.264320" lon="0.024520">
        <ele>85</ele>
        <time>2019-08-01T21:00:27Z</time>
      </trkpt>
      <trkpt lat="48.264460" lon="0.024640">
        <ele>85</ele>
        <time>2019-08-01T21:00:36Z</time>
      </trkpt>
      <trkpt lat="48.264750" lon="0.025150">
        <ele>83</ele>
        <time>2019-08-01T21:00:40Z</time>
      </trkpt>
      <trkpt lat="48.264850" lon="0.025290">
        <ele>83</ele>
        <time>2019-08-01T21:00:58Z</time>
      </trkpt>
      <trkpt lat="48.264940" lon="0.025360">
        <ele>83</ele>
        <time>2019-08-01T21:01:13Z</time>
      </trkpt>
      <trkpt lat="48.265080" lon="0.025420">
        <ele>83</ele>
        <time>2019-08-01T21:01:18Z</time>
      </trkpt>
      <trkpt lat="48.265270" lon="0.025410">
        <ele>83</ele>
        <time>2019-08-01T21:01:25Z</time>
      </trkpt>
      <trkpt lat="48.265800" lon="0.025320">
        <ele>84</ele>
        <time>2019-08-01T21:01:30Z</time>
      </trkpt>
      <trkpt lat="48.266000" lon="0.025260">
        <ele>84</ele>
        <time>2019-08-01T21:01:44Z</time>
      </trkpt>
      <trkpt lat="48.266950" lon="0.024680">
        <ele>82</ele>
        <time>2019-08-01T21:01:48Z</time>
      </trkpt>
      <trkpt lat="48.267740" lon="0.024140">
        <ele>79</ele>
        <time>2019-08-01T21:01:59Z</time>
      </trkpt>
      <trkpt lat="48.267990" lon="0.024010">
        <ele>79</ele>
        <time>2019-08-01T21:02:02Z</time>
      </trkpt>
      <trkpt lat="48.268350" lon="0.023930">
        <ele>78</ele>
        <time>2019-08-01T21:02:11Z</time>
      </trkpt>
      <trkpt lat="48.268640" lon="0.023830">
        <ele>79</ele>
        <time>2019-08-01T21:02:12Z</time>
      </trkpt>
      <trkpt lat="48.269410" lon="0.023420">
        <ele>80</ele>
        <time>2019-08-01T21:02:14Z</time>
      </trkpt>
      <trkpt lat="48.269580" lon="0.023600">
        <ele>79</ele>
        <time>2019-08-01T21:02:17Z</time>
      </trkpt>
      <trkpt lat="48.270100" lon="0.024040">
        <ele>79</ele>
        <time>2019-08-01T21:02:27Z</time>
      </trkpt>
      <trkpt lat="48.270250" lon="0.024220">
        <ele>79</ele>
        <time>2019-08-01T21:02:33Z</time>
      </trkpt>
      <trkpt lat="48.270560" lon="0.024770">
        <ele>79</ele>
        <time>2019-08-01T21:02:34Z</time>
      </trkpt>
      <trkpt lat="48.270640" lon="0.024820">
        <ele>79</ele>
        <time>2019-08-01T21:02:38Z</time>
      </trkpt>
      <trkpt lat="48.270740" lon="0.024840">
        <ele>80</ele>
        <time>2019-08-01T21:02:42Z</time>
      </trkpt>
      <trkpt lat="48.270930" lon="0.024810">
        <ele>79</ele>
        <time>2019-08-01T21:02:52Z</time>
      </trkpt>
      <trkpt lat="48.271440" lon="0.024670">
        <ele>78</ele>
        <time>2019-08-01T21:03:16Z</time>
      </trkpt>
      <trkpt lat="48.271770" lon="0.024640">
        <ele>77</ele>
        <time>2019-08-01T21:03:25Z</time>
      </trkpt>
      <trkpt lat="48.271870" lon="0.024650">
        <ele>77</ele>
        <time>2019-08-01T21:03:31Z</time>
      </trkpt>
      <trkpt lat="48.272080" lon="0.024720">
        <ele>76</ele>
        <time>2019-08-01T21:03:38Z</time>
      </trkpt>
      <trkpt lat="48.272300" lon="0.024870">
        <ele>75</ele>
        <time>2019-08-01T21:03:41Z</time>
      </trkpt>
      <trkpt lat="48.272780" lon="0.025270">
        <ele>73</ele>
        <time>2019-08-01T21:03:47Z</time>
      </trkpt>
      <trkpt lat="48.273930" lon="0.026320">
        <ele>72</ele>
        <time>2019-08-01T21:03:50Z</time>
      </trkpt>
      <trkpt lat="48.274340" lon="0.026670">
        <ele>71</ele>
        <time>2019-08-01T21:03:54Z</time>
      </trkpt>
      <trkpt lat="48.274640" lon="0.026900">
        <ele>72</ele>
        <time>2019-08-01T21:04:00Z</time>
      </trkpt>
      <trkpt lat="48.275030" lon="0.027140">
        <ele>74</ele>
        <time>2019-08-01T21:04:07Z</time>
      </trkpt>
      <trkpt lat="48.275200" lon="0.027200">
        <ele>75</ele>
        <time>2019-08-01T21:04:15Z</time>
      </trkpt>
      <trkpt lat="48.275540" lon="0.027230">
        <ele>77</ele>
        <time>2019-08-01T21:04:29Z</time>
      </trkpt>
      <trkpt lat="48.275710" lon="0.027310">
        <ele>78</ele>
        <time>2019-08-01T21:04:34Z</time>
      </trkpt>
      <trkpt lat="48.275840" lon="0.027490">
        <ele>78</ele>
        <time>2019-08-01T21:04:36Z</time>
      </trkpt>
      <trkpt lat="48.276100" lon="0.027120">
        <ele>81</ele>
        <time>2019-08-01T21:04:49Z</time>
      </trkpt>
      <trkpt lat="48.276430" lon="0.026810">
        <ele>83</ele>
        <time>2019-08-01T21:05:46Z</time>
      </trkpt>
      <trkpt lat="48.276840" lon="0.026520">
        <ele>84</ele>
        <time>2019-08-01T21:05:48Z</time>
      </trkpt>
      <trkpt lat="48.277580" lon="0.026210">
        <ele>84</ele>
        <time>2019-08-01T21:05:52Z</time>
      </trkpt>
      <trkpt lat="48.277880" lon="0.026220">
        <ele>82</ele>
        <time>2019-08-01T21:06:00Z</time>
      </trkpt>
      <trkpt lat="48.277970" lon="0.026180">
        <ele>81</ele>
        <time>2019-08-01T21:06:10Z</time>
      </trkpt>
      <trkpt lat="48.278560" lon="0.025480">
        <ele>78</ele>
        <time>2019-08-01T21:06:17Z</time>
      </trkpt>
      <trkpt lat="48.280960" lon="0.022230">
        <ele>95</ele>
        <time>2019-08-01T21:06:33Z</time>
      </trkpt>
      <trkpt lat="48.281060" lon="0.022180">
        <ele>96</ele>
        <time>2019-08-01T21:06:35Z</time>
      </trkpt>
      <trkpt lat="48.281280" lon="0.022150">
        <ele>96</ele>
        <time>2019-08-01T21:06:39Z</time>
      </trkpt>
      <trkpt lat="48.281640" lon="0.022550">
        <ele>97</ele>
        <time>2019-08-01T21:06:44Z</time>
      </trkpt>
      <trkpt lat="48.282130" lon="0.022900">
        <ele>97</ele>
        <time>2019-08-01T21:07:20Z</time>
      </trkpt>
      <trkpt lat="48.282510" lon="0.023120">
        <ele>99</ele>
        <time>2019-08-01T21:07:28Z</time>
      </trkpt>
      <trkpt lat="48.283380" lon="0.023380">
        <ele>103</ele>
        <time>2019-08-01T21:07:42Z</time>
      </trkpt>
      <trkpt lat="48.283520" lon="0.023400">
        <ele>103</ele>
        <time>2019-08-01T21:07:50Z</time>
      </trkpt>
      <trkpt lat="48.283720" lon="0.023420">
        <ele>103</ele>
        <time>2019-08-01T21:08:10Z</time>
      </trkpt>
      <trkpt lat="48.284030" lon="0.023380">
        <ele>103</ele>
        <time>2019-08-01T21:08:27Z</time>
      </trkpt>
      <trkpt lat="48.285980" lon="0.022860">
        <ele>105</ele>
        <time>2019-08-01T21:08:56Z</time>
      </trkpt>
      <trkpt lat="48.286400" lon="0.022570">
        <ele>108</ele>
        <time>2019-08-01T21:09:21Z</time>
      </trkpt>
      <trkpt lat="48.287090" lon="0.021950">
        <ele>111</ele>
        <time>2019-08-01T21:09:34Z</time>
      </trkpt>
      <trkpt lat="48.287470" lon="0.021590">
        <ele>113</ele>
        <time>2019-08-01T21:09:42Z</time>
      </trkpt>
      <trkpt lat="48.288420" lon="0.020750">
        <ele>117</ele>
        <time>2019-08-01T21:09:43Z</time>
      </trkpt>
      <trkpt lat="48.289200" lon="0.019960">
        <ele>116</ele>
        <time>2019-08-01T21:09:45Z</time>
      </trkpt>
      <trkpt lat="48.290610" lon="0.018690">
        <ele>112</ele>
        <time>2019-08-01T21:09:47Z</time>
      </trkpt>
      <trkpt lat="48.291890" lon="0.017720">
        <ele>107</ele>
        <time>2019-08-01T21:09:48Z</time>
      </trkpt>
      <trkpt lat="48.292530" lon="0.017200">
        <ele>108</ele>
        <time>2019-08-01T21:09:54Z</time>
      </trkpt>
      <trkpt lat="48.292930" lon="0.017000">
        <ele>109</ele>
        <time>2019-08-01T21:10:19Z</time>
      </trkpt>
      <trkpt lat="48.293010" lon="0.017050">
        <ele>109</ele>
        <time>2019-08-01T21:11:02Z</time>
      </trkpt>
      <trkpt lat="48.293100" lon="0.017020">
        <ele>110</ele>
        <time>2019-08-01T21:11:20Z</time>
      </trkpt>
      <trkpt lat="48.293170" lon="0.016910">
        <ele>110</ele>
        <time>2019-08-01T21:11:29Z</time>
      </trkpt>
      <trkpt lat="48.293180" lon="0.016770">
        <ele>110</ele>
        <time>2019-08-01T21:11:33Z</time>
      </trkpt>
      <trkpt lat="48.293430" lon="0.016490">
        <ele>109</ele>
        <time>2019-08-01T21:12:41Z</time>
      </trkpt>
      <trkpt lat="48.294690" lon="0.015470">
        <ele>105</ele>
        <time>2019-08-01T21:12:46Z</time>
      </trkpt>
      <trkpt lat="48.296770" lon="0.013630">
        <ele>106</ele>
        <time>2019-08-01T21:12:51Z</time>
      </trkpt>
      <trkpt lat="48.297670" lon="0.012950">
        <ele>108</ele>
        <time>2019-08-01T21:12:54Z</time>
      </trkpt>
      <trkpt lat="48.298140" lon="0.012730">
        <ele>109</ele>
        <time>2019-08-01T21:13:00Z</time>
      </trkpt>
      <trkpt lat="48.298330" lon="0.012670">
        <ele>109</ele>
        <time>2019-08-01T21:13:03Z</time>
      </trkpt>
      <trkpt lat="48.302170" lon="0.012260">
        <ele>113</ele>
        <time>2019-08-01T21:13:08Z</time>
      </trkpt>
      <trkpt lat="48.302440" lon="0.012160">
        <ele>113</ele>
        <time>2019-08-01T21:13:13Z</time>
      </trkpt>
      <trkpt lat="48.302680" lon="0.012010">
        <ele>112</ele>
        <time>2019-08-01T21:13:37Z</time>
      </trkpt>
      <trkpt lat="48.302840" lon="0.011890">
        <ele>112</ele>
        <time>2019-08-01T21:13:44Z</time>
      </trkpt>
      <trkpt lat="48.303100" lon="0.011580">
        <ele>111</ele>
        <time>2019-08-01T21:13:49Z</time>
      </trkpt>
      <trkpt lat="48.303220" lon="0.011330">
        <ele>110</ele>
        <time>2019-08-01T21:14:00Z</time>
      </trkpt>
      <trkpt lat="48.303360" lon="0.010960">
        <ele>108</ele>
        <time>2019-08-01T21:14:07Z</time>
      </trkpt>
      <trkpt lat="48.303450" lon="0.010630">
        <ele>107</ele>
        <time>2019-08-01T21:14:19Z</time>
      </trkpt>
      <trkpt lat="48.303640" lon="0.008590">
        <ele>100</ele>
        <time>2019-08-01T21:14:26Z</time>
      </trkpt>
      <trkpt lat="48.303750" lon="0.008050">
        <ele>99</ele>
        <time>2019-08-01T21:15:14Z</time>
      </trkpt>
      <trkpt lat="48.303890" lon="0.007640">
        <ele>98</ele>
        <time>2019-08-01T21:15:24Z</time>
      </trkpt>
      <trkpt lat="48.304250" lon="0.006900">
        <ele>95</ele>
        <time>2019-08-01T21:15:57Z</time>
      </trkpt>
      <trkpt lat="48.304430" lon="0.006370">
        <ele>94</ele>
        <time>2019-08-01T21:16:03Z</time>
      </trkpt>
      <trkpt lat="48.304700" lon="0.005440">
        <ele>92</ele>
        <time>2019-08-01T21:16:10Z</time>
      </trkpt>
      <trkpt lat="48.304880" lon="0.004890">
        <ele>89</ele>
        <time>2019-08-01T21:16:19Z</time>
      </trkpt>
      <trkpt lat="48.306360" lon="0.001490">
        <ele>91</ele>
        <time>2019-08-01T21:16:25Z</time>
      </trkpt>
      <trkpt lat="48.306620" lon="0.000730">
        <ele>94</ele>
        <time>2019-08-01T21:16:33Z</time>
      </trkpt>
      <trkpt lat="48.307280" lon="-0.001840">
        <ele>104</ele>
        <time>2019-08-01T21:16:38Z</time>
      </trkpt>
      <trkpt lat="48.307420" lon="-0.002250">
        <ele>106</ele>
        <time>2019-08-01T21:16:43Z</time>
      </trkpt>
      <trkpt lat="48.307670" lon="-0.002800">
        <ele>109</ele>
        <time>2019-08-01T21:17:30Z</time>
      </trkpt>
      <trkpt lat="48.308000" lon="-0.003300">
        <ele>112</ele>
        <time>2019-08-01T21:17:35Z</time>
      </trkpt>
      <trkpt lat="48.308290" lon="-0.003620">
        <ele>113</ele>
        <time>2019-08-01T21:17:56Z</time>
      </trkpt>
      <trkpt lat="48.308670" lon="-0.003930">
        <ele>115</ele>
        <time>2019-08-01T21:18:00Z</time>
      </trkpt>
      <trkpt lat="48.308940" lon="-0.004080">
        <ele>117</ele>
        <time>2019-08-01T21:18:04Z</time>
      </trkpt>
      <trkpt lat="48.309200" lon="-0.004190">
        <ele>119</ele>
        <time>2019-08-01T21:18:09Z</time>
      </trkpt>
      <trkpt lat="48.311800" lon="-0.004850">
        <ele>124</ele>
        <time>2019-08-01T21:18:13Z</time>
      </trkpt>
      <trkpt lat="48.312080" lon="-0.004970">
        <ele>125</ele>
        <time>2019-08-01T21:18:17Z</time>
      </trkpt>
      <trkpt lat="48.313200" lon="-0.005500">
        <ele>127</ele>
        <time>2019-08-01T21:18:24Z</time>
      </trkpt>
      <trkpt lat="48.313390" lon="-0.005650">
        <ele>128</ele>
        <time>2019-08-01T21:18:33Z</time>
      </trkpt>
      <trkpt lat="48.313600" lon="-0.005880">
        <ele>128</ele>
        <time>2019-08-01T21:18:37Z</time>
      </trkpt>
      <trkpt lat="48.313790" lon="-0.006190">
        <ele>128</ele>
        <time>2019-08-01T21:18:50Z</time>
      </trkpt>
      <trkpt lat="48.313900" lon="-0.006440">
        <ele>128</ele>
        <time>2019-08-01T21:18:55Z</time>
      </trkpt>
      <trkpt lat="48.313980" lon="-0.006740">
        <ele>128</ele>
        <time>2019-08-01T21:19:03Z</time>
      </trkpt>
      <trkpt lat="48.314070" lon="-0.007350">
        <ele>128</ele>
        <time>2019-08-01T21:19:24Z</time>
      </trkpt>
      <trkpt lat="48.314210" lon="-0.008070">
        <ele>129</ele>
        <time>2019-08-01T21:19:33Z</time>
      </trkpt>
      <trkpt lat="48.314300" lon="-0.008390">
        <ele>130</ele>
        <time>2019-08-01T21:19:57Z</time>
      </trkpt>
      <trkpt lat="48.314690" lon="-0.009320">
        <ele>130</ele>
        <time>2019-08-01T21:20:06Z</time>
      </trkpt>
      <trkpt lat="48.314830" lon="-0.009730">
        <ele>131</ele>
        <time>2019-08-01T21:20:44Z</time>
      </trkpt>
      <trkpt lat="48.314940" lon="-0.010360">
        <ele>132</ele>
        <time>2019-08-01T21:20:49Z</time>
      </trkpt>
      <trkpt lat="48.315090" lon="-0.012120">
        <ele>136</ele>
        <time>2019-08-01T21:21:02Z</time>
      </trkpt>
      <trkpt lat="48.315230" lon="-0.012840">
        <ele>137</ele>
        <time>2019-08-01T21:21:12Z</time>
      </trkpt>
      <trkpt lat="48.315680" lon="-0.014710">
        <ele>140</ele>
        <time>2019-08-01T21:21:15Z</time>
      </trkpt>
      <trkpt lat="48.315910" lon="-0.015470">
        <ele>141</ele>
        <time>2019-08-01T21:21:19Z</time>
      </trkpt>
      <trkpt lat="48.316930" lon="-0.018230">
        <ele>145</ele>
        <time>2019-08-01T21:21:29Z</time>
      </trkpt>
      <trkpt lat="48.317100" lon="-0.018620">
        <ele>145</ele>
        <time>2019-08-01T21:21:32Z</time>
      </trkpt>
      <trkpt lat="48.317550" lon="-0.019420">
        <ele>143</ele>
        <time>2019-08-01T21:21:36Z</time>
      </trkpt>
      <trkpt lat="48.317850" lon="-0.020160">
        <ele>142</ele>
        <time>2019-08-01T21:21:44Z</time>
      </trkpt>
      <trkpt lat="48.317930" lon="-0.020420">
        <ele>142</ele>
        <time>2019-08-01T21:22:01Z</time>
      </trkpt>
      <trkpt lat="48.318000" lon="-0.020740">
        <ele>142</ele>
        <time>2019-08-01T21:22:30Z</time>
      </trkpt>
      <trkpt lat="48.318090" lon="-0.021520">
        <ele>144</ele>
        <time>2019-08-01T21:22:34Z</time>
      </trkpt>
      <trkpt lat="48.318100" lon="-0.021840">
        <ele>145</ele>
        <time>2019-08-01T21:22:37Z</time>
      </trkpt>
      <trkpt lat="48.318090" lon="-0.022140">
        <ele>147</ele>
        <time>2019-08-01T21:22:41Z</time>
      </trkpt>
      <trkpt lat="48.318030" lon="-0.022770">
        <ele>149</ele>
        <time>2019-08-01T21:22:51Z</time>
      </trkpt>
      <trkpt lat="48.317870" lon="-0.024200">
        <ele>151</ele>
        <time>2019-08-01T21:23:08Z</time>
      </trkpt>
      <trkpt lat="48.317530" lon="-0.026610">
        <ele>150</ele>
        <time>2019-08-01T21:23:10Z</time>
      </trkpt>
      <trkpt lat="48.317490" lon="-0.026970">
        <ele>150</ele>
        <time>2019-08-01T21:23:12Z</time>
      </trkpt>
      <trkpt lat="48.317500" lon="-0.027170">
        <ele>151</ele>
        <time>2019-08-01T21:23:19Z</time>
      </trkpt>
      <trkpt lat="48.317510" lon="-0.027530">
        <ele>151</ele>
        <time>2019-08-01T21:23:41Z</time>
      </trkpt>
      <trkpt lat="48.317630" lon="-0.028400">
        <ele>152</ele>
        <time>2019-08-01T21:23:45Z</time>
      </trkpt>
      <trkpt lat="48.317940" lon="-0.029730">
        <ele>152</ele>
        <time>2019-08-01T21:23:48Z</time>
      </trkpt>
      <trkpt lat="48.317960" lon="-0.029910">
        <ele>152</ele>
        <time>2019-08-01T21:24:00Z</time>
      </trkpt>
      <trkpt lat="48.317950" lon="-0.030060">
        <ele>151</ele>
        <time>2019-08-01T21:24:06Z</time>
      </trkpt>
      <trkpt lat="48.317850" lon="-0.030620">
        <ele>150</ele>
        <time>2019-08-01T21:24:26Z</time>
      </trkpt>
      <trkpt lat="48.317360" lon="-0.032350">
        <ele>150</ele>
        <time>2019-08-01T21:24:48Z</time>
      </trkpt>
      <trkpt lat="48.317300" lon="-0.032670">
        <ele>150</ele>
        <time>2019-08-01T21:25:00Z</time>
      </trkpt>
      <trkpt lat="48.317290" lon="-0.032930">
        <ele>151</ele>
        <time>2019-08-01T21:25:17Z</time>
      </trkpt>
      <trkpt lat="48.317370" lon="-0.033890">
        <ele>151</ele>
        <time>2019-08-01T21:25:22Z</time>
      </trkpt>
      <trkpt lat="48.317390" lon="-0.034460">
        <ele>150</ele>
        <time>2019-08-01T21:25:22Z</time>
      </trkpt>
      <trkpt lat="48.317300" lon="-0.036160">
        <ele>146</ele>
        <time>2019-08-01T21:25:29Z</time>
      </trkpt>
      <trkpt lat="48.317160" lon="-0.037930">
        <ele>142</ele>
        <time>2019-08-01T21:25:37Z</time>
      </trkpt>
      <trkpt lat="48.317020" lon="-0.038970">
        <ele>139</ele>
        <time>2019-08-01T21:26:02Z</time>
      </trkpt>
      <trkpt lat="48.316780" lon="-0.040340">
        <ele>134</ele>
        <time>2019-08-01T21:26:27Z</time>
      </trkpt>
      <trkpt lat="48.316650" lon="-0.040770">
        <ele>133</ele>
        <time>2019-08-01T21:27:10Z</time>
      </trkpt>
      <trkpt lat="48.316650" lon="-0.040770">
        <ele>133</ele>
        <time>2019-08-01T21:27:18Z</time>
      </trkpt>
      <trkpt lat="48.316450" lon="-0.041280">
        <ele>131</ele>
        <time>2019-08-01T21:27:24Z</time>
      </trkpt>
      <trkpt lat="48.316210" lon="-0.041770">
        <ele>130</ele>
        <time>2019-08-01T21:27:28Z</time>
      </trkpt>
      <trkpt lat="48.315460" lon="-0.043570">
        <ele>123</ele>
        <time>2019-08-01T21:27:32Z</time>
      </trkpt>
      <trkpt lat="48.314760" lon="-0.045440">
        <ele>118</ele>
        <time>2019-08-01T21:27:48Z</time>
      </trkpt>
      <trkpt lat="48.313560" lon="-0.048550">
        <ele>111</ele>
        <time>2019-08-01T21:27:52Z</time>
      </trkpt>
      <trkpt lat="48.313360" lon="-0.049150">
        <ele>111</ele>
        <time>2019-08-01T21:27:56Z</time>
      </trkpt>
      <trkpt lat="48.313260" lon="-0.049640">
        <ele>110</ele>
        <time>2019-08-01T21:28:00Z</time>
      </trkpt>
      <trkpt lat="48.313250" lon="-0.050020">
        <ele>109</ele>
        <time>2019-08-01T21:29:53Z</time>
      </trkpt>
      <trkpt lat="48.313290" lon="-0.050340">
        <ele>109</ele>
        <time>2019-08-01T21:30:06Z</time>
      </trkpt>
      <trkpt lat="48.313590" lon="-0.051590">
        <ele>108</ele>
        <time>2019-08-01T21:30:17Z</time>
      </trkpt>
      <trkpt lat="48.313600" lon="-0.051930">
        <ele>108</ele>
        <time>2019-08-01T21:30:28Z</time>
      </trkpt>
      <trkpt lat="48.313590" lon="-0.052250">
        <ele>107</ele>
        <time>2019-08-01T21:30:37Z</time>
      </trkpt>
      <trkpt lat="48.313530" lon="-0.052620">
        <ele>106</ele>
        <time>2019-08-01T21:30:42Z</time>
      </trkpt>
      <trkpt lat="48.310640" lon="-0.061150">
        <ele>94</ele>
        <time>2019-08-01T21:30:50Z</time>
      </trkpt>
      <trkpt lat="48.310260" lon="-0.062060">
        <ele>93</ele>
        <time>2019-08-01T21:31:00Z</time>
      </trkpt>
      <trkpt lat="48.309890" lon="-0.062750">
        <ele>93</ele>
        <time>2019-08-01T21:31:03Z</time>
      </trkpt>
      <trkpt lat="48.309450" lon="-0.063480">
        <ele>95</ele>
        <time>2019-08-01T21:31:06Z</time>
      </trkpt>
      <trkpt lat="48.309160" lon="-0.064060">
        <ele>95</ele>
        <time>2019-08-01T21:31:09Z</time>
      </trkpt>
      <trkpt lat="48.309020" lon="-0.064420">
        <ele>94</ele>
        <time>2019-08-01T21:31:15Z</time>
      </trkpt>
      <trkpt lat="48.308830" lon="-0.065080">
        <ele>93</ele>
        <time>2019-08-01T21:31:33Z</time>
      </trkpt>
      <trkpt lat="48.308700" lon="-0.065880">
        <ele>92</ele>
        <time>2019-08-01T21:31:40Z</time>
      </trkpt>
      <trkpt lat="48.308690" lon="-0.066120">
        <ele>91</ele>
        <time>2019-08-01T21:31:56Z</time>
      </trkpt>
      <trkpt lat="48.308700" lon="-0.066400">
        <ele>91</ele>
        <time>2019-08-01T21:32:30Z</time>
      </trkpt>
      <trkpt lat="48.308730" lon="-0.066590">
        <ele>90</ele>
        <time>2019-08-01T21:32:42Z</time>
      </trkpt>
      <trkpt lat="48.308910" lon="-0.067060">
        <ele>89</ele>
        <time>2019-08-01T21:32:49Z</time>
      </trkpt>
      <trkpt lat="48.309610" lon="-0.068150">
        <ele>88</ele>
        <time>2019-08-01T21:32:57Z</time>
      </trkpt>
      <trkpt lat="48.309920" lon="-0.068510">
        <ele>88</ele>
        <time>2019-08-01T21:33:11Z</time>
      </trkpt>
      <trkpt lat="48.310720" lon="-0.069160">
        <ele>88</ele>
        <time>2019-08-01T21:33:16Z</time>
      </trkpt>
      <trkpt lat="48.312430" lon="-0.070460">
        <ele>88</ele>
        <time>2019-08-01T21:33:28Z</time>
      </trkpt>
      <trkpt lat="48.312930" lon="-0.071060">
        <ele>89</ele>
        <time>2019-08-01T21:33:32Z</time>
      </trkpt>
      <trkpt lat="48.313240" lon="-0.071530">
        <ele>90</ele>
        <time>2019-08-01T21:33:36Z</time>
      </trkpt>
      <trkpt lat="48.313510" lon="-0.072040">
        <ele>91</ele>
        <time>2019-08-01T21:33:48Z</time>
      </trkpt>
      <trkpt lat="48.313890" lon="-0.073040">
        <ele>92</ele>
        <time>2019-08-01T21:34:10Z</time>
      </trkpt>
      <trkpt lat="48.314090" lon="-0.073390">
        <ele>92</ele>
        <time>2019-08-01T21:34:41Z</time>
      </trkpt>
      <trkpt lat="48.314610" lon="-0.074010">
        <ele>92</ele>
        <time>2019-08-01T21:34:50Z</time>
      </trkpt>
      <trkpt lat="48.314770" lon="-0.074270">
        <ele>91</ele>
        <time>2019-08-01T21:35:46Z</time>
      </trkpt>
      <trkpt lat="48.314870" lon="-0.074530">
        <ele>91</ele>
        <time>2019-08-01T21:35:55Z</time>
      </trkpt>
      <trkpt lat="48.315140" lon="-0.075450">
        <ele>93</ele>
        <time>2019-08-01T21:36:28Z</time>
      </trkpt>
      <trkpt lat="48.315600" lon="-0.077180">
        <ele>95</ele>
        <time>2019-08-01T21:36:48Z</time>
      </trkpt>
      <trkpt lat="48.316020" lon="-0.079780">
        <ele>92</ele>
        <time>2019-08-01T21:37:00Z</time>
      </trkpt>
      <trkpt lat="48.316090" lon="-0.080530">
        <ele>92</ele>
        <time>2019-08-01T21:37:08Z</time>
      </trkpt>
      <trkpt lat="48.316330" lon="-0.085210">
        <ele>93</ele>
        <time>2019-08-01T21:37:17Z</time>
      </trkpt>
      <trkpt lat="48.316440" lon="-0.086000">
        <ele>93</ele>
        <time>2019-08-01T21:37:27Z</time>
      </trkpt>
      <trkpt lat="48.316950" lon="-0.088690">
        <ele>97</ele>
        <time>2019-08-01T21:37:35Z</time>
      </trkpt>
      <trkpt lat="48.317260" lon="-0.090260">
        <ele>98</ele>
        <time>2019-08-01T21:37:42Z</time>
      </trkpt>
      <trkpt lat="48.317490" lon="-0.091270">
        <ele>98</ele>
        <time>2019-08-01T21:37:47Z</time>
      </trkpt>
      <trkpt lat="48.317700" lon="-0.091840">
        <ele>99</ele>
        <time>2019-08-01T21:38:07Z</time>
      </trkpt>
      <trkpt lat="48.318010" lon="-0.092400">
        <ele>100</ele>
        <time>2019-08-01T21:38:37Z</time>
      </trkpt>
      <trkpt lat="48.318370" lon="-0.093090">
        <ele>99</ele>
        <time>2019-08-01T21:38:46Z</time>
      </trkpt>
      <trkpt lat="48.318600" lon="-0.093640">
        <ele>98</ele>
        <time>2019-08-01T21:38:52Z</time>
      </trkpt>
      <trkpt lat="48.318700" lon="-0.094180">
        <ele>98</ele>
        <time>2019-08-01T21:38:58Z</time>
      </trkpt>
      <trkpt lat="48.318750" lon="-0.094660">
        <ele>98</ele>
        <time>2019-08-01T21:39:14Z</time>
      </trkpt>
      <trkpt lat="48.318850" lon="-0.096310">
        <ele>100</ele>
        <time>2019-08-01T21:39:29Z</time>
      </trkpt>
      <trkpt lat="48.318960" lon="-0.098830">
        <ele>100</ele>
        <time>2019-08-01T21:40:08Z</time>
      </trkpt>
      <trkpt lat="48.319030" lon="-0.099630">
        <ele>101</ele>
        <time>2019-08-01T21:40:25Z</time>
      </trkpt>
      <trkpt lat="48.319080" lon="-0.100090">
        <ele>100</ele>
        <time>2019-08-01T21:40:38Z</time>
      </trkpt>
      <trkpt lat="48.319180" lon="-0.100560">
        <ele>100</ele>
        <time>2019-08-01T21:40:56Z</time>
      </trkpt>
      <trkpt lat="48.319520" lon="-0.101800">
        <ele>103</ele>
        <time>2019-08-01T21:41:00Z</time>
      </trkpt>
      <trkpt lat="48.319880" lon="-0.102980">
        <ele>102</ele>
        <time>2019-08-01T21:41:03Z</time>
      </trkpt>
      <trkpt lat="48.320640" lon="-0.106040">
        <ele>107</ele>
        <time>2019-08-01T21:41:06Z</time>
      </trkpt>
      <trkpt lat="48.320960" lon="-0.107420">
        <ele>112</ele>
        <time>2019-08-01T21:41:12Z</time>
      </trkpt>
      <trkpt lat="48.321220" lon="-0.108420">
        <ele>111</ele>
        <time>2019-08-01T21:41:20Z</time>
      </trkpt>
      <trkpt lat="48.321570" lon="-0.109930">
        <ele>111</ele>
        <time>2019-08-01T21:41:29Z</time>
      </trkpt>
      <trkpt lat="48.321610" lon="-0.110190">
        <ele>111</ele>
        <time>2019-08-01T21:41:36Z</time>
      </trkpt>
      <trkpt lat="48.321620" lon="-0.110470">
        <ele>111</ele>
        <time>2019-08-01T21:41:39Z</time>
      </trkpt>
      <trkpt lat="48.321610" lon="-0.110730">
        <ele>110</ele>
        <time>2019-08-01T21:41:47Z</time>
      </trkpt>
      <trkpt lat="48.321510" lon="-0.111190">
        <ele>109</ele>
        <time>2019-08-01T21:41:54Z</time>
      </trkpt>
      <trkpt lat="48.321310" lon="-0.111800">
        <ele>107</ele>
        <time>2019-08-01T21:41:59Z</time>
      </trkpt>
      <trkpt lat="48.321100" lon="-0.112560">
        <ele>106</ele>
        <time>2019-08-01T21:42:01Z</time>
      </trkpt>
      <trkpt lat="48.321020" lon="-0.113110">
        <ele>105</ele>
        <time>2019-08-01T21:42:04Z</time>
      </trkpt>
      <trkpt lat="48.321010" lon="-0.113390">
        <ele>104</ele>
        <time>2019-08-01T21:42:07Z</time>
      </trkpt>
      <trkpt lat="48.321030" lon="-0.114030">
        <ele>103</ele>
        <time>2019-08-01T21:42:10Z</time>
      </trkpt>
      <trkpt lat="48.321090" lon="-0.114630">
        <ele>103</ele>
        <time>2019-08-01T21:42:23Z</time>
      </trkpt>
      <trkpt lat="48.321160" lon="-0.115000">
        <ele>103</ele>
        <time>2019-08-01T21:42:27Z</time>
      </trkpt>
      <trkpt lat="48.321220" lon="-0.115170">
        <ele>105</ele>
        <time>2019-08-01T21:42:31Z</time>
      </trkpt>
      <trkpt lat="48.321320" lon="-0.115350">
        <ele>107</ele>
        <time>2019-08-01T21:42:38Z</time>
      </trkpt>
      <trkpt lat="48.321460" lon="-0.115470">
        <ele>109</ele>
        <time>2019-08-01T21:42:43Z</time>
      </trkpt>
      <trkpt lat="48.321620" lon="-0.115510">
        <ele>111</ele>
        <time>2019-08-01T21:42:56Z</time>
      </trkpt>
      <trkpt lat="48.322360" lon="-0.115510">
        <ele>112</ele>
        <time>2019-08-01T21:42:59Z</time>
      </trkpt>
      <trkpt lat="48.322600" lon="-0.115550">
        <ele>113</ele>
        <time>2019-08-01T21:43:01Z</time>
      </trkpt>
      <trkpt lat="48.322840" lon="-0.115640">
        <ele>114</ele>
        <time>2019-08-01T21:43:04Z</time>
      </trkpt>
      <trkpt lat="48.323160" lon="-0.115830">
        <ele>116</ele>
        <time>2019-08-01T21:43:07Z</time>
      </trkpt>
      <trkpt lat="48.323420" lon="-0.116030">
        <ele>118</ele>
        <time>2019-08-01T21:43:17Z</time>
      </trkpt>
      <trkpt lat="48.324030" lon="-0.116640">
        <ele>120</ele>
        <time>2019-08-01T21:43:26Z</time>
      </trkpt>
      <trkpt lat="48.324150" lon="-0.116820">
        <ele>120</ele>
        <time>2019-08-01T21:43:37Z</time>
      </trkpt>
      <trkpt lat="48.324210" lon="-0.117010">
        <ele>119</ele>
        <time>2019-08-01T21:43:43Z</time>
      </trkpt>
      <trkpt lat="48.324220" lon="-0.117230">
        <ele>120</ele>
        <time>2019-08-01T21:43:47Z</time>
      </trkpt>
      <trkpt lat="48.324200" lon="-0.117480">
        <ele>121</ele>
        <time>2019-08-01T21:43:56Z</time>
      </trkpt>
      <trkpt lat="48.324050" lon="-0.118270">
        <ele>125</ele>
        <time>2019-08-01T21:44:04Z</time>
      </trkpt>
      <trkpt lat="48.324000" lon="-0.119100">
        <ele>129</ele>
        <time>2019-08-01T21:44:15Z</time>
      </trkpt>
      <trkpt lat="48.324030" lon="-0.119970">
        <ele>129</ele>
        <time>2019-08-01T21:44:25Z</time>
      </trkpt>
      <trkpt lat="48.324020" lon="-0.120470">
        <ele>130</ele>
        <time>2019-08-01T21:44:55Z</time>
      </trkpt>
      <trkpt lat="48.323970" lon="-0.120790">
        <ele>132</ele>
        <time>2019-08-01T21:45:16Z</time>
      </trkpt>
      <trkpt lat="48.323780" lon="-0.121490">
        <ele>134</ele>
        <time>2019-08-01T21:45:22Z</time>
      </trkpt>
      <trkpt lat="48.323510" lon="-0.122120">
        <ele>138</ele>
        <time>2019-08-01T21:45:27Z</time>
      </trkpt>
      <trkpt lat="48.323100" lon="-0.122820">
        <ele>143</ele>
        <time>2019-08-01T21:45:30Z</time>
      </trkpt>
      <trkpt lat="48.322710" lon="-0.123430">
        <ele>146</ele>
        <time>2019-08-01T21:45:35Z</time>
      </trkpt>
      <trkpt lat="48.321520" lon="-0.125220">
        <ele>153</ele>
        <time>2019-08-01T21:45:41Z</time>
      </trkpt>
      <trkpt lat="48.320760" lon="-0.126540">
        <ele>155</ele>
        <time>2019-08-01T21:45:55Z</time>
      </trkpt>
      <trkpt lat="48.320570" lon="-0.126940">
        <ele>155</ele>
        <time>2019-08-01T21:46:37Z</time>
      </trkpt>
      <trkpt lat="48.320450" lon="-0.127290">
        <ele>155</ele>
        <time>2019-08-01T21:46:47Z</time>
      </trkpt>
      <trkpt lat="48.320380" lon="-0.127590">
        <ele>155</ele>
        <time>2019-08-01T21:46:53Z</time>
      </trkpt>
      <trkpt lat="48.320360" lon="-0.127970">
        <ele>155</ele>
        <time>2019-08-01T21:47:01Z</time>
      </trkpt>
      <trkpt lat="48.320400" lon="-0.128480">
        <ele>155</ele>
        <time>2019-08-01T21:47:06Z</time>
      </trkpt>
      <trkpt lat="48.320610" lon="-0.129610">
        <ele>159</ele>
        <time>2019-08-01T21:47:20Z</time>
      </trkpt>
      <trkpt lat="48.321390" lon="-0.133020">
        <ele>160</ele>
        <time>2019-08-01T21:47:38Z</time>
      </trkpt>
      <trkpt lat="48.321540" lon="-0.133760">
        <ele>161</ele>
        <time>2019-08-01T21:47:44Z</time>
      </trkpt>
      <trkpt lat="48.321590" lon="-0.134300">
        <ele>162</ele>
        <time>2019-08-01T21:47:48Z</time>
      </trkpt>
      <trkpt lat="48.321600" lon="-0.134950">
        <ele>163</ele>
        <time>2019-08-01T21:47:59Z</time>
      </trkpt>
      <trkpt lat="48.321580" lon="-0.135430">
        <ele>165</ele>
        <time>2019-08-01T21:48:07Z</time>
      </trkpt>
      <trkpt lat="48.321410" lon="-0.136520">
        <ele>171</ele>
        <time>2019-08-01T21:48:12Z</time>
      </trkpt>
      <trkpt lat="48.321010" lon="-0.137960">
        <ele>176</ele>
        <time>2019-08-01T21:48:18Z</time>
      </trkpt>
      <trkpt lat="48.320940" lon="-0.138440">
        <ele>177</ele>
        <time>2019-08-01T21:48:36Z</time>
      </trkpt>
      <trkpt lat="48.320910" lon="-0.138790">
        <ele>178</ele>
        <time>2019-08-01T21:48:41Z</time>
      </trkpt>
      <trkpt lat="48.320900" lon="-0.139690">
        <ele>180</ele>
        <time>2019-08-01T21:48:50Z</time>
      </trkpt>
      <trkpt lat="48.320950" lon="-0.140390">
        <ele>182</ele>
        <time>2019-08-01T21:48:56Z</time>
      </trkpt>
      <trkpt lat="48.321030" lon="-0.140770">
        <ele>183</ele>
        <time>2019-08-01T21:49:10Z</time>
      </trkpt>
      <trkpt lat="48.321180" lon="-0.141230">
        <ele>184</ele>
        <time>2019-08-01T21:49:27Z</time>
      </trkpt>
      <trkpt lat="48.321680" lon="-0.142580">
        <ele>189</ele>
        <time>2019-08-01T21:49:47Z</time>
      </trkpt>
      <trkpt lat="48.321750" lon="-0.142940">
        <ele>189</ele>
        <time>2019-08-01T21:49:58Z</time>
      </trkpt>
      <trkpt lat="48.321850" lon="-0.143700">
        <ele>190</ele>
        <time>2019-08-01T21:50:09Z</time>
      </trkpt>
      <trkpt lat="48.321860" lon="-0.144200">
        <ele>191</ele>
        <time>2019-08-01T21:50:33Z</time>
      </trkpt>
      <trkpt lat="48.321760" lon="-0.145360">
        <ele>190</ele>
        <time>2019-08-01T21:50:42Z</time>
      </trkpt>
      <trkpt lat="48.321770" lon="-0.146870">
        <ele>190</ele>
        <time>2019-08-01T21:51:01Z</time>
      </trkpt>
      <trkpt lat="48.321660" lon="-0.148550">
        <ele>193</ele>
        <time>2019-08-01T21:51:15Z</time>
      </trkpt>
      <trkpt lat="48.321560" lon="-0.149440">
        <ele>192</ele>
        <time>2019-08-01T21:51:19Z</time>
      </trkpt>
      <trkpt lat="48.321390" lon="-0.150290">
        <ele>192</ele>
        <time>2019-08-01T21:51:22Z</time>
      </trkpt>
      <trkpt lat="48.320850" lon="-0.152160">
        <ele>193</ele>
        <time>2019-08-01T21:51:25Z</time>
      </trkpt>
      <trkpt lat="48.320710" lon="-0.152880">
        <ele>196</ele>
        <time>2019-08-01T21:51:35Z</time>
      </trkpt>
      <trkpt lat="48.320510" lon="-0.154540">
        <ele>200</ele>
        <time>2019-08-01T21:51:39Z</time>
      </trkpt>
      <trkpt lat="48.320210" lon="-0.155550">
        <ele>200</ele>
        <time>2019-08-01T21:51:45Z</time>
      </trkpt>
      <trkpt lat="48.320160" lon="-0.155880">
        <ele>200</ele>
        <time>2019-08-01T21:51:52Z</time>
      </trkpt>
      <trkpt lat="48.320150" lon="-0.156170">
        <ele>200</ele>
        <time>2019-08-01T21:52:07Z</time>
      </trkpt>
      <trkpt lat="48.320180" lon="-0.156440">
        <ele>201</ele>
        <time>2019-08-01T21:52:11Z</time>
      </trkpt>
      <trkpt lat="48.320340" lon="-0.157220">
        <ele>202</ele>
        <time>2019-08-01T21:52:20Z</time>
      </trkpt>
      <trkpt lat="48.320390" lon="-0.157520">
        <ele>202</ele>
        <time>2019-08-01T21:53:08Z</time>
      </trkpt>
      <trkpt lat="48.320440" lon="-0.158060">
        <ele>203</ele>
        <time>2019-08-01T21:53:15Z</time>
      </trkpt>
      <trkpt lat="48.320430" lon="-0.158630">
        <ele>203</ele>
        <time>2019-08-01T21:53:27Z</time>
      </trkpt>
      <trkpt lat="48.320310" lon="-0.159890">
        <ele>202</ele>
        <time>2019-08-01T21:53:51Z</time>
      </trkpt>
      <trkpt lat="48.320290" lon="-0.160230">
        <ele>202</ele>
        <time>2019-08-01T21:54:00Z</time>
      </trkpt>
      <trkpt lat="48.320340" lon="-0.161020">
        <ele>204</ele>
        <time>2019-08-01T21:54:10Z</time>
      </trkpt>
      <trkpt lat="48.320930" lon="-0.164930">
        <ele>208</ele>
        <time>2019-08-01T21:54:19Z</time>
      </trkpt>
      <trkpt lat="48.321030" lon="-0.165550">
        <ele>210</ele>
        <time>2019-08-01T21:55:04Z</time>
      </trkpt>
      <trkpt lat="48.321260" lon="-0.166520">
        <ele>212</ele>
        <time>2019-08-01T21:55:21Z</time>
      </trkpt>
      <trkpt lat="48.321750" lon="-0.168330">
        <ele>214</ele>
        <time>2019-08-01T21:55:38Z</time>
      </trkpt>
      <trkpt lat="48.321920" lon="-0.169090">
        <ele>215</ele>
        <time>2019-08-01T21:55:47Z</time>
      </trkpt>
      <trkpt lat="48.322050" lon="-0.169890">
        <ele>214</ele>
        <time>2019-08-01T21:55:55Z</time>
      </trkpt>
      <trkpt lat="48.322120" lon="-0.170670">
        <ele>214</ele>
        <time>2019-08-01T21:56:04Z</time>
      </trkpt>
      <trkpt lat="48.322200" lon="-0.174450">
        <ele>220</ele>
        <time>2019-08-01T21:56:11Z</time>
      </trkpt>
      <trkpt lat="48.322260" lon="-0.175890">
        <ele>223</ele>
        <time>2019-08-01T21:56:56Z</time>
      </trkpt>
      <trkpt lat="48.322280" lon="-0.177350">
        <ele>224</ele>
        <time>2019-08-01T21:57:11Z</time>
      </trkpt>
      <trkpt lat="48.322310" lon="-0.178110">
        <ele>223</ele>
        <time>2019-08-01T21:57:54Z</time>
      </trkpt>
      <trkpt lat="48.322370" lon="-0.178790">
        <ele>223</ele>
        <time>2019-08-01T21:58:01Z</time>
      </trkpt>
      <trkpt lat="48.322500" lon="-0.179500">
        <ele>224</ele>
        <time>2019-08-01T21:58:10Z</time>
      </trkpt>
      <trkpt lat="48.322650" lon="-0.180090">
        <ele>224</ele>
        <time>2019-08-01T21:58:42Z</time>
      </trkpt>
      <trkpt lat="48.323700" lon="-0.183480">
        <ele>216</ele>
        <time>2019-08-01T21:59:14Z</time>
      </trkpt>
      <trkpt lat="48.324080" lon="-0.184640">
        <ele>216</ele>
        <time>2019-08-01T21:59:18Z</time>
      </trkpt>
      <trkpt lat="48.325130" lon="-0.187950">
        <ele>211</ele>
        <time>2019-08-01T21:59:27Z</time>
      </trkpt>
      <trkpt lat="48.325220" lon="-0.188530">
        <ele>210</ele>
        <time>2019-08-01T22:00:20Z</time>
      </trkpt>
      <trkpt lat="48.325290" lon="-0.189260">
        <ele>210</ele>
        <time>2019-08-01T22:00:29Z</time>
      </trkpt>
      <trkpt lat="48.325360" lon="-0.191970">
        <ele>212</ele>
        <time>2019-08-01T22:00:41Z</time>
      </trkpt>
      <trkpt lat="48.325480" lon="-0.194630">
        <ele>215</ele>
        <time>2019-08-01T22:01:14Z</time>
      </trkpt>
      <trkpt lat="48.325500" lon="-0.194950">
        <ele>215</ele>
        <time>2019-08-01T22:01:22Z</time>
      </trkpt>
      <trkpt lat="48.325610" lon="-0.195720">
        <ele>216</ele>
        <time>2019-08-01T22:01:30Z</time>
      </trkpt>
      <trkpt lat="48.326560" lon="-0.199930">
        <ele>211</ele>
        <time>2019-08-01T22:01:37Z</time>
      </trkpt>
      <trkpt lat="48.326680" lon="-0.200730">
        <ele>208</ele>
        <time>2019-08-01T22:01:53Z</time>
      </trkpt>
      <trkpt lat="48.326680" lon="-0.201700">
        <ele>204</ele>
        <time>2019-08-01T22:02:01Z</time>
      </trkpt>
      <trkpt lat="48.326490" lon="-0.204480">
        <ele>199</ele>
        <time>2019-08-01T22:02:04Z</time>
      </trkpt>
      <trkpt lat="48.326360" lon="-0.205110">
        <ele>197</ele>
        <time>2019-08-01T22:02:18Z</time>
      </trkpt>
      <trkpt lat="48.326190" lon="-0.205770">
        <ele>195</ele>
        <time>2019-08-01T22:02:25Z</time>
      </trkpt>
      <trkpt lat="48.326090" lon="-0.206320">
        <ele>193</ele>
        <time>2019-08-01T22:02:45Z</time>
      </trkpt>
      <trkpt lat="48.326000" lon="-0.207710">
        <ele>188</ele>
        <time>2019-08-01T22:02:49Z</time>
      </trkpt>
      <trkpt lat="48.325970" lon="-0.208350">
        <ele>186</ele>
        <time>2019-08-01T22:02:53Z</time>
      </trkpt>
      <trkpt lat="48.325980" lon="-0.208650">
        <ele>186</ele>
        <time>2019-08-01T22:03:01Z</time>
      </trkpt>
      <trkpt lat="48.326140" lon="-0.209790">
        <ele>184</ele>
        <time>2019-08-01T22:03:27Z</time>
      </trkpt>
      <trkpt lat="48.326260" lon="-0.210350">
        <ele>183</ele>
        <time>2019-08-01T22:03:30Z</time>
      </trkpt>
      <trkpt lat="48.326780" lon="-0.211850">
        <ele>180</ele>
        <time>2019-08-01T22:03:33Z</time>
      </trkpt>
      <trkpt lat="48.326870" lon="-0.212170">
        <ele>179</ele>
        <time>2019-08-01T22:04:34Z</time>
      </trkpt>
      <trkpt lat="48.326930" lon="-0.212460">
        <ele>178</ele>
        <time>2019-08-01T22:04:38Z</time>
      </trkpt>
      <trkpt lat="48.327020" lon="-0.213110">
        <ele>177</ele>
        <time>2019-08-01T22:04:59Z</time>
      </trkpt>
      <trkpt lat="48.327510" lon="-0.215170">
        <ele>174</ele>
        <time>2019-08-01T22:05:03Z</time>
      </trkpt>
      <trkpt lat="48.327550" lon="-0.215440">
        <ele>174</ele>
        <time>2019-08-01T22:05:05Z</time>
      </trkpt>
      <trkpt lat="48.327570" lon="-0.215680">
        <ele>174</ele>
        <time>2019-08-01T22:05:07Z</time>
      </trkpt>
      <trkpt lat="48.327380" lon="-0.220860">
        <ele>159</ele>
        <time>2019-08-01T22:05:11Z</time>
      </trkpt>
      <trkpt lat="48.327420" lon="-0.221210">
        <ele>158</ele>
        <time>2019-08-01T22:05:24Z</time>
      </trkpt>
      <trkpt lat="48.327900" lon="-0.222810">
        <ele>156</ele>
        <time>2019-08-01T22:05:33Z</time>
      </trkpt>
      <trkpt lat="48.327990" lon="-0.223070">
        <ele>156</ele>
        <time>2019-08-01T22:05:47Z</time>
      </trkpt>
      <trkpt lat="48.328080" lon="-0.223180">
        <ele>155</ele>
        <time>2019-08-01T22:05:54Z</time>
      </trkpt>
      <trkpt lat="48.328180" lon="-0.223250">
        <ele>155</ele>
        <time>2019-08-01T22:05:57Z</time>
      </trkpt>
      <trkpt lat="48.328430" lon="-0.223310">
        <ele>155</ele>
        <time>2019-08-01T22:06:01Z</time>
      </trkpt>
      <trkpt lat="48.329160" lon="-0.223400">
        <ele>155</ele>
        <time>2019-08-01T22:06:05Z</time>
      </trkpt>
      <trkpt lat="48.329680" lon="-0.223350">
        <ele>157</ele>
        <time>2019-08-01T22:06:25Z</time>
      </trkpt>
      <trkpt lat="48.330470" lon="-0.223210">
        <ele>162</ele>
        <time>2019-08-01T22:06:30Z</time>
      </trkpt>
      <trkpt lat="48.330820" lon="-0.223180">
        <ele>164</ele>
        <time>2019-08-01T22:06:45Z</time>
      </trkpt>
      <trkpt lat="48.331010" lon="-0.223210">
        <ele>165</ele>
        <time>2019-08-01T22:06:56Z</time>
      </trkpt>
      <trkpt lat="48.331190" lon="-0.223330">
        <ele>166</ele>
        <time>2019-08-01T22:07:03Z</time>
      </trkpt>
      <trkpt lat="48.331390" lon="-0.223580">
        <ele>168</ele>
        <time>2019-08-01T22:07:07Z</time>
      </trkpt>
      <trkpt lat="48.332100" lon="-0.224900">
        <ele>172</ele>
        <time>2019-08-01T22:07:10Z</time>
      </trkpt>
      <trkpt lat="48.332290" lon="-0.225200">
        <ele>173</ele>
        <time>2019-08-01T22:07:14Z</time>
      </trkpt>
      <trkpt lat="48.332900" lon="-0.226000">
        <ele>171</ele>
        <time>2019-08-01T22:07:23Z</time>
      </trkpt>
      <trkpt lat="48.333360" lon="-0.226710">
        <ele>172</ele>
        <time>2019-08-01T22:07:31Z</time>
      </trkpt>
      <trkpt lat="48.333630" lon="-0.227150">
        <ele>173</ele>
        <time>2019-08-01T22:07:39Z</time>
      </trkpt>
      <trkpt lat="48.333760" lon="-0.227420">
        <ele>174</ele>
        <time>2019-08-01T22:07:50Z</time>
      </trkpt>
      <trkpt lat="48.333830" lon="-0.227630">
        <ele>175</ele>
        <time>2019-08-01T22:07:58Z</time>
      </trkpt>
      <trkpt lat="48.333880" lon="-0.227940">
        <ele>175</ele>
        <time>2019-08-01T22:08:07Z</time>
      </trkpt>
      <trkpt lat="48.333870" lon="-0.228690">
        <ele>176</ele>
        <time>2019-08-01T22:08:16Z</time>
      </trkpt>
      <trkpt lat="48.333900" lon="-0.229410">
        <ele>177</ele>
        <time>2019-08-01T22:08:35Z</time>
      </trkpt>
      <trkpt lat="48.334020" lon="-0.230050">
        <ele>178</ele>
        <time>2019-08-01T22:08:38Z</time>
      </trkpt>
      <trkpt lat="48.334220" lon="-0.230920">
        <ele>177</ele>
        <time>2019-08-01T22:08:50Z</time>
      </trkpt>
      <trkpt lat="48.334400" lon="-0.231490">
        <ele>179</ele>
        <time>2019-08-01T22:09:29Z</time>
      </trkpt>
      <trkpt lat="48.334680" lon="-0.232140">
        <ele>181</ele>
        <time>2019-08-01T22:09:38Z</time>
      </trkpt>
      <trkpt lat="48.334890" lon="-0.232870">
        <ele>183</ele>
        <time>2019-08-01T22:09:45Z</time>
      </trkpt>
      <trkpt lat="48.335210" lon="-0.234360">
        <ele>189</ele>
        <time>2019-08-01T22:09:59Z</time>
      </trkpt>
      <trkpt lat="48.335240" lon="-0.234670">
        <ele>189</ele>
        <time>2019-08-01T22:10:06Z</time>
      </trkpt>
      <trkpt lat="48.335220" lon="-0.235660">
        <ele>189</ele>
        <time>2019-08-01T22:10:14Z</time>
      </trkpt>
      <trkpt lat="48.335230" lon="-0.238910">
        <ele>190</ele>
        <time>2019-08-01T22:10:25Z</time>
      </trkpt>
      <trkpt lat="48.335310" lon="-0.239660">
        <ele>190</ele>
        <time>2019-08-01T22:10:33Z</time>
      </trkpt>
      <trkpt lat="48.335440" lon="-0.240240">
        <ele>191</ele>
        <time>2019-08-01T22:10:40Z</time>
      </trkpt>
      <trkpt lat="48.335540" lon="-0.241410">
        <ele>192</ele>
        <time>2019-08-01T22:10:48Z</time>
      </trkpt>
      <trkpt lat="48.335630" lon="-0.241980">
        <ele>192</ele>
        <time>2019-08-01T22:11:06Z</time>
      </trkpt>
      <trkpt lat="48.335870" lon="-0.242590">
        <ele>192</ele>
        <time>2019-08-01T22:11:27Z</time>
      </trkpt>
      <trkpt lat="48.336240" lon="-0.243360">
        <ele>193</ele>
        <time>2019-08-01T22:11:39Z</time>
      </trkpt>
      <trkpt lat="48.336530" lon="-0.243880">
        <ele>193</ele>
        <time>2019-08-01T22:11:47Z</time>
      </trkpt>
      <trkpt lat="48.336840" lon="-0.244260">
        <ele>194</ele>
        <time>2019-08-01T22:11:53Z</time>
      </trkpt>
      <trkpt lat="48.337130" lon="-0.244690">
        <ele>194</ele>
        <time>2019-08-01T22:12:00Z</time>
      </trkpt>
      <trkpt lat="48.337710" lon="-0.245980">
        <ele>194</ele>
        <time>2019-08-01T22:12:05Z</time>
      </trkpt>
      <trkpt lat="48.338290" lon="-0.247550">
        <ele>194</ele>
        <time>2019-08-01T22:12:28Z</time>
      </trkpt>
      <trkpt lat="48.338670" lon="-0.248330">
        <ele>194</ele>
        <time>2019-08-01T22:12:33Z</time>
      </trkpt>
      <trkpt lat="48.339020" lon="-0.248840">
        <ele>195</ele>
        <time>2019-08-01T22:12:37Z</time>
      </trkpt>
      <trkpt lat="48.339260" lon="-0.249160">
        <ele>196</ele>
        <time>2019-08-01T22:12:55Z</time>
      </trkpt>
      <trkpt lat="48.339520" lon="-0.249610">
        <ele>197</ele>
        <time>2019-08-01T22:13:00Z</time>
      </trkpt>
      <trkpt lat="48.339670" lon="-0.249970">
        <ele>197</ele>
        <time>2019-08-01T22:13:06Z</time>
      </trkpt>
      <trkpt lat="48.340100" lon="-0.251750">
        <ele>195</ele>
        <time>2019-08-01T22:13:12Z</time>
      </trkpt>
      <trkpt lat="48.340180" lon="-0.252150">
        <ele>195</ele>
        <time>2019-08-01T22:13:12Z</time>
      </trkpt>
      <trkpt lat="48.340210" lon="-0.252540">
        <ele>195</ele>
        <time>2019-08-01T22:13:52Z</time>
      </trkpt>
      <trkpt lat="48.340240" lon="-0.254010">
        <ele>196</ele>
        <time>2019-08-01T22:13:59Z</time>
      </trkpt>
      <trkpt lat="48.340260" lon="-0.254460">
        <ele>197</ele>
        <time>2019-08-01T22:14:11Z</time>
      </trkpt>
      <trkpt lat="48.340300" lon="-0.254930">
        <ele>197</ele>
        <time>2019-08-01T22:14:19Z</time>
      </trkpt>
      <trkpt lat="48.340410" lon="-0.255490">
        <ele>199</ele>
        <time>2019-08-01T22:14:42Z</time>
      </trkpt>
      <trkpt lat="48.340410" lon="-0.255490">
        <ele>199</ele>
        <time>2019-08-01T22:14:48Z</time>
      </trkpt>
      <trkpt lat="48.341160" lon="-0.258620">
        <ele>196</ele>
        <time>2019-08-01T22:15:39Z</time>
      </trkpt>
      <trkpt lat="48.341320" lon="-0.259160">
        <ele>194</ele>
        <time>2019-08-01T22:15:50Z</time>
      </trkpt>
      <trkpt lat="48.341670" lon="-0.260030">
        <ele>193</ele>
        <time>2019-08-01T22:15:58Z</time>
      </trkpt>
      <trkpt lat="48.341850" lon="-0.260650">
        <ele>192</ele>
        <time>2019-08-01T22:15:59Z</time>
      </trkpt>
      <trkpt lat="48.342310" lon="-0.262510">
        <ele>192</ele>
        <time>2019-08-01T22:16:01Z</time>
      </trkpt>
      <trkpt lat="48.342380" lon="-0.263000">
        <ele>192</ele>
        <time>2019-08-01T22:16:02Z</time>
      </trkpt>
      <trkpt lat="48.342730" lon="-0.267300">
        <ele>184</ele>
        <time>2019-08-01T22:16:04Z</time>
      </trkpt>
      <trkpt lat="48.342820" lon="-0.268170">
        <ele>183</ele>
        <time>2019-08-01T22:16:06Z</time>
      </trkpt>
      <trkpt lat="48.342970" lon="-0.268780">
        <ele>182</ele>
        <time>2019-08-01T22:16:10Z</time>
      </trkpt>
      <trkpt lat="48.343050" lon="-0.268840">
        <ele>182</ele>
        <time>2019-08-01T22:16:15Z</time>
      </trkpt>
      <trkpt lat="48.343100" lon="-0.268950">
        <ele>182</ele>
        <time>2019-08-01T22:16:19Z</time>
      </trkpt>
      <trkpt lat="48.343090" lon="-0.269080">
        <ele>182</ele>
        <time>2019-08-01T22:16:28Z</time>
      </trkpt>
      <trkpt lat="48.343040" lon="-0.269180">
        <ele>182</ele>
        <time>2019-08-01T22:16:39Z</time>
      </trkpt>
      <trkpt lat="48.342990" lon="-0.269370">
        <ele>182</ele>
        <time>2019-08-01T22:16:56Z</time>
      </trkpt>
      <trkpt lat="48.342950" lon="-0.269690">
        <ele>181</ele>
        <time>2019-08-01T22:17:14Z</time>
      </trkpt>
      <trkpt lat="48.343010" lon="-0.270080">
        <ele>180</ele>
        <time>2019-08-01T22:17:21Z</time>
      </trkpt>
      <trkpt lat="48.343090" lon="-0.270440">
        <ele>178</ele>
        <time>2019-08-01T22:17:22Z</time>
      </trkpt>
      <trkpt lat="48.343290" lon="-0.271110">
        <ele>177</ele>
        <time>2019-08-01T22:17:27Z</time>
      </trkpt>
      <trkpt lat="48.343610" lon="-0.271920">
        <ele>178</ele>
        <time>2019-08-01T22:17:32Z</time>
      </trkpt>
      <trkpt lat="48.344070" lon="-0.273140">
        <ele>180</ele>
        <time>2019-08-01T22:17:49Z</time>
      </trkpt>
      <trkpt lat="48.344700" lon="-0.274350">
        <ele>183</ele>
        <time>2019-08-01T22:17:56Z</time>
      </trkpt>
      <trkpt lat="48.344890" lon="-0.274890">
        <ele>183</ele>
        <time>2019-08-01T22:17:56Z</time>
      </trkpt>
      <trkpt lat="48.344950" lon="-0.274950">
        <ele>183</ele>
        <time>2019-08-01T22:18:04Z</time>
      </trkpt>
      <trkpt lat="48.345000" lon="-0.275300">
        <ele>183</ele>
        <time>2019-08-01T22:18:34Z</time>
      </trkpt>
      <trkpt lat="48.345120" lon="-0.275750">
        <ele>185</ele>
        <time>2019-08-01T22:18:36Z</time>
      </trkpt>
      <trkpt lat="48.345450" lon="-0.277090">
        <ele>187</ele>
        <time>2019-08-01T22:18:48Z</time>
      </trkpt>
      <trkpt lat="48.345710" lon="-0.277480">
        <ele>187</ele>
        <time>2019-08-01T22:18:50Z</time>
      </trkpt>
      <trkpt lat="48.345710" lon="-0.277480">
        <ele>187</ele>
        <time>2019-08-01T22:18:51Z</time>
      </trkpt>
      <trkpt lat="48.346050" lon="-0.278000">
        <ele>188</ele>
        <time>2019-08-01T22:18:52Z</time>
      </trkpt>
      <trkpt lat="48.345030" lon="-0.279990">
        <ele>189</ele>
      </trkpt>
      <trkpt lat="48.344980" lon="-0.280130">
        <ele>190</ele>
      </trkpt>
      <trkpt lat="48.344520" lon="-0.280930">
        <ele>193</ele>
      </trkpt>
      <trkpt lat="48.344500" lon="-0.281030">
        <ele>193</ele>
      </trkpt>
      <trkpt lat="48.344570" lon="-0.281100">
        <ele>193</ele>
      </trkpt>
      <trkpt lat="48.344610" lon="-0.281030">
        <ele>193</ele>
      </trkpt>
      <trkpt lat="48.344937" lon="-0.280449">
        <ele>0</ele>
        <time>2019-08-01T17:57:24Z</time>
      </trkpt>
      <trkpt lat="48.347370" lon="-1.199050">
        <ele>0</ele>
        <time>2019-08-01T17:57:25Z</time>
      </trkpt>
      <trkpt lat="48.384202" lon="-0.408988">
        <ele>0</ele>
        <time>2019-08-01T17:57:28Z</time>
      </trkpt>
      <trkpt lat="48.437930" lon="-0.491750">
        <ele>0</ele>
        <time>2019-08-01T17:57:32Z</time>
      </trkpt>
      <trkpt lat="48.344520" lon="-0.281060">
        <ele>193</ele>
        <time>2019-08-01T17:57:33Z</time>
      </trkpt>
      <trkpt lat="48.344500" lon="-0.281030">
        <ele>193</ele>
        <time>2019-08-01T17:57:53Z</time>
      </trkpt>
      <trkpt lat="48.344390" lon="-0.281230">
        <ele>193</ele>
        <time>2019-08-01T17:57:54Z</time>
      </trkpt>
      <trkpt lat="48.344210" lon="-0.281450">
        <ele>193</ele>
        <time>2019-08-01T17:57:54Z</time>
      </trkpt>
      <trkpt lat="48.344180" lon="-0.281590">
        <ele>192</ele>
        <time>2019-08-01T17:57:59Z</time>
      </trkpt>
      <trkpt lat="48.343520" lon="-0.282920">
        <ele>195</ele>
        <time>2019-08-01T17:58:01Z</time>
      </trkpt>
      <trkpt lat="48.343480" lon="-0.282970">
        <ele>195</ele>
        <time>2019-08-01T17:58:14Z</time>
      </trkpt>
      <trkpt lat="48.343480" lon="-0.282970">
        <ele>195</ele>
        <time>2019-08-01T17:58:18Z</time>
      </trkpt>
      <trkpt lat="48.343240" lon="-0.283230">
        <ele>196</ele>
        <time>2019-08-01T17:58:22Z</time>
      </trkpt>
      <trkpt lat="48.343170" lon="-0.283270">
        <ele>197</ele>
        <time>2019-08-01T17:58:28Z</time>
      </trkpt>
      <trkpt lat="48.342420" lon="-0.283480">
        <ele>199</ele>
        <time>2019-08-01T17:58:36Z</time>
      </trkpt>
      <trkpt lat="48.342210" lon="-0.283590">
        <ele>199</ele>
        <time>2019-08-01T17:58:41Z</time>
      </trkpt>
      <trkpt lat="48.342020" lon="-0.283730">
        <ele>200</ele>
        <time>2019-08-01T17:58:50Z</time>
      </trkpt>
      <trkpt lat="48.341740" lon="-0.283980">
        <ele>201</ele>
        <time>2019-08-01T17:58:54Z</time>
      </trkpt>
      <trkpt lat="48.341790" lon="-0.284690">
        <ele>202</ele>
        <time>2019-08-01T17:59:00Z</time>
      </trkpt>
      <trkpt lat="48.341900" lon="-0.285040">
        <ele>202</ele>
        <time>2019-08-01T17:59:07Z</time>
      </trkpt>
      <trkpt lat="48.342180" lon="-0.285740">
        <ele>202</ele>
        <time>2019-08-01T17:59:19Z</time>
      </trkpt>
      <trkpt lat="48.342250" lon="-0.286070">
        <ele>202</ele>
        <time>2019-08-01T17:59:37Z</time>
      </trkpt>
      <trkpt lat="48.342300" lon="-0.286510">
        <ele>202</ele>
        <time>2019-08-01T17:59:40Z</time>
      </trkpt>
      <trkpt lat="48.342270" lon="-0.287160">
        <ele>203</ele>
        <time>2019-08-01T17:59:49Z</time>
      </trkpt>
      <trkpt lat="48.342180" lon="-0.288170">
        <ele>204</ele>
        <time>2019-08-01T17:59:54Z</time>
      </trkpt>
      <trkpt lat="48.342070" lon="-0.289650">
        <ele>204</ele>
        <time>2019-08-01T18:00:23Z</time>
      </trkpt>
      <trkpt lat="48.342020" lon="-0.289920">
        <ele>204</ele>
        <time>2019-08-01T18:00:26Z</time>
      </trkpt>
      <trkpt lat="48.341810" lon="-0.290610">
        <ele>203</ele>
        <time>2019-08-01T18:00:52Z</time>
      </trkpt>
      <trkpt lat="48.341740" lon="-0.291010">
        <ele>202</ele>
        <time>2019-08-01T18:00:55Z</time>
      </trkpt>
      <trkpt lat="48.341610" lon="-0.293400">
        <ele>199</ele>
        <time>2019-08-01T18:01:00Z</time>
      </trkpt>
      <trkpt lat="48.341620" lon="-0.293710">
        <ele>199</ele>
        <time>2019-08-01T18:01:03Z</time>
      </trkpt>
      <trkpt lat="48.342040" lon="-0.295790">
        <ele>201</ele>
        <time>2019-08-01T18:01:06Z</time>
      </trkpt>
      <trkpt lat="48.342060" lon="-0.296020">
        <ele>201</ele>
        <time>2019-08-01T18:01:08Z</time>
      </trkpt>
      <trkpt lat="48.342020" lon="-0.296450">
        <ele>200</ele>
        <time>2019-08-01T18:01:10Z</time>
      </trkpt>
      <trkpt lat="48.341950" lon="-0.296730">
        <ele>199</ele>
        <time>2019-08-01T18:01:12Z</time>
      </trkpt>
      <trkpt lat="48.341890" lon="-0.296880">
        <ele>199</ele>
        <time>2019-08-01T18:01:14Z</time>
      </trkpt>
      <trkpt lat="48.341930" lon="-0.297040">
        <ele>199</ele>
        <time>2019-08-01T18:01:15Z</time>
      </trkpt>
      <trkpt lat="48.341910" lon="-0.297210">
        <ele>199</ele>
        <time>2019-08-01T18:01:21Z</time>
      </trkpt>
      <trkpt lat="48.341840" lon="-0.297350">
        <ele>199</ele>
        <time>2019-08-01T18:01:28Z</time>
      </trkpt>
      <trkpt lat="48.341740" lon="-0.297400">
        <ele>198</ele>
        <time>2019-08-01T18:01:34Z</time>
      </trkpt>
      <trkpt lat="48.341690" lon="-0.297530">
        <ele>197</ele>
        <time>2019-08-01T18:01:41Z</time>
      </trkpt>
      <trkpt lat="48.341600" lon="-0.297950">
        <ele>196</ele>
        <time>2019-08-01T18:01:47Z</time>
      </trkpt>
      <trkpt lat="48.341610" lon="-0.298600">
        <ele>196</ele>
        <time>2019-08-01T18:02:26Z</time>
      </trkpt>
      <trkpt lat="48.341660" lon="-0.299070">
        <ele>197</ele>
        <time>2019-08-01T18:02:46Z</time>
      </trkpt>
      <trkpt lat="48.341790" lon="-0.299620">
        <ele>197</ele>
        <time>2019-08-01T18:03:19Z</time>
      </trkpt>
      <trkpt lat="48.341950" lon="-0.300070">
        <ele>197</ele>
        <time>2019-08-01T18:03:39Z</time>
      </trkpt>
      <trkpt lat="48.343180" lon="-0.302820">
        <ele>194</ele>
        <time>2019-08-01T18:03:46Z</time>
      </trkpt>
      <trkpt lat="48.343790" lon="-0.304240">
        <ele>200</ele>
        <time>2019-08-01T18:03:49Z</time>
      </trkpt>
      <trkpt lat="48.344990" lon="-0.306410">
        <ele>216</ele>
        <time>2019-08-01T18:04:03Z</time>
      </trkpt>
      <trkpt lat="48.345510" lon="-0.307840">
        <ele>221</ele>
        <time>2019-08-01T18:04:07Z</time>
      </trkpt>
      <trkpt lat="48.345680" lon="-0.308370">
        <ele>223</ele>
        <time>2019-08-01T18:04:12Z</time>
      </trkpt>
      <trkpt lat="48.345740" lon="-0.308670">
        <ele>224</ele>
        <time>2019-08-01T18:04:39Z</time>
      </trkpt>
      <trkpt lat="48.345870" lon="-0.309820">
        <ele>226</ele>
        <time>2019-08-01T18:04:48Z</time>
      </trkpt>
      <trkpt lat="48.345880" lon="-0.310180">
        <ele>225</ele>
        <time>2019-08-01T18:05:13Z</time>
      </trkpt>
      <trkpt lat="48.345820" lon="-0.310560">
        <ele>224</ele>
        <time>2019-08-01T18:05:17Z</time>
      </trkpt>
      <trkpt lat="48.345310" lon="-0.312700">
        <ele>217</ele>
        <time>2019-08-01T18:05:42Z</time>
      </trkpt>
      <trkpt lat="48.345190" lon="-0.313480">
        <ele>217</ele>
        <time>2019-08-01T18:06:07Z</time>
      </trkpt>
      <trkpt lat="48.345010" lon="-0.315550">
        <ele>219</ele>
        <time>2019-08-01T18:06:13Z</time>
      </trkpt>
      <trkpt lat="48.344970" lon="-0.315890">
        <ele>220</ele>
        <time>2019-08-01T18:06:25Z</time>
      </trkpt>
      <trkpt lat="48.344580" lon="-0.317890">
        <ele>215</ele>
        <time>2019-08-01T18:06:34Z</time>
      </trkpt>
      <trkpt lat="48.344300" lon="-0.319970">
        <ele>212</ele>
        <time>2019-08-01T18:06:41Z</time>
      </trkpt>
      <trkpt lat="48.344280" lon="-0.320450">
        <ele>212</ele>
        <time>2019-08-01T18:06:44Z</time>
      </trkpt>
      <trkpt lat="48.344400" lon="-0.321460">
        <ele>212</ele>
        <time>2019-08-01T18:06:48Z</time>
      </trkpt>
      <trkpt lat="48.344450" lon="-0.322280">
        <ele>212</ele>
        <time>2019-08-01T18:06:52Z</time>
      </trkpt>
      <trkpt lat="48.344440" lon="-0.322840">
        <ele>212</ele>
        <time>2019-08-01T18:07:18Z</time>
      </trkpt>
      <trkpt lat="48.344410" lon="-0.323100">
        <ele>211</ele>
        <time>2019-08-01T18:07:25Z</time>
      </trkpt>
      <trkpt lat="48.344350" lon="-0.323430">
        <ele>210</ele>
        <time>2019-08-01T18:07:50Z</time>
      </trkpt>
      <trkpt lat="48.344260" lon="-0.323750">
        <ele>209</ele>
        <time>2019-08-01T18:08:29Z</time>
      </trkpt>
      <trkpt lat="48.343540" lon="-0.325650">
        <ele>208</ele>
        <time>2019-08-01T18:08:43Z</time>
      </trkpt>
      <trkpt lat="48.343430" lon="-0.326230">
        <ele>210</ele>
        <time>2019-08-01T18:08:55Z</time>
      </trkpt>
      <trkpt lat="48.343250" lon="-0.328260">
        <ele>216</ele>
        <time>2019-08-01T18:08:55Z</time>
      </trkpt>
      <trkpt lat="48.342580" lon="-0.331410">
        <ele>222</ele>
        <time>2019-08-01T18:09:05Z</time>
      </trkpt>
      <trkpt lat="48.342410" lon="-0.332620">
        <ele>225</ele>
        <time>2019-08-01T18:09:23Z</time>
      </trkpt>
      <trkpt lat="48.342110" lon="-0.333470">
        <ele>224</ele>
        <time>2019-08-01T18:09:31Z</time>
      </trkpt>
      <trkpt lat="48.342110" lon="-0.333470">
        <ele>224</ele>
        <time>2019-08-01T18:09:40Z</time>
      </trkpt>
      <trkpt lat="48.341850" lon="-0.334250">
        <ele>224</ele>
        <time>2019-08-01T18:09:46Z</time>
      </trkpt>
      <trkpt lat="48.341480" lon="-0.335640">
        <ele>223</ele>
        <time>2019-08-01T18:09:51Z</time>
      </trkpt>
      <trkpt lat="48.341270" lon="-0.336280">
        <ele>222</ele>
        <time>2019-08-01T18:10:38Z</time>
      </trkpt>
      <trkpt lat="48.340990" lon="-0.336910">
        <ele>221</ele>
        <time>2019-08-01T18:10:57Z</time>
      </trkpt>
      <trkpt lat="48.340770" lon="-0.337260">
        <ele>220</ele>
        <time>2019-08-01T18:11:05Z</time>
      </trkpt>
      <trkpt lat="48.340600" lon="-0.337650">
        <ele>218</ele>
        <time>2019-08-01T18:11:17Z</time>
      </trkpt>
      <trkpt lat="48.339460" lon="-0.341240">
        <ele>210</ele>
        <time>2019-08-01T18:11:25Z</time>
      </trkpt>
      <trkpt lat="48.338930" lon="-0.342570">
        <ele>211</ele>
        <time>2019-08-01T18:11:35Z</time>
      </trkpt>
      <trkpt lat="48.338700" lon="-0.343200">
        <ele>212</ele>
        <time>2019-08-01T18:11:48Z</time>
      </trkpt>
      <trkpt lat="48.338360" lon="-0.344010">
        <ele>215</ele>
        <time>2019-08-01T18:12:01Z</time>
      </trkpt>
      <trkpt lat="48.338290" lon="-0.344760">
        <ele>215</ele>
        <time>2019-08-01T18:12:08Z</time>
      </trkpt>
      <trkpt lat="48.338260" lon="-0.345550">
        <ele>215</ele>
        <time>2019-08-01T18:12:13Z</time>
      </trkpt>
      <trkpt lat="48.338300" lon="-0.346660">
        <ele>214</ele>
        <time>2019-08-01T18:12:16Z</time>
      </trkpt>
      <trkpt lat="48.338520" lon="-0.347690">
        <ele>214</ele>
        <time>2019-08-01T18:12:28Z</time>
      </trkpt>
      <trkpt lat="48.338530" lon="-0.348260">
        <ele>215</ele>
        <time>2019-08-01T18:12:38Z</time>
      </trkpt>
      <trkpt lat="48.338490" lon="-0.348740">
        <ele>216</ele>
        <time>2019-08-01T18:12:47Z</time>
      </trkpt>
      <trkpt lat="48.338430" lon="-0.348910">
        <ele>217</ele>
        <time>2019-08-01T18:12:58Z</time>
      </trkpt>
      <trkpt lat="48.337990" lon="-0.349700">
        <ele>216</ele>
        <time>2019-08-01T18:13:18Z</time>
      </trkpt>
      <trkpt lat="48.337580" lon="-0.350330">
        <ele>215</ele>
        <time>2019-08-01T18:13:28Z</time>
      </trkpt>
      <trkpt lat="48.337220" lon="-0.350850">
        <ele>215</ele>
        <time>2019-08-01T18:13:45Z</time>
      </trkpt>
      <trkpt lat="48.336710" lon="-0.351420">
        <ele>212</ele>
        <time>2019-08-01T18:13:53Z</time>
      </trkpt>
      <trkpt lat="48.335790" lon="-0.352400">
        <ele>208</ele>
        <time>2019-08-01T18:14:01Z</time>
      </trkpt>
      <trkpt lat="48.335310" lon="-0.352790">
        <ele>204</ele>
        <time>2019-08-01T18:14:14Z</time>
      </trkpt>
      <trkpt lat="48.334450" lon="-0.353400">
        <ele>200</ele>
        <time>2019-08-01T18:14:27Z</time>
      </trkpt>
      <trkpt lat="48.334100" lon="-0.353820">
        <ele>200</ele>
        <time>2019-08-01T18:15:04Z</time>
      </trkpt>
      <trkpt lat="48.333780" lon="-0.354350">
        <ele>200</ele>
        <time>2019-08-01T18:15:09Z</time>
      </trkpt>
      <trkpt lat="48.333390" lon="-0.355220">
        <ele>200</ele>
        <time>2019-08-01T18:15:15Z</time>
      </trkpt>
      <trkpt lat="48.333010" lon="-0.356210">
        <ele>199</ele>
        <time>2019-08-01T18:15:37Z</time>
      </trkpt>
      <trkpt lat="48.332050" lon="-0.358910">
        <ele>192</ele>
        <time>2019-08-01T18:15:47Z</time>
      </trkpt>
      <trkpt lat="48.331940" lon="-0.359350">
        <ele>191</ele>
        <time>2019-08-01T18:15:59Z</time>
      </trkpt>
      <trkpt lat="48.331850" lon="-0.359850">
        <ele>189</ele>
        <time>2019-08-01T18:16:05Z</time>
      </trkpt>
      <trkpt lat="48.331610" lon="-0.361620">
        <ele>187</ele>
        <time>2019-08-01T18:16:21Z</time>
      </trkpt>
      <trkpt lat="48.331470" lon="-0.362490">
        <ele>189</ele>
        <time>2019-08-01T18:16:27Z</time>
      </trkpt>
      <trkpt lat="48.331270" lon="-0.363450">
        <ele>190</ele>
        <time>2019-08-01T18:16:43Z</time>
      </trkpt>
      <trkpt lat="48.331150" lon="-0.363890">
        <ele>190</ele>
        <time>2019-08-01T18:16:51Z</time>
      </trkpt>
      <trkpt lat="48.330840" lon="-0.365180">
        <ele>189</ele>
        <time>2019-08-01T18:17:07Z</time>
      </trkpt>
      <trkpt lat="48.330640" lon="-0.365610">
        <ele>190</ele>
        <time>2019-08-01T18:17:12Z</time>
      </trkpt>
      <trkpt lat="48.330050" lon="-0.366650">
        <ele>192</ele>
        <time>2019-08-01T18:17:30Z</time>
      </trkpt>
      <trkpt lat="48.329870" lon="-0.367200">
        <ele>193</ele>
        <time>2019-08-01T18:17:39Z</time>
      </trkpt>
      <trkpt lat="48.329550" lon="-0.368460">
        <ele>196</ele>
        <time>2019-08-01T18:17:52Z</time>
      </trkpt>
      <trkpt lat="48.329390" lon="-0.368860">
        <ele>196</ele>
        <time>2019-08-01T18:18:09Z</time>
      </trkpt>
      <trkpt lat="48.328720" lon="-0.369990">
        <ele>196</ele>
        <time>2019-08-01T18:18:18Z</time>
      </trkpt>
      <trkpt lat="48.328490" lon="-0.370700">
        <ele>197</ele>
        <time>2019-08-01T18:18:32Z</time>
      </trkpt>
      <trkpt lat="48.328270" lon="-0.371720">
        <ele>197</ele>
        <time>2019-08-01T18:18:40Z</time>
      </trkpt>
      <trkpt lat="48.328210" lon="-0.373190">
        <ele>195</ele>
        <time>2019-08-01T18:19:00Z</time>
      </trkpt>
      <trkpt lat="48.328380" lon="-0.373870">
        <ele>194</ele>
        <time>2019-08-01T18:19:15Z</time>
      </trkpt>
      <trkpt lat="48.328520" lon="-0.375070">
        <ele>191</ele>
        <time>2019-08-01T18:19:31Z</time>
      </trkpt>
      <trkpt lat="48.328590" lon="-0.375740">
        <ele>189</ele>
        <time>2019-08-01T18:19:41Z</time>
      </trkpt>
      <trkpt lat="48.328370" lon="-0.377350">
        <ele>181</ele>
        <time>2019-08-01T18:20:09Z</time>
      </trkpt>
      <trkpt lat="48.328170" lon="-0.378580">
        <ele>176</ele>
        <time>2019-08-01T18:20:16Z</time>
      </trkpt>
      <trkpt lat="48.327830" lon="-0.379870">
        <ele>176</ele>
        <time>2019-08-01T18:20:22Z</time>
      </trkpt>
      <trkpt lat="48.327720" lon="-0.380640">
        <ele>179</ele>
        <time>2019-08-01T18:20:41Z</time>
      </trkpt>
      <trkpt lat="48.327490" lon="-0.382990">
        <ele>180</ele>
        <time>2019-08-01T18:20:51Z</time>
      </trkpt>
      <trkpt lat="48.327400" lon="-0.383580">
        <ele>180</ele>
        <time>2019-08-01T18:21:01Z</time>
      </trkpt>
      <trkpt lat="48.327250" lon="-0.384060">
        <ele>179</ele>
        <time>2019-08-01T18:21:10Z</time>
      </trkpt>
      <trkpt lat="48.326840" lon="-0.385560">
        <ele>178</ele>
        <time>2019-08-01T18:21:19Z</time>
      </trkpt>
      <trkpt lat="48.326660" lon="-0.386300">
        <ele>176</ele>
        <time>2019-08-01T18:21:32Z</time>
      </trkpt>
      <trkpt lat="48.326580" lon="-0.387180">
        <ele>176</ele>
        <time>2019-08-01T18:21:40Z</time>
      </trkpt>
      <trkpt lat="48.326550" lon="-0.387930">
        <ele>176</ele>
        <time>2019-08-01T18:22:05Z</time>
      </trkpt>
      <trkpt lat="48.326630" lon="-0.388670">
        <ele>176</ele>
        <time>2019-08-01T18:22:12Z</time>
      </trkpt>
      <trkpt lat="48.326890" lon="-0.389690">
        <ele>179</ele>
        <time>2019-08-01T18:22:20Z</time>
      </trkpt>
      <trkpt lat="48.327110" lon="-0.390330">
        <ele>180</ele>
        <time>2019-08-01T18:22:28Z</time>
      </trkpt>
      <trkpt lat="48.327890" lon="-0.392020">
        <ele>183</ele>
        <time>2019-08-01T18:22:30Z</time>
      </trkpt>
      <trkpt lat="48.328060" lon="-0.392580">
        <ele>185</ele>
        <time>2019-08-01T18:22:30Z</time>
      </trkpt>
      <trkpt lat="48.328210" lon="-0.393190">
        <ele>187</ele>
        <time>2019-08-01T18:22:36Z</time>
      </trkpt>
      <trkpt lat="48.328310" lon="-0.393860">
        <ele>190</ele>
        <time>2019-08-01T18:23:06Z</time>
      </trkpt>
      <trkpt lat="48.328320" lon="-0.394070">
        <ele>191</ele>
        <time>2019-08-01T18:23:28Z</time>
      </trkpt>
      <trkpt lat="48.328320" lon="-0.394070">
        <ele>191</ele>
        <time>2019-08-01T18:23:38Z</time>
      </trkpt>
      <trkpt lat="48.328340" lon="-0.394530">
        <ele>190</ele>
        <time>2019-08-01T18:23:45Z</time>
      </trkpt>
      <trkpt lat="48.328230" lon="-0.397080">
        <ele>186</ele>
        <time>2019-08-01T18:23:52Z</time>
      </trkpt>
      <trkpt lat="48.328050" lon="-0.398900">
        <ele>185</ele>
        <time>2019-08-01T18:24:07Z</time>
      </trkpt>
      <trkpt lat="48.327900" lon="-0.399770">
        <ele>183</ele>
        <time>2019-08-01T18:24:18Z</time>
      </trkpt>
      <trkpt lat="48.327760" lon="-0.400330">
        <ele>181</ele>
        <time>2019-08-01T18:24:25Z</time>
      </trkpt>
      <trkpt lat="48.327610" lon="-0.400790">
        <ele>181</ele>
        <time>2019-08-01T18:24:53Z</time>
      </trkpt>
      <trkpt lat="48.327150" lon="-0.401890">
        <ele>178</ele>
        <time>2019-08-01T18:24:58Z</time>
      </trkpt>
      <trkpt lat="48.326730" lon="-0.402600">
        <ele>177</ele>
        <time>2019-08-01T18:25:04Z</time>
      </trkpt>
      <trkpt lat="48.327010" lon="-0.402990">
        <ele>178</ele>
        <time>2019-08-01T18:25:12Z</time>
      </trkpt>
      <trkpt lat="48.328400" lon="-0.404140">
        <ele>186</ele>
        <time>2019-08-01T18:25:22Z</time>
      </trkpt>
      <trkpt lat="48.328660" lon="-0.404310">
        <ele>187</ele>
        <time>2019-08-01T18:25:35Z</time>
      </trkpt>
      <trkpt lat="48.328970" lon="-0.404450">
        <ele>190</ele>
        <time>2019-08-01T18:25:44Z</time>
      </trkpt>
      <trkpt lat="48.329430" lon="-0.404560">
        <ele>193</ele>
        <time>2019-08-01T18:25:53Z</time>
      </trkpt>
      <trkpt lat="48.329980" lon="-0.404560">
        <ele>197</ele>
        <time>2019-08-01T18:26:20Z</time>
      </trkpt>
      <trkpt lat="48.330710" lon="-0.404520">
        <ele>201</ele>
        <time>2019-08-01T18:26:50Z</time>
      </trkpt>
      <trkpt lat="48.331220" lon="-0.404460">
        <ele>202</ele>
        <time>2019-08-01T18:26:50Z</time>
      </trkpt>
      <trkpt lat="48.331690" lon="-0.404290">
        <ele>204</ele>
        <time>2019-08-01T18:26:53Z</time>
      </trkpt>
      <trkpt lat="48.333120" lon="-0.403530">
        <ele>210</ele>
        <time>2019-08-01T18:27:16Z</time>
      </trkpt>
      <trkpt lat="48.334730" lon="-0.402640">
        <ele>208</ele>
        <time>2019-08-01T18:27:26Z</time>
      </trkpt>
      <trkpt lat="48.334730" lon="-0.402640">
        <ele>208</ele>
        <time>2019-08-01T18:27:30Z</time>
      </trkpt>
      <trkpt lat="48.334880" lon="-0.402550">
        <ele>209</ele>
        <time>2019-08-01T18:27:40Z</time>
      </trkpt>
      <trkpt lat="48.336160" lon="-0.402140">
        <ele>216</ele>
        <time>2019-08-01T18:27:45Z</time>
      </trkpt>
      <trkpt lat="48.336680" lon="-0.402040">
        <ele>218</ele>
        <time>2019-08-01T18:27:49Z</time>
      </trkpt>
      <trkpt lat="48.336940" lon="-0.402080">
        <ele>217</ele>
        <time>2019-08-01T18:28:06Z</time>
      </trkpt>
      <trkpt lat="48.337460" lon="-0.402270">
        <ele>215</ele>
        <time>2019-08-01T18:28:11Z</time>
      </trkpt>
      <trkpt lat="48.337660" lon="-0.402520">
        <ele>215</ele>
        <time>2019-08-01T18:28:15Z</time>
      </trkpt>
      <trkpt lat="48.337780" lon="-0.402890">
        <ele>215</ele>
        <time>2019-08-01T18:28:22Z</time>
      </trkpt>
      <trkpt lat="48.337710" lon="-0.404250">
        <ele>209</ele>
        <time>2019-08-01T18:28:26Z</time>
      </trkpt>
      <trkpt lat="48.337750" lon="-0.404670">
        <ele>210</ele>
        <time>2019-08-01T18:28:31Z</time>
      </trkpt>
      <trkpt lat="48.337810" lon="-0.405070">
        <ele>210</ele>
        <time>2019-08-01T18:28:37Z</time>
      </trkpt>
      <trkpt lat="48.337970" lon="-0.405530">
        <ele>209</ele>
        <time>2019-08-01T18:28:41Z</time>
      </trkpt>
      <trkpt lat="48.338180" lon="-0.405800">
        <ele>209</ele>
        <time>2019-08-01T18:29:12Z</time>
      </trkpt>
      <trkpt lat="48.338400" lon="-0.405900">
        <ele>210</ele>
        <time>2019-08-01T18:29:18Z</time>
      </trkpt>
      <trkpt lat="48.338750" lon="-0.405960">
        <ele>210</ele>
        <time>2019-08-01T18:29:25Z</time>
      </trkpt>
      <trkpt lat="48.339000" lon="-0.405950">
        <ele>210</ele>
        <time>2019-08-01T18:29:35Z</time>
      </trkpt>
      <trkpt lat="48.340690" lon="-0.405450">
        <ele>214</ele>
        <time>2019-08-01T18:29:40Z</time>
      </trkpt>
      <trkpt lat="48.341040" lon="-0.405380">
        <ele>214</ele>
        <time>2019-08-01T18:29:45Z</time>
      </trkpt>
      <trkpt lat="48.341440" lon="-0.405460">
        <ele>215</ele>
        <time>2019-08-01T18:30:06Z</time>
      </trkpt>
      <trkpt lat="48.341950" lon="-0.405720">
        <ele>218</ele>
        <time>2019-08-01T18:30:20Z</time>
      </trkpt>
      <trkpt lat="48.342190" lon="-0.405940">
        <ele>220</ele>
        <time>2019-08-01T18:30:29Z</time>
      </trkpt>
      <trkpt lat="48.342410" lon="-0.406230">
        <ele>222</ele>
        <time>2019-08-01T18:30:36Z</time>
      </trkpt>
      <trkpt lat="48.343190" lon="-0.407540">
        <ele>231</ele>
        <time>2019-08-01T18:30:46Z</time>
      </trkpt>
      <trkpt lat="48.343650" lon="-0.408490">
        <ele>235</ele>
        <time>2019-08-01T18:31:36Z</time>
      </trkpt>
      <trkpt lat="48.343850" lon="-0.409240">
        <ele>236</ele>
        <time>2019-08-01T18:31:41Z</time>
      </trkpt>
      <trkpt lat="48.343910" lon="-0.409750">
        <ele>237</ele>
        <time>2019-08-01T18:31:45Z</time>
      </trkpt>
      <trkpt lat="48.343750" lon="-0.410630">
        <ele>242</ele>
        <time>2019-08-01T18:31:48Z</time>
      </trkpt>
      <trkpt lat="48.343850" lon="-0.414860">
        <ele>253</ele>
        <time>2019-08-01T18:31:55Z</time>
      </trkpt>
      <trkpt lat="48.343880" lon="-0.415230">
        <ele>255</ele>
        <time>2019-08-01T18:32:00Z</time>
      </trkpt>
      <trkpt lat="48.343960" lon="-0.415560">
        <ele>257</ele>
        <time>2019-08-01T18:32:10Z</time>
      </trkpt>
      <trkpt lat="48.344080" lon="-0.415770">
        <ele>258</ele>
        <time>2019-08-01T18:32:14Z</time>
      </trkpt>
      <trkpt lat="48.344400" lon="-0.416140">
        <ele>262</ele>
        <time>2019-08-01T18:32:17Z</time>
      </trkpt>
      <trkpt lat="48.344600" lon="-0.416430">
        <ele>264</ele>
        <time>2019-08-01T18:32:27Z</time>
      </trkpt>
      <trkpt lat="48.344940" lon="-0.417110">
        <ele>267</ele>
        <time>2019-08-01T18:32:33Z</time>
      </trkpt>
      <trkpt lat="48.345080" lon="-0.417300">
        <ele>267</ele>
        <time>2019-08-01T18:32:38Z</time>
      </trkpt>
      <trkpt lat="48.345270" lon="-0.417430">
        <ele>268</ele>
        <time>2019-08-01T18:32:45Z</time>
      </trkpt>
      <trkpt lat="48.345770" lon="-0.417660">
        <ele>269</ele>
        <time>2019-08-01T18:32:57Z</time>
      </trkpt>
      <trkpt lat="48.346090" lon="-0.417750">
        <ele>271</ele>
        <time>2019-08-01T18:33:22Z</time>
      </trkpt>
      <trkpt lat="48.346390" lon="-0.417780">
        <ele>273</ele>
        <time>2019-08-01T18:34:38Z</time>
      </trkpt>
      <trkpt lat="48.346810" lon="-0.417720">
        <ele>275</ele>
        <time>2019-08-01T18:35:59Z</time>
      </trkpt>
      <trkpt lat="48.347450" lon="-0.417430">
        <ele>277</ele>
        <time>2019-08-01T18:36:05Z</time>
      </trkpt>
      <trkpt lat="48.348820" lon="-0.416950">
        <ele>282</ele>
        <time>2019-08-01T18:36:09Z</time>
      </trkpt>
      <trkpt lat="48.352950" lon="-0.415430">
        <ele>285</ele>
        <time>2019-08-01T18:36:12Z</time>
      </trkpt>
      <trkpt lat="48.357390" lon="-0.413870">
        <ele>266</ele>
        <time>2019-08-01T18:36:16Z</time>
      </trkpt>
      <trkpt lat="48.357710" lon="-0.413740">
        <ele>265</ele>
        <time>2019-08-01T18:36:21Z</time>
      </trkpt>
      <trkpt lat="48.357930" lon="-0.413710">
        <ele>265</ele>
        <time>2019-08-01T18:36:48Z</time>
      </trkpt>
      <trkpt lat="48.358120" lon="-0.413730">
        <ele>265</ele>
        <time>2019-08-01T18:36:53Z</time>
      </trkpt>
      <trkpt lat="48.358320" lon="-0.413860">
        <ele>265</ele>
        <time>2019-08-01T18:36:57Z</time>
      </trkpt>
      <trkpt lat="48.358540" lon="-0.414110">
        <ele>266</ele>
        <time>2019-08-01T18:37:01Z</time>
      </trkpt>
      <trkpt lat="48.359620" lon="-0.415680">
        <ele>263</ele>
        <time>2019-08-01T18:37:21Z</time>
      </trkpt>
      <trkpt lat="48.359850" lon="-0.415910">
        <ele>261</ele>
        <time>2019-08-01T18:37:25Z</time>
      </trkpt>
      <trkpt lat="48.360090" lon="-0.415990">
        <ele>260</ele>
        <time>2019-08-01T18:37:40Z</time>
      </trkpt>
      <trkpt lat="48.360330" lon="-0.415980">
        <ele>258</ele>
        <time>2019-08-01T18:37:57Z</time>
      </trkpt>
      <trkpt lat="48.361400" lon="-0.415730">
        <ele>247</ele>
        <time>2019-08-01T18:38:05Z</time>
      </trkpt>
      <trkpt lat="48.361630" lon="-0.415570">
        <ele>246</ele>
        <time>2019-08-01T18:38:09Z</time>
      </trkpt>
      <trkpt lat="48.362330" lon="-0.414900">
        <ele>241</ele>
        <time>2019-08-01T18:38:13Z</time>
      </trkpt>
      <trkpt lat="48.363000" lon="-0.413860">
        <ele>235</ele>
        <time>2019-08-01T18:38:38Z</time>
      </trkpt>
      <trkpt lat="48.363300" lon="-0.413340">
        <ele>232</ele>
        <time>2019-08-01T18:38:46Z</time>
      </trkpt>
      <trkpt lat="48.363420" lon="-0.413080">
        <ele>231</ele>
        <time>2019-08-01T18:38:51Z</time>
      </trkpt>
      <trkpt lat="48.363530" lon="-0.412740">
        <ele>230</ele>
        <time>2019-08-01T18:38:56Z</time>
      </trkpt>
      <trkpt lat="48.363990" lon="-0.410760">
        <ele>224</ele>
        <time>2019-08-01T18:39:12Z</time>
      </trkpt>
      <trkpt lat="48.364180" lon="-0.410200">
        <ele>223</ele>
        <time>2019-08-01T18:39:32Z</time>
      </trkpt>
      <trkpt lat="48.364400" lon="-0.409850">
        <ele>222</ele>
        <time>2019-08-01T18:39:37Z</time>
      </trkpt>
      <trkpt lat="48.364620" lon="-0.409600">
        <ele>219</ele>
        <time>2019-08-01T18:39:41Z</time>
      </trkpt>
      <trkpt lat="48.365390" lon="-0.408990">
        <ele>212</ele>
        <time>2019-08-01T18:39:46Z</time>
      </trkpt>
      <trkpt lat="48.366420" lon="-0.408240">
        <ele>208</ele>
        <time>2019-08-01T18:40:55Z</time>
      </trkpt>
      <trkpt lat="48.366690" lon="-0.408120">
        <ele>206</ele>
        <time>2019-08-01T18:42:49Z</time>
      </trkpt>
      <trkpt lat="48.366900" lon="-0.408070">
        <ele>205</ele>
        <time>2019-08-01T18:42:56Z</time>
      </trkpt>
      <trkpt lat="48.367170" lon="-0.408080">
        <ele>203</ele>
        <time>2019-08-01T18:42:59Z</time>
      </trkpt>
      <trkpt lat="48.371010" lon="-0.408870">
        <ele>188</ele>
        <time>2019-08-01T18:43:04Z</time>
      </trkpt>
      <trkpt lat="48.377360" lon="-0.410230">
        <ele>198</ele>
        <time>2019-08-01T18:43:04Z</time>
      </trkpt>
      <trkpt lat="48.377750" lon="-0.410260">
        <ele>198</ele>
        <time>2019-08-01T18:43:07Z</time>
      </trkpt>
      <trkpt lat="48.377910" lon="-0.410210">
        <ele>198</ele>
        <time>2019-08-01T18:44:09Z</time>
      </trkpt>
      <trkpt lat="48.378170" lon="-0.410040">
        <ele>197</ele>
        <time>2019-08-01T18:44:14Z</time>
      </trkpt>
      <trkpt lat="48.378170" lon="-0.410040">
        <ele>197</ele>
        <time>2019-08-01T18:44:20Z</time>
      </trkpt>
      <trkpt lat="48.378320" lon="-0.409900">
        <ele>197</ele>
        <time>2019-08-01T18:44:25Z</time>
      </trkpt>
      <trkpt lat="48.380910" lon="-0.406430">
        <ele>195</ele>
        <time>2019-08-01T18:44:30Z</time>
      </trkpt>
      <trkpt lat="48.381180" lon="-0.406220">
        <ele>195</ele>
        <time>2019-08-01T18:45:04Z</time>
      </trkpt>
      <trkpt lat="48.381500" lon="-0.406120">
        <ele>196</ele>
        <time>2019-08-01T18:45:12Z</time>
      </trkpt>
      <trkpt lat="48.381810" lon="-0.406190">
        <ele>197</ele>
        <time>2019-08-01T18:45:14Z</time>
      </trkpt>
      <trkpt lat="48.382050" lon="-0.406330">
        <ele>197</ele>
        <time>2019-08-01T18:45:32Z</time>
      </trkpt>
      <trkpt lat="48.383530" lon="-0.408210">
        <ele>207</ele>
        <time>2019-08-01T18:45:35Z</time>
      </trkpt>
      <trkpt lat="48.383830" lon="-0.408620">
        <ele>208</ele>
        <time>2019-08-01T18:45:39Z</time>
      </trkpt>
      <trkpt lat="48.383920" lon="-0.408720">
        <ele>208</ele>
        <time>2019-08-01T18:45:43Z</time>
      </trkpt>
      <trkpt lat="48.384800" lon="-0.409530">
        <ele>204</ele>
        <time>2019-08-01T18:45:48Z</time>
      </trkpt>
      <trkpt lat="48.384970" lon="-0.409650">
        <ele>203</ele>
        <time>2019-08-01T18:46:16Z</time>
      </trkpt>
      <trkpt lat="48.385160" lon="-0.409740">
        <ele>201</ele>
        <time>2019-08-01T18:46:20Z</time>
      </trkpt>
      <trkpt lat="48.385380" lon="-0.409820">
        <ele>200</ele>
        <time>2019-08-01T18:46:26Z</time>
      </trkpt>
      <trkpt lat="48.385670" lon="-0.409860">
        <ele>197</ele>
        <time>2019-08-01T18:46:44Z</time>
      </trkpt>
      <trkpt lat="48.387230" lon="-0.410000">
        <ele>191</ele>
        <time>2019-08-01T18:46:49Z</time>
      </trkpt>
      <trkpt lat="48.387450" lon="-0.410000">
        <ele>191</ele>
        <time>2019-08-01T18:46:53Z</time>
      </trkpt>
      <trkpt lat="48.387820" lon="-0.409940">
        <ele>190</ele>
        <time>2019-08-01T18:46:57Z</time>
      </trkpt>
      <trkpt lat="48.388820" lon="-0.409640">
        <ele>189</ele>
        <time>2019-08-01T18:47:10Z</time>
      </trkpt>
      <trkpt lat="48.389050" lon="-0.409530">
        <ele>189</ele>
        <time>2019-08-01T18:47:21Z</time>
      </trkpt>
      <trkpt lat="48.389240" lon="-0.409370">
        <ele>189</ele>
        <time>2019-08-01T18:47:32Z</time>
      </trkpt>
      <trkpt lat="48.389430" lon="-0.409190">
        <ele>188</ele>
        <time>2019-08-01T18:47:41Z</time>
      </trkpt>
      <trkpt lat="48.389980" lon="-0.408450">
        <ele>187</ele>
        <time>2019-08-01T18:47:50Z</time>
      </trkpt>
      <trkpt lat="48.390520" lon="-0.407890">
        <ele>188</ele>
        <time>2019-08-01T18:47:59Z</time>
      </trkpt>
      <trkpt lat="48.391050" lon="-0.407480">
        <ele>187</ele>
        <time>2019-08-01T18:48:03Z</time>
      </trkpt>
      <trkpt lat="48.391530" lon="-0.407180">
        <ele>186</ele>
        <time>2019-08-01T18:48:08Z</time>
      </trkpt>
      <trkpt lat="48.392030" lon="-0.407010">
        <ele>184</ele>
        <time>2019-08-01T18:48:13Z</time>
      </trkpt>
      <trkpt lat="48.392500" lon="-0.406920">
        <ele>182</ele>
        <time>2019-08-01T18:49:22Z</time>
      </trkpt>
      <trkpt lat="48.392760" lon="-0.406910">
        <ele>181</ele>
        <time>2019-08-01T18:49:27Z</time>
      </trkpt>
      <trkpt lat="48.393020" lon="-0.406950">
        <ele>180</ele>
        <time>2019-08-01T18:49:33Z</time>
      </trkpt>
      <trkpt lat="48.393290" lon="-0.407020">
        <ele>180</ele>
        <time>2019-08-01T18:50:23Z</time>
      </trkpt>
      <trkpt lat="48.397020" lon="-0.408770">
        <ele>183</ele>
        <time>2019-08-01T18:50:52Z</time>
      </trkpt>
      <trkpt lat="48.397280" lon="-0.408860">
        <ele>182</ele>
        <time>2019-08-01T18:50:59Z</time>
      </trkpt>
      <trkpt lat="48.397620" lon="-0.408920">
        <ele>182</ele>
        <time>2019-08-01T18:51:04Z</time>
      </trkpt>
      <trkpt lat="48.400430" lon="-0.409210">
        <ele>182</ele>
        <time>2019-08-01T18:51:08Z</time>
      </trkpt>
      <trkpt lat="48.402010" lon="-0.409150">
        <ele>186</ele>
        <time>2019-08-01T18:51:12Z</time>
      </trkpt>
      <trkpt lat="48.402450" lon="-0.409170">
        <ele>186</ele>
        <time>2019-08-01T18:51:16Z</time>
      </trkpt>
      <trkpt lat="48.402710" lon="-0.409160">
        <ele>187</ele>
        <time>2019-08-01T18:51:27Z</time>
      </trkpt>
      <trkpt lat="48.402910" lon="-0.409100">
        <ele>188</ele>
        <time>2019-08-01T18:51:55Z</time>
      </trkpt>
      <trkpt lat="48.403140" lon="-0.408960">
        <ele>189</ele>
        <time>2019-08-01T18:52:41Z</time>
      </trkpt>
      <trkpt lat="48.403340" lon="-0.408770">
        <ele>189</ele>
        <time>2019-08-01T18:52:51Z</time>
      </trkpt>
      <trkpt lat="48.403780" lon="-0.408210">
        <ele>192</ele>
        <time>2019-08-01T18:52:56Z</time>
      </trkpt>
      <trkpt lat="48.404970" lon="-0.406640">
        <ele>196</ele>
        <time>2019-08-01T18:53:08Z</time>
      </trkpt>
      <trkpt lat="48.406890" lon="-0.403980">
        <ele>200</ele>
        <time>2019-08-01T18:53:13Z</time>
      </trkpt>
      <trkpt lat="48.407340" lon="-0.403550">
        <ele>201</ele>
        <time>2019-08-01T18:53:27Z</time>
      </trkpt>
      <trkpt lat="48.407620" lon="-0.403380">
        <ele>202</ele>
        <time>2019-08-01T18:53:27Z</time>
      </trkpt>
      <trkpt lat="48.408260" lon="-0.403170">
        <ele>204</ele>
        <time>2019-08-01T18:53:39Z</time>
      </trkpt>
      <trkpt lat="48.408560" lon="-0.403110">
        <ele>205</ele>
        <time>2019-08-01T18:54:01Z</time>
      </trkpt>
      <trkpt lat="48.409370" lon="-0.403040">
        <ele>209</ele>
        <time>2019-08-01T18:54:05Z</time>
      </trkpt>
      <trkpt lat="48.409370" lon="-0.403040">
        <ele>209</ele>
        <time>2019-08-01T18:54:10Z</time>
      </trkpt>
      <trkpt lat="48.410040" lon="-0.402970">
        <ele>214</ele>
        <time>2019-08-01T18:54:15Z</time>
      </trkpt>
      <trkpt lat="48.411210" lon="-0.402580">
        <ele>219</ele>
        <time>2019-08-01T18:54:41Z</time>
      </trkpt>
      <trkpt lat="48.411450" lon="-0.402580">
        <ele>220</ele>
        <time>2019-08-01T18:54:49Z</time>
      </trkpt>
      <trkpt lat="48.411750" lon="-0.402670">
        <ele>222</ele>
        <time>2019-08-01T18:54:54Z</time>
      </trkpt>
      <trkpt lat="48.412000" lon="-0.402810">
        <ele>223</ele>
        <time>2019-08-01T18:55:01Z</time>
      </trkpt>
      <trkpt lat="48.413310" lon="-0.403800">
        <ele>229</ele>
        <time>2019-08-01T18:55:09Z</time>
      </trkpt>
      <trkpt lat="48.413690" lon="-0.404160">
        <ele>231</ele>
        <time>2019-08-01T18:55:20Z</time>
      </trkpt>
      <trkpt lat="48.413920" lon="-0.404440">
        <ele>232</ele>
        <time>2019-08-01T18:55:24Z</time>
      </trkpt>
      <trkpt lat="48.414160" lon="-0.404830">
        <ele>234</ele>
        <time>2019-08-01T18:55:29Z</time>
      </trkpt>
      <trkpt lat="48.414440" lon="-0.405360">
        <ele>236</ele>
        <time>2019-08-01T18:55:33Z</time>
      </trkpt>
      <trkpt lat="48.414850" lon="-0.406090">
        <ele>237</ele>
        <time>2019-08-01T18:55:37Z</time>
      </trkpt>
      <trkpt lat="48.415010" lon="-0.406340">
        <ele>237</ele>
        <time>2019-08-01T18:55:43Z</time>
      </trkpt>
      <trkpt lat="48.415200" lon="-0.406580">
        <ele>236</ele>
        <time>2019-08-01T18:55:56Z</time>
      </trkpt>
      <trkpt lat="48.415410" lon="-0.406800">
        <ele>236</ele>
        <time>2019-08-01T18:56:10Z</time>
      </trkpt>
      <trkpt lat="48.415620" lon="-0.406970">
        <ele>235</ele>
        <time>2019-08-01T18:56:11Z</time>
      </trkpt>
      <trkpt lat="48.415900" lon="-0.407150">
        <ele>235</ele>
        <time>2019-08-01T18:56:31Z</time>
      </trkpt>
      <trkpt lat="48.416640" lon="-0.407470">
        <ele>237</ele>
        <time>2019-08-01T18:56:33Z</time>
      </trkpt>
      <trkpt lat="48.417330" lon="-0.407920">
        <ele>237</ele>
        <time>2019-08-01T18:57:32Z</time>
      </trkpt>
      <trkpt lat="48.417410" lon="-0.407920">
        <ele>237</ele>
        <time>2019-08-01T18:57:39Z</time>
      </trkpt>
      <trkpt lat="48.417610" lon="-0.409600">
        <ele>234</ele>
        <time>2019-08-01T18:57:39Z</time>
      </trkpt>
      <trkpt lat="48.417610" lon="-0.409710">
        <ele>233</ele>
        <time>2019-08-01T18:58:22Z</time>
      </trkpt>
      <trkpt lat="48.417360" lon="-0.414720">
        <ele>233</ele>
        <time>2019-08-01T18:58:32Z</time>
      </trkpt>
      <trkpt lat="48.417360" lon="-0.415340">
        <ele>233</ele>
        <time>2019-08-01T18:58:49Z</time>
      </trkpt>
      <trkpt lat="48.417360" lon="-0.415340">
        <ele>233</ele>
        <time>2019-08-01T18:59:07Z</time>
      </trkpt>
      <trkpt lat="48.417370" lon="-0.418920">
        <ele>238</ele>
        <time>2019-08-01T18:59:12Z</time>
      </trkpt>
      <trkpt lat="48.417360" lon="-0.419780">
        <ele>241</ele>
        <time>2019-08-01T18:59:34Z</time>
      </trkpt>
      <trkpt lat="48.417190" lon="-0.421190">
        <ele>241</ele>
        <time>2019-08-01T18:59:39Z</time>
      </trkpt>
      <trkpt lat="48.416970" lon="-0.422710">
        <ele>243</ele>
        <time>2019-08-01T19:00:01Z</time>
      </trkpt>
      <trkpt lat="48.416890" lon="-0.423140">
        <ele>244</ele>
        <time>2019-08-01T19:00:10Z</time>
      </trkpt>
      <trkpt lat="48.416480" lon="-0.424860">
        <ele>246</ele>
        <time>2019-08-01T19:01:00Z</time>
      </trkpt>
      <trkpt lat="48.416430" lon="-0.425310">
        <ele>246</ele>
        <time>2019-08-01T19:01:09Z</time>
      </trkpt>
      <trkpt lat="48.416480" lon="-0.427160">
        <ele>248</ele>
        <time>2019-08-01T19:01:24Z</time>
      </trkpt>
      <trkpt lat="48.416480" lon="-0.427940">
        <ele>249</ele>
        <time>2019-08-01T19:01:28Z</time>
      </trkpt>
      <trkpt lat="48.416320" lon="-0.432140">
        <ele>251</ele>
        <time>2019-08-01T19:01:50Z</time>
      </trkpt>
      <trkpt lat="48.416250" lon="-0.432920">
        <ele>249</ele>
        <time>2019-08-01T19:01:55Z</time>
      </trkpt>
      <trkpt lat="48.416090" lon="-0.434090">
        <ele>247</ele>
        <time>2019-08-01T19:02:37Z</time>
      </trkpt>
      <trkpt lat="48.416080" lon="-0.434490">
        <ele>247</ele>
        <time>2019-08-01T19:02:43Z</time>
      </trkpt>
      <trkpt lat="48.416160" lon="-0.436340">
        <ele>247</ele>
        <time>2019-08-01T19:02:55Z</time>
      </trkpt>
      <trkpt lat="48.416230" lon="-0.436700">
        <ele>246</ele>
        <time>2019-08-01T19:03:30Z</time>
      </trkpt>
      <trkpt lat="48.417170" lon="-0.439980">
        <ele>242</ele>
        <time>2019-08-01T19:03:30Z</time>
      </trkpt>
      <trkpt lat="48.417350" lon="-0.440480">
        <ele>240</ele>
        <time>2019-08-01T19:04:03Z</time>
      </trkpt>
      <trkpt lat="48.417760" lon="-0.441220">
        <ele>236</ele>
        <time>2019-08-01T19:04:11Z</time>
      </trkpt>
      <trkpt lat="48.419110" lon="-0.443420">
        <ele>235</ele>
        <time>2019-08-01T19:04:20Z</time>
      </trkpt>
      <trkpt lat="48.419110" lon="-0.443420">
        <ele>235</ele>
        <time>2019-08-01T19:04:35Z</time>
      </trkpt>
      <trkpt lat="48.420400" lon="-0.445440">
        <ele>242</ele>
        <time>2019-08-01T19:04:53Z</time>
      </trkpt>
      <trkpt lat="48.420660" lon="-0.445920">
        <ele>243</ele>
        <time>2019-08-01T19:05:00Z</time>
      </trkpt>
      <trkpt lat="48.420930" lon="-0.446580">
        <ele>244</ele>
        <time>2019-08-01T19:05:34Z</time>
      </trkpt>
      <trkpt lat="48.421310" lon="-0.447770">
        <ele>247</ele>
        <time>2019-08-01T19:05:41Z</time>
      </trkpt>
      <trkpt lat="48.421720" lon="-0.449170">
        <ele>250</ele>
        <time>2019-08-01T19:05:49Z</time>
      </trkpt>
      <trkpt lat="48.421920" lon="-0.449670">
        <ele>251</ele>
        <time>2019-08-01T19:06:07Z</time>
      </trkpt>
      <trkpt lat="48.423180" lon="-0.451770">
        <ele>251</ele>
        <time>2019-08-01T19:06:44Z</time>
      </trkpt>
      <trkpt lat="48.423430" lon="-0.452240">
        <ele>249</ele>
        <time>2019-08-01T19:07:29Z</time>
      </trkpt>
      <trkpt lat="48.423690" lon="-0.452800">
        <ele>247</ele>
        <time>2019-08-01T19:07:45Z</time>
      </trkpt>
      <trkpt lat="48.424240" lon="-0.454070">
        <ele>243</ele>
        <time>2019-08-01T19:08:02Z</time>
      </trkpt>
      <trkpt lat="48.425420" lon="-0.456680">
        <ele>247</ele>
        <time>2019-08-01T19:08:20Z</time>
      </trkpt>
      <trkpt lat="48.426850" lon="-0.459830">
        <ele>247</ele>
        <time>2019-08-01T19:08:28Z</time>
      </trkpt>
      <trkpt lat="48.427290" lon="-0.460940">
        <ele>246</ele>
        <time>2019-08-01T19:08:37Z</time>
      </trkpt>
      <trkpt lat="48.427740" lon="-0.462270">
        <ele>247</ele>
        <time>2019-08-01T19:08:55Z</time>
      </trkpt>
      <trkpt lat="48.428120" lon="-0.463630">
        <ele>246</ele>
        <time>2019-08-01T19:09:20Z</time>
      </trkpt>
      <trkpt lat="48.428370" lon="-0.464270">
        <ele>245</ele>
        <time>2019-08-01T19:09:38Z</time>
      </trkpt>
      <trkpt lat="48.428660" lon="-0.464900">
        <ele>245</ele>
        <time>2019-08-01T19:09:45Z</time>
      </trkpt>
      <trkpt lat="48.429250" lon="-0.466070">
        <ele>243</ele>
        <time>2019-08-01T19:09:51Z</time>
      </trkpt>
      <trkpt lat="48.430090" lon="-0.467810">
        <ele>240</ele>
        <time>2019-08-01T19:10:33Z</time>
      </trkpt>
      <trkpt lat="48.430590" lon="-0.469150">
        <ele>236</ele>
        <time>2019-08-01T19:10:42Z</time>
      </trkpt>
      <trkpt lat="48.430750" lon="-0.469650">
        <ele>234</ele>
        <time>2019-08-01T19:10:48Z</time>
      </trkpt>
      <trkpt lat="48.430890" lon="-0.470160">
        <ele>233</ele>
        <time>2019-08-01T19:10:55Z</time>
      </trkpt>
      <trkpt lat="48.431520" lon="-0.473540">
        <ele>223</ele>
        <time>2019-08-01T19:11:00Z</time>
      </trkpt>
      <trkpt lat="48.431690" lon="-0.474240">
        <ele>220</ele>
        <time>2019-08-01T19:11:05Z</time>
      </trkpt>
      <trkpt lat="48.431850" lon="-0.474750">
        <ele>217</ele>
        <time>2019-08-01T19:11:31Z</time>
      </trkpt>
      <trkpt lat="48.432050" lon="-0.475230">
        <ele>216</ele>
        <time>2019-08-01T19:12:08Z</time>
      </trkpt>
      <trkpt lat="48.432210" lon="-0.475580">
        <ele>215</ele>
        <time>2019-08-01T19:12:18Z</time>
      </trkpt>
      <trkpt lat="48.432410" lon="-0.475910">
        <ele>213</ele>
        <time>2019-08-01T19:12:25Z</time>
      </trkpt>
      <trkpt lat="48.433460" lon="-0.477470">
        <ele>206</ele>
        <time>2019-08-01T19:12:34Z</time>
      </trkpt>
      <trkpt lat="48.434950" lon="-0.479590">
        <ele>209</ele>
        <time>2019-08-01T19:12:46Z</time>
      </trkpt>
      <trkpt lat="48.435330" lon="-0.480230">
        <ele>209</ele>
        <time>2019-08-01T19:12:49Z</time>
      </trkpt>
      <trkpt lat="48.435570" lon="-0.480730">
        <ele>208</ele>
        <time>2019-08-01T19:12:53Z</time>
      </trkpt>
      <trkpt lat="48.435800" lon="-0.481410">
        <ele>208</ele>
        <time>2019-08-01T19:12:57Z</time>
      </trkpt>
      <trkpt lat="48.436140" lon="-0.482290">
        <ele>207</ele>
        <time>2019-08-01T19:13:00Z</time>
      </trkpt>
      <trkpt lat="48.436200" lon="-0.482490">
        <ele>206</ele>
        <time>2019-08-01T19:13:11Z</time>
      </trkpt>
      <trkpt lat="48.436260" lon="-0.482850">
        <ele>207</ele>
        <time>2019-08-01T19:13:13Z</time>
      </trkpt>
      <trkpt lat="48.436270" lon="-0.483130">
        <ele>207</ele>
        <time>2019-08-01T19:13:17Z</time>
      </trkpt>
      <trkpt lat="48.436260" lon="-0.483380">
        <ele>207</ele>
        <time>2019-08-01T19:13:25Z</time>
      </trkpt>
      <trkpt lat="48.436060" lon="-0.484280">
        <ele>205</ele>
        <time>2019-08-01T19:13:32Z</time>
      </trkpt>
      <trkpt lat="48.436060" lon="-0.484490">
        <ele>205</ele>
        <time>2019-08-01T19:13:37Z</time>
      </trkpt>
      <trkpt lat="48.436090" lon="-0.484770">
        <ele>205</ele>
        <time>2019-08-01T19:13:37Z</time>
      </trkpt>
      <trkpt lat="48.436210" lon="-0.485430">
        <ele>203</ele>
        <time>2019-08-01T19:13:39Z</time>
      </trkpt>
      <trkpt lat="48.436270" lon="-0.486040">
        <ele>201</ele>
        <time>2019-08-01T19:13:41Z</time>
      </trkpt>
      <trkpt lat="48.436360" lon="-0.486410">
        <ele>200</ele>
        <time>2019-08-01T19:13:42Z</time>
      </trkpt>
      <trkpt lat="48.436400" lon="-0.486440">
        <ele>200</ele>
        <time>2019-08-01T19:13:43Z</time>
      </trkpt>
      <trkpt lat="48.436450" lon="-0.486540">
        <ele>200</ele>
        <time>2019-08-01T19:13:48Z</time>
      </trkpt>
      <trkpt lat="48.436460" lon="-0.486680">
        <ele>200</ele>
        <time>2019-08-01T19:13:57Z</time>
      </trkpt>
      <trkpt lat="48.436430" lon="-0.486750">
        <ele>200</ele>
        <time>2019-08-01T19:14:10Z</time>
      </trkpt>
      <trkpt lat="48.436440" lon="-0.486910">
        <ele>200</ele>
        <time>2019-08-01T19:14:20Z</time>
      </trkpt>
      <trkpt lat="48.436510" lon="-0.487270">
        <ele>199</ele>
        <time>2019-08-01T19:14:32Z</time>
      </trkpt>
      <trkpt lat="48.436740" lon="-0.487970">
        <ele>200</ele>
        <time>2019-08-01T19:14:38Z</time>
      </trkpt>
      <trkpt lat="48.437120" lon="-0.488930">
        <ele>200</ele>
        <time>2019-08-01T19:14:38Z</time>
      </trkpt>
      <trkpt lat="48.437390" lon="-0.489670">
        <ele>198</ele>
        <time>2019-08-01T19:14:41Z</time>
      </trkpt>
      <trkpt lat="48.437680" lon="-0.490550">
        <ele>197</ele>
        <time>2019-08-01T19:14:44Z</time>
      </trkpt>
      <trkpt lat="48.437850" lon="-0.490970">
        <ele>198</ele>
        <time>2019-08-01T19:14:47Z</time>
      </trkpt>
      <trkpt lat="48.437850" lon="-0.490970">
        <ele>198</ele>
        <time>2019-08-01T19:14:51Z</time>
      </trkpt>
      <trkpt lat="48.437930" lon="-0.491230">
        <ele>198</ele>
        <time>2019-08-01T19:14:57Z</time>
      </trkpt>
      <trkpt lat="48.437950" lon="-0.491460">
        <ele>198</ele>
        <time>2019-08-01T19:15:03Z</time>
      </trkpt>
      <trkpt lat="48.437930" lon="-0.491750">
        <ele>197</ele>
        <time>2019-08-01T19:15:06Z</time>
      </trkpt>
      <trkpt lat="48.437880" lon="-0.492080">
        <ele>197</ele>
        <time>2019-08-01T19:15:16Z</time>
      </trkpt>
      <trkpt lat="48.437770" lon="-0.492530">
        <ele>196</ele>
        <time>2019-08-01T19:15:17Z</time>
      </trkpt>
      <trkpt lat="48.437580" lon="-0.492970">
        <ele>194</ele>
        <time>2019-08-01T19:15:26Z</time>
      </trkpt>
      <trkpt lat="48.437530" lon="-0.493220">
        <ele>194</ele>
        <time>2019-08-01T19:15:27Z</time>
      </trkpt>
      <trkpt lat="48.437520" lon="-0.494010">
        <ele>194</ele>
        <time>2019-08-01T19:15:30Z</time>
      </trkpt>
      <trkpt lat="48.437540" lon="-0.494130">
        <ele>194</ele>
        <time>2019-08-01T19:15:36Z</time>
      </trkpt>
      <trkpt lat="48.437720" lon="-0.494870">
        <ele>195</ele>
        <time>2019-08-01T19:15:37Z</time>
      </trkpt>
      <trkpt lat="48.437730" lon="-0.494970">
        <ele>195</ele>
        <time>2019-08-01T19:15:38Z</time>
      </trkpt>
      <trkpt lat="48.437680" lon="-0.495200">
        <ele>195</ele>
        <time>2019-08-01T19:15:43Z</time>
      </trkpt>
      <trkpt lat="48.437500" lon="-0.495590">
        <ele>195</ele>
        <time>2019-08-01T19:15:49Z</time>
      </trkpt>
      <trkpt lat="48.437470" lon="-0.495680">
        <ele>195</ele>
        <time>2019-08-01T19:15:57Z</time>
      </trkpt>
      <trkpt lat="48.437470" lon="-0.495790">
        <ele>196</ele>
        <time>2019-08-01T19:16:03Z</time>
      </trkpt>
      <trkpt lat="48.437540" lon="-0.496200">
        <ele>196</ele>
        <time>2019-08-01T19:16:15Z</time>
      </trkpt>
      <trkpt lat="48.437760" lon="-0.496570">
        <ele>197</ele>
        <time>2019-08-01T19:16:15Z</time>
      </trkpt>
      <trkpt lat="48.438060" lon="-0.497010">
        <ele>197</ele>
        <time>2019-08-01T19:16:31Z</time>
      </trkpt>
      <trkpt lat="48.438240" lon="-0.497420">
        <ele>197</ele>
        <time>2019-08-01T19:16:34Z</time>
      </trkpt>
      <trkpt lat="48.437810" lon="-0.498230">
        <ele>192</ele>
        <time>2019-08-01T19:16:38Z</time>
      </trkpt>
      <trkpt lat="48.437810" lon="-0.498230">
        <ele>192</ele>
        <time>2019-08-01T19:16:47Z</time>
      </trkpt>
      <trkpt lat="48.437220" lon="-0.499290">
        <ele>191</ele>
        <time>2019-08-01T19:16:51Z</time>
      </trkpt>
      <trkpt lat="48.437120" lon="-0.499440">
        <ele>192</ele>
        <time>2019-08-01T19:16:57Z</time>
      </trkpt>
      <trkpt lat="48.436930" lon="-0.499640">
        <ele>194</ele>
        <time>2019-08-01T19:17:13Z</time>
      </trkpt>
      <trkpt lat="48.436490" lon="-0.499980">
        <ele>197</ele>
        <time>2019-08-01T19:17:19Z</time>
      </trkpt>
      <trkpt lat="48.436260" lon="-0.500200">
        <ele>197</ele>
        <time>2019-08-01T19:17:24Z</time>
      </trkpt>
      <trkpt lat="48.436030" lon="-0.500500">
        <ele>197</ele>
        <time>2019-08-01T19:17:40Z</time>
      </trkpt>
      <trkpt lat="48.435440" lon="-0.501500">
        <ele>199</ele>
        <time>2019-08-01T19:17:49Z</time>
      </trkpt>
      <trkpt lat="48.435170" lon="-0.501840">
        <ele>201</ele>
        <time>2019-08-01T19:17:54Z</time>
      </trkpt>
      <trkpt lat="48.434920" lon="-0.502070">
        <ele>201</ele>
        <time>2019-08-01T19:17:56Z</time>
      </trkpt>
      <trkpt lat="48.434140" lon="-0.502670">
        <ele>202</ele>
        <time>2019-08-01T19:17:56Z</time>
      </trkpt>
      <trkpt lat="48.433680" lon="-0.502960">
        <ele>202</ele>
        <time>2019-08-01T19:17:58Z</time>
      </trkpt>
      <trkpt lat="48.433440" lon="-0.503200">
        <ele>202</ele>
        <time>2019-08-01T19:18:03Z</time>
      </trkpt>
      <trkpt lat="48.433390" lon="-0.503340">
        <ele>202</ele>
        <time>2019-08-01T19:18:18Z</time>
      </trkpt>
      <trkpt lat="48.433350" lon="-0.503390">
        <ele>202</ele>
        <time>2019-08-01T19:18:25Z</time>
      </trkpt>
      <trkpt lat="48.433260" lon="-0.503400">
        <ele>202</ele>
        <time>2019-08-01T19:18:47Z</time>
      </trkpt>
      <trkpt lat="48.433050" lon="-0.503640">
        <ele>203</ele>
        <time>2019-08-01T19:19:16Z</time>
      </trkpt>
      <trkpt lat="48.432530" lon="-0.504670">
        <ele>203</ele>
        <time>2019-08-01T19:19:28Z</time>
      </trkpt>
      <trkpt lat="48.432260" lon="-0.505110">
        <ele>204</ele>
        <time>2019-08-01T19:19:44Z</time>
      </trkpt>
      <trkpt lat="48.431360" lon="-0.506350">
        <ele>210</ele>
        <time>2019-08-01T19:19:44Z</time>
      </trkpt>
      <trkpt lat="48.430070" lon="-0.507820">
        <ele>220</ele>
        <time>2019-08-01T19:20:15Z</time>
      </trkpt>
      <trkpt lat="48.429560" lon="-0.508570">
        <ele>222</ele>
        <time>2019-08-01T19:20:23Z</time>
      </trkpt>
      <trkpt lat="48.428950" lon="-0.509550">
        <ele>222</ele>
        <time>2019-08-01T19:20:29Z</time>
      </trkpt>
      <trkpt lat="48.428950" lon="-0.509550">
        <ele>222</ele>
        <time>2019-08-01T19:20:41Z</time>
      </trkpt>
      <trkpt lat="48.427760" lon="-0.511430">
        <ele>222</ele>
        <time>2019-08-01T19:20:47Z</time>
      </trkpt>
      <trkpt lat="48.427510" lon="-0.512020">
        <ele>223</ele>
        <time>2019-08-01T19:20:53Z</time>
      </trkpt>
      <trkpt lat="48.427370" lon="-0.512450">
        <ele>223</ele>
        <time>2019-08-01T19:21:06Z</time>
      </trkpt>
      <trkpt lat="48.427170" lon="-0.513400">
        <ele>222</ele>
        <time>2019-08-01T19:21:11Z</time>
      </trkpt>
      <trkpt lat="48.427010" lon="-0.513910">
        <ele>220</ele>
        <time>2019-08-01T19:21:24Z</time>
      </trkpt>
      <trkpt lat="48.426830" lon="-0.514280">
        <ele>219</ele>
        <time>2019-08-01T19:22:28Z</time>
      </trkpt>
      <trkpt lat="48.426260" lon="-0.515070">
        <ele>217</ele>
        <time>2019-08-01T19:22:44Z</time>
      </trkpt>
      <trkpt lat="48.426070" lon="-0.515370">
        <ele>216</ele>
        <time>2019-08-01T19:23:30Z</time>
      </trkpt>
      <trkpt lat="48.425640" lon="-0.516190">
        <ele>216</ele>
        <time>2019-08-01T19:24:03Z</time>
      </trkpt>
      <trkpt lat="48.423860" lon="-0.520910">
        <ele>214</ele>
        <time>2019-08-01T19:24:14Z</time>
      </trkpt>
      <trkpt lat="48.423530" lon="-0.522240">
        <ele>213</ele>
        <time>2019-08-01T19:24:20Z</time>
      </trkpt>
      <trkpt lat="48.422750" lon="-0.525900">
        <ele>209</ele>
        <time>2019-08-01T19:24:27Z</time>
      </trkpt>
      <trkpt lat="48.422150" lon="-0.528520">
        <ele>209</ele>
        <time>2019-08-01T19:24:44Z</time>
      </trkpt>
      <trkpt lat="48.421910" lon="-0.529450">
        <ele>208</ele>
        <time>2019-08-01T19:24:55Z</time>
      </trkpt>
      <trkpt lat="48.421760" lon="-0.529890">
        <ele>208</ele>
        <time>2019-08-01T19:25:00Z</time>
      </trkpt>
      <trkpt lat="48.421530" lon="-0.530310">
        <ele>208</ele>
        <time>2019-08-01T19:25:05Z</time>
      </trkpt>
      <trkpt lat="48.420820" lon="-0.531320">
        <ele>206</ele>
        <time>2019-08-01T19:25:10Z</time>
      </trkpt>
      <trkpt lat="48.420350" lon="-0.531930">
        <ele>205</ele>
        <time>2019-08-01T19:25:16Z</time>
      </trkpt>
      <trkpt lat="48.420160" lon="-0.532250">
        <ele>204</ele>
        <time>2019-08-01T19:25:20Z</time>
      </trkpt>
      <trkpt lat="48.420020" lon="-0.532590">
        <ele>203</ele>
        <time>2019-08-01T19:25:32Z</time>
      </trkpt>
      <trkpt lat="48.419920" lon="-0.533030">
        <ele>201</ele>
        <time>2019-08-01T19:25:38Z</time>
      </trkpt>
      <trkpt lat="48.419880" lon="-0.533480">
        <ele>199</ele>
        <time>2019-08-01T19:26:06Z</time>
      </trkpt>
      <trkpt lat="48.419910" lon="-0.533860">
        <ele>198</ele>
        <time>2019-08-01T19:26:33Z</time>
      </trkpt>
      <trkpt lat="48.420030" lon="-0.534800">
        <ele>193</ele>
        <time>2019-08-01T19:26:51Z</time>
      </trkpt>
      <trkpt lat="48.420030" lon="-0.535350">
        <ele>191</ele>
        <time>2019-08-01T19:27:18Z</time>
      </trkpt>
      <trkpt lat="48.419830" lon="-0.537690">
        <ele>187</ele>
        <time>2019-08-01T19:27:32Z</time>
      </trkpt>
      <trkpt lat="48.419530" lon="-0.539950">
        <ele>185</ele>
        <time>2019-08-01T19:27:37Z</time>
      </trkpt>
      <trkpt lat="48.419300" lon="-0.541450">
        <ele>183</ele>
        <time>2019-08-01T19:28:31Z</time>
      </trkpt>
      <trkpt lat="48.418830" lon="-0.543640">
        <ele>178</ele>
        <time>2019-08-01T19:28:40Z</time>
      </trkpt>
      <trkpt lat="48.418740" lon="-0.544800">
        <ele>173</ele>
        <time>2019-08-01T19:28:47Z</time>
      </trkpt>
      <trkpt lat="48.418680" lon="-0.545190">
        <ele>170</ele>
        <time>2019-08-01T19:28:47Z</time>
      </trkpt>
      <trkpt lat="48.417410" lon="-0.549300">
        <ele>158</ele>
        <time>2019-08-01T19:28:52Z</time>
      </trkpt>
      <trkpt lat="48.417160" lon="-0.550040">
        <ele>153</ele>
        <time>2019-08-01T19:28:56Z</time>
      </trkpt>
      <trkpt lat="48.416970" lon="-0.550510">
        <ele>151</ele>
        <time>2019-08-01T19:29:11Z</time>
      </trkpt>
      <trkpt lat="48.416970" lon="-0.550510">
        <ele>151</ele>
        <time>2019-08-01T19:29:42Z</time>
      </trkpt>
      <trkpt lat="48.416820" lon="-0.550870">
        <ele>150</ele>
        <time>2019-08-01T19:30:02Z</time>
      </trkpt>
      <trkpt lat="48.416730" lon="-0.551190">
        <ele>149</ele>
        <time>2019-08-01T19:30:06Z</time>
      </trkpt>
      <trkpt lat="48.416540" lon="-0.552430">
        <ele>145</ele>
        <time>2019-08-01T19:30:12Z</time>
      </trkpt>
      <trkpt lat="48.416140" lon="-0.555030">
        <ele>146</ele>
        <time>2019-08-01T19:30:23Z</time>
      </trkpt>
      <trkpt lat="48.416010" lon="-0.556670">
        <ele>144</ele>
        <time>2019-08-01T19:31:02Z</time>
      </trkpt>
      <trkpt lat="48.416010" lon="-0.557050">
        <ele>143</ele>
        <time>2019-08-01T19:31:09Z</time>
      </trkpt>
      <trkpt lat="48.416050" lon="-0.557530">
        <ele>141</ele>
        <time>2019-08-01T19:31:47Z</time>
      </trkpt>
      <trkpt lat="48.416200" lon="-0.558460">
        <ele>139</ele>
        <time>2019-08-01T19:32:15Z</time>
      </trkpt>
      <trkpt lat="48.416340" lon="-0.561720">
        <ele>132</ele>
        <time>2019-08-01T19:32:21Z</time>
      </trkpt>
      <trkpt lat="48.416290" lon="-0.562270">
        <ele>132</ele>
        <time>2019-08-01T19:33:16Z</time>
      </trkpt>
      <trkpt lat="48.415650" lon="-0.565360">
        <ele>136</ele>
        <time>2019-08-01T19:33:39Z</time>
      </trkpt>
      <trkpt lat="48.415220" lon="-0.567670">
        <ele>135</ele>
        <time>2019-08-01T19:33:58Z</time>
      </trkpt>
      <trkpt lat="48.415010" lon="-0.568020">
        <ele>135</ele>
        <time>2019-08-01T19:34:21Z</time>
      </trkpt>
      <trkpt lat="48.414420" lon="-0.572580">
        <ele>135</ele>
        <time>2019-08-01T19:34:36Z</time>
      </trkpt>
      <trkpt lat="48.413900" lon="-0.574400">
        <ele>135</ele>
        <time>2019-08-01T19:34:44Z</time>
      </trkpt>
      <trkpt lat="48.413440" lon="-0.575840">
        <ele>133</ele>
        <time>2019-08-01T19:35:03Z</time>
      </trkpt>
      <trkpt lat="48.412780" lon="-0.577550">
        <ele>127</ele>
        <time>2019-08-01T19:35:13Z</time>
      </trkpt>
      <trkpt lat="48.412380" lon="-0.578680">
        <ele>126</ele>
        <time>2019-08-01T19:35:18Z</time>
      </trkpt>
      <trkpt lat="48.412230" lon="-0.579270">
        <ele>127</ele>
        <time>2019-08-01T19:35:37Z</time>
      </trkpt>
      <trkpt lat="48.411900" lon="-0.580840">
        <ele>129</ele>
        <time>2019-08-01T19:35:42Z</time>
      </trkpt>
      <trkpt lat="48.411750" lon="-0.581670">
        <ele>125</ele>
        <time>2019-08-01T19:35:46Z</time>
      </trkpt>
      <trkpt lat="48.411730" lon="-0.582080">
        <ele>124</ele>
        <time>2019-08-01T19:35:55Z</time>
      </trkpt>
      <trkpt lat="48.411740" lon="-0.583690">
        <ele>122</ele>
        <time>2019-08-01T19:36:00Z</time>
      </trkpt>
      <trkpt lat="48.411770" lon="-0.584120">
        <ele>122</ele>
        <time>2019-08-01T19:36:04Z</time>
      </trkpt>
      <trkpt lat="48.411800" lon="-0.584420">
        <ele>122</ele>
        <time>2019-08-01T19:36:09Z</time>
      </trkpt>
      <trkpt lat="48.411940" lon="-0.585120">
        <ele>123</ele>
        <time>2019-08-01T19:37:00Z</time>
      </trkpt>
      <trkpt lat="48.411990" lon="-0.585580">
        <ele>124</ele>
        <time>2019-08-01T19:37:37Z</time>
      </trkpt>
      <trkpt lat="48.411980" lon="-0.585880">
        <ele>124</ele>
        <time>2019-08-01T19:38:06Z</time>
      </trkpt>
      <trkpt lat="48.411890" lon="-0.586290">
        <ele>124</ele>
        <time>2019-08-01T19:38:13Z</time>
      </trkpt>
      <trkpt lat="48.410640" lon="-0.590170">
        <ele>124</ele>
        <time>2019-08-01T19:38:19Z</time>
      </trkpt>
      <trkpt lat="48.409690" lon="-0.593010">
        <ele>124</ele>
        <time>2019-08-01T19:38:26Z</time>
      </trkpt>
      <trkpt lat="48.408850" lon="-0.595070">
        <ele>119</ele>
        <time>2019-08-01T19:38:37Z</time>
      </trkpt>
      <trkpt lat="48.408630" lon="-0.595550">
        <ele>119</ele>
        <time>2019-08-01T19:38:42Z</time>
      </trkpt>
      <trkpt lat="48.408380" lon="-0.595910">
        <ele>119</ele>
        <time>2019-08-01T19:38:46Z</time>
      </trkpt>
      <trkpt lat="48.408040" lon="-0.596270">
        <ele>120</ele>
        <time>2019-08-01T19:38:50Z</time>
      </trkpt>
      <trkpt lat="48.407580" lon="-0.596840">
        <ele>122</ele>
        <time>2019-08-01T19:39:04Z</time>
      </trkpt>
      <trkpt lat="48.407420" lon="-0.597190">
        <ele>122</ele>
        <time>2019-08-01T19:39:09Z</time>
      </trkpt>
      <trkpt lat="48.407330" lon="-0.597510">
        <ele>122</ele>
        <time>2019-08-01T19:39:13Z</time>
      </trkpt>
      <trkpt lat="48.407280" lon="-0.597840">
        <ele>121</ele>
        <time>2019-08-01T19:39:18Z</time>
      </trkpt>
      <trkpt lat="48.407160" lon="-0.599000">
        <ele>118</ele>
        <time>2019-08-01T19:39:24Z</time>
      </trkpt>
      <trkpt lat="48.407100" lon="-0.599400">
        <ele>118</ele>
        <time>2019-08-01T19:39:29Z</time>
      </trkpt>
      <trkpt lat="48.407020" lon="-0.599740">
        <ele>117</ele>
        <time>2019-08-01T19:39:35Z</time>
      </trkpt>
      <trkpt lat="48.406890" lon="-0.600100">
        <ele>117</ele>
        <time>2019-08-01T19:39:44Z</time>
      </trkpt>
      <trkpt lat="48.406690" lon="-0.600540">
        <ele>117</ele>
        <time>2019-08-01T19:39:51Z</time>
      </trkpt>
      <trkpt lat="48.406480" lon="-0.600860">
        <ele>117</ele>
        <time>2019-08-01T19:39:57Z</time>
      </trkpt>
      <trkpt lat="48.406230" lon="-0.601080">
        <ele>116</ele>
        <time>2019-08-01T19:40:10Z</time>
      </trkpt>
      <trkpt lat="48.405700" lon="-0.601290">
        <ele>114</ele>
        <time>2019-08-01T19:40:14Z</time>
      </trkpt>
      <trkpt lat="48.405380" lon="-0.601560">
        <ele>113</ele>
        <time>2019-08-01T19:40:17Z</time>
      </trkpt>
      <trkpt lat="48.405160" lon="-0.601910">
        <ele>112</ele>
        <time>2019-08-01T19:40:20Z</time>
      </trkpt>
      <trkpt lat="48.404720" lon="-0.602860">
        <ele>112</ele>
        <time>2019-08-01T19:40:28Z</time>
      </trkpt>
      <trkpt lat="48.404600" lon="-0.603080">
        <ele>112</ele>
        <time>2019-08-01T19:40:31Z</time>
      </trkpt>
      <trkpt lat="48.404460" lon="-0.603250">
        <ele>111</ele>
        <time>2019-08-01T19:40:34Z</time>
      </trkpt>
      <trkpt lat="48.404290" lon="-0.603360">
        <ele>110</ele>
        <time>2019-08-01T19:40:38Z</time>
      </trkpt>
      <trkpt lat="48.403860" lon="-0.603500">
        <ele>109</ele>
        <time>2019-08-01T19:40:41Z</time>
      </trkpt>
      <trkpt lat="48.403700" lon="-0.603660">
        <ele>109</ele>
        <time>2019-08-01T19:40:53Z</time>
      </trkpt>
      <trkpt lat="48.403640" lon="-0.603900">
        <ele>109</ele>
        <time>2019-08-01T19:40:58Z</time>
      </trkpt>
      <trkpt lat="48.403680" lon="-0.604160">
        <ele>110</ele>
        <time>2019-08-01T19:41:01Z</time>
      </trkpt>
      <trkpt lat="48.403800" lon="-0.604410">
        <ele>110</ele>
        <time>2019-08-01T19:41:06Z</time>
      </trkpt>
      <trkpt lat="48.404320" lon="-0.605030">
        <ele>107</ele>
        <time>2019-08-01T19:41:09Z</time>
      </trkpt>
      <trkpt lat="48.404530" lon="-0.605330">
        <ele>107</ele>
        <time>2019-08-01T19:41:12Z</time>
      </trkpt>
      <trkpt lat="48.404620" lon="-0.605580">
        <ele>105</ele>
        <time>2019-08-01T19:41:22Z</time>
      </trkpt>
      <trkpt lat="48.404650" lon="-0.605980">
        <ele>103</ele>
        <time>2019-08-01T19:41:26Z</time>
      </trkpt>
      <trkpt lat="48.404650" lon="-0.606190">
        <ele>101</ele>
        <time>2019-08-01T19:41:32Z</time>
      </trkpt>
      <trkpt lat="48.404610" lon="-0.606480">
        <ele>100</ele>
        <time>2019-08-01T19:41:35Z</time>
      </trkpt>
      <trkpt lat="48.404370" lon="-0.607210">
        <ele>98</ele>
        <time>2019-08-01T19:41:47Z</time>
      </trkpt>
      <trkpt lat="48.404300" lon="-0.607510">
        <ele>98</ele>
        <time>2019-08-01T19:41:52Z</time>
      </trkpt>
      <trkpt lat="48.404200" lon="-0.608060">
        <ele>101</ele>
        <time>2019-08-01T19:41:57Z</time>
      </trkpt>
      <trkpt lat="48.404120" lon="-0.608210">
        <ele>102</ele>
        <time>2019-08-01T19:42:00Z</time>
      </trkpt>
      <trkpt lat="48.403480" lon="-0.608650">
        <ele>103</ele>
        <time>2019-08-01T19:42:03Z</time>
      </trkpt>
      <trkpt lat="48.403240" lon="-0.608860">
        <ele>103</ele>
        <time>2019-08-01T19:42:07Z</time>
      </trkpt>
      <trkpt lat="48.403040" lon="-0.609100">
        <ele>104</ele>
        <time>2019-08-01T19:42:07Z</time>
      </trkpt>
      <trkpt lat="48.402970" lon="-0.609360">
        <ele>105</ele>
        <time>2019-08-01T19:42:43Z</time>
      </trkpt>
      <trkpt lat="48.402950" lon="-0.609630">
        <ele>105</ele>
        <time>2019-08-01T19:42:49Z</time>
      </trkpt>
      <trkpt lat="48.402980" lon="-0.609980">
        <ele>107</ele>
        <time>2019-08-01T19:42:53Z</time>
      </trkpt>
      <trkpt lat="48.402980" lon="-0.609980">
        <ele>107</ele>
        <time>2019-08-01T19:42:56Z</time>
      </trkpt>
      <trkpt lat="48.403210" lon="-0.612980">
        <ele>117</ele>
        <time>2019-08-01T19:43:07Z</time>
      </trkpt>
      <trkpt lat="48.403180" lon="-0.613480">
        <ele>118</ele>
        <time>2019-08-01T19:43:15Z</time>
      </trkpt>
      <trkpt lat="48.403110" lon="-0.613820">
        <ele>119</ele>
        <time>2019-08-01T19:43:23Z</time>
      </trkpt>
      <trkpt lat="48.403030" lon="-0.614030">
        <ele>120</ele>
        <time>2019-08-01T19:44:24Z</time>
      </trkpt>
      <trkpt lat="48.402580" lon="-0.614670">
        <ele>121</ele>
        <time>2019-08-01T19:44:32Z</time>
      </trkpt>
      <trkpt lat="48.402290" lon="-0.615240">
        <ele>123</ele>
        <time>2019-08-01T19:44:37Z</time>
      </trkpt>
      <trkpt lat="48.402120" lon="-0.615790">
        <ele>124</ele>
        <time>2019-08-01T19:44:41Z</time>
      </trkpt>
      <trkpt lat="48.400870" lon="-0.620660">
        <ele>120</ele>
        <time>2019-08-01T19:44:48Z</time>
      </trkpt>
      <trkpt lat="48.400740" lon="-0.621250">
        <ele>118</ele>
        <time>2019-08-01T19:44:58Z</time>
      </trkpt>
      <trkpt lat="48.400680" lon="-0.621650">
        <ele>116</ele>
        <time>2019-08-01T19:45:12Z</time>
      </trkpt>
      <trkpt lat="48.400650" lon="-0.622060">
        <ele>115</ele>
        <time>2019-08-01T19:45:20Z</time>
      </trkpt>
      <trkpt lat="48.400650" lon="-0.622580">
        <ele>113</ele>
        <time>2019-08-01T19:45:24Z</time>
      </trkpt>
      <trkpt lat="48.400750" lon="-0.623450">
        <ele>111</ele>
        <time>2019-08-01T19:45:29Z</time>
      </trkpt>
      <trkpt lat="48.400930" lon="-0.624620">
        <ele>107</ele>
        <time>2019-08-01T19:45:35Z</time>
      </trkpt>
      <trkpt lat="48.401080" lon="-0.625280">
        <ele>105</ele>
        <time>2019-08-01T19:45:37Z</time>
      </trkpt>
      <trkpt lat="48.401180" lon="-0.625530">
        <ele>105</ele>
        <time>2019-08-01T19:45:59Z</time>
      </trkpt>
      <trkpt lat="48.401360" lon="-0.625870">
        <ele>104</ele>
        <time>2019-08-01T19:46:03Z</time>
      </trkpt>
      <trkpt lat="48.401660" lon="-0.626180">
        <ele>103</ele>
        <time>2019-08-01T19:46:06Z</time>
      </trkpt>
      <trkpt lat="48.401760" lon="-0.626260">
        <ele>103</ele>
        <time>2019-08-01T19:46:12Z</time>
      </trkpt>
      <trkpt lat="48.402760" lon="-0.627270">
        <ele>100</ele>
        <time>2019-08-01T19:46:14Z</time>
      </trkpt>
      <trkpt lat="48.402980" lon="-0.627400">
        <ele>100</ele>
        <time>2019-08-01T19:46:17Z</time>
      </trkpt>
      <trkpt lat="48.402920" lon="-0.627590">
        <ele>100</ele>
        <time>2019-08-01T19:46:36Z</time>
      </trkpt>
      <trkpt lat="48.402810" lon="-0.628140">
        <ele>103</ele>
        <time>2019-08-01T19:46:42Z</time>
      </trkpt>
      <trkpt lat="48.402740" lon="-0.628270">
        <ele>104</ele>
        <time>2019-08-01T19:46:44Z</time>
      </trkpt>
      <trkpt lat="48.402860" lon="-0.628450">
        <ele>106</ele>
        <time>2019-08-01T19:46:46Z</time>
      </trkpt>
      <trkpt lat="48.403770" lon="-0.629280">
        <ele>109</ele>
        <time>2019-08-01T19:46:49Z</time>
      </trkpt>
      <trkpt lat="48.404020" lon="-0.629570">
        <ele>110</ele>
        <time>2019-08-01T19:46:53Z</time>
      </trkpt>
      <trkpt lat="48.404090" lon="-0.629730">
        <ele>111</ele>
        <time>2019-08-01T19:46:56Z</time>
      </trkpt>
      <trkpt lat="48.404120" lon="-0.629870">
        <ele>112</ele>
        <time>2019-08-01T19:46:59Z</time>
      </trkpt>
      <trkpt lat="48.404110" lon="-0.630100">
        <ele>114</ele>
        <time>2019-08-01T19:47:07Z</time>
      </trkpt>
      <trkpt lat="48.404060" lon="-0.630460">
        <ele>117</ele>
        <time>2019-08-01T19:47:11Z</time>
      </trkpt>
      <trkpt lat="48.404050" lon="-0.630720">
        <ele>118</ele>
        <time>2019-08-01T19:47:13Z</time>
      </trkpt>
      <trkpt lat="48.404070" lon="-0.630950">
        <ele>119</ele>
        <time>2019-08-01T19:47:18Z</time>
      </trkpt>
      <trkpt lat="48.404160" lon="-0.631640">
        <ele>119</ele>
        <time>2019-08-01T19:47:21Z</time>
      </trkpt>
      <trkpt lat="48.404160" lon="-0.631930">
        <ele>119</ele>
        <time>2019-08-01T19:47:24Z</time>
      </trkpt>
      <trkpt lat="48.404140" lon="-0.632180">
        <ele>120</ele>
        <time>2019-08-01T19:47:28Z</time>
      </trkpt>
      <trkpt lat="48.404010" lon="-0.632540">
        <ele>121</ele>
        <time>2019-08-01T19:47:30Z</time>
      </trkpt>
      <trkpt lat="48.403870" lon="-0.632680">
        <ele>121</ele>
        <time>2019-08-01T19:47:33Z</time>
      </trkpt>
      <trkpt lat="48.403740" lon="-0.632740">
        <ele>122</ele>
        <time>2019-08-01T19:47:35Z</time>
      </trkpt>
      <trkpt lat="48.403510" lon="-0.632780">
        <ele>122</ele>
        <time>2019-08-01T19:47:37Z</time>
      </trkpt>
      <trkpt lat="48.403390" lon="-0.632870">
        <ele>122</ele>
        <time>2019-08-01T19:47:38Z</time>
      </trkpt>
      <trkpt lat="48.403300" lon="-0.633010">
        <ele>123</ele>
        <time>2019-08-01T19:47:52Z</time>
      </trkpt>
      <trkpt lat="48.403240" lon="-0.633200">
        <ele>123</ele>
        <time>2019-08-01T19:47:57Z</time>
      </trkpt>
      <trkpt lat="48.403220" lon="-0.633330">
        <ele>123</ele>
        <time>2019-08-01T19:48:00Z</time>
      </trkpt>
      <trkpt lat="48.403220" lon="-0.633470">
        <ele>124</ele>
        <time>2019-08-01T19:48:14Z</time>
      </trkpt>
      <trkpt lat="48.403500" lon="-0.634520">
        <ele>128</ele>
        <time>2019-08-01T19:48:21Z</time>
      </trkpt>
      <trkpt lat="48.403530" lon="-0.634990">
        <ele>130</ele>
        <time>2019-08-01T19:48:24Z</time>
      </trkpt>
      <trkpt lat="48.403490" lon="-0.635250">
        <ele>131</ele>
        <time>2019-08-01T19:48:25Z</time>
      </trkpt>
      <trkpt lat="48.403080" lon="-0.636210">
        <ele>132</ele>
        <time>2019-08-01T19:48:27Z</time>
      </trkpt>
      <trkpt lat="48.402900" lon="-0.636770">
        <ele>133</ele>
        <time>2019-08-01T19:48:28Z</time>
      </trkpt>
      <trkpt lat="48.402790" lon="-0.636990">
        <ele>133</ele>
        <time>2019-08-01T19:48:30Z</time>
      </trkpt>
      <trkpt lat="48.402820" lon="-0.637020">
        <ele>132</ele>
        <time>2019-08-01T19:48:40Z</time>
      </trkpt>
      <trkpt lat="48.402860" lon="-0.637140">
        <ele>132</ele>
        <time>2019-08-01T19:48:47Z</time>
      </trkpt>
      <trkpt lat="48.402830" lon="-0.637250">
        <ele>132</ele>
        <time>2019-08-01T19:48:51Z</time>
      </trkpt>
      <trkpt lat="48.402750" lon="-0.637300">
        <ele>132</ele>
        <time>2019-08-01T19:48:57Z</time>
      </trkpt>
      <trkpt lat="48.402670" lon="-0.638170">
        <ele>132</ele>
        <time>2019-08-01T19:49:00Z</time>
      </trkpt>
      <trkpt lat="48.402640" lon="-0.638790">
        <ele>132</ele>
        <time>2019-08-01T19:49:09Z</time>
      </trkpt>
      <trkpt lat="48.402590" lon="-0.639130">
        <ele>131</ele>
        <time>2019-08-01T19:49:12Z</time>
      </trkpt>
      <trkpt lat="48.402480" lon="-0.639540">
        <ele>132</ele>
        <time>2019-08-01T19:49:16Z</time>
      </trkpt>
      <trkpt lat="48.402390" lon="-0.639750">
        <ele>131</ele>
        <time>2019-08-01T19:49:27Z</time>
      </trkpt>
      <trkpt lat="48.402060" lon="-0.640320">
        <ele>130</ele>
        <time>2019-08-01T19:49:33Z</time>
      </trkpt>
      <trkpt lat="48.401980" lon="-0.640600">
        <ele>130</ele>
        <time>2019-08-01T19:49:40Z</time>
      </trkpt>
      <trkpt lat="48.401950" lon="-0.640890">
        <ele>129</ele>
        <time>2019-08-01T19:49:46Z</time>
      </trkpt>
      <trkpt lat="48.401990" lon="-0.641840">
        <ele>128</ele>
        <time>2019-08-01T19:49:52Z</time>
      </trkpt>
      <trkpt lat="48.401980" lon="-0.642380">
        <ele>126</ele>
        <time>2019-08-01T19:50:04Z</time>
      </trkpt>
      <trkpt lat="48.401930" lon="-0.642910">
        <ele>127</ele>
        <time>2019-08-01T19:50:08Z</time>
      </trkpt>
      <trkpt lat="48.401860" lon="-0.643430">
        <ele>129</ele>
        <time>2019-08-01T19:50:12Z</time>
      </trkpt>
      <trkpt lat="48.401730" lon="-0.643870">
        <ele>130</ele>
        <time>2019-08-01T19:50:27Z</time>
      </trkpt>
      <trkpt lat="48.401410" lon="-0.644830">
        <ele>130</ele>
        <time>2019-08-01T19:50:31Z</time>
      </trkpt>
      <trkpt lat="48.401340" lon="-0.645130">
        <ele>130</ele>
        <time>2019-08-01T19:50:34Z</time>
      </trkpt>
      <trkpt lat="48.401290" lon="-0.645450">
        <ele>131</ele>
        <time>2019-08-01T19:50:36Z</time>
      </trkpt>
      <trkpt lat="48.401350" lon="-0.646710">
        <ele>130</ele>
        <time>2019-08-01T19:50:40Z</time>
      </trkpt>
      <trkpt lat="48.401350" lon="-0.647100">
        <ele>130</ele>
        <time>2019-08-01T19:50:48Z</time>
      </trkpt>
      <trkpt lat="48.401330" lon="-0.647300">
        <ele>130</ele>
        <time>2019-08-01T19:50:51Z</time>
      </trkpt>
      <trkpt lat="48.401280" lon="-0.647490">
        <ele>131</ele>
        <time>2019-08-01T19:50:53Z</time>
      </trkpt>
      <trkpt lat="48.401170" lon="-0.647740">
        <ele>132</ele>
        <time>2019-08-01T19:51:02Z</time>
      </trkpt>
      <trkpt lat="48.400820" lon="-0.648230">
        <ele>132</ele>
        <time>2019-08-01T19:51:06Z</time>
      </trkpt>
      <trkpt lat="48.400740" lon="-0.648410">
        <ele>133</ele>
        <time>2019-08-01T19:51:16Z</time>
      </trkpt>
      <trkpt lat="48.400670" lon="-0.648610">
        <ele>133</ele>
        <time>2019-08-01T19:51:19Z</time>
      </trkpt>
      <trkpt lat="48.400530" lon="-0.649330">
        <ele>135</ele>
        <time>2019-08-01T19:51:22Z</time>
      </trkpt>
      <trkpt lat="48.400440" lon="-0.649650">
        <ele>135</ele>
        <time>2019-08-01T19:51:29Z</time>
      </trkpt>
      <trkpt lat="48.400130" lon="-0.650270">
        <ele>135</ele>
        <time>2019-08-01T19:51:31Z</time>
      </trkpt>
      <trkpt lat="48.400070" lon="-0.650530">
        <ele>135</ele>
        <time>2019-08-01T19:51:34Z</time>
      </trkpt>
      <trkpt lat="48.400040" lon="-0.650810">
        <ele>135</ele>
        <time>2019-08-01T19:51:42Z</time>
      </trkpt>
      <trkpt lat="48.400080" lon="-0.651350">
        <ele>135</ele>
        <time>2019-08-01T19:51:47Z</time>
      </trkpt>
      <trkpt lat="48.400120" lon="-0.651540">
        <ele>135</ele>
        <time>2019-08-01T19:51:50Z</time>
      </trkpt>
      <trkpt lat="48.400210" lon="-0.651800">
        <ele>136</ele>
        <time>2019-08-01T19:51:54Z</time>
      </trkpt>
      <trkpt lat="48.400460" lon="-0.652270">
        <ele>137</ele>
        <time>2019-08-01T19:51:58Z</time>
      </trkpt>
      <trkpt lat="48.400620" lon="-0.652670">
        <ele>137</ele>
        <time>2019-08-01T19:52:03Z</time>
      </trkpt>
      <trkpt lat="48.400690" lon="-0.652930">
        <ele>137</ele>
        <time>2019-08-01T19:52:10Z</time>
      </trkpt>
      <trkpt lat="48.400730" lon="-0.653220">
        <ele>135</ele>
        <time>2019-08-01T19:52:13Z</time>
      </trkpt>
      <trkpt lat="48.400750" lon="-0.653550">
        <ele>135</ele>
        <time>2019-08-01T19:52:17Z</time>
      </trkpt>
      <trkpt lat="48.400720" lon="-0.653980">
        <ele>136</ele>
        <time>2019-08-01T19:52:21Z</time>
      </trkpt>
      <trkpt lat="48.400650" lon="-0.654560">
        <ele>137</ele>
        <time>2019-08-01T19:52:24Z</time>
      </trkpt>
      <trkpt lat="48.400630" lon="-0.654820">
        <ele>137</ele>
        <time>2019-08-01T19:52:34Z</time>
      </trkpt>
      <trkpt lat="48.400630" lon="-0.655140">
        <ele>137</ele>
        <time>2019-08-01T19:52:41Z</time>
      </trkpt>
      <trkpt lat="48.400700" lon="-0.655450">
        <ele>136</ele>
        <time>2019-08-01T19:52:48Z</time>
      </trkpt>
      <trkpt lat="48.400780" lon="-0.655720">
        <ele>135</ele>
        <time>2019-08-01T19:52:58Z</time>
      </trkpt>
      <trkpt lat="48.401070" lon="-0.656390">
        <ele>138</ele>
        <time>2019-08-01T19:53:08Z</time>
      </trkpt>
      <trkpt lat="48.401320" lon="-0.656870">
        <ele>140</ele>
        <time>2019-08-01T19:53:08Z</time>
      </trkpt>
      <trkpt lat="48.401610" lon="-0.657340">
        <ele>139</ele>
        <time>2019-08-01T19:53:16Z</time>
      </trkpt>
      <trkpt lat="48.402050" lon="-0.657880">
        <ele>140</ele>
        <time>2019-08-01T19:53:25Z</time>
      </trkpt>
      <trkpt lat="48.402410" lon="-0.658440">
        <ele>140</ele>
        <time>2019-08-01T19:53:31Z</time>
      </trkpt>
      <trkpt lat="48.402410" lon="-0.658440">
        <ele>140</ele>
        <time>2019-08-01T19:53:41Z</time>
      </trkpt>
      <trkpt lat="48.402670" lon="-0.658990">
        <ele>141</ele>
        <time>2019-08-01T19:53:52Z</time>
      </trkpt>
      <trkpt lat="48.402890" lon="-0.659700">
        <ele>142</ele>
        <time>2019-08-01T19:54:01Z</time>
      </trkpt>
      <trkpt lat="48.403000" lon="-0.660210">
        <ele>143</ele>
        <time>2019-08-01T19:54:27Z</time>
      </trkpt>
      <trkpt lat="48.403160" lon="-0.661030">
        <ele>145</ele>
        <time>2019-08-01T19:59:21Z</time>
      </trkpt>
      <trkpt lat="48.403300" lon="-0.661890">
        <ele>146</ele>
        <time>2019-08-01T20:01:50Z</time>
      </trkpt>
      <trkpt lat="48.403400" lon="-0.662660">
        <ele>146</ele>
        <time>2019-08-01T20:01:56Z</time>
      </trkpt>
      <trkpt lat="48.403560" lon="-0.664860">
        <ele>148</ele>
        <time>2019-08-01T20:02:05Z</time>
      </trkpt>
      <trkpt lat="48.404700" lon="-0.689700">
        <ele>147</ele>
        <time>2019-08-01T20:02:12Z</time>
      </trkpt>
      <trkpt lat="48.405260" lon="-0.702270">
        <ele>151</ele>
        <time>2019-08-01T20:02:18Z</time>
      </trkpt>
      <trkpt lat="48.405330" lon="-0.702760">
        <ele>151</ele>
        <time>2019-08-01T20:02:34Z</time>
      </trkpt>
      <trkpt lat="48.405500" lon="-0.703450">
        <ele>152</ele>
        <time>2019-08-01T20:02:41Z</time>
      </trkpt>
      <trkpt lat="48.405700" lon="-0.703960">
        <ele>153</ele>
        <time>2019-08-01T20:02:46Z</time>
      </trkpt>
      <trkpt lat="48.405930" lon="-0.704400">
        <ele>155</ele>
        <time>2019-08-01T20:02:52Z</time>
      </trkpt>
      <trkpt lat="48.406530" lon="-0.705420">
        <ele>157</ele>
        <time>2019-08-01T20:02:58Z</time>
      </trkpt>
      <trkpt lat="48.406750" lon="-0.705920">
        <ele>157</ele>
        <time>2019-08-01T20:03:01Z</time>
      </trkpt>
      <trkpt lat="48.406890" lon="-0.706280">
        <ele>158</ele>
        <time>2019-08-01T20:03:01Z</time>
      </trkpt>
      <trkpt lat="48.407010" lon="-0.706720">
        <ele>159</ele>
        <time>2019-08-01T20:03:13Z</time>
      </trkpt>
      <trkpt lat="48.407100" lon="-0.707210">
        <ele>160</ele>
        <time>2019-08-01T20:03:58Z</time>
      </trkpt>
      <trkpt lat="48.407120" lon="-0.707430">
        <ele>161</ele>
        <time>2019-08-01T20:04:04Z</time>
      </trkpt>
      <trkpt lat="48.407120" lon="-0.707430">
        <ele>161</ele>
        <time>2019-08-01T20:04:10Z</time>
      </trkpt>
      <trkpt lat="48.407180" lon="-0.708490">
        <ele>160</ele>
        <time>2019-08-01T20:04:16Z</time>
      </trkpt>
      <trkpt lat="48.407360" lon="-0.712230">
        <ele>155</ele>
        <time>2019-08-01T20:04:29Z</time>
      </trkpt>
      <trkpt lat="48.407350" lon="-0.712750">
        <ele>155</ele>
        <time>2019-08-01T20:04:39Z</time>
      </trkpt>
      <trkpt lat="48.407320" lon="-0.713300">
        <ele>155</ele>
        <time>2019-08-01T20:04:43Z</time>
      </trkpt>
      <trkpt lat="48.407270" lon="-0.713790">
        <ele>156</ele>
        <time>2019-08-01T20:04:51Z</time>
      </trkpt>
      <trkpt lat="48.407070" lon="-0.714810">
        <ele>156</ele>
        <time>2019-08-01T20:06:27Z</time>
      </trkpt>
      <trkpt lat="48.406920" lon="-0.715700">
        <ele>156</ele>
        <time>2019-08-01T20:07:13Z</time>
      </trkpt>
      <trkpt lat="48.406880" lon="-0.715990">
        <ele>156</ele>
        <time>2019-08-01T20:07:17Z</time>
      </trkpt>
      <trkpt lat="48.406830" lon="-0.716670">
        <ele>158</ele>
        <time>2019-08-01T20:07:21Z</time>
      </trkpt>
      <trkpt lat="48.406480" lon="-0.724780">
        <ele>165</ele>
        <time>2019-08-01T20:07:25Z</time>
      </trkpt>
      <trkpt lat="48.406340" lon="-0.728640">
        <ele>178</ele>
        <time>2019-08-01T20:07:32Z</time>
      </trkpt>
      <trkpt lat="48.406340" lon="-0.728990">
        <ele>179</ele>
        <time>2019-08-01T20:07:39Z</time>
      </trkpt>
      <trkpt lat="48.406360" lon="-0.729360">
        <ele>180</ele>
        <time>2019-08-01T20:07:58Z</time>
      </trkpt>
      <trkpt lat="48.406400" lon="-0.729660">
        <ele>180</ele>
        <time>2019-08-01T20:08:06Z</time>
      </trkpt>
      <trkpt lat="48.406520" lon="-0.730230">
        <ele>181</ele>
        <time>2019-08-01T20:08:12Z</time>
      </trkpt>
      <trkpt lat="48.406700" lon="-0.730810">
        <ele>184</ele>
        <time>2019-08-01T20:08:15Z</time>
      </trkpt>
      <trkpt lat="48.407230" lon="-0.732130">
        <ele>186</ele>
        <time>2019-08-01T20:08:19Z</time>
      </trkpt>
      <trkpt lat="48.407410" lon="-0.732750">
        <ele>185</ele>
        <time>2019-08-01T20:08:32Z</time>
      </trkpt>
      <trkpt lat="48.407510" lon="-0.733240">
        <ele>186</ele>
        <time>2019-08-01T20:09:52Z</time>
      </trkpt>
      <trkpt lat="48.407540" lon="-0.733490">
        <ele>186</ele>
        <time>2019-08-01T20:10:00Z</time>
      </trkpt>
      <trkpt lat="48.407560" lon="-0.733830">
        <ele>185</ele>
        <time>2019-08-01T20:10:11Z</time>
      </trkpt>
      <trkpt lat="48.407560" lon="-0.734940">
        <ele>185</ele>
        <time>2019-08-01T20:10:32Z</time>
      </trkpt>
      <trkpt lat="48.407510" lon="-0.741720">
        <ele>190</ele>
        <time>2019-08-01T20:11:33Z</time>
      </trkpt>
      <trkpt lat="48.407410" lon="-0.742420">
        <ele>190</ele>
        <time>2019-08-01T20:12:42Z</time>
      </trkpt>
      <trkpt lat="48.407390" lon="-0.743310">
        <ele>190</ele>
        <time>2019-08-01T20:13:01Z</time>
      </trkpt>
      <trkpt lat="48.407490" lon="-0.745110">
        <ele>195</ele>
        <time>2019-08-01T20:13:08Z</time>
      </trkpt>
      <trkpt lat="48.407820" lon="-0.750270">
        <ele>192</ele>
        <time>2019-08-01T20:13:26Z</time>
      </trkpt>
      <trkpt lat="48.408170" lon="-0.756040">
        <ele>191</ele>
        <time>2019-08-01T20:13:44Z</time>
      </trkpt>
      <trkpt lat="48.408280" lon="-0.757650">
        <ele>192</ele>
        <time>2019-08-01T20:13:52Z</time>
      </trkpt>
      <trkpt lat="48.408360" lon="-0.758250">
        <ele>193</ele>
        <time>2019-08-01T20:14:06Z</time>
      </trkpt>
      <trkpt lat="48.408770" lon="-0.759630">
        <ele>195</ele>
        <time>2019-08-01T20:14:17Z</time>
      </trkpt>
      <trkpt lat="48.409210" lon="-0.761010">
        <ele>199</ele>
        <time>2019-08-01T20:14:30Z</time>
      </trkpt>
      <trkpt lat="48.409370" lon="-0.761650">
        <ele>200</ele>
        <time>2019-08-01T20:14:49Z</time>
      </trkpt>
      <trkpt lat="48.409550" lon="-0.762800">
        <ele>196</ele>
        <time>2019-08-01T20:15:01Z</time>
      </trkpt>
      <trkpt lat="48.409640" lon="-0.763660">
        <ele>194</ele>
        <time>2019-08-01T20:15:15Z</time>
      </trkpt>
      <trkpt lat="48.409690" lon="-0.764820">
        <ele>192</ele>
        <time>2019-08-01T20:15:29Z</time>
      </trkpt>
      <trkpt lat="48.409630" lon="-0.766390">
        <ele>185</ele>
        <time>2019-08-01T20:15:51Z</time>
      </trkpt>
      <trkpt lat="48.409470" lon="-0.767370">
        <ele>182</ele>
        <time>2019-08-01T20:15:57Z</time>
      </trkpt>
      <trkpt lat="48.409200" lon="-0.768510">
        <ele>183</ele>
        <time>2019-08-01T20:16:06Z</time>
      </trkpt>
      <trkpt lat="48.408920" lon="-0.769620">
        <ele>185</ele>
        <time>2019-08-01T20:16:12Z</time>
      </trkpt>
      <trkpt lat="48.408270" lon="-0.771160">
        <ele>186</ele>
        <time>2019-08-01T20:16:17Z</time>
      </trkpt>
      <trkpt lat="48.408100" lon="-0.771680">
        <ele>184</ele>
        <time>2019-08-01T20:16:23Z</time>
      </trkpt>
      <trkpt lat="48.408030" lon="-0.772360">
        <ele>182</ele>
        <time>2019-08-01T20:16:29Z</time>
      </trkpt>
      <trkpt lat="48.408040" lon="-0.772870">
        <ele>180</ele>
        <time>2019-08-01T20:16:34Z</time>
      </trkpt>
      <trkpt lat="48.408080" lon="-0.773330">
        <ele>178</ele>
        <time>2019-08-01T20:16:40Z</time>
      </trkpt>
      <trkpt lat="48.408200" lon="-0.773830">
        <ele>178</ele>
        <time>2019-08-01T20:16:48Z</time>
      </trkpt>
      <trkpt lat="48.408350" lon="-0.774230">
        <ele>177</ele>
        <time>2019-08-01T20:17:00Z</time>
      </trkpt>
      <trkpt lat="48.408520" lon="-0.774580">
        <ele>175</ele>
        <time>2019-08-01T20:17:06Z</time>
      </trkpt>
      <trkpt lat="48.408770" lon="-0.774900">
        <ele>174</ele>
        <time>2019-08-01T20:17:14Z</time>
      </trkpt>
      <trkpt lat="48.409160" lon="-0.775310">
        <ele>173</ele>
        <time>2019-08-01T20:17:30Z</time>
      </trkpt>
      <trkpt lat="48.409610" lon="-0.776000">
        <ele>172</ele>
        <time>2019-08-01T20:17:41Z</time>
      </trkpt>
      <trkpt lat="48.409810" lon="-0.776430">
        <ele>171</ele>
        <time>2019-08-01T20:17:51Z</time>
      </trkpt>
      <trkpt lat="48.409990" lon="-0.777080">
        <ele>169</ele>
        <time>2019-08-01T20:17:57Z</time>
      </trkpt>
      <trkpt lat="48.410170" lon="-0.778400">
        <ele>169</ele>
        <time>2019-08-01T20:18:03Z</time>
      </trkpt>
      <trkpt lat="48.410430" lon="-0.779240">
        <ele>169</ele>
        <time>2019-08-01T20:18:09Z</time>
      </trkpt>
      <trkpt lat="48.410680" lon="-0.779950">
        <ele>171</ele>
        <time>2019-08-01T20:18:20Z</time>
      </trkpt>
      <trkpt lat="48.410720" lon="-0.780490">
        <ele>173</ele>
        <time>2019-08-01T20:18:26Z</time>
      </trkpt>
      <trkpt lat="48.410710" lon="-0.780990">
        <ele>174</ele>
        <time>2019-08-01T20:19:10Z</time>
      </trkpt>
      <trkpt lat="48.410640" lon="-0.781520">
        <ele>174</ele>
        <time>2019-08-01T20:19:18Z</time>
      </trkpt>
      <trkpt lat="48.410390" lon="-0.782310">
        <ele>175</ele>
        <time>2019-08-01T20:19:28Z</time>
      </trkpt>
      <trkpt lat="48.410280" lon="-0.782820">
        <ele>176</ele>
        <time>2019-08-01T20:20:17Z</time>
      </trkpt>
      <trkpt lat="48.410250" lon="-0.786580">
        <ele>181</ele>
        <time>2019-08-01T20:20:17Z</time>
      </trkpt>
      <trkpt lat="48.410250" lon="-0.787260">
        <ele>181</ele>
        <time>2019-08-01T20:20:54Z</time>
      </trkpt>
      <trkpt lat="48.410350" lon="-0.788070">
        <ele>181</ele>
        <time>2019-08-01T20:21:04Z</time>
      </trkpt>
      <trkpt lat="48.411050" lon="-0.792100">
        <ele>175</ele>
        <time>2019-08-01T20:21:09Z</time>
      </trkpt>
      <trkpt lat="48.411050" lon="-0.792100">
        <ele>175</ele>
        <time>2019-08-01T20:21:14Z</time>
      </trkpt>
      <trkpt lat="48.411550" lon="-0.795150">
        <ele>174</ele>
        <time>2019-08-01T20:21:20Z</time>
      </trkpt>
      <trkpt lat="48.411610" lon="-0.795970">
        <ele>175</ele>
        <time>2019-08-01T20:21:41Z</time>
      </trkpt>
      <trkpt lat="48.411610" lon="-0.796370">
        <ele>175</ele>
        <time>2019-08-01T20:21:53Z</time>
      </trkpt>
      <trkpt lat="48.411600" lon="-0.796840">
        <ele>175</ele>
        <time>2019-08-01T20:22:01Z</time>
      </trkpt>
      <trkpt lat="48.411540" lon="-0.797300">
        <ele>175</ele>
        <time>2019-08-01T20:22:21Z</time>
      </trkpt>
      <trkpt lat="48.411150" lon="-0.799020">
        <ele>173</ele>
        <time>2019-08-01T20:23:02Z</time>
      </trkpt>
      <trkpt lat="48.411000" lon="-0.799990">
        <ele>172</ele>
        <time>2019-08-01T20:23:03Z</time>
      </trkpt>
      <trkpt lat="48.410990" lon="-0.800670">
        <ele>171</ele>
        <time>2019-08-01T20:23:04Z</time>
      </trkpt>
      <trkpt lat="48.411130" lon="-0.802320">
        <ele>171</ele>
        <time>2019-08-01T20:23:05Z</time>
      </trkpt>
      <trkpt lat="48.410990" lon="-0.805790">
        <ele>164</ele>
        <time>2019-08-01T20:23:05Z</time>
      </trkpt>
      <trkpt lat="48.411030" lon="-0.805810">
        <ele>164</ele>
        <time>2019-08-01T20:23:07Z</time>
      </trkpt>
      <trkpt lat="48.411080" lon="-0.805900">
        <ele>164</ele>
        <time>2019-08-01T20:23:08Z</time>
      </trkpt>
      <trkpt lat="48.411080" lon="-0.805960">
        <ele>164</ele>
        <time>2019-08-01T20:23:59Z</time>
      </trkpt>
      <trkpt lat="48.411070" lon="-0.806020">
        <ele>164</ele>
        <time>2019-08-01T20:24:15Z</time>
      </trkpt>
      <trkpt lat="48.411010" lon="-0.806090">
        <ele>164</ele>
        <time>2019-08-01T20:24:17Z</time>
      </trkpt>
      <trkpt lat="48.410970" lon="-0.806090">
        <ele>163</ele>
        <time>2019-08-01T20:24:18Z</time>
      </trkpt>
      <trkpt lat="48.410760" lon="-0.810440">
        <ele>160</ele>
        <time>2019-08-01T20:24:23Z</time>
      </trkpt>
      <trkpt lat="48.410710" lon="-0.811760">
        <ele>160</ele>
        <time>2019-08-01T20:24:27Z</time>
      </trkpt>
      <trkpt lat="48.410670" lon="-0.811960">
        <ele>161</ele>
        <time>2019-08-01T20:24:43Z</time>
      </trkpt>
      <trkpt lat="48.410690" lon="-0.812000">
        <ele>161</ele>
        <time>2019-08-01T20:24:49Z</time>
      </trkpt>
      <trkpt lat="48.410680" lon="-0.812430">
        <ele>162</ele>
        <time>2019-08-01T20:24:49Z</time>
      </trkpt>
      <trkpt lat="48.410640" lon="-0.812810">
        <ele>162</ele>
        <time>2019-08-01T20:25:15Z</time>
      </trkpt>
      <trkpt lat="48.410590" lon="-0.814150">
        <ele>163</ele>
        <time>2019-08-01T20:25:30Z</time>
      </trkpt>
      <trkpt lat="48.410620" lon="-0.814640">
        <ele>163</ele>
        <time>2019-08-01T20:25:32Z</time>
      </trkpt>
      <trkpt lat="48.410620" lon="-0.814640">
        <ele>163</ele>
        <time>2019-08-01T20:25:45Z</time>
      </trkpt>
      <trkpt lat="48.410750" lon="-0.816850">
        <ele>156</ele>
        <time>2019-08-01T20:25:50Z</time>
      </trkpt>
      <trkpt lat="48.410810" lon="-0.818100">
        <ele>162</ele>
        <time>2019-08-01T20:25:52Z</time>
      </trkpt>
      <trkpt lat="48.410770" lon="-0.818280">
        <ele>163</ele>
        <time>2019-08-01T20:26:03Z</time>
      </trkpt>
      <trkpt lat="48.410660" lon="-0.819340">
        <ele>167</ele>
        <time>2019-08-01T20:26:27Z</time>
      </trkpt>
      <trkpt lat="48.410710" lon="-0.819780">
        <ele>167</ele>
        <time>2019-08-01T20:26:35Z</time>
      </trkpt>
      <trkpt lat="48.410760" lon="-0.819940">
        <ele>167</ele>
        <time>2019-08-01T20:27:39Z</time>
      </trkpt>
      <trkpt lat="48.411110" lon="-0.820640">
        <ele>168</ele>
        <time>2019-08-01T20:27:41Z</time>
      </trkpt>
      <trkpt lat="48.411890" lon="-0.822350">
        <ele>171</ele>
        <time>2019-08-01T20:27:42Z</time>
      </trkpt>
      <trkpt lat="48.412060" lon="-0.822960">
        <ele>173</ele>
        <time>2019-08-01T20:27:43Z</time>
      </trkpt>
      <trkpt lat="48.413180" lon="-0.828150">
        <ele>168</ele>
        <time>2019-08-01T20:27:44Z</time>
      </trkpt>
      <trkpt lat="48.413250" lon="-0.828140">
        <ele>168</ele>
        <time>2019-08-01T20:27:45Z</time>
      </trkpt>
      <trkpt lat="48.413310" lon="-0.828200">
        <ele>168</ele>
        <time>2019-08-01T20:27:46Z</time>
      </trkpt>
      <trkpt lat="48.413330" lon="-0.828250">
        <ele>168</ele>
        <time>2019-08-01T20:28:06Z</time>
      </trkpt>
      <trkpt lat="48.413330" lon="-0.828360">
        <ele>168</ele>
        <time>2019-08-01T20:28:12Z</time>
      </trkpt>
      <trkpt lat="48.413310" lon="-0.828410">
        <ele>168</ele>
        <time>2019-08-01T20:28:13Z</time>
      </trkpt>
      <trkpt lat="48.413260" lon="-0.828480">
        <ele>168</ele>
        <time>2019-08-01T20:28:15Z</time>
      </trkpt>
      <trkpt lat="48.413620" lon="-0.830140">
        <ele>166</ele>
        <time>2019-08-01T20:28:16Z</time>
      </trkpt>
      <trkpt lat="48.413680" lon="-0.830630">
        <ele>167</ele>
        <time>2019-08-01T20:28:17Z</time>
      </trkpt>
      <trkpt lat="48.413720" lon="-0.830610">
        <ele>166</ele>
        <time>2019-08-01T20:28:17Z</time>
      </trkpt>
      <trkpt lat="48.413800" lon="-0.830610">
        <ele>166</ele>
        <time>2019-08-01T20:28:19Z</time>
      </trkpt>
      <trkpt lat="48.413860" lon="-0.830690">
        <ele>166</ele>
        <time>2019-08-01T20:28:20Z</time>
      </trkpt>
      <trkpt lat="48.413880" lon="-0.830740">
        <ele>166</ele>
        <time>2019-08-01T20:28:37Z</time>
      </trkpt>
      <trkpt lat="48.413890" lon="-0.830810">
        <ele>166</ele>
        <time>2019-08-01T20:29:45Z</time>
      </trkpt>
      <trkpt lat="48.413860" lon="-0.830930">
        <ele>166</ele>
        <time>2019-08-01T20:29:52Z</time>
      </trkpt>
      <trkpt lat="48.413790" lon="-0.831000">
        <ele>166</ele>
        <time>2019-08-01T20:30:03Z</time>
      </trkpt>
      <trkpt lat="48.414090" lon="-0.832310">
        <ele>167</ele>
        <time>2019-08-01T20:30:12Z</time>
      </trkpt>
      <trkpt lat="48.415280" lon="-0.837810">
        <ele>171</ele>
        <time>2019-08-01T20:30:35Z</time>
      </trkpt>
      <trkpt lat="48.415430" lon="-0.838370">
        <ele>172</ele>
        <time>2019-08-01T20:30:35Z</time>
      </trkpt>
      <trkpt lat="48.415690" lon="-0.839220">
        <ele>171</ele>
        <time>2019-08-01T20:31:21Z</time>
      </trkpt>
      <trkpt lat="48.415930" lon="-0.839870">
        <ele>170</ele>
        <time>2019-08-01T20:31:25Z</time>
      </trkpt>
      <trkpt lat="48.416620" lon="-0.841520">
        <ele>175</ele>
        <time>2019-08-01T20:31:31Z</time>
      </trkpt>
      <trkpt lat="48.416620" lon="-0.841520">
        <ele>175</ele>
        <time>2019-08-01T20:31:37Z</time>
      </trkpt>
      <trkpt lat="48.417980" lon="-0.844780">
        <ele>181</ele>
        <time>2019-08-01T20:31:53Z</time>
      </trkpt>
      <trkpt lat="48.418080" lon="-0.845070">
        <ele>181</ele>
        <time>2019-08-01T20:32:44Z</time>
      </trkpt>
      <trkpt lat="48.418190" lon="-0.845600">
        <ele>182</ele>
        <time>2019-08-01T20:33:16Z</time>
      </trkpt>
      <trkpt lat="48.418240" lon="-0.846110">
        <ele>184</ele>
        <time>2019-08-01T20:37:45Z</time>
      </trkpt>
      <trkpt lat="48.418240" lon="-0.847410">
        <ele>185</ele>
        <time>2019-08-01T20:38:10Z</time>
      </trkpt>
      <trkpt lat="48.418170" lon="-0.851770">
        <ele>188</ele>
        <time>2019-08-01T20:40:00Z</time>
      </trkpt>
      <trkpt lat="48.418270" lon="-0.854440">
        <ele>195</ele>
        <time>2019-08-01T20:40:04Z</time>
      </trkpt>
      <trkpt lat="48.419320" lon="-0.877230">
        <ele>202</ele>
        <time>2019-08-01T20:40:15Z</time>
      </trkpt>
      <trkpt lat="48.419400" lon="-0.879350">
        <ele>204</ele>
        <time>2019-08-01T20:43:39Z</time>
      </trkpt>
      <trkpt lat="48.419720" lon="-0.888600">
        <ele>220</ele>
        <time>2019-08-01T20:45:30Z</time>
      </trkpt>
      <trkpt lat="48.419730" lon="-0.888940">
        <ele>219</ele>
        <time>2019-08-01T20:45:39Z</time>
      </trkpt>
      <trkpt lat="48.419690" lon="-0.889850">
        <ele>219</ele>
        <time>2019-08-01T20:45:46Z</time>
      </trkpt>
      <trkpt lat="48.418270" lon="-0.907020">
        <ele>224</ele>
        <time>2019-08-01T20:45:55Z</time>
      </trkpt>
      <trkpt lat="48.417580" lon="-0.916360">
        <ele>239</ele>
        <time>2019-08-01T20:46:03Z</time>
      </trkpt>
      <trkpt lat="48.417490" lon="-0.917080">
        <ele>239</ele>
        <time>2019-08-01T20:46:17Z</time>
      </trkpt>
      <trkpt lat="48.417360" lon="-0.917700">
        <ele>238</ele>
        <time>2019-08-01T20:46:30Z</time>
      </trkpt>
      <trkpt lat="48.417180" lon="-0.918390">
        <ele>236</ele>
        <time>2019-08-01T20:46:35Z</time>
      </trkpt>
      <trkpt lat="48.417000" lon="-0.918970">
        <ele>237</ele>
        <time>2019-08-01T20:46:51Z</time>
      </trkpt>
      <trkpt lat="48.416600" lon="-0.920070">
        <ele>238</ele>
        <time>2019-08-01T20:47:35Z</time>
      </trkpt>
      <trkpt lat="48.416230" lon="-0.920950">
        <ele>238</ele>
        <time>2019-08-01T20:47:49Z</time>
      </trkpt>
      <trkpt lat="48.416060" lon="-0.921320">
        <ele>239</ele>
        <time>2019-08-01T20:48:14Z</time>
      </trkpt>
      <trkpt lat="48.415510" lon="-0.922420">
        <ele>240</ele>
        <time>2019-08-01T20:48:45Z</time>
      </trkpt>
      <trkpt lat="48.413910" lon="-0.925280">
        <ele>233</ele>
        <time>2019-08-01T20:49:07Z</time>
      </trkpt>
      <trkpt lat="48.413440" lon="-0.926230">
        <ele>231</ele>
        <time>2019-08-01T20:49:25Z</time>
      </trkpt>
      <trkpt lat="48.412640" lon="-0.927920">
        <ele>230</ele>
        <time>2019-08-01T20:49:38Z</time>
      </trkpt>
      <trkpt lat="48.411700" lon="-0.930100">
        <ele>227</ele>
        <time>2019-08-01T20:49:57Z</time>
      </trkpt>
      <trkpt lat="48.411060" lon="-0.931710">
        <ele>226</ele>
        <time>2019-08-01T20:50:20Z</time>
      </trkpt>
      <trkpt lat="48.410560" lon="-0.933080">
        <ele>221</ele>
        <time>2019-08-01T20:50:39Z</time>
      </trkpt>
      <trkpt lat="48.410230" lon="-0.934060">
        <ele>220</ele>
        <time>2019-08-01T20:51:10Z</time>
      </trkpt>
      <trkpt lat="48.409760" lon="-0.935520">
        <ele>215</ele>
        <time>2019-08-01T20:52:28Z</time>
      </trkpt>
      <trkpt lat="48.409230" lon="-0.937250">
        <ele>211</ele>
        <time>2019-08-01T20:54:15Z</time>
      </trkpt>
      <trkpt lat="48.408840" lon="-0.938730">
        <ele>211</ele>
        <time>2019-08-01T20:54:15Z</time>
      </trkpt>
      <trkpt lat="48.408250" lon="-0.941250">
        <ele>206</ele>
        <time>2019-08-01T20:55:03Z</time>
      </trkpt>
      <trkpt lat="48.407050" lon="-0.947580">
        <ele>207</ele>
        <time>2019-08-01T20:55:19Z</time>
      </trkpt>
      <trkpt lat="48.405450" lon="-0.956270">
        <ele>204</ele>
        <time>2019-08-01T20:55:32Z</time>
      </trkpt>
      <trkpt lat="48.405450" lon="-0.956270">
        <ele>204</ele>
        <time>2019-08-01T20:56:03Z</time>
      </trkpt>
      <trkpt lat="48.404720" lon="-0.960260">
        <ele>205</ele>
        <time>2019-08-01T20:56:07Z</time>
      </trkpt>
      <trkpt lat="48.404480" lon="-0.961500">
        <ele>202</ele>
        <time>2019-08-01T20:56:10Z</time>
      </trkpt>
      <trkpt lat="48.404240" lon="-0.962590">
        <ele>197</ele>
        <time>2019-08-01T20:56:14Z</time>
      </trkpt>
      <trkpt lat="48.403670" lon="-0.965020">
        <ele>189</ele>
        <time>2019-08-01T20:57:06Z</time>
      </trkpt>
      <trkpt lat="48.403620" lon="-0.965360">
        <ele>189</ele>
        <time>2019-08-01T20:57:12Z</time>
      </trkpt>
      <trkpt lat="48.403580" lon="-0.965630">
        <ele>189</ele>
        <time>2019-08-01T20:57:19Z</time>
      </trkpt>
      <trkpt lat="48.403570" lon="-0.965980">
        <ele>188</ele>
        <time>2019-08-01T20:58:55Z</time>
      </trkpt>
      <trkpt lat="48.403600" lon="-0.970340">
        <ele>176</ele>
        <time>2019-08-01T20:58:59Z</time>
      </trkpt>
      <trkpt lat="48.403660" lon="-0.970880">
        <ele>176</ele>
        <time>2019-08-01T20:59:11Z</time>
      </trkpt>
      <trkpt lat="48.403770" lon="-0.971420">
        <ele>177</ele>
        <time>2019-08-01T20:59:16Z</time>
      </trkpt>
      <trkpt lat="48.405840" lon="-0.978900">
        <ele>177</ele>
        <time>2019-08-01T20:59:26Z</time>
      </trkpt>
      <trkpt lat="48.405930" lon="-0.979260">
        <ele>178</ele>
        <time>2019-08-01T20:59:38Z</time>
      </trkpt>
      <trkpt lat="48.406100" lon="-0.980250">
        <ele>177</ele>
        <time>2019-08-01T20:59:41Z</time>
      </trkpt>
      <trkpt lat="48.406140" lon="-0.980690">
        <ele>176</ele>
        <time>2019-08-01T20:59:48Z</time>
      </trkpt>
      <trkpt lat="48.406150" lon="-0.981520">
        <ele>174</ele>
        <time>2019-08-01T20:59:55Z</time>
      </trkpt>
      <trkpt lat="48.406100" lon="-0.982500">
        <ele>174</ele>
        <time>2019-08-01T21:00:02Z</time>
      </trkpt>
      <trkpt lat="48.406100" lon="-0.982800">
        <ele>173</ele>
        <time>2019-08-01T21:00:37Z</time>
      </trkpt>
      <trkpt lat="48.406150" lon="-0.983330">
        <ele>172</ele>
        <time>2019-08-01T21:00:41Z</time>
      </trkpt>
      <trkpt lat="48.406300" lon="-0.983900">
        <ele>172</ele>
        <time>2019-08-01T21:00:44Z</time>
      </trkpt>
      <trkpt lat="48.406500" lon="-0.984450">
        <ele>172</ele>
        <time>2019-08-01T21:00:46Z</time>
      </trkpt>
      <trkpt lat="48.407580" lon="-0.986870">
        <ele>169</ele>
        <time>2019-08-01T21:00:53Z</time>
      </trkpt>
      <trkpt lat="48.407700" lon="-0.987210">
        <ele>167</ele>
        <time>2019-08-01T21:00:54Z</time>
      </trkpt>
      <trkpt lat="48.407740" lon="-0.987410">
        <ele>166</ele>
        <time>2019-08-01T21:00:55Z</time>
      </trkpt>
      <trkpt lat="48.407760" lon="-0.987620">
        <ele>166</ele>
        <time>2019-08-01T21:00:57Z</time>
      </trkpt>
      <trkpt lat="48.407730" lon="-0.988160">
        <ele>165</ele>
        <time>2019-08-01T21:00:58Z</time>
      </trkpt>
      <trkpt lat="48.407800" lon="-0.988190">
        <ele>165</ele>
        <time>2019-08-01T21:00:59Z</time>
      </trkpt>
      <trkpt lat="48.407850" lon="-0.988270">
        <ele>165</ele>
        <time>2019-08-01T21:01:00Z</time>
      </trkpt>
      <trkpt lat="48.407870" lon="-0.988370">
        <ele>164</ele>
        <time>2019-08-01T21:01:01Z</time>
      </trkpt>
      <trkpt lat="48.407860" lon="-0.988470">
        <ele>164</ele>
        <time>2019-08-01T21:01:05Z</time>
      </trkpt>
      <trkpt lat="48.407820" lon="-0.988520">
        <ele>164</ele>
        <time>2019-08-01T21:01:38Z</time>
      </trkpt>
      <trkpt lat="48.407770" lon="-0.988570">
        <ele>164</ele>
        <time>2019-08-01T21:03:07Z</time>
      </trkpt>
      <trkpt lat="48.407690" lon="-0.988570">
        <ele>164</ele>
        <time>2019-08-01T21:03:21Z</time>
      </trkpt>
      <trkpt lat="48.407630" lon="-0.988900">
        <ele>163</ele>
        <time>2019-08-01T21:03:58Z</time>
      </trkpt>
      <trkpt lat="48.407290" lon="-0.991630">
        <ele>166</ele>
        <time>2019-08-01T21:05:22Z</time>
      </trkpt>
      <trkpt lat="48.406340" lon="-0.999020">
        <ele>174</ele>
        <time>2019-08-01T21:05:32Z</time>
      </trkpt>
      <trkpt lat="48.406130" lon="-1.000140">
        <ele>171</ele>
        <time>2019-08-01T21:05:41Z</time>
      </trkpt>
      <trkpt lat="48.405410" lon="-1.003100">
        <ele>171</ele>
        <time>2019-08-01T21:05:47Z</time>
      </trkpt>
      <trkpt lat="48.404440" lon="-1.010090">
        <ele>177</ele>
        <time>2019-08-01T21:06:30Z</time>
      </trkpt>
      <trkpt lat="48.404320" lon="-1.010870">
        <ele>179</ele>
        <time>2019-08-01T21:06:42Z</time>
      </trkpt>
      <trkpt lat="48.404190" lon="-1.011640">
        <ele>181</ele>
        <time>2019-08-01T21:06:54Z</time>
      </trkpt>
      <trkpt lat="48.404060" lon="-1.012070">
        <ele>180</ele>
        <time>2019-08-01T21:07:08Z</time>
      </trkpt>
      <trkpt lat="48.402880" lon="-1.015300">
        <ele>172</ele>
        <time>2019-08-01T21:07:14Z</time>
      </trkpt>
      <trkpt lat="48.402640" lon="-1.016250">
        <ele>170</ele>
        <time>2019-08-01T21:07:26Z</time>
      </trkpt>
      <trkpt lat="48.402450" lon="-1.017210">
        <ele>169</ele>
        <time>2019-08-01T21:07:32Z</time>
      </trkpt>
      <trkpt lat="48.402330" lon="-1.018370">
        <ele>170</ele>
        <time>2019-08-01T21:08:12Z</time>
      </trkpt>
      <trkpt lat="48.402300" lon="-1.018900">
        <ele>170</ele>
        <time>2019-08-01T21:08:26Z</time>
      </trkpt>
      <trkpt lat="48.402310" lon="-1.019900">
        <ele>170</ele>
        <time>2019-08-01T21:08:49Z</time>
      </trkpt>
      <trkpt lat="48.402350" lon="-1.020400">
        <ele>170</ele>
        <time>2019-08-01T21:08:55Z</time>
      </trkpt>
      <trkpt lat="48.402720" lon="-1.023700">
        <ele>178</ele>
        <time>2019-08-01T21:09:01Z</time>
      </trkpt>
      <trkpt lat="48.402820" lon="-1.024930">
        <ele>179</ele>
        <time>2019-08-01T21:12:07Z</time>
      </trkpt>
      <trkpt lat="48.402960" lon="-1.026840">
        <ele>179</ele>
        <time>2019-08-01T21:12:43Z</time>
      </trkpt>
      <trkpt lat="48.402970" lon="-1.027330">
        <ele>180</ele>
        <time>2019-08-01T21:12:52Z</time>
      </trkpt>
      <trkpt lat="48.402920" lon="-1.027830">
        <ele>180</ele>
        <time>2019-08-01T21:12:57Z</time>
      </trkpt>
      <trkpt lat="48.401030" lon="-1.043310">
        <ele>188</ele>
        <time>2019-08-01T21:13:24Z</time>
      </trkpt>
      <trkpt lat="48.400650" lon="-1.046370">
        <ele>190</ele>
        <time>2019-08-01T21:13:50Z</time>
      </trkpt>
      <trkpt lat="48.400530" lon="-1.047100">
        <ele>190</ele>
        <time>2019-08-01T21:13:50Z</time>
      </trkpt>
      <trkpt lat="48.400420" lon="-1.047460">
        <ele>190</ele>
        <time>2019-08-01T21:14:54Z</time>
      </trkpt>
      <trkpt lat="48.399640" lon="-1.049400">
        <ele>185</ele>
        <time>2019-08-01T21:15:00Z</time>
      </trkpt>
      <trkpt lat="48.398780" lon="-1.051180">
        <ele>186</ele>
        <time>2019-08-01T21:15:06Z</time>
      </trkpt>
      <trkpt lat="48.398780" lon="-1.051180">
        <ele>186</ele>
        <time>2019-08-01T21:15:10Z</time>
      </trkpt>
      <trkpt lat="48.396650" lon="-1.055550">
        <ele>189</ele>
        <time>2019-08-01T21:15:13Z</time>
      </trkpt>
      <trkpt lat="48.396470" lon="-1.055980">
        <ele>189</ele>
        <time>2019-08-01T21:15:18Z</time>
      </trkpt>
      <trkpt lat="48.396300" lon="-1.056470">
        <ele>189</ele>
        <time>2019-08-01T21:15:27Z</time>
      </trkpt>
      <trkpt lat="48.396250" lon="-1.056780">
        <ele>190</ele>
        <time>2019-08-01T21:15:31Z</time>
      </trkpt>
      <trkpt lat="48.396260" lon="-1.057030">
        <ele>190</ele>
        <time>2019-08-01T21:15:34Z</time>
      </trkpt>
      <trkpt lat="48.396320" lon="-1.057410">
        <ele>190</ele>
        <time>2019-08-01T21:15:37Z</time>
      </trkpt>
      <trkpt lat="48.396630" lon="-1.058050">
        <ele>187</ele>
        <time>2019-08-01T21:15:39Z</time>
      </trkpt>
      <trkpt lat="48.396740" lon="-1.058370">
        <ele>185</ele>
        <time>2019-08-01T21:15:42Z</time>
      </trkpt>
      <trkpt lat="48.396790" lon="-1.058610">
        <ele>185</ele>
        <time>2019-08-01T21:15:48Z</time>
      </trkpt>
      <trkpt lat="48.396800" lon="-1.058860">
        <ele>184</ele>
        <time>2019-08-01T21:15:51Z</time>
      </trkpt>
      <trkpt lat="48.396810" lon="-1.059050">
        <ele>184</ele>
        <time>2019-08-01T21:16:15Z</time>
      </trkpt>
      <trkpt lat="48.396770" lon="-1.059270">
        <ele>183</ele>
        <time>2019-08-01T21:16:19Z</time>
      </trkpt>
      <trkpt lat="48.396610" lon="-1.059660">
        <ele>180</ele>
        <time>2019-08-01T21:16:22Z</time>
      </trkpt>
      <trkpt lat="48.396490" lon="-1.059840">
        <ele>179</ele>
        <time>2019-08-01T21:16:45Z</time>
      </trkpt>
      <trkpt lat="48.395440" lon="-1.061180">
        <ele>174</ele>
        <time>2019-08-01T21:17:04Z</time>
      </trkpt>
      <trkpt lat="48.395320" lon="-1.061440">
        <ele>172</ele>
        <time>2019-08-01T21:17:17Z</time>
      </trkpt>
      <trkpt lat="48.395230" lon="-1.061690">
        <ele>170</ele>
        <time>2019-08-01T21:17:18Z</time>
      </trkpt>
      <trkpt lat="48.394910" lon="-1.063600">
        <ele>169</ele>
        <time>2019-08-01T21:17:22Z</time>
      </trkpt>
      <trkpt lat="48.394670" lon="-1.065130">
        <ele>170</ele>
        <time>2019-08-01T21:17:25Z</time>
      </trkpt>
      <trkpt lat="48.394480" lon="-1.066190">
        <ele>173</ele>
        <time>2019-08-01T21:17:32Z</time>
      </trkpt>
      <trkpt lat="48.394470" lon="-1.066310">
        <ele>174</ele>
        <time>2019-08-01T21:17:39Z</time>
      </trkpt>
      <trkpt lat="48.394460" lon="-1.066620">
        <ele>175</ele>
        <time>2019-08-01T21:17:44Z</time>
      </trkpt>
      <trkpt lat="48.394390" lon="-1.066820">
        <ele>175</ele>
        <time>2019-08-01T21:17:50Z</time>
      </trkpt>
      <trkpt lat="48.394280" lon="-1.067370">
        <ele>176</ele>
        <time>2019-08-01T21:19:32Z</time>
      </trkpt>
      <trkpt lat="48.394100" lon="-1.067920">
        <ele>178</ele>
        <time>2019-08-01T21:21:38Z</time>
      </trkpt>
      <trkpt lat="48.393940" lon="-1.068290">
        <ele>178</ele>
        <time>2019-08-01T21:21:48Z</time>
      </trkpt>
      <trkpt lat="48.393720" lon="-1.068660">
        <ele>178</ele>
        <time>2019-08-01T21:22:13Z</time>
      </trkpt>
      <trkpt lat="48.389540" lon="-1.074580">
        <ele>189</ele>
        <time>2019-08-01T21:22:43Z</time>
      </trkpt>
      <trkpt lat="48.384360" lon="-1.081860">
        <ele>200</ele>
        <time>2019-08-01T21:22:49Z</time>
      </trkpt>
      <trkpt lat="48.383920" lon="-1.082370">
        <ele>203</ele>
        <time>2019-08-01T21:22:52Z</time>
      </trkpt>
      <trkpt lat="48.382720" lon="-1.083480">
        <ele>206</ele>
        <time>2019-08-01T21:22:56Z</time>
      </trkpt>
      <trkpt lat="48.381240" lon="-1.084730">
        <ele>212</ele>
        <time>2019-08-01T21:23:00Z</time>
      </trkpt>
      <trkpt lat="48.380960" lon="-1.085030">
        <ele>214</ele>
        <time>2019-08-01T21:23:05Z</time>
      </trkpt>
      <trkpt lat="48.380860" lon="-1.085220">
        <ele>215</ele>
        <time>2019-08-01T21:23:35Z</time>
      </trkpt>
      <trkpt lat="48.380750" lon="-1.085510">
        <ele>215</ele>
        <time>2019-08-01T21:23:35Z</time>
      </trkpt>
      <trkpt lat="48.380690" lon="-1.085820">
        <ele>215</ele>
        <time>2019-08-01T21:26:10Z</time>
      </trkpt>
      <trkpt lat="48.380690" lon="-1.086290">
        <ele>216</ele>
        <time>2019-08-01T21:26:28Z</time>
      </trkpt>
      <trkpt lat="48.380910" lon="-1.088740">
        <ele>224</ele>
        <time>2019-08-01T21:26:36Z</time>
      </trkpt>
      <trkpt lat="48.380910" lon="-1.088740">
        <ele>224</ele>
        <time>2019-08-01T21:26:44Z</time>
      </trkpt>
      <trkpt lat="48.382070" lon="-1.101770">
        <ele>229</ele>
        <time>2019-08-01T21:26:55Z</time>
      </trkpt>
      <trkpt lat="48.382190" lon="-1.103310">
        <ele>230</ele>
        <time>2019-08-01T21:27:11Z</time>
      </trkpt>
      <trkpt lat="48.382210" lon="-1.104000">
        <ele>229</ele>
        <time>2019-08-01T21:27:24Z</time>
      </trkpt>
      <trkpt lat="48.382210" lon="-1.104670">
        <ele>229</ele>
        <time>2019-08-01T21:27:31Z</time>
      </trkpt>
      <trkpt lat="48.382180" lon="-1.105600">
        <ele>231</ele>
        <time>2019-08-01T21:27:38Z</time>
      </trkpt>
      <trkpt lat="48.382040" lon="-1.106940">
        <ele>231</ele>
        <time>2019-08-01T21:27:48Z</time>
      </trkpt>
      <trkpt lat="48.381880" lon="-1.107970">
        <ele>229</ele>
        <time>2019-08-01T21:30:33Z</time>
      </trkpt>
      <trkpt lat="48.381760" lon="-1.108550">
        <ele>228</ele>
        <time>2019-08-01T21:34:23Z</time>
      </trkpt>
      <trkpt lat="48.381630" lon="-1.109110">
        <ele>227</ele>
        <time>2019-08-01T21:34:57Z</time>
      </trkpt>
      <trkpt lat="48.381410" lon="-1.109870">
        <ele>225</ele>
        <time>2019-08-01T21:35:24Z</time>
      </trkpt>
      <trkpt lat="48.377660" lon="-1.122690">
        <ele>178</ele>
        <time>2019-08-01T21:35:27Z</time>
      </trkpt>
      <trkpt lat="48.372420" lon="-1.140390">
        <ele>168</ele>
        <time>2019-08-01T21:35:29Z</time>
      </trkpt>
      <trkpt lat="48.371650" lon="-1.143040">
        <ele>172</ele>
        <time>2019-08-01T21:35:33Z</time>
      </trkpt>
      <trkpt lat="48.371020" lon="-1.145140">
        <ele>176</ele>
        <time>2019-08-01T21:35:42Z</time>
      </trkpt>
      <trkpt lat="48.370930" lon="-1.145320">
        <ele>176</ele>
        <time>2019-08-01T21:36:20Z</time>
      </trkpt>
      <trkpt lat="48.370870" lon="-1.145490">
        <ele>176</ele>
        <time>2019-08-01T21:38:00Z</time>
      </trkpt>
      <trkpt lat="48.370860" lon="-1.145830">
        <ele>176</ele>
        <time>2019-08-01T21:38:09Z</time>
      </trkpt>
      <trkpt lat="48.370770" lon="-1.146620">
        <ele>176</ele>
        <time>2019-08-01T21:38:18Z</time>
      </trkpt>
      <trkpt lat="48.370730" lon="-1.149780">
        <ele>179</ele>
        <time>2019-08-01T21:40:25Z</time>
      </trkpt>
      <trkpt lat="48.370550" lon="-1.158260">
        <ele>184</ele>
        <time>2019-08-01T21:40:30Z</time>
      </trkpt>
      <trkpt lat="48.370530" lon="-1.159040">
        <ele>184</ele>
        <time>2019-08-01T21:40:33Z</time>
      </trkpt>
      <trkpt lat="48.370480" lon="-1.159810">
        <ele>183</ele>
        <time>2019-08-01T21:40:33Z</time>
      </trkpt>
      <trkpt lat="48.368830" lon="-1.170270">
        <ele>169</ele>
        <time>2019-08-01T21:40:34Z</time>
      </trkpt>
      <trkpt lat="48.368730" lon="-1.170610">
        <ele>167</ele>
        <time>2019-08-01T21:40:38Z</time>
      </trkpt>
      <trkpt lat="48.368640" lon="-1.170790">
        <ele>165</ele>
        <time>2019-08-01T21:40:39Z</time>
      </trkpt>
      <trkpt lat="48.368640" lon="-1.170790">
        <ele>165</ele>
        <time>2019-08-01T21:40:40Z</time>
      </trkpt>
      <trkpt lat="48.368580" lon="-1.170900">
        <ele>165</ele>
        <time>2019-08-01T21:40:41Z</time>
      </trkpt>
      <trkpt lat="48.368440" lon="-1.171090">
        <ele>163</ele>
        <time>2019-08-01T21:40:42Z</time>
      </trkpt>
      <trkpt lat="48.368480" lon="-1.171160">
        <ele>163</ele>
        <time>2019-08-01T21:40:43Z</time>
      </trkpt>
      <trkpt lat="48.368490" lon="-1.171240">
        <ele>163</ele>
        <time>2019-08-01T21:40:44Z</time>
      </trkpt>
      <trkpt lat="48.368490" lon="-1.171330">
        <ele>163</ele>
        <time>2019-08-01T21:40:45Z</time>
      </trkpt>
      <trkpt lat="48.368470" lon="-1.171420">
        <ele>163</ele>
        <time>2019-08-01T21:40:46Z</time>
      </trkpt>
      <trkpt lat="48.368430" lon="-1.171480">
        <ele>162</ele>
        <time>2019-08-01T21:40:47Z</time>
      </trkpt>
      <trkpt lat="48.368380" lon="-1.171530">
        <ele>162</ele>
        <time>2019-08-01T21:40:48Z</time>
      </trkpt>
      <trkpt lat="48.368320" lon="-1.171540">
        <ele>161</ele>
        <time>2019-08-01T21:40:49Z</time>
      </trkpt>
      <trkpt lat="48.368260" lon="-1.171530">
        <ele>161</ele>
        <time>2019-08-01T21:40:50Z</time>
      </trkpt>
      <trkpt lat="48.368210" lon="-1.171490">
        <ele>161</ele>
        <time>2019-08-01T21:40:55Z</time>
      </trkpt>
      <trkpt lat="48.368170" lon="-1.171420">
        <ele>161</ele>
        <time>2019-08-01T21:41:00Z</time>
      </trkpt>
      <trkpt lat="48.368150" lon="-1.171330">
        <ele>161</ele>
        <time>2019-08-01T21:41:07Z</time>
      </trkpt>
      <trkpt lat="48.368140" lon="-1.171230">
        <ele>161</ele>
        <time>2019-08-01T21:41:15Z</time>
      </trkpt>
      <trkpt lat="48.367910" lon="-1.171070">
        <ele>161</ele>
        <time>2019-08-01T21:41:46Z</time>
      </trkpt>
      <trkpt lat="48.367640" lon="-1.170970">
        <ele>160</ele>
        <time>2019-08-01T21:42:32Z</time>
      </trkpt>
      <trkpt lat="48.367260" lon="-1.170900">
        <ele>158</ele>
        <time>2019-08-01T21:42:32Z</time>
      </trkpt>
      <trkpt lat="48.366770" lon="-1.170980">
        <ele>155</ele>
        <time>2019-08-01T21:43:20Z</time>
      </trkpt>
      <trkpt lat="48.365110" lon="-1.171760">
        <ele>149</ele>
        <time>2019-08-01T21:43:34Z</time>
      </trkpt>
      <trkpt lat="48.362670" lon="-1.172990">
        <ele>139</ele>
        <time>2019-08-01T21:43:46Z</time>
      </trkpt>
      <trkpt lat="48.362670" lon="-1.172990">
        <ele>139</ele>
        <time>2019-08-01T21:44:11Z</time>
      </trkpt>
      <trkpt lat="48.360130" lon="-1.174250">
        <ele>122</ele>
        <time>2019-08-01T21:44:21Z</time>
      </trkpt>
      <trkpt lat="48.359350" lon="-1.174620">
        <ele>121</ele>
        <time>2019-08-01T21:44:30Z</time>
      </trkpt>
      <trkpt lat="48.358740" lon="-1.174940">
        <ele>124</ele>
        <time>2019-08-01T21:44:37Z</time>
      </trkpt>
      <trkpt lat="48.357390" lon="-1.175580">
        <ele>126</ele>
        <time>2019-08-01T21:44:41Z</time>
      </trkpt>
      <trkpt lat="48.356860" lon="-1.175690">
        <ele>123</ele>
        <time>2019-08-01T21:44:41Z</time>
      </trkpt>
      <trkpt lat="48.356310" lon="-1.175670">
        <ele>119</ele>
        <time>2019-08-01T21:44:44Z</time>
      </trkpt>
      <trkpt lat="48.355930" lon="-1.175560">
        <ele>115</ele>
        <time>2019-08-01T21:45:32Z</time>
      </trkpt>
      <trkpt lat="48.355750" lon="-1.175480">
        <ele>114</ele>
        <time>2019-08-01T21:45:33Z</time>
      </trkpt>
      <trkpt lat="48.355750" lon="-1.175480">
        <ele>114</ele>
        <time>2019-08-01T21:45:35Z</time>
      </trkpt>
      <trkpt lat="48.355590" lon="-1.175410">
        <ele>112</ele>
        <time>2019-08-01T21:45:36Z</time>
      </trkpt>
      <trkpt lat="48.353040" lon="-1.173910">
        <ele>102</ele>
        <time>2019-08-01T21:45:37Z</time>
      </trkpt>
      <trkpt lat="48.353010" lon="-1.173990">
        <ele>102</ele>
        <time>2019-08-01T21:45:38Z</time>
      </trkpt>
      <trkpt lat="48.352960" lon="-1.174060">
        <ele>102</ele>
        <time>2019-08-01T21:45:39Z</time>
      </trkpt>
      <trkpt lat="48.352890" lon="-1.174100">
        <ele>102</ele>
        <time>2019-08-01T21:45:41Z</time>
      </trkpt>
      <trkpt lat="48.352830" lon="-1.174110">
        <ele>102</ele>
        <time>2019-08-01T21:45:42Z</time>
      </trkpt>
      <trkpt lat="48.352760" lon="-1.174090">
        <ele>102</ele>
        <time>2019-08-01T21:45:43Z</time>
      </trkpt>
      <trkpt lat="48.352700" lon="-1.174040">
        <ele>102</ele>
        <time>2019-08-01T21:45:44Z</time>
      </trkpt>
      <trkpt lat="48.352650" lon="-1.173950">
        <ele>102</ele>
        <time>2019-08-01T21:45:47Z</time>
      </trkpt>
      <trkpt lat="48.352620" lon="-1.173860">
        <ele>102</ele>
        <time>2019-08-01T21:45:59Z</time>
      </trkpt>
      <trkpt lat="48.352620" lon="-1.173760">
        <ele>102</ele>
        <time>2019-08-01T21:46:35Z</time>
      </trkpt>
      <trkpt lat="48.352630" lon="-1.173660">
        <ele>102</ele>
        <time>2019-08-01T21:46:51Z</time>
      </trkpt>
      <trkpt lat="48.352500" lon="-1.173550">
        <ele>101</ele>
        <time>2019-08-01T21:47:12Z</time>
      </trkpt>
      <trkpt lat="48.351890" lon="-1.173180">
        <ele>101</ele>
        <time>2019-08-01T21:47:26Z</time>
      </trkpt>
      <trkpt lat="48.349970" lon="-1.172200">
        <ele>100</ele>
        <time>2019-08-01T21:48:13Z</time>
      </trkpt>
      <trkpt lat="48.349100" lon="-1.171780">
        <ele>101</ele>
        <time>2019-08-01T21:48:22Z</time>
      </trkpt>
      <trkpt lat="48.347940" lon="-1.171290">
        <ele>99</ele>
        <time>2019-08-01T21:48:30Z</time>
      </trkpt>
      <trkpt lat="48.347180" lon="-1.171050">
        <ele>97</ele>
        <time>2019-08-01T21:48:39Z</time>
      </trkpt>
      <trkpt lat="48.344570" lon="-1.170520">
        <ele>100</ele>
        <time>2019-08-01T21:48:40Z</time>
      </trkpt>
      <trkpt lat="48.344080" lon="-1.170480">
        <ele>101</ele>
        <time>2019-08-01T21:48:40Z</time>
      </trkpt>
      <trkpt lat="48.343640" lon="-1.170480">
        <ele>101</ele>
        <time>2019-08-01T21:48:41Z</time>
      </trkpt>
      <trkpt lat="48.343130" lon="-1.170620">
        <ele>101</ele>
        <time>2019-08-01T21:48:46Z</time>
      </trkpt>
      <trkpt lat="48.343140" lon="-1.170690">
        <ele>101</ele>
        <time>2019-08-01T21:48:47Z</time>
      </trkpt>
      <trkpt lat="48.343120" lon="-1.170730">
        <ele>101</ele>
        <time>2019-08-01T21:48:53Z</time>
      </trkpt>
      <trkpt lat="48.343070" lon="-1.170760">
        <ele>101</ele>
        <time>2019-08-01T21:48:58Z</time>
      </trkpt>
      <trkpt lat="48.342900" lon="-1.171020">
        <ele>102</ele>
        <time>2019-08-01T21:49:20Z</time>
      </trkpt>
      <trkpt lat="48.342880" lon="-1.171100">
        <ele>102</ele>
        <time>2019-08-01T21:49:45Z</time>
      </trkpt>
      <trkpt lat="48.342950" lon="-1.171660">
        <ele>104</ele>
        <time>2019-08-01T21:49:45Z</time>
      </trkpt>
      <trkpt lat="48.342930" lon="-1.172060">
        <ele>104</ele>
        <time>2019-08-01T21:49:50Z</time>
      </trkpt>
      <trkpt lat="48.343360" lon="-1.173760">
        <ele>107</ele>
        <time>2019-08-01T21:49:51Z</time>
      </trkpt>
      <trkpt lat="48.343700" lon="-1.175860">
        <ele>106</ele>
        <time>2019-08-01T21:49:52Z</time>
      </trkpt>
      <trkpt lat="48.343700" lon="-1.175860">
        <ele>106</ele>
        <time>2019-08-01T21:49:53Z</time>
      </trkpt>
      <trkpt lat="48.343760" lon="-1.176240">
        <ele>105</ele>
        <time>2019-08-01T21:49:56Z</time>
      </trkpt>
      <trkpt lat="48.343830" lon="-1.176220">
        <ele>105</ele>
        <time>2019-08-01T21:50:01Z</time>
      </trkpt>
      <trkpt lat="48.343890" lon="-1.176280">
        <ele>105</ele>
        <time>2019-08-01T21:50:19Z</time>
      </trkpt>
      <trkpt lat="48.343910" lon="-1.176330">
        <ele>105</ele>
        <time>2019-08-01T21:50:37Z</time>
      </trkpt>
      <trkpt lat="48.343900" lon="-1.176550">
        <ele>104</ele>
        <time>2019-08-01T21:51:08Z</time>
      </trkpt>
      <trkpt lat="48.343970" lon="-1.177020">
        <ele>103</ele>
        <time>2019-08-01T21:51:14Z</time>
      </trkpt>
      <trkpt lat="48.344350" lon="-1.178360">
        <ele>98</ele>
        <time>2019-08-01T21:51:15Z</time>
      </trkpt>
      <trkpt lat="48.344800" lon="-1.179780">
        <ele>96</ele>
        <time>2019-08-01T21:51:16Z</time>
      </trkpt>
      <trkpt lat="48.345620" lon="-1.182080">
        <ele>89</ele>
        <time>2019-08-01T21:51:17Z</time>
      </trkpt>
      <trkpt lat="48.345810" lon="-1.182460">
        <ele>88</ele>
        <time>2019-08-01T21:51:18Z</time>
      </trkpt>
      <trkpt lat="48.345870" lon="-1.182540">
        <ele>88</ele>
        <time>2019-08-01T21:51:19Z</time>
      </trkpt>
      <trkpt lat="48.345940" lon="-1.182530">
        <ele>88</ele>
        <time>2019-08-01T21:51:21Z</time>
      </trkpt>
      <trkpt lat="48.345980" lon="-1.182550">
        <ele>87</ele>
        <time>2019-08-01T21:51:23Z</time>
      </trkpt>
      <trkpt lat="48.346020" lon="-1.182620">
        <ele>87</ele>
        <time>2019-08-01T21:51:25Z</time>
      </trkpt>
      <trkpt lat="48.346030" lon="-1.182710">
        <ele>87</ele>
        <time>2019-08-01T21:51:47Z</time>
      </trkpt>
      <trkpt lat="48.345990" lon="-1.182820">
        <ele>87</ele>
        <time>2019-08-01T21:51:56Z</time>
      </trkpt>
      <trkpt lat="48.345980" lon="-1.182980">
        <ele>87</ele>
        <time>2019-08-01T21:51:59Z</time>
      </trkpt>
      <trkpt lat="48.346010" lon="-1.183150">
        <ele>86</ele>
        <time>2019-08-01T21:52:02Z</time>
      </trkpt>
      <trkpt lat="48.346610" lon="-1.184800">
        <ele>82</ele>
        <time>2019-08-01T21:52:06Z</time>
      </trkpt>
      <trkpt lat="48.346830" lon="-1.185480">
        <ele>86</ele>
        <time>2019-08-01T21:52:10Z</time>
      </trkpt>
      <trkpt lat="48.346880" lon="-1.185720">
        <ele>88</ele>
        <time>2019-08-01T21:52:19Z</time>
      </trkpt>
      <trkpt lat="48.346920" lon="-1.185990">
        <ele>89</ele>
        <time>2019-08-01T21:52:21Z</time>
      </trkpt>
      <trkpt lat="48.346940" lon="-1.186320">
        <ele>91</ele>
        <time>2019-08-01T21:52:21Z</time>
      </trkpt>
      <trkpt lat="48.346950" lon="-1.186660">
        <ele>92</ele>
        <time>2019-08-01T21:52:22Z</time>
      </trkpt>
      <trkpt lat="48.346930" lon="-1.187370">
        <ele>92</ele>
        <time>2019-08-01T21:52:23Z</time>
      </trkpt>
      <trkpt lat="48.346960" lon="-1.187530">
        <ele>92</ele>
        <time>2019-08-01T21:52:23Z</time>
      </trkpt>
      <trkpt lat="48.346960" lon="-1.187580">
        <ele>92</ele>
        <time>2019-08-01T21:52:25Z</time>
      </trkpt>
      <trkpt lat="48.346920" lon="-1.187660">
        <ele>92</ele>
        <time>2019-08-01T21:52:25Z</time>
      </trkpt>
      <trkpt lat="48.346890" lon="-1.187680">
        <ele>92</ele>
        <time>2019-08-01T21:52:27Z</time>
      </trkpt>
      <trkpt lat="48.346860" lon="-1.187690">
        <ele>92</ele>
        <time>2019-08-01T21:52:54Z</time>
      </trkpt>
      <trkpt lat="48.346790" lon="-1.187650">
        <ele>92</ele>
        <time>2019-08-01T21:52:59Z</time>
      </trkpt>
      <trkpt lat="48.346770" lon="-1.187610">
        <ele>92</ele>
        <time>2019-08-01T21:53:03Z</time>
      </trkpt>
      <trkpt lat="48.346690" lon="-1.187670">
        <ele>91</ele>
        <time>2019-08-01T21:53:04Z</time>
      </trkpt>
      <trkpt lat="48.345700" lon="-1.189380">
        <ele>90</ele>
        <time>2019-08-01T21:53:05Z</time>
      </trkpt>
      <trkpt lat="48.345520" lon="-1.189760">
        <ele>91</ele>
        <time>2019-08-01T21:53:08Z</time>
      </trkpt>
      <trkpt lat="48.345390" lon="-1.189950">
        <ele>90</ele>
        <time>2019-08-01T21:53:09Z</time>
      </trkpt>
      <trkpt lat="48.345340" lon="-1.190070">
        <ele>90</ele>
        <time>2019-08-01T21:53:10Z</time>
      </trkpt>
      <trkpt lat="48.345330" lon="-1.190150">
        <ele>90</ele>
        <time>2019-08-01T21:53:11Z</time>
      </trkpt>
      <trkpt lat="48.345330" lon="-1.190350">
        <ele>91</ele>
        <time>2019-08-01T21:53:17Z</time>
      </trkpt>
      <trkpt lat="48.345370" lon="-1.190460">
        <ele>92</ele>
        <time>2019-08-01T21:53:18Z</time>
      </trkpt>
      <trkpt lat="48.345400" lon="-1.190500">
        <ele>92</ele>
        <time>2019-08-01T21:53:20Z</time>
      </trkpt>
      <trkpt lat="48.345330" lon="-1.190570">
        <ele>92</ele>
        <time>2019-08-01T21:53:23Z</time>
      </trkpt>
      <trkpt lat="48.345030" lon="-1.190680">
        <ele>91</ele>
        <time>2019-08-01T21:53:32Z</time>
      </trkpt>
      <trkpt lat="48.344960" lon="-1.190740">
        <ele>91</ele>
        <time>2019-08-01T21:53:32Z</time>
      </trkpt>
      <trkpt lat="48.344880" lon="-1.190850">
        <ele>91</ele>
        <time>2019-08-01T21:53:44Z</time>
      </trkpt>
      <trkpt lat="48.344880" lon="-1.191070">
        <ele>92</ele>
        <time>2019-08-01T21:54:01Z</time>
      </trkpt>
      <trkpt lat="48.344980" lon="-1.191850">
        <ele>94</ele>
        <time>2019-08-01T21:54:54Z</time>
      </trkpt>
      <trkpt lat="48.344980" lon="-1.191850">
        <ele>94</ele>
        <time>2019-08-01T21:54:54Z</time>
      </trkpt>
      <trkpt lat="48.345100" lon="-1.192860">
        <ele>95</ele>
        <time>2019-08-01T21:55:05Z</time>
      </trkpt>
      <trkpt lat="48.345330" lon="-1.194210">
        <ele>92</ele>
        <time>2019-08-01T21:55:27Z</time>
      </trkpt>
      <trkpt lat="48.346010" lon="-1.198610">
        <ele>97</ele>
        <time>2019-08-01T21:55:27Z</time>
      </trkpt>
      <trkpt lat="48.346010" lon="-1.198610">
        <ele>97</ele>
      </trkpt>
      <trkpt lat="48.346150" lon="-1.199510">
        <ele>98</ele>
      </trkpt>
      <trkpt lat="48.347330" lon="-1.199090">
        <ele>101</ele>
      </trkpt>
      <trkpt lat="48.347370" lon="-1.199050">
        <ele>101</ele>
      </trkpt>
      <trkpt lat="48.332583" lon="-1.824070">
        <ele>0</ele>
        <time>2019-08-01T17:57:58Z</time>
      </trkpt>
      <trkpt lat="48.345868" lon="-1.196308">
        <ele>0</ele>
        <time>2019-08-01T17:57:59Z</time>
      </trkpt>
      <trkpt lat="48.347390" lon="-1.199030">
        <ele>101</ele>
        <time>2019-08-01T17:58:21Z</time>
      </trkpt>
      <trkpt lat="48.347330" lon="-1.199090">
        <ele>101</ele>
        <time>2019-08-01T17:58:56Z</time>
      </trkpt>
      <trkpt lat="48.346150" lon="-1.199510">
        <ele>98</ele>
        <time>2019-08-01T17:59:04Z</time>
      </trkpt>
      <trkpt lat="48.346590" lon="-1.202450">
        <ele>106</ele>
        <time>2019-08-01T17:59:43Z</time>
      </trkpt>
      <trkpt lat="48.347030" lon="-1.202440">
        <ele>107</ele>
        <time>2019-08-01T17:59:43Z</time>
      </trkpt>
      <trkpt lat="48.349170" lon="-1.202140">
        <ele>113</ele>
        <time>2019-08-01T17:59:50Z</time>
      </trkpt>
      <trkpt lat="48.349170" lon="-1.202140">
        <ele>113</ele>
        <time>2019-08-01T17:59:58Z</time>
      </trkpt>
      <trkpt lat="48.349610" lon="-1.202180">
        <ele>114</ele>
        <time>2019-08-01T18:00:21Z</time>
      </trkpt>
      <trkpt lat="48.349980" lon="-1.201830">
        <ele>114</ele>
        <time>2019-08-01T18:00:33Z</time>
      </trkpt>
      <trkpt lat="48.351130" lon="-1.200960">
        <ele>116</ele>
        <time>2019-08-01T18:00:34Z</time>
      </trkpt>
      <trkpt lat="48.351730" lon="-1.200540">
        <ele>116</ele>
        <time>2019-08-01T18:00:35Z</time>
      </trkpt>
      <trkpt lat="48.351720" lon="-1.200430">
        <ele>116</ele>
        <time>2019-08-01T18:00:36Z</time>
      </trkpt>
      <trkpt lat="48.351740" lon="-1.200380">
        <ele>116</ele>
        <time>2019-08-01T18:00:37Z</time>
      </trkpt>
      <trkpt lat="48.351790" lon="-1.200350">
        <ele>116</ele>
        <time>2019-08-01T18:00:41Z</time>
      </trkpt>
      <trkpt lat="48.351850" lon="-1.200390">
        <ele>116</ele>
        <time>2019-08-01T18:00:41Z</time>
      </trkpt>
      <trkpt lat="48.352030" lon="-1.200170">
        <ele>117</ele>
        <time>2019-08-01T18:00:52Z</time>
      </trkpt>
      <trkpt lat="48.352030" lon="-1.200170">
        <ele>117</ele>
        <time>2019-08-01T18:00:53Z</time>
      </trkpt>
      <trkpt lat="48.352480" lon="-1.199600">
        <ele>117</ele>
        <time>2019-08-01T18:00:54Z</time>
      </trkpt>
      <trkpt lat="48.352470" lon="-1.199490">
        <ele>117</ele>
        <time>2019-08-01T18:00:55Z</time>
      </trkpt>
      <trkpt lat="48.352500" lon="-1.199420">
        <ele>117</ele>
        <time>2019-08-01T18:00:55Z</time>
      </trkpt>
      <trkpt lat="48.352550" lon="-1.199400">
        <ele>117</ele>
        <time>2019-08-01T18:01:04Z</time>
      </trkpt>
      <trkpt lat="48.352580" lon="-1.199410">
        <ele>117</ele>
        <time>2019-08-01T18:01:11Z</time>
      </trkpt>
      <trkpt lat="48.352970" lon="-1.198930">
        <ele>115</ele>
        <time>2019-08-01T18:01:12Z</time>
      </trkpt>
      <trkpt lat="48.353240" lon="-1.198570">
        <ele>114</ele>
        <time>2019-08-01T18:01:13Z</time>
      </trkpt>
      <trkpt lat="48.353260" lon="-1.198470">
        <ele>113</ele>
        <time>2019-08-01T18:01:14Z</time>
      </trkpt>
      <trkpt lat="48.353310" lon="-1.198430">
        <ele>113</ele>
        <time>2019-08-01T18:01:15Z</time>
      </trkpt>
      <trkpt lat="48.353370" lon="-1.198430">
        <ele>113</ele>
        <time>2019-08-01T18:01:16Z</time>
      </trkpt>
      <trkpt lat="48.353410" lon="-1.198490">
        <ele>114</ele>
        <time>2019-08-01T18:01:20Z</time>
      </trkpt>
      <trkpt lat="48.353420" lon="-1.198580">
        <ele>114</ele>
        <time>2019-08-01T18:01:22Z</time>
      </trkpt>
      <trkpt lat="48.353570" lon="-1.198830">
        <ele>115</ele>
        <time>2019-08-01T18:01:23Z</time>
      </trkpt>
      <trkpt lat="48.353660" lon="-1.198920">
        <ele>115</ele>
        <time>2019-08-01T18:01:24Z</time>
      </trkpt>
      <trkpt lat="48.353710" lon="-1.198880">
        <ele>115</ele>
        <time>2019-08-01T18:01:25Z</time>
      </trkpt>
      <trkpt lat="48.353760" lon="-1.198890">
        <ele>115</ele>
        <time>2019-08-01T18:01:26Z</time>
      </trkpt>
      <trkpt lat="48.353790" lon="-1.198930">
        <ele>115</ele>
        <time>2019-08-01T18:01:27Z</time>
      </trkpt>
      <trkpt lat="48.353810" lon="-1.199030">
        <ele>116</ele>
        <time>2019-08-01T18:01:38Z</time>
      </trkpt>
      <trkpt lat="48.353770" lon="-1.199130">
        <ele>116</ele>
        <time>2019-08-01T18:01:42Z</time>
      </trkpt>
      <trkpt lat="48.354180" lon="-1.199850">
        <ele>123</ele>
        <time>2019-08-01T18:01:51Z</time>
      </trkpt>
      <trkpt lat="48.354210" lon="-1.200170">
        <ele>126</ele>
        <time>2019-08-01T18:01:53Z</time>
      </trkpt>
      <trkpt lat="48.354520" lon="-1.200730">
        <ele>129</ele>
        <time>2019-08-01T18:01:56Z</time>
      </trkpt>
      <trkpt lat="48.354620" lon="-1.200840">
        <ele>129</ele>
        <time>2019-08-01T18:01:58Z</time>
      </trkpt>
      <trkpt lat="48.354710" lon="-1.201000">
        <ele>129</ele>
        <time>2019-08-01T18:01:59Z</time>
      </trkpt>
      <trkpt lat="48.354780" lon="-1.201220">
        <ele>130</ele>
        <time>2019-08-01T18:02:00Z</time>
      </trkpt>
      <trkpt lat="48.354810" lon="-1.201220">
        <ele>130</ele>
        <time>2019-08-01T18:02:01Z</time>
      </trkpt>
      <trkpt lat="48.354860" lon="-1.201260">
        <ele>130</ele>
        <time>2019-08-01T18:02:01Z</time>
      </trkpt>
      <trkpt lat="48.354870" lon="-1.201330">
        <ele>130</ele>
        <time>2019-08-01T18:02:04Z</time>
      </trkpt>
      <trkpt lat="48.354870" lon="-1.201370">
        <ele>130</ele>
        <time>2019-08-01T18:02:05Z</time>
      </trkpt>
      <trkpt lat="48.355030" lon="-1.201480">
        <ele>129</ele>
        <time>2019-08-01T18:02:06Z</time>
      </trkpt>
      <trkpt lat="48.355050" lon="-1.201450">
        <ele>129</ele>
        <time>2019-08-01T18:02:07Z</time>
      </trkpt>
      <trkpt lat="48.355100" lon="-1.201430">
        <ele>129</ele>
        <time>2019-08-01T18:02:08Z</time>
      </trkpt>
      <trkpt lat="48.355150" lon="-1.201460">
        <ele>128</ele>
        <time>2019-08-01T18:02:09Z</time>
      </trkpt>
      <trkpt lat="48.355170" lon="-1.201570">
        <ele>128</ele>
        <time>2019-08-01T18:02:10Z</time>
      </trkpt>
      <trkpt lat="48.355140" lon="-1.201640">
        <ele>128</ele>
        <time>2019-08-01T18:02:11Z</time>
      </trkpt>
      <trkpt lat="48.355120" lon="-1.201660">
        <ele>128</ele>
        <time>2019-08-01T18:02:23Z</time>
      </trkpt>
      <trkpt lat="48.355170" lon="-1.201790">
        <ele>127</ele>
        <time>2019-08-01T18:02:23Z</time>
      </trkpt>
      <trkpt lat="48.355570" lon="-1.202520">
        <ele>119</ele>
        <time>2019-08-01T18:02:41Z</time>
      </trkpt>
      <trkpt lat="48.355570" lon="-1.202520">
        <ele>119</ele>
        <time>2019-08-01T18:02:47Z</time>
      </trkpt>
      <trkpt lat="48.356250" lon="-1.203690">
        <ele>108</ele>
        <time>2019-08-01T18:02:48Z</time>
      </trkpt>
      <trkpt lat="48.356450" lon="-1.204090">
        <ele>110</ele>
        <time>2019-08-01T18:02:49Z</time>
      </trkpt>
      <trkpt lat="48.356510" lon="-1.204080">
        <ele>110</ele>
        <time>2019-08-01T18:02:51Z</time>
      </trkpt>
      <trkpt lat="48.356570" lon="-1.204100">
        <ele>111</ele>
        <time>2019-08-01T18:02:52Z</time>
      </trkpt>
      <trkpt lat="48.356650" lon="-1.204210">
        <ele>112</ele>
        <time>2019-08-01T18:02:54Z</time>
      </trkpt>
      <trkpt lat="48.356670" lon="-1.204320">
        <ele>113</ele>
        <time>2019-08-01T18:02:56Z</time>
      </trkpt>
      <trkpt lat="48.356670" lon="-1.204430">
        <ele>114</ele>
        <time>2019-08-01T18:02:57Z</time>
      </trkpt>
      <trkpt lat="48.356600" lon="-1.204560">
        <ele>113</ele>
        <time>2019-08-01T18:03:20Z</time>
      </trkpt>
      <trkpt lat="48.356570" lon="-1.204690">
        <ele>114</ele>
        <time>2019-08-01T18:03:26Z</time>
      </trkpt>
      <trkpt lat="48.356240" lon="-1.206570">
        <ele>115</ele>
        <time>2019-08-01T18:03:29Z</time>
      </trkpt>
      <trkpt lat="48.356100" lon="-1.207050">
        <ele>114</ele>
        <time>2019-08-01T18:03:39Z</time>
      </trkpt>
      <trkpt lat="48.355990" lon="-1.207250">
        <ele>112</ele>
        <time>2019-08-01T18:03:39Z</time>
      </trkpt>
      <trkpt lat="48.355600" lon="-1.207850">
        <ele>109</ele>
        <time>2019-08-01T18:03:54Z</time>
      </trkpt>
      <trkpt lat="48.355600" lon="-1.207850">
        <ele>109</ele>
        <time>2019-08-01T18:03:56Z</time>
      </trkpt>
      <trkpt lat="48.355020" lon="-1.208750">
        <ele>103</ele>
        <time>2019-08-01T18:04:18Z</time>
      </trkpt>
      <trkpt lat="48.354980" lon="-1.208870">
        <ele>103</ele>
        <time>2019-08-01T18:04:22Z</time>
      </trkpt>
      <trkpt lat="48.354590" lon="-1.210670">
        <ele>99</ele>
        <time>2019-08-01T18:04:22Z</time>
      </trkpt>
      <trkpt lat="48.354550" lon="-1.210960">
        <ele>98</ele>
        <time>2019-08-01T18:04:23Z</time>
      </trkpt>
      <trkpt lat="48.354570" lon="-1.210980">
        <ele>98</ele>
        <time>2019-08-01T18:04:24Z</time>
      </trkpt>
      <trkpt lat="48.354590" lon="-1.211060">
        <ele>98</ele>
        <time>2019-08-01T18:04:25Z</time>
      </trkpt>
      <trkpt lat="48.354570" lon="-1.211120">
        <ele>98</ele>
        <time>2019-08-01T18:04:27Z</time>
      </trkpt>
      <trkpt lat="48.354510" lon="-1.211140">
        <ele>98</ele>
        <time>2019-08-01T18:05:16Z</time>
      </trkpt>
      <trkpt lat="48.354470" lon="-1.211290">
        <ele>98</ele>
        <time>2019-08-01T18:05:19Z</time>
      </trkpt>
      <trkpt lat="48.353630" lon="-1.215270">
        <ele>120</ele>
        <time>2019-08-01T18:05:32Z</time>
      </trkpt>
      <trkpt lat="48.353550" lon="-1.215430">
        <ele>120</ele>
        <time>2019-08-01T18:05:35Z</time>
      </trkpt>
      <trkpt lat="48.353340" lon="-1.216480">
        <ele>123</ele>
        <time>2019-08-01T18:05:37Z</time>
      </trkpt>
      <trkpt lat="48.353190" lon="-1.216610">
        <ele>124</ele>
        <time>2019-08-01T18:05:38Z</time>
      </trkpt>
      <trkpt lat="48.353140" lon="-1.216760">
        <ele>126</ele>
        <time>2019-08-01T18:05:40Z</time>
      </trkpt>
      <trkpt lat="48.353150" lon="-1.216880">
        <ele>127</ele>
        <time>2019-08-01T18:05:43Z</time>
      </trkpt>
      <trkpt lat="48.353210" lon="-1.217010">
        <ele>127</ele>
        <time>2019-08-01T18:05:44Z</time>
      </trkpt>
      <trkpt lat="48.353180" lon="-1.217250">
        <ele>129</ele>
        <time>2019-08-01T18:05:46Z</time>
      </trkpt>
      <trkpt lat="48.353210" lon="-1.217290">
        <ele>130</ele>
        <time>2019-08-01T18:05:55Z</time>
      </trkpt>
      <trkpt lat="48.353180" lon="-1.217520">
        <ele>131</ele>
        <time>2019-08-01T18:06:20Z</time>
      </trkpt>
      <trkpt lat="48.353140" lon="-1.218240">
        <ele>135</ele>
        <time>2019-08-01T18:06:27Z</time>
      </trkpt>
      <trkpt lat="48.353170" lon="-1.220360">
        <ele>138</ele>
        <time>2019-08-01T18:06:36Z</time>
      </trkpt>
      <trkpt lat="48.353200" lon="-1.220950">
        <ele>139</ele>
        <time>2019-08-01T18:07:13Z</time>
      </trkpt>
      <trkpt lat="48.353120" lon="-1.221660">
        <ele>139</ele>
        <time>2019-08-01T18:07:25Z</time>
      </trkpt>
      <trkpt lat="48.352570" lon="-1.224700">
        <ele>136</ele>
        <time>2019-08-01T18:07:26Z</time>
      </trkpt>
      <trkpt lat="48.352420" lon="-1.225680">
        <ele>134</ele>
        <time>2019-08-01T18:07:27Z</time>
      </trkpt>
      <trkpt lat="48.352460" lon="-1.225780">
        <ele>134</ele>
        <time>2019-08-01T18:07:28Z</time>
      </trkpt>
      <trkpt lat="48.352470" lon="-1.225890">
        <ele>134</ele>
        <time>2019-08-01T18:07:30Z</time>
      </trkpt>
      <trkpt lat="48.352460" lon="-1.225960">
        <ele>134</ele>
        <time>2019-08-01T18:07:31Z</time>
      </trkpt>
      <trkpt lat="48.352390" lon="-1.226090">
        <ele>134</ele>
        <time>2019-08-01T18:07:38Z</time>
      </trkpt>
      <trkpt lat="48.352330" lon="-1.226130">
        <ele>134</ele>
        <time>2019-08-01T18:07:56Z</time>
      </trkpt>
      <trkpt lat="48.352240" lon="-1.226710">
        <ele>134</ele>
        <time>2019-08-01T18:08:04Z</time>
      </trkpt>
      <trkpt lat="48.351970" lon="-1.228160">
        <ele>139</ele>
        <time>2019-08-01T18:08:08Z</time>
      </trkpt>
      <trkpt lat="48.351870" lon="-1.228830">
        <ele>140</ele>
        <time>2019-08-01T18:08:10Z</time>
      </trkpt>
      <trkpt lat="48.351860" lon="-1.229110">
        <ele>141</ele>
        <time>2019-08-01T18:08:11Z</time>
      </trkpt>
      <trkpt lat="48.351880" lon="-1.229290">
        <ele>141</ele>
        <time>2019-08-01T18:08:13Z</time>
      </trkpt>
      <trkpt lat="48.351940" lon="-1.229360">
        <ele>141</ele>
        <time>2019-08-01T18:08:15Z</time>
      </trkpt>
      <trkpt lat="48.352000" lon="-1.229480">
        <ele>141</ele>
        <time>2019-08-01T18:08:16Z</time>
      </trkpt>
      <trkpt lat="48.352030" lon="-1.229620">
        <ele>141</ele>
        <time>2019-08-01T18:08:17Z</time>
      </trkpt>
      <trkpt lat="48.352040" lon="-1.229740">
        <ele>141</ele>
        <time>2019-08-01T18:08:19Z</time>
      </trkpt>
      <trkpt lat="48.352020" lon="-1.229850">
        <ele>141</ele>
        <time>2019-08-01T18:08:22Z</time>
      </trkpt>
      <trkpt lat="48.351980" lon="-1.229960">
        <ele>141</ele>
        <time>2019-08-01T18:08:24Z</time>
      </trkpt>
      <trkpt lat="48.351860" lon="-1.230090">
        <ele>140</ele>
        <time>2019-08-01T18:08:27Z</time>
      </trkpt>
      <trkpt lat="48.351760" lon="-1.230280">
        <ele>140</ele>
        <time>2019-08-01T18:08:47Z</time>
      </trkpt>
      <trkpt lat="48.351730" lon="-1.230460">
        <ele>140</ele>
        <time>2019-08-01T18:08:58Z</time>
      </trkpt>
      <trkpt lat="48.351580" lon="-1.232130">
        <ele>142</ele>
        <time>2019-08-01T18:09:05Z</time>
      </trkpt>
      <trkpt lat="48.351580" lon="-1.233140">
        <ele>144</ele>
        <time>2019-08-01T18:09:05Z</time>
      </trkpt>
      <trkpt lat="48.351620" lon="-1.233660">
        <ele>145</ele>
        <time>2019-08-01T18:09:08Z</time>
      </trkpt>
      <trkpt lat="48.351620" lon="-1.233660">
        <ele>145</ele>
        <time>2019-08-01T18:09:10Z</time>
      </trkpt>
      <trkpt lat="48.351640" lon="-1.233900">
        <ele>146</ele>
        <time>2019-08-01T18:09:11Z</time>
      </trkpt>
      <trkpt lat="48.351700" lon="-1.234100">
        <ele>146</ele>
        <time>2019-08-01T18:09:13Z</time>
      </trkpt>
      <trkpt lat="48.351750" lon="-1.234180">
        <ele>146</ele>
        <time>2019-08-01T18:09:15Z</time>
      </trkpt>
      <trkpt lat="48.351840" lon="-1.234230">
        <ele>145</ele>
        <time>2019-08-01T18:09:17Z</time>
      </trkpt>
      <trkpt lat="48.351920" lon="-1.234320">
        <ele>145</ele>
        <time>2019-08-01T18:09:18Z</time>
      </trkpt>
      <trkpt lat="48.351970" lon="-1.234450">
        <ele>144</ele>
        <time>2019-08-01T18:09:20Z</time>
      </trkpt>
      <trkpt lat="48.351990" lon="-1.234600">
        <ele>144</ele>
        <time>2019-08-01T18:09:21Z</time>
      </trkpt>
      <trkpt lat="48.351990" lon="-1.234720">
        <ele>144</ele>
        <time>2019-08-01T18:09:23Z</time>
      </trkpt>
      <trkpt lat="48.351960" lon="-1.234840">
        <ele>143</ele>
        <time>2019-08-01T18:09:25Z</time>
      </trkpt>
      <trkpt lat="48.351910" lon="-1.234950">
        <ele>143</ele>
        <time>2019-08-01T18:09:26Z</time>
      </trkpt>
      <trkpt lat="48.351840" lon="-1.235030">
        <ele>143</ele>
        <time>2019-08-01T18:09:27Z</time>
      </trkpt>
      <trkpt lat="48.351770" lon="-1.235080">
        <ele>143</ele>
        <time>2019-08-01T18:09:29Z</time>
      </trkpt>
      <trkpt lat="48.351700" lon="-1.235090">
        <ele>143</ele>
        <time>2019-08-01T18:09:30Z</time>
      </trkpt>
      <trkpt lat="48.351620" lon="-1.235090">
        <ele>144</ele>
        <time>2019-08-01T18:09:32Z</time>
      </trkpt>
      <trkpt lat="48.351540" lon="-1.235040">
        <ele>144</ele>
        <time>2019-08-01T18:09:33Z</time>
      </trkpt>
      <trkpt lat="48.351480" lon="-1.234970">
        <ele>145</ele>
        <time>2019-08-01T18:09:35Z</time>
      </trkpt>
      <trkpt lat="48.351420" lon="-1.234870">
        <ele>145</ele>
        <time>2019-08-01T18:09:38Z</time>
      </trkpt>
      <trkpt lat="48.351310" lon="-1.234960">
        <ele>145</ele>
        <time>2019-08-01T18:09:40Z</time>
      </trkpt>
      <trkpt lat="48.351200" lon="-1.235100">
        <ele>145</ele>
        <time>2019-08-01T18:09:43Z</time>
      </trkpt>
      <trkpt lat="48.351120" lon="-1.235250">
        <ele>145</ele>
        <time>2019-08-01T18:09:50Z</time>
      </trkpt>
      <trkpt lat="48.351040" lon="-1.235490">
        <ele>144</ele>
        <time>2019-08-01T18:10:56Z</time>
      </trkpt>
      <trkpt lat="48.350950" lon="-1.236060">
        <ele>142</ele>
        <time>2019-08-01T18:11:02Z</time>
      </trkpt>
      <trkpt lat="48.350280" lon="-1.241510">
        <ele>137</ele>
        <time>2019-08-01T18:11:08Z</time>
      </trkpt>
      <trkpt lat="48.350250" lon="-1.242030">
        <ele>139</ele>
        <time>2019-08-01T18:11:21Z</time>
      </trkpt>
      <trkpt lat="48.350250" lon="-1.242580">
        <ele>142</ele>
        <time>2019-08-01T18:11:29Z</time>
      </trkpt>
      <trkpt lat="48.350280" lon="-1.243680">
        <ele>149</ele>
        <time>2019-08-01T18:11:42Z</time>
      </trkpt>
      <trkpt lat="48.350330" lon="-1.244320">
        <ele>150</ele>
        <time>2019-08-01T18:11:48Z</time>
      </trkpt>
      <trkpt lat="48.350470" lon="-1.245400">
        <ele>153</ele>
        <time>2019-08-01T18:11:52Z</time>
      </trkpt>
      <trkpt lat="48.350510" lon="-1.245860">
        <ele>153</ele>
        <time>2019-08-01T18:11:57Z</time>
      </trkpt>
      <trkpt lat="48.350510" lon="-1.246260">
        <ele>154</ele>
        <time>2019-08-01T18:11:57Z</time>
      </trkpt>
      <trkpt lat="48.350470" lon="-1.246680">
        <ele>155</ele>
        <time>2019-08-01T18:12:04Z</time>
      </trkpt>
      <trkpt lat="48.350470" lon="-1.246680">
        <ele>155</ele>
        <time>2019-08-01T18:12:14Z</time>
      </trkpt>
      <trkpt lat="48.350430" lon="-1.247210">
        <ele>156</ele>
        <time>2019-08-01T18:12:25Z</time>
      </trkpt>
      <trkpt lat="48.350440" lon="-1.248100">
        <ele>157</ele>
        <time>2019-08-01T18:12:34Z</time>
      </trkpt>
      <trkpt lat="48.350420" lon="-1.249030">
        <ele>157</ele>
        <time>2019-08-01T18:12:48Z</time>
      </trkpt>
      <trkpt lat="48.350390" lon="-1.249750">
        <ele>155</ele>
        <time>2019-08-01T18:13:20Z</time>
      </trkpt>
      <trkpt lat="48.350320" lon="-1.250930">
        <ele>155</ele>
        <time>2019-08-01T18:14:05Z</time>
      </trkpt>
      <trkpt lat="48.350190" lon="-1.253650">
        <ele>148</ele>
        <time>2019-08-01T18:14:10Z</time>
      </trkpt>
      <trkpt lat="48.350030" lon="-1.257430">
        <ele>145</ele>
        <time>2019-08-01T18:14:19Z</time>
      </trkpt>
      <trkpt lat="48.349960" lon="-1.257890">
        <ele>144</ele>
        <time>2019-08-01T18:14:39Z</time>
      </trkpt>
      <trkpt lat="48.349790" lon="-1.258570">
        <ele>143</ele>
        <time>2019-08-01T18:15:00Z</time>
      </trkpt>
      <trkpt lat="48.349330" lon="-1.260150">
        <ele>146</ele>
        <time>2019-08-01T18:17:12Z</time>
      </trkpt>
      <trkpt lat="48.348800" lon="-1.261720">
        <ele>142</ele>
        <time>2019-08-01T18:17:12Z</time>
      </trkpt>
      <trkpt lat="48.345320" lon="-1.271570">
        <ele>131</ele>
        <time>2019-08-01T18:18:14Z</time>
      </trkpt>
      <trkpt lat="48.345320" lon="-1.271570">
        <ele>131</ele>
        <time>2019-08-01T18:18:25Z</time>
      </trkpt>
      <trkpt lat="48.343040" lon="-1.275540">
        <ele>124</ele>
        <time>2019-08-01T18:18:38Z</time>
      </trkpt>
      <trkpt lat="48.342560" lon="-1.276110">
        <ele>124</ele>
        <time>2019-08-01T18:19:21Z</time>
      </trkpt>
      <trkpt lat="48.341990" lon="-1.276820">
        <ele>121</ele>
        <time>2019-08-01T18:19:23Z</time>
      </trkpt>
      <trkpt lat="48.340280" lon="-1.279400">
        <ele>115</ele>
        <time>2019-08-01T18:19:46Z</time>
      </trkpt>
      <trkpt lat="48.340330" lon="-1.279480">
        <ele>115</ele>
        <time>2019-08-01T18:20:14Z</time>
      </trkpt>
      <trkpt lat="48.340830" lon="-1.281310">
        <ele>119</ele>
        <time>2019-08-01T18:20:23Z</time>
      </trkpt>
      <trkpt lat="48.341460" lon="-1.283470">
        <ele>121</ele>
        <time>2019-08-01T18:20:23Z</time>
      </trkpt>
      <trkpt lat="48.341640" lon="-1.284150">
        <ele>122</ele>
        <time>2019-08-01T18:20:30Z</time>
      </trkpt>
      <trkpt lat="48.341640" lon="-1.284150">
        <ele>122</ele>
        <time>2019-08-01T18:20:33Z</time>
      </trkpt>
      <trkpt lat="48.341810" lon="-1.284750">
        <ele>123</ele>
        <time>2019-08-01T18:20:53Z</time>
      </trkpt>
      <trkpt lat="48.341840" lon="-1.284940">
        <ele>123</ele>
        <time>2019-08-01T18:20:59Z</time>
      </trkpt>
      <trkpt lat="48.342120" lon="-1.286610">
        <ele>121</ele>
        <time>2019-08-01T18:21:10Z</time>
      </trkpt>
      <trkpt lat="48.342170" lon="-1.287080">
        <ele>121</ele>
        <time>2019-08-01T18:21:21Z</time>
      </trkpt>
      <trkpt lat="48.342200" lon="-1.288020">
        <ele>122</ele>
        <time>2019-08-01T18:21:30Z</time>
      </trkpt>
      <trkpt lat="48.342150" lon="-1.288960">
        <ele>123</ele>
        <time>2019-08-01T18:21:36Z</time>
      </trkpt>
      <trkpt lat="48.342060" lon="-1.289700">
        <ele>123</ele>
        <time>2019-08-01T18:21:38Z</time>
      </trkpt>
      <trkpt lat="48.341990" lon="-1.290180">
        <ele>123</ele>
        <time>2019-08-01T18:21:43Z</time>
      </trkpt>
      <trkpt lat="48.341970" lon="-1.290350">
        <ele>123</ele>
        <time>2019-08-01T18:21:44Z</time>
      </trkpt>
      <trkpt lat="48.341950" lon="-1.290790">
        <ele>123</ele>
        <time>2019-08-01T18:21:48Z</time>
      </trkpt>
      <trkpt lat="48.341950" lon="-1.290920">
        <ele>123</ele>
        <time>2019-08-01T18:21:50Z</time>
      </trkpt>
      <trkpt lat="48.341990" lon="-1.291190">
        <ele>123</ele>
        <time>2019-08-01T18:21:54Z</time>
      </trkpt>
      <trkpt lat="48.342040" lon="-1.291370">
        <ele>122</ele>
        <time>2019-08-01T18:21:57Z</time>
      </trkpt>
      <trkpt lat="48.342150" lon="-1.291660">
        <ele>122</ele>
        <time>2019-08-01T18:21:59Z</time>
      </trkpt>
      <trkpt lat="48.342260" lon="-1.291840">
        <ele>122</ele>
        <time>2019-08-01T18:22:02Z</time>
      </trkpt>
      <trkpt lat="48.342370" lon="-1.291900">
        <ele>122</ele>
        <time>2019-08-01T18:22:03Z</time>
      </trkpt>
      <trkpt lat="48.342520" lon="-1.291860">
        <ele>122</ele>
        <time>2019-08-01T18:22:04Z</time>
      </trkpt>
      <trkpt lat="48.342590" lon="-1.291880">
        <ele>122</ele>
        <time>2019-08-01T18:22:06Z</time>
      </trkpt>
      <trkpt lat="48.342670" lon="-1.291940">
        <ele>122</ele>
        <time>2019-08-01T18:22:08Z</time>
      </trkpt>
      <trkpt lat="48.342740" lon="-1.292030">
        <ele>122</ele>
        <time>2019-08-01T18:22:09Z</time>
      </trkpt>
      <trkpt lat="48.342790" lon="-1.292140">
        <ele>122</ele>
        <time>2019-08-01T18:22:11Z</time>
      </trkpt>
      <trkpt lat="48.342810" lon="-1.292270">
        <ele>122</ele>
        <time>2019-08-01T18:22:12Z</time>
      </trkpt>
      <trkpt lat="48.342810" lon="-1.292400">
        <ele>122</ele>
        <time>2019-08-01T18:22:16Z</time>
      </trkpt>
      <trkpt lat="48.342790" lon="-1.292530">
        <ele>122</ele>
        <time>2019-08-01T18:22:26Z</time>
      </trkpt>
      <trkpt lat="48.342850" lon="-1.292800">
        <ele>123</ele>
        <time>2019-08-01T18:22:31Z</time>
      </trkpt>
      <trkpt lat="48.343190" lon="-1.293520">
        <ele>126</ele>
        <time>2019-08-01T18:22:34Z</time>
      </trkpt>
      <trkpt lat="48.343320" lon="-1.293900">
        <ele>127</ele>
        <time>2019-08-01T18:22:34Z</time>
      </trkpt>
      <trkpt lat="48.343370" lon="-1.294110">
        <ele>128</ele>
        <time>2019-08-01T18:22:38Z</time>
      </trkpt>
      <trkpt lat="48.343370" lon="-1.294110">
        <ele>128</ele>
        <time>2019-08-01T18:22:42Z</time>
      </trkpt>
      <trkpt lat="48.343440" lon="-1.294470">
        <ele>127</ele>
        <time>2019-08-01T18:22:46Z</time>
      </trkpt>
      <trkpt lat="48.343480" lon="-1.294820">
        <ele>127</ele>
        <time>2019-08-01T18:22:50Z</time>
      </trkpt>
      <trkpt lat="48.343500" lon="-1.295120">
        <ele>126</ele>
        <time>2019-08-01T18:23:20Z</time>
      </trkpt>
      <trkpt lat="48.343500" lon="-1.295490">
        <ele>125</ele>
        <time>2019-08-01T18:23:34Z</time>
      </trkpt>
      <trkpt lat="48.343220" lon="-1.297980">
        <ele>121</ele>
        <time>2019-08-01T18:23:38Z</time>
      </trkpt>
      <trkpt lat="48.343130" lon="-1.299160">
        <ele>122</ele>
        <time>2019-08-01T18:23:50Z</time>
      </trkpt>
      <trkpt lat="48.343130" lon="-1.299510">
        <ele>122</ele>
        <time>2019-08-01T18:23:51Z</time>
      </trkpt>
      <trkpt lat="48.343180" lon="-1.300480">
        <ele>123</ele>
        <time>2019-08-01T18:23:52Z</time>
      </trkpt>
      <trkpt lat="48.343230" lon="-1.300520">
        <ele>123</ele>
        <time>2019-08-01T18:23:53Z</time>
      </trkpt>
      <trkpt lat="48.343280" lon="-1.300570">
        <ele>123</ele>
        <time>2019-08-01T18:23:54Z</time>
      </trkpt>
      <trkpt lat="48.343300" lon="-1.300650">
        <ele>123</ele>
        <time>2019-08-01T18:23:55Z</time>
      </trkpt>
      <trkpt lat="48.343320" lon="-1.300740">
        <ele>123</ele>
        <time>2019-08-01T18:23:56Z</time>
      </trkpt>
      <trkpt lat="48.343310" lon="-1.300820">
        <ele>123</ele>
        <time>2019-08-01T18:23:57Z</time>
      </trkpt>
      <trkpt lat="48.343280" lon="-1.300900">
        <ele>123</ele>
        <time>2019-08-01T18:23:58Z</time>
      </trkpt>
      <trkpt lat="48.343240" lon="-1.300960">
        <ele>122</ele>
        <time>2019-08-01T18:24:03Z</time>
      </trkpt>
      <trkpt lat="48.343190" lon="-1.301000">
        <ele>122</ele>
        <time>2019-08-01T18:24:07Z</time>
      </trkpt>
      <trkpt lat="48.343150" lon="-1.301400">
        <ele>121</ele>
        <time>2019-08-01T18:24:19Z</time>
      </trkpt>
      <trkpt lat="48.343140" lon="-1.301780">
        <ele>121</ele>
        <time>2019-08-01T18:24:19Z</time>
      </trkpt>
      <trkpt lat="48.343130" lon="-1.302770">
        <ele>121</ele>
        <time>2019-08-01T18:24:40Z</time>
      </trkpt>
      <trkpt lat="48.343130" lon="-1.302770">
        <ele>121</ele>
        <time>2019-08-01T18:25:04Z</time>
      </trkpt>
      <trkpt lat="48.343120" lon="-1.304550">
        <ele>121</ele>
        <time>2019-08-01T18:25:07Z</time>
      </trkpt>
      <trkpt lat="48.343150" lon="-1.306580">
        <ele>120</ele>
        <time>2019-08-01T18:25:21Z</time>
      </trkpt>
      <trkpt lat="48.343140" lon="-1.306830">
        <ele>120</ele>
        <time>2019-08-01T18:25:29Z</time>
      </trkpt>
      <trkpt lat="48.343150" lon="-1.308010">
        <ele>118</ele>
        <time>2019-08-01T18:25:33Z</time>
      </trkpt>
      <trkpt lat="48.343110" lon="-1.308690">
        <ele>118</ele>
        <time>2019-08-01T18:25:48Z</time>
      </trkpt>
      <trkpt lat="48.343050" lon="-1.309020">
        <ele>118</ele>
        <time>2019-08-01T18:25:56Z</time>
      </trkpt>
      <trkpt lat="48.342770" lon="-1.310150">
        <ele>118</ele>
        <time>2019-08-01T18:26:09Z</time>
      </trkpt>
      <trkpt lat="48.342600" lon="-1.310780">
        <ele>118</ele>
        <time>2019-08-01T18:26:24Z</time>
      </trkpt>
      <trkpt lat="48.342280" lon="-1.311810">
        <ele>119</ele>
        <time>2019-08-01T18:26:31Z</time>
      </trkpt>
      <trkpt lat="48.342230" lon="-1.313100">
        <ele>117</ele>
        <time>2019-08-01T18:26:32Z</time>
      </trkpt>
      <trkpt lat="48.342140" lon="-1.313660">
        <ele>116</ele>
        <time>2019-08-01T18:26:45Z</time>
      </trkpt>
      <trkpt lat="48.342170" lon="-1.313760">
        <ele>116</ele>
        <time>2019-08-01T18:26:53Z</time>
      </trkpt>
      <trkpt lat="48.342380" lon="-1.314740">
        <ele>114</ele>
        <time>2019-08-01T18:27:19Z</time>
      </trkpt>
      <trkpt lat="48.342440" lon="-1.315410">
        <ele>112</ele>
        <time>2019-08-01T18:27:53Z</time>
      </trkpt>
      <trkpt lat="48.342590" lon="-1.317630">
        <ele>107</ele>
        <time>2019-08-01T18:27:58Z</time>
      </trkpt>
      <trkpt lat="48.343010" lon="-1.320430">
        <ele>111</ele>
        <time>2019-08-01T18:28:03Z</time>
      </trkpt>
      <trkpt lat="48.343100" lon="-1.320810">
        <ele>110</ele>
        <time>2019-08-01T18:28:06Z</time>
      </trkpt>
      <trkpt lat="48.343220" lon="-1.321210">
        <ele>110</ele>
        <time>2019-08-01T18:28:21Z</time>
      </trkpt>
      <trkpt lat="48.343320" lon="-1.321420">
        <ele>109</ele>
        <time>2019-08-01T18:28:27Z</time>
      </trkpt>
      <trkpt lat="48.343900" lon="-1.322290">
        <ele>105</ele>
        <time>2019-08-01T18:28:33Z</time>
      </trkpt>
      <trkpt lat="48.344130" lon="-1.322750">
        <ele>103</ele>
        <time>2019-08-01T18:28:39Z</time>
      </trkpt>
      <trkpt lat="48.344280" lon="-1.323190">
        <ele>103</ele>
        <time>2019-08-01T18:28:46Z</time>
      </trkpt>
      <trkpt lat="48.344380" lon="-1.323660">
        <ele>103</ele>
        <time>2019-08-01T18:29:09Z</time>
      </trkpt>
      <trkpt lat="48.344410" lon="-1.324240">
        <ele>102</ele>
        <time>2019-08-01T18:29:15Z</time>
      </trkpt>
      <trkpt lat="48.344210" lon="-1.326210">
        <ele>99</ele>
        <time>2019-08-01T18:29:34Z</time>
      </trkpt>
      <trkpt lat="48.344190" lon="-1.326650">
        <ele>98</ele>
        <time>2019-08-01T18:30:43Z</time>
      </trkpt>
      <trkpt lat="48.344250" lon="-1.328240">
        <ele>100</ele>
        <time>2019-08-01T18:31:00Z</time>
      </trkpt>
      <trkpt lat="48.344080" lon="-1.334080">
        <ele>111</ele>
        <time>2019-08-01T18:31:04Z</time>
      </trkpt>
      <trkpt lat="48.343980" lon="-1.335540">
        <ele>114</ele>
        <time>2019-08-01T18:31:10Z</time>
      </trkpt>
      <trkpt lat="48.343980" lon="-1.335870">
        <ele>114</ele>
        <time>2019-08-01T18:31:15Z</time>
      </trkpt>
      <trkpt lat="48.344040" lon="-1.336380">
        <ele>113</ele>
        <time>2019-08-01T18:31:52Z</time>
      </trkpt>
      <trkpt lat="48.344120" lon="-1.336810">
        <ele>111</ele>
        <time>2019-08-01T18:32:45Z</time>
      </trkpt>
      <trkpt lat="48.344760" lon="-1.339720">
        <ele>105</ele>
        <time>2019-08-01T18:32:50Z</time>
      </trkpt>
      <trkpt lat="48.345730" lon="-1.343990">
        <ele>107</ele>
        <time>2019-08-01T18:32:54Z</time>
      </trkpt>
      <trkpt lat="48.345850" lon="-1.344380">
        <ele>107</ele>
        <time>2019-08-01T18:33:05Z</time>
      </trkpt>
      <trkpt lat="48.345980" lon="-1.344670">
        <ele>107</ele>
        <time>2019-08-01T18:33:11Z</time>
      </trkpt>
      <trkpt lat="48.346380" lon="-1.345390">
        <ele>110</ele>
        <time>2019-08-01T18:33:20Z</time>
      </trkpt>
      <trkpt lat="48.346550" lon="-1.345850">
        <ele>111</ele>
        <time>2019-08-01T18:33:47Z</time>
      </trkpt>
      <trkpt lat="48.346700" lon="-1.346500">
        <ele>112</ele>
        <time>2019-08-01T18:33:54Z</time>
      </trkpt>
      <trkpt lat="48.347150" lon="-1.348680">
        <ele>118</ele>
        <time>2019-08-01T18:34:51Z</time>
      </trkpt>
      <trkpt lat="48.347350" lon="-1.349250">
        <ele>120</ele>
        <time>2019-08-01T18:34:59Z</time>
      </trkpt>
      <trkpt lat="48.349210" lon="-1.353150">
        <ele>122</ele>
        <time>2019-08-01T18:35:15Z</time>
      </trkpt>
      <trkpt lat="48.349460" lon="-1.353720">
        <ele>119</ele>
        <time>2019-08-01T18:35:21Z</time>
      </trkpt>
      <trkpt lat="48.349980" lon="-1.354830">
        <ele>118</ele>
        <time>2019-08-01T18:35:21Z</time>
      </trkpt>
      <trkpt lat="48.350160" lon="-1.355260">
        <ele>118</ele>
        <time>2019-08-01T18:35:25Z</time>
      </trkpt>
      <trkpt lat="48.350160" lon="-1.355260">
        <ele>118</ele>
        <time>2019-08-01T18:35:28Z</time>
      </trkpt>
      <trkpt lat="48.350260" lon="-1.355510">
        <ele>119</ele>
        <time>2019-08-01T18:35:42Z</time>
      </trkpt>
      <trkpt lat="48.350380" lon="-1.355720">
        <ele>119</ele>
        <time>2019-08-01T18:35:50Z</time>
      </trkpt>
      <trkpt lat="48.351040" lon="-1.356340">
        <ele>118</ele>
        <time>2019-08-01T18:35:52Z</time>
      </trkpt>
      <trkpt lat="48.351280" lon="-1.356980">
        <ele>117</ele>
        <time>2019-08-01T18:35:56Z</time>
      </trkpt>
      <trkpt lat="48.351330" lon="-1.357060">
        <ele>117</ele>
        <time>2019-08-01T18:36:04Z</time>
      </trkpt>
      <trkpt lat="48.351570" lon="-1.357210">
        <ele>117</ele>
        <time>2019-08-01T18:36:07Z</time>
      </trkpt>
      <trkpt lat="48.351860" lon="-1.357640">
        <ele>116</ele>
        <time>2019-08-01T18:36:16Z</time>
      </trkpt>
      <trkpt lat="48.351950" lon="-1.357930">
        <ele>116</ele>
        <time>2019-08-01T18:36:19Z</time>
      </trkpt>
      <trkpt lat="48.352070" lon="-1.358630">
        <ele>114</ele>
        <time>2019-08-01T18:36:34Z</time>
      </trkpt>
      <trkpt lat="48.351890" lon="-1.358760">
        <ele>114</ele>
        <time>2019-08-01T18:38:01Z</time>
      </trkpt>
      <trkpt lat="48.351090" lon="-1.359110">
        <ele>111</ele>
        <time>2019-08-01T18:38:07Z</time>
      </trkpt>
      <trkpt lat="48.346390" lon="-1.361120">
        <ele>104</ele>
        <time>2019-08-01T18:38:14Z</time>
      </trkpt>
      <trkpt lat="48.346060" lon="-1.361290">
        <ele>103</ele>
        <time>2019-08-01T18:38:24Z</time>
      </trkpt>
      <trkpt lat="48.345730" lon="-1.361510">
        <ele>103</ele>
        <time>2019-08-01T18:38:48Z</time>
      </trkpt>
      <trkpt lat="48.345260" lon="-1.361920">
        <ele>102</ele>
        <time>2019-08-01T18:39:11Z</time>
      </trkpt>
      <trkpt lat="48.344120" lon="-1.363120">
        <ele>101</ele>
        <time>2019-08-01T18:39:17Z</time>
      </trkpt>
      <trkpt lat="48.343000" lon="-1.364070">
        <ele>98</ele>
        <time>2019-08-01T18:39:27Z</time>
      </trkpt>
      <trkpt lat="48.342740" lon="-1.364390">
        <ele>97</ele>
        <time>2019-08-01T18:40:16Z</time>
      </trkpt>
      <trkpt lat="48.342410" lon="-1.365030">
        <ele>96</ele>
        <time>2019-08-01T18:41:07Z</time>
      </trkpt>
      <trkpt lat="48.340820" lon="-1.368480">
        <ele>97</ele>
        <time>2019-08-01T18:42:37Z</time>
      </trkpt>
      <trkpt lat="48.339200" lon="-1.372050">
        <ele>101</ele>
        <time>2019-08-01T18:42:37Z</time>
      </trkpt>
      <trkpt lat="48.336320" lon="-1.378300">
        <ele>99</ele>
        <time>2019-08-01T18:42:42Z</time>
      </trkpt>
      <trkpt lat="48.336320" lon="-1.378300">
        <ele>99</ele>
        <time>2019-08-01T18:42:47Z</time>
      </trkpt>
      <trkpt lat="48.336190" lon="-1.378630">
        <ele>100</ele>
        <time>2019-08-01T18:43:09Z</time>
      </trkpt>
      <trkpt lat="48.336090" lon="-1.379040">
        <ele>99</ele>
        <time>2019-08-01T18:43:33Z</time>
      </trkpt>
      <trkpt lat="48.335820" lon="-1.380820">
        <ele>100</ele>
        <time>2019-08-01T18:43:39Z</time>
      </trkpt>
      <trkpt lat="48.335500" lon="-1.382780">
        <ele>101</ele>
        <time>2019-08-01T18:44:03Z</time>
      </trkpt>
      <trkpt lat="48.335420" lon="-1.383350">
        <ele>100</ele>
        <time>2019-08-01T18:44:57Z</time>
      </trkpt>
      <trkpt lat="48.335210" lon="-1.385280">
        <ele>99</ele>
        <time>2019-08-01T18:45:01Z</time>
      </trkpt>
      <trkpt lat="48.334410" lon="-1.389750">
        <ele>93</ele>
        <time>2019-08-01T18:45:06Z</time>
      </trkpt>
      <trkpt lat="48.334330" lon="-1.390030">
        <ele>92</ele>
        <time>2019-08-01T18:45:17Z</time>
      </trkpt>
      <trkpt lat="48.334210" lon="-1.390370">
        <ele>91</ele>
        <time>2019-08-01T18:45:25Z</time>
      </trkpt>
      <trkpt lat="48.333850" lon="-1.391150">
        <ele>89</ele>
        <time>2019-08-01T18:46:20Z</time>
      </trkpt>
      <trkpt lat="48.333630" lon="-1.391740">
        <ele>87</ele>
        <time>2019-08-01T18:46:26Z</time>
      </trkpt>
      <trkpt lat="48.332330" lon="-1.396020">
        <ele>85</ele>
        <time>2019-08-01T18:46:31Z</time>
      </trkpt>
      <trkpt lat="48.332220" lon="-1.396450">
        <ele>85</ele>
        <time>2019-08-01T18:47:26Z</time>
      </trkpt>
      <trkpt lat="48.332170" lon="-1.396870">
        <ele>85</ele>
        <time>2019-08-01T18:47:31Z</time>
      </trkpt>
      <trkpt lat="48.331850" lon="-1.401460">
        <ele>89</ele>
        <time>2019-08-01T18:47:45Z</time>
      </trkpt>
      <trkpt lat="48.331810" lon="-1.401910">
        <ele>89</ele>
        <time>2019-08-01T18:47:48Z</time>
      </trkpt>
      <trkpt lat="48.331630" lon="-1.403070">
        <ele>90</ele>
        <time>2019-08-01T18:48:02Z</time>
      </trkpt>
      <trkpt lat="48.331640" lon="-1.403310">
        <ele>90</ele>
        <time>2019-08-01T18:48:15Z</time>
      </trkpt>
      <trkpt lat="48.331750" lon="-1.404500">
        <ele>92</ele>
        <time>2019-08-01T18:48:41Z</time>
      </trkpt>
      <trkpt lat="48.331730" lon="-1.405600">
        <ele>92</ele>
        <time>2019-08-01T18:48:41Z</time>
      </trkpt>
      <trkpt lat="48.331580" lon="-1.407750">
        <ele>93</ele>
        <time>2019-08-01T18:49:52Z</time>
      </trkpt>
      <trkpt lat="48.331580" lon="-1.407750">
        <ele>93</ele>
        <time>2019-08-01T18:49:57Z</time>
      </trkpt>
      <trkpt lat="48.331180" lon="-1.413770">
        <ele>91</ele>
        <time>2019-08-01T18:50:01Z</time>
      </trkpt>
      <trkpt lat="48.331190" lon="-1.414150">
        <ele>92</ele>
        <time>2019-08-01T18:51:05Z</time>
      </trkpt>
      <trkpt lat="48.331220" lon="-1.414480">
        <ele>91</ele>
        <time>2019-08-01T18:51:08Z</time>
      </trkpt>
      <trkpt lat="48.332250" lon="-1.419660">
        <ele>86</ele>
        <time>2019-08-01T18:51:14Z</time>
      </trkpt>
      <trkpt lat="48.332280" lon="-1.419930">
        <ele>86</ele>
        <time>2019-08-01T18:51:26Z</time>
      </trkpt>
      <trkpt lat="48.332320" lon="-1.420480">
        <ele>85</ele>
        <time>2019-08-01T18:51:33Z</time>
      </trkpt>
      <trkpt lat="48.332490" lon="-1.421460">
        <ele>84</ele>
        <time>2019-08-01T18:53:22Z</time>
      </trkpt>
      <trkpt lat="48.332550" lon="-1.422010">
        <ele>83</ele>
        <time>2019-08-01T18:53:26Z</time>
      </trkpt>
      <trkpt lat="48.333300" lon="-1.431160">
        <ele>78</ele>
        <time>2019-08-01T18:54:03Z</time>
      </trkpt>
      <trkpt lat="48.333360" lon="-1.431530">
        <ele>79</ele>
        <time>2019-08-01T18:54:03Z</time>
      </trkpt>
      <trkpt lat="48.334060" lon="-1.434470">
        <ele>81</ele>
        <time>2019-08-01T18:54:33Z</time>
      </trkpt>
      <trkpt lat="48.334060" lon="-1.434470">
        <ele>81</ele>
        <time>2019-08-01T18:55:15Z</time>
      </trkpt>
      <trkpt lat="48.334630" lon="-1.436840">
        <ele>80</ele>
        <time>2019-08-01T18:55:19Z</time>
      </trkpt>
      <trkpt lat="48.335350" lon="-1.440170">
        <ele>73</ele>
        <time>2019-08-01T18:55:23Z</time>
      </trkpt>
      <trkpt lat="48.335440" lon="-1.440530">
        <ele>72</ele>
        <time>2019-08-01T18:55:28Z</time>
      </trkpt>
      <trkpt lat="48.335540" lon="-1.440800">
        <ele>71</ele>
        <time>2019-08-01T18:56:05Z</time>
      </trkpt>
      <trkpt lat="48.335700" lon="-1.441110">
        <ele>69</ele>
        <time>2019-08-01T18:56:11Z</time>
      </trkpt>
      <trkpt lat="48.337070" lon="-1.443570">
        <ele>67</ele>
        <time>2019-08-01T18:56:32Z</time>
      </trkpt>
      <trkpt lat="48.337210" lon="-1.443950">
        <ele>68</ele>
        <time>2019-08-01T18:56:36Z</time>
      </trkpt>
      <trkpt lat="48.337700" lon="-1.445600">
        <ele>78</ele>
        <time>2019-08-01T18:56:46Z</time>
      </trkpt>
      <trkpt lat="48.337780" lon="-1.445920">
        <ele>79</ele>
        <time>2019-08-01T18:57:10Z</time>
      </trkpt>
      <trkpt lat="48.337940" lon="-1.446730">
        <ele>78</ele>
        <time>2019-08-01T18:58:35Z</time>
      </trkpt>
      <trkpt lat="48.338300" lon="-1.448680">
        <ele>74</ele>
        <time>2019-08-01T18:58:41Z</time>
      </trkpt>
      <trkpt lat="48.339010" lon="-1.455820">
        <ele>76</ele>
        <time>2019-08-01T18:58:47Z</time>
      </trkpt>
      <trkpt lat="48.339100" lon="-1.456300">
        <ele>75</ele>
        <time>2019-08-01T18:59:13Z</time>
      </trkpt>
      <trkpt lat="48.339210" lon="-1.456720">
        <ele>75</ele>
        <time>2019-08-01T18:59:19Z</time>
      </trkpt>
      <trkpt lat="48.339840" lon="-1.458770">
        <ele>78</ele>
        <time>2019-08-01T18:59:49Z</time>
      </trkpt>
      <trkpt lat="48.339940" lon="-1.459240">
        <ele>78</ele>
        <time>2019-08-01T19:00:29Z</time>
      </trkpt>
      <trkpt lat="48.340370" lon="-1.461690">
        <ele>81</ele>
        <time>2019-08-01T19:01:52Z</time>
      </trkpt>
      <trkpt lat="48.340660" lon="-1.465070">
        <ele>89</ele>
        <time>2019-08-01T19:02:16Z</time>
      </trkpt>
      <trkpt lat="48.341230" lon="-1.472000">
        <ele>87</ele>
        <time>2019-08-01T19:02:20Z</time>
      </trkpt>
      <trkpt lat="48.341420" lon="-1.474050">
        <ele>78</ele>
        <time>2019-08-01T19:02:20Z</time>
      </trkpt>
      <trkpt lat="48.341440" lon="-1.474360">
        <ele>77</ele>
        <time>2019-08-01T19:02:22Z</time>
      </trkpt>
      <trkpt lat="48.341440" lon="-1.474360">
        <ele>77</ele>
        <time>2019-08-01T19:02:27Z</time>
      </trkpt>
      <trkpt lat="48.341450" lon="-1.474550">
        <ele>76</ele>
        <time>2019-08-01T19:02:35Z</time>
      </trkpt>
      <trkpt lat="48.341420" lon="-1.474960">
        <ele>75</ele>
        <time>2019-08-01T19:03:10Z</time>
      </trkpt>
      <trkpt lat="48.341310" lon="-1.475610">
        <ele>73</ele>
        <time>2019-08-01T19:03:16Z</time>
      </trkpt>
      <trkpt lat="48.340460" lon="-1.478240">
        <ele>64</ele>
        <time>2019-08-01T19:03:19Z</time>
      </trkpt>
      <trkpt lat="48.340350" lon="-1.478750">
        <ele>59</ele>
        <time>2019-08-01T19:03:22Z</time>
      </trkpt>
      <trkpt lat="48.340340" lon="-1.478980">
        <ele>57</ele>
        <time>2019-08-01T19:03:24Z</time>
      </trkpt>
      <trkpt lat="48.340370" lon="-1.479220">
        <ele>54</ele>
        <time>2019-08-01T19:03:26Z</time>
      </trkpt>
      <trkpt lat="48.340410" lon="-1.479380">
        <ele>53</ele>
        <time>2019-08-01T19:03:31Z</time>
      </trkpt>
      <trkpt lat="48.340480" lon="-1.479520">
        <ele>52</ele>
        <time>2019-08-01T19:03:50Z</time>
      </trkpt>
      <trkpt lat="48.340710" lon="-1.479790">
        <ele>50</ele>
        <time>2019-08-01T19:03:54Z</time>
      </trkpt>
      <trkpt lat="48.341640" lon="-1.480500">
        <ele>44</ele>
        <time>2019-08-01T19:03:58Z</time>
      </trkpt>
      <trkpt lat="48.341890" lon="-1.480620">
        <ele>43</ele>
        <time>2019-08-01T19:04:02Z</time>
      </trkpt>
      <trkpt lat="48.342110" lon="-1.480650">
        <ele>42</ele>
        <time>2019-08-01T19:04:08Z</time>
      </trkpt>
      <trkpt lat="48.342340" lon="-1.480580">
        <ele>42</ele>
        <time>2019-08-01T19:04:15Z</time>
      </trkpt>
      <trkpt lat="48.342610" lon="-1.480320">
        <ele>43</ele>
        <time>2019-08-01T19:04:24Z</time>
      </trkpt>
      <trkpt lat="48.342900" lon="-1.479880">
        <ele>44</ele>
        <time>2019-08-01T19:04:26Z</time>
      </trkpt>
      <trkpt lat="48.343260" lon="-1.479430">
        <ele>45</ele>
        <time>2019-08-01T19:04:29Z</time>
      </trkpt>
      <trkpt lat="48.343400" lon="-1.479330">
        <ele>45</ele>
        <time>2019-08-01T19:04:32Z</time>
      </trkpt>
      <trkpt lat="48.343530" lon="-1.479280">
        <ele>45</ele>
        <time>2019-08-01T19:04:36Z</time>
      </trkpt>
      <trkpt lat="48.343700" lon="-1.479280">
        <ele>44</ele>
        <time>2019-08-01T19:04:49Z</time>
      </trkpt>
      <trkpt lat="48.343900" lon="-1.479410">
        <ele>42</ele>
        <time>2019-08-01T19:04:51Z</time>
      </trkpt>
      <trkpt lat="48.344490" lon="-1.480150">
        <ele>36</ele>
        <time>2019-08-01T19:04:53Z</time>
      </trkpt>
      <trkpt lat="48.344550" lon="-1.480280">
        <ele>36</ele>
        <time>2019-08-01T19:04:56Z</time>
      </trkpt>
      <trkpt lat="48.344590" lon="-1.480410">
        <ele>36</ele>
        <time>2019-08-01T19:04:58Z</time>
      </trkpt>
      <trkpt lat="48.344620" lon="-1.480640">
        <ele>35</ele>
        <time>2019-08-01T19:05:01Z</time>
      </trkpt>
      <trkpt lat="48.344630" lon="-1.480850">
        <ele>35</ele>
        <time>2019-08-01T19:05:03Z</time>
      </trkpt>
      <trkpt lat="48.344600" lon="-1.481080">
        <ele>35</ele>
        <time>2019-08-01T19:05:13Z</time>
      </trkpt>
      <trkpt lat="48.344550" lon="-1.481270">
        <ele>36</ele>
        <time>2019-08-01T19:05:54Z</time>
      </trkpt>
      <trkpt lat="48.344300" lon="-1.481950">
        <ele>40</ele>
        <time>2019-08-01T19:05:54Z</time>
      </trkpt>
      <trkpt lat="48.343120" lon="-1.484970">
        <ele>56</ele>
        <time>2019-08-01T19:06:28Z</time>
      </trkpt>
      <trkpt lat="48.343120" lon="-1.484970">
        <ele>56</ele>
        <time>2019-08-01T19:06:38Z</time>
      </trkpt>
      <trkpt lat="48.342180" lon="-1.487420">
        <ele>65</ele>
        <time>2019-08-01T19:06:39Z</time>
      </trkpt>
      <trkpt lat="48.341870" lon="-1.488150">
        <ele>67</ele>
        <time>2019-08-01T19:06:40Z</time>
      </trkpt>
      <trkpt lat="48.341910" lon="-1.488200">
        <ele>67</ele>
        <time>2019-08-01T19:06:40Z</time>
      </trkpt>
      <trkpt lat="48.341910" lon="-1.488280">
        <ele>67</ele>
        <time>2019-08-01T19:06:41Z</time>
      </trkpt>
      <trkpt lat="48.341880" lon="-1.488310">
        <ele>67</ele>
        <time>2019-08-01T19:06:43Z</time>
      </trkpt>
      <trkpt lat="48.341830" lon="-1.488310">
        <ele>68</ele>
        <time>2019-08-01T19:06:51Z</time>
      </trkpt>
      <trkpt lat="48.341750" lon="-1.488430">
        <ele>68</ele>
        <time>2019-08-01T19:06:55Z</time>
      </trkpt>
      <trkpt lat="48.341630" lon="-1.489100">
        <ele>68</ele>
        <time>2019-08-01T19:06:59Z</time>
      </trkpt>
      <trkpt lat="48.341630" lon="-1.489410">
        <ele>68</ele>
        <time>2019-08-01T19:07:26Z</time>
      </trkpt>
      <trkpt lat="48.341650" lon="-1.489720">
        <ele>68</ele>
        <time>2019-08-01T19:07:39Z</time>
      </trkpt>
      <trkpt lat="48.341910" lon="-1.491960">
        <ele>65</ele>
        <time>2019-08-01T19:08:00Z</time>
      </trkpt>
      <trkpt lat="48.341920" lon="-1.493080">
        <ele>63</ele>
        <time>2019-08-01T19:08:07Z</time>
      </trkpt>
      <trkpt lat="48.341790" lon="-1.494820">
        <ele>63</ele>
        <time>2019-08-01T19:08:22Z</time>
      </trkpt>
      <trkpt lat="48.341670" lon="-1.495390">
        <ele>63</ele>
        <time>2019-08-01T19:08:55Z</time>
      </trkpt>
      <trkpt lat="48.341240" lon="-1.496550">
        <ele>64</ele>
        <time>2019-08-01T19:09:05Z</time>
      </trkpt>
      <trkpt lat="48.340310" lon="-1.498960">
        <ele>66</ele>
        <time>2019-08-01T19:09:16Z</time>
      </trkpt>
      <trkpt lat="48.340050" lon="-1.499720">
        <ele>68</ele>
        <time>2019-08-01T19:09:28Z</time>
      </trkpt>
      <trkpt lat="48.339830" lon="-1.500590">
        <ele>68</ele>
        <time>2019-08-01T19:09:38Z</time>
      </trkpt>
      <trkpt lat="48.339710" lon="-1.501550">
        <ele>69</ele>
        <time>2019-08-01T19:09:59Z</time>
      </trkpt>
      <trkpt lat="48.339670" lon="-1.502430">
        <ele>69</ele>
        <time>2019-08-01T19:10:05Z</time>
      </trkpt>
      <trkpt lat="48.339680" lon="-1.504170">
        <ele>69</ele>
        <time>2019-08-01T19:10:11Z</time>
      </trkpt>
      <trkpt lat="48.339640" lon="-1.504690">
        <ele>70</ele>
        <time>2019-08-01T19:10:27Z</time>
      </trkpt>
      <trkpt lat="48.339570" lon="-1.505150">
        <ele>71</ele>
        <time>2019-08-01T19:10:34Z</time>
      </trkpt>
      <trkpt lat="48.339250" lon="-1.506390">
        <ele>72</ele>
        <time>2019-08-01T19:11:32Z</time>
      </trkpt>
      <trkpt lat="48.339120" lon="-1.507030">
        <ele>72</ele>
        <time>2019-08-01T19:11:37Z</time>
      </trkpt>
      <trkpt lat="48.338350" lon="-1.511740">
        <ele>73</ele>
        <time>2019-08-01T19:11:48Z</time>
      </trkpt>
      <trkpt lat="48.338260" lon="-1.512120">
        <ele>72</ele>
        <time>2019-08-01T19:11:48Z</time>
      </trkpt>
      <trkpt lat="48.338010" lon="-1.513040">
        <ele>73</ele>
        <time>2019-08-01T19:12:40Z</time>
      </trkpt>
      <trkpt lat="48.338010" lon="-1.513040">
        <ele>73</ele>
        <time>2019-08-01T19:12:49Z</time>
      </trkpt>
      <trkpt lat="48.336930" lon="-1.517080">
        <ele>77</ele>
        <time>2019-08-01T19:12:57Z</time>
      </trkpt>
      <trkpt lat="48.336690" lon="-1.517730">
        <ele>78</ele>
        <time>2019-08-01T19:13:34Z</time>
      </trkpt>
      <trkpt lat="48.336410" lon="-1.518340">
        <ele>77</ele>
        <time>2019-08-01T19:13:59Z</time>
      </trkpt>
      <trkpt lat="48.334970" lon="-1.520540">
        <ele>74</ele>
        <time>2019-08-01T19:14:03Z</time>
      </trkpt>
      <trkpt lat="48.334030" lon="-1.522160">
        <ele>74</ele>
        <time>2019-08-01T19:14:06Z</time>
      </trkpt>
      <trkpt lat="48.333890" lon="-1.522360">
        <ele>74</ele>
        <time>2019-08-01T19:14:15Z</time>
      </trkpt>
      <trkpt lat="48.333730" lon="-1.522510">
        <ele>73</ele>
        <time>2019-08-01T19:14:17Z</time>
      </trkpt>
      <trkpt lat="48.333300" lon="-1.522800">
        <ele>73</ele>
        <time>2019-08-01T19:14:19Z</time>
      </trkpt>
      <trkpt lat="48.333220" lon="-1.522950">
        <ele>74</ele>
        <time>2019-08-01T19:14:20Z</time>
      </trkpt>
      <trkpt lat="48.333160" lon="-1.523130">
        <ele>74</ele>
        <time>2019-08-01T19:14:24Z</time>
      </trkpt>
      <trkpt lat="48.333160" lon="-1.523230">
        <ele>74</ele>
        <time>2019-08-01T19:14:37Z</time>
      </trkpt>
      <trkpt lat="48.333200" lon="-1.523560">
        <ele>75</ele>
        <time>2019-08-01T19:14:42Z</time>
      </trkpt>
      <trkpt lat="48.333280" lon="-1.524600">
        <ele>76</ele>
        <time>2019-08-01T19:14:45Z</time>
      </trkpt>
      <trkpt lat="48.333300" lon="-1.525080">
        <ele>75</ele>
        <time>2019-08-01T19:14:48Z</time>
      </trkpt>
      <trkpt lat="48.333300" lon="-1.525340">
        <ele>75</ele>
        <time>2019-08-01T19:15:00Z</time>
      </trkpt>
      <trkpt lat="48.333270" lon="-1.525560">
        <ele>75</ele>
        <time>2019-08-01T19:15:08Z</time>
      </trkpt>
      <trkpt lat="48.333090" lon="-1.526550">
        <ele>76</ele>
        <time>2019-08-01T19:15:19Z</time>
      </trkpt>
      <trkpt lat="48.332930" lon="-1.527150">
        <ele>76</ele>
        <time>2019-08-01T19:15:53Z</time>
      </trkpt>
      <trkpt lat="48.332620" lon="-1.527950">
        <ele>76</ele>
        <time>2019-08-01T19:16:28Z</time>
      </trkpt>
      <trkpt lat="48.331580" lon="-1.530420">
        <ele>74</ele>
        <time>2019-08-01T19:16:28Z</time>
      </trkpt>
      <trkpt lat="48.332120" lon="-1.533190">
        <ele>83</ele>
        <time>2019-08-01T19:16:49Z</time>
      </trkpt>
      <trkpt lat="48.332120" lon="-1.533190">
        <ele>83</ele>
        <time>2019-08-01T19:16:53Z</time>
      </trkpt>
      <trkpt lat="48.332460" lon="-1.534930">
        <ele>87</ele>
        <time>2019-08-01T19:16:59Z</time>
      </trkpt>
      <trkpt lat="48.332510" lon="-1.535230">
        <ele>87</ele>
        <time>2019-08-01T19:17:01Z</time>
      </trkpt>
      <trkpt lat="48.332530" lon="-1.535770">
        <ele>86</ele>
        <time>2019-08-01T19:17:05Z</time>
      </trkpt>
      <trkpt lat="48.332570" lon="-1.535890">
        <ele>86</ele>
        <time>2019-08-01T19:17:08Z</time>
      </trkpt>
      <trkpt lat="48.332460" lon="-1.536220">
        <ele>87</ele>
        <time>2019-08-01T19:17:10Z</time>
      </trkpt>
      <trkpt lat="48.332410" lon="-1.536500">
        <ele>87</ele>
        <time>2019-08-01T19:17:18Z</time>
      </trkpt>
      <trkpt lat="48.332410" lon="-1.536600">
        <ele>87</ele>
        <time>2019-08-01T19:17:38Z</time>
      </trkpt>
      <trkpt lat="48.332550" lon="-1.537300">
        <ele>86</ele>
        <time>2019-08-01T19:17:47Z</time>
      </trkpt>
      <trkpt lat="48.332990" lon="-1.538840">
        <ele>85</ele>
        <time>2019-08-01T19:18:28Z</time>
      </trkpt>
      <trkpt lat="48.333060" lon="-1.539550">
        <ele>86</ele>
        <time>2019-08-01T19:18:59Z</time>
      </trkpt>
      <trkpt lat="48.333370" lon="-1.543030">
        <ele>86</ele>
        <time>2019-08-01T19:19:42Z</time>
      </trkpt>
      <trkpt lat="48.333370" lon="-1.545660">
        <ele>88</ele>
        <time>2019-08-01T19:19:42Z</time>
      </trkpt>
      <trkpt lat="48.333340" lon="-1.549290">
        <ele>84</ele>
        <time>2019-08-01T19:20:08Z</time>
      </trkpt>
      <trkpt lat="48.333340" lon="-1.549290">
        <ele>84</ele>
        <time>2019-08-01T19:20:17Z</time>
      </trkpt>
      <trkpt lat="48.333320" lon="-1.551500">
        <ele>83</ele>
        <time>2019-08-01T19:20:29Z</time>
      </trkpt>
      <trkpt lat="48.333230" lon="-1.552230">
        <ele>83</ele>
        <time>2019-08-01T19:20:49Z</time>
      </trkpt>
      <trkpt lat="48.332990" lon="-1.553180">
        <ele>84</ele>
        <time>2019-08-01T19:21:07Z</time>
      </trkpt>
      <trkpt lat="48.332560" lon="-1.554740">
        <ele>87</ele>
        <time>2019-08-01T19:21:18Z</time>
      </trkpt>
      <trkpt lat="48.332200" lon="-1.556120">
        <ele>90</ele>
        <time>2019-08-01T19:21:29Z</time>
      </trkpt>
      <trkpt lat="48.331940" lon="-1.557010">
        <ele>93</ele>
        <time>2019-08-01T19:21:37Z</time>
      </trkpt>
      <trkpt lat="48.331640" lon="-1.557850">
        <ele>96</ele>
        <time>2019-08-01T19:22:50Z</time>
      </trkpt>
      <trkpt lat="48.331410" lon="-1.558410">
        <ele>98</ele>
        <time>2019-08-01T19:22:58Z</time>
      </trkpt>
      <trkpt lat="48.328960" lon="-1.563310">
        <ele>102</ele>
        <time>2019-08-01T19:24:19Z</time>
      </trkpt>
      <trkpt lat="48.328740" lon="-1.563940">
        <ele>102</ele>
        <time>2019-08-01T19:26:06Z</time>
      </trkpt>
      <trkpt lat="48.327860" lon="-1.570620">
        <ele>99</ele>
        <time>2019-08-01T19:26:11Z</time>
      </trkpt>
      <trkpt lat="48.326720" lon="-1.579510">
        <ele>86</ele>
        <time>2019-08-01T19:26:15Z</time>
      </trkpt>
      <trkpt lat="48.326650" lon="-1.579910">
        <ele>87</ele>
        <time>2019-08-01T19:26:56Z</time>
      </trkpt>
      <trkpt lat="48.326570" lon="-1.580250">
        <ele>86</ele>
        <time>2019-08-01T19:27:03Z</time>
      </trkpt>
      <trkpt lat="48.325660" lon="-1.583440">
        <ele>88</ele>
        <time>2019-08-01T19:27:11Z</time>
      </trkpt>
      <trkpt lat="48.325540" lon="-1.584040">
        <ele>88</ele>
        <time>2019-08-01T19:27:17Z</time>
      </trkpt>
      <trkpt lat="48.325490" lon="-1.584640">
        <ele>87</ele>
        <time>2019-08-01T19:27:25Z</time>
      </trkpt>
      <trkpt lat="48.325480" lon="-1.585210">
        <ele>85</ele>
        <time>2019-08-01T19:30:02Z</time>
      </trkpt>
      <trkpt lat="48.325520" lon="-1.585810">
        <ele>81</ele>
        <time>2019-08-01T19:32:47Z</time>
      </trkpt>
      <trkpt lat="48.326750" lon="-1.599000">
        <ele>89</ele>
        <time>2019-08-01T19:32:51Z</time>
      </trkpt>
      <trkpt lat="48.327500" lon="-1.612860">
        <ele>89</ele>
        <time>2019-08-01T19:32:55Z</time>
      </trkpt>
      <trkpt lat="48.327550" lon="-1.613210">
        <ele>89</ele>
        <time>2019-08-01T19:34:05Z</time>
      </trkpt>
      <trkpt lat="48.327640" lon="-1.613560">
        <ele>89</ele>
        <time>2019-08-01T19:34:10Z</time>
      </trkpt>
      <trkpt lat="48.329520" lon="-1.618750">
        <ele>86</ele>
        <time>2019-08-01T19:34:17Z</time>
      </trkpt>
      <trkpt lat="48.329630" lon="-1.619100">
        <ele>87</ele>
        <time>2019-08-01T19:34:21Z</time>
      </trkpt>
      <trkpt lat="48.329750" lon="-1.619690">
        <ele>88</ele>
        <time>2019-08-01T19:34:29Z</time>
      </trkpt>
      <trkpt lat="48.329780" lon="-1.620010">
        <ele>88</ele>
        <time>2019-08-01T19:35:04Z</time>
      </trkpt>
      <trkpt lat="48.329720" lon="-1.620730">
        <ele>89</ele>
        <time>2019-08-01T19:35:25Z</time>
      </trkpt>
      <trkpt lat="48.329300" lon="-1.623550">
        <ele>90</ele>
        <time>2019-08-01T19:35:31Z</time>
      </trkpt>
      <trkpt lat="48.329010" lon="-1.625340">
        <ele>92</ele>
        <time>2019-08-01T19:35:38Z</time>
      </trkpt>
      <trkpt lat="48.328990" lon="-1.625810">
        <ele>92</ele>
        <time>2019-08-01T19:36:25Z</time>
      </trkpt>
      <trkpt lat="48.329040" lon="-1.626360">
        <ele>93</ele>
        <time>2019-08-01T19:36:31Z</time>
      </trkpt>
      <trkpt lat="48.329570" lon="-1.630320">
        <ele>93</ele>
        <time>2019-08-01T19:36:36Z</time>
      </trkpt>
      <trkpt lat="48.329580" lon="-1.630800">
        <ele>94</ele>
        <time>2019-08-01T19:36:48Z</time>
      </trkpt>
      <trkpt lat="48.329540" lon="-1.631230">
        <ele>94</ele>
        <time>2019-08-01T19:37:10Z</time>
      </trkpt>
      <trkpt lat="48.329320" lon="-1.632160">
        <ele>94</ele>
        <time>2019-08-01T19:37:13Z</time>
      </trkpt>
      <trkpt lat="48.328920" lon="-1.633910">
        <ele>94</ele>
        <time>2019-08-01T19:37:19Z</time>
      </trkpt>
      <trkpt lat="48.328880" lon="-1.634180">
        <ele>94</ele>
        <time>2019-08-01T19:37:19Z</time>
      </trkpt>
      <trkpt lat="48.328860" lon="-1.634650">
        <ele>95</ele>
        <time>2019-08-01T19:37:43Z</time>
      </trkpt>
      <trkpt lat="48.328860" lon="-1.634650">
        <ele>95</ele>
        <time>2019-08-01T19:37:51Z</time>
      </trkpt>
      <trkpt lat="48.328850" lon="-1.636700">
        <ele>100</ele>
        <time>2019-08-01T19:38:04Z</time>
      </trkpt>
      <trkpt lat="48.328800" lon="-1.637360">
        <ele>101</ele>
        <time>2019-08-01T19:38:25Z</time>
      </trkpt>
      <trkpt lat="48.328640" lon="-1.638480">
        <ele>102</ele>
        <time>2019-08-01T19:38:28Z</time>
      </trkpt>
      <trkpt lat="48.328460" lon="-1.640200">
        <ele>102</ele>
        <time>2019-08-01T19:38:31Z</time>
      </trkpt>
      <trkpt lat="48.328430" lon="-1.640440">
        <ele>102</ele>
        <time>2019-08-01T19:38:32Z</time>
      </trkpt>
      <trkpt lat="48.328350" lon="-1.640700">
        <ele>103</ele>
        <time>2019-08-01T19:38:34Z</time>
      </trkpt>
      <trkpt lat="48.328410" lon="-1.640730">
        <ele>103</ele>
        <time>2019-08-01T19:38:38Z</time>
      </trkpt>
      <trkpt lat="48.328520" lon="-1.640720">
        <ele>102</ele>
        <time>2019-08-01T19:38:42Z</time>
      </trkpt>
      <trkpt lat="48.328570" lon="-1.640990">
        <ele>102</ele>
        <time>2019-08-01T19:38:44Z</time>
      </trkpt>
      <trkpt lat="48.328580" lon="-1.641380">
        <ele>101</ele>
        <time>2019-08-01T19:39:01Z</time>
      </trkpt>
      <trkpt lat="48.328570" lon="-1.641530">
        <ele>100</ele>
        <time>2019-08-01T19:39:10Z</time>
      </trkpt>
      <trkpt lat="48.329330" lon="-1.642400">
        <ele>100</ele>
        <time>2019-08-01T19:39:14Z</time>
      </trkpt>
      <trkpt lat="48.329620" lon="-1.642990">
        <ele>99</ele>
        <time>2019-08-01T19:39:23Z</time>
      </trkpt>
      <trkpt lat="48.329770" lon="-1.643240">
        <ele>98</ele>
        <time>2019-08-01T19:39:30Z</time>
      </trkpt>
      <trkpt lat="48.330150" lon="-1.643730">
        <ele>97</ele>
        <time>2019-08-01T19:40:15Z</time>
      </trkpt>
      <trkpt lat="48.330490" lon="-1.644080">
        <ele>96</ele>
        <time>2019-08-01T19:40:43Z</time>
      </trkpt>
      <trkpt lat="48.332690" lon="-1.646030">
        <ele>89</ele>
        <time>2019-08-01T19:40:51Z</time>
      </trkpt>
      <trkpt lat="48.334070" lon="-1.647040">
        <ele>86</ele>
        <time>2019-08-01T19:41:26Z</time>
      </trkpt>
      <trkpt lat="48.334450" lon="-1.647390">
        <ele>85</ele>
        <time>2019-08-01T19:41:30Z</time>
      </trkpt>
      <trkpt lat="48.336080" lon="-1.649150">
        <ele>79</ele>
        <time>2019-08-01T19:41:33Z</time>
      </trkpt>
      <trkpt lat="48.336230" lon="-1.649330">
        <ele>78</ele>
        <time>2019-08-01T19:41:48Z</time>
      </trkpt>
      <trkpt lat="48.336370" lon="-1.649550">
        <ele>76</ele>
        <time>2019-08-01T19:41:51Z</time>
      </trkpt>
      <trkpt lat="48.336690" lon="-1.650670">
        <ele>73</ele>
        <time>2019-08-01T19:41:56Z</time>
      </trkpt>
      <trkpt lat="48.336800" lon="-1.650940">
        <ele>74</ele>
        <time>2019-08-01T19:42:14Z</time>
      </trkpt>
      <trkpt lat="48.336950" lon="-1.651230">
        <ele>76</ele>
        <time>2019-08-01T19:42:20Z</time>
      </trkpt>
      <trkpt lat="48.337670" lon="-1.652320">
        <ele>82</ele>
        <time>2019-08-01T19:42:34Z</time>
      </trkpt>
      <trkpt lat="48.337860" lon="-1.652750">
        <ele>83</ele>
        <time>2019-08-01T19:42:51Z</time>
      </trkpt>
      <trkpt lat="48.338150" lon="-1.653840">
        <ele>84</ele>
        <time>2019-08-01T19:43:02Z</time>
      </trkpt>
      <trkpt lat="48.338470" lon="-1.655190">
        <ele>83</ele>
        <time>2019-08-01T19:43:07Z</time>
      </trkpt>
      <trkpt lat="48.338670" lon="-1.656060">
        <ele>83</ele>
        <time>2019-08-01T19:43:11Z</time>
      </trkpt>
      <trkpt lat="48.338740" lon="-1.656460">
        <ele>82</ele>
        <time>2019-08-01T19:43:16Z</time>
      </trkpt>
      <trkpt lat="48.338780" lon="-1.656860">
        <ele>81</ele>
        <time>2019-08-01T19:44:38Z</time>
      </trkpt>
      <trkpt lat="48.338800" lon="-1.657270">
        <ele>79</ele>
        <time>2019-08-01T19:44:48Z</time>
      </trkpt>
      <trkpt lat="48.338800" lon="-1.664140">
        <ele>67</ele>
        <time>2019-08-01T19:44:53Z</time>
      </trkpt>
      <trkpt lat="48.338810" lon="-1.665060">
        <ele>67</ele>
        <time>2019-08-01T19:44:56Z</time>
      </trkpt>
      <trkpt lat="48.338840" lon="-1.665410">
        <ele>66</ele>
        <time>2019-08-01T19:45:00Z</time>
      </trkpt>
      <trkpt lat="48.338880" lon="-1.665710">
        <ele>65</ele>
        <time>2019-08-01T19:45:04Z</time>
      </trkpt>
      <trkpt lat="48.338960" lon="-1.665970">
        <ele>65</ele>
        <time>2019-08-01T19:45:08Z</time>
      </trkpt>
      <trkpt lat="48.339090" lon="-1.666260">
        <ele>64</ele>
        <time>2019-08-01T19:45:11Z</time>
      </trkpt>
      <trkpt lat="48.339240" lon="-1.666520">
        <ele>64</ele>
        <time>2019-08-01T19:45:17Z</time>
      </trkpt>
      <trkpt lat="48.339370" lon="-1.666690">
        <ele>63</ele>
        <time>2019-08-01T19:45:29Z</time>
      </trkpt>
      <trkpt lat="48.339640" lon="-1.666950">
        <ele>63</ele>
        <time>2019-08-01T19:45:50Z</time>
      </trkpt>
      <trkpt lat="48.340260" lon="-1.667430">
        <ele>63</ele>
        <time>2019-08-01T19:45:59Z</time>
      </trkpt>
      <trkpt lat="48.341280" lon="-1.668270">
        <ele>62</ele>
        <time>2019-08-01T19:46:07Z</time>
      </trkpt>
      <trkpt lat="48.341690" lon="-1.668710">
        <ele>63</ele>
        <time>2019-08-01T19:46:45Z</time>
      </trkpt>
      <trkpt lat="48.342010" lon="-1.669230">
        <ele>64</ele>
        <time>2019-08-01T19:47:52Z</time>
      </trkpt>
      <trkpt lat="48.343370" lon="-1.671670">
        <ele>64</ele>
        <time>2019-08-01T19:47:58Z</time>
      </trkpt>
      <trkpt lat="48.345470" lon="-1.676360">
        <ele>68</ele>
        <time>2019-08-01T19:47:58Z</time>
      </trkpt>
      <trkpt lat="48.345700" lon="-1.676730">
        <ele>69</ele>
        <time>2019-08-01T19:48:00Z</time>
      </trkpt>
      <trkpt lat="48.345700" lon="-1.676730">
        <ele>69</ele>
        <time>2019-08-01T19:48:05Z</time>
      </trkpt>
      <trkpt lat="48.345830" lon="-1.676880">
        <ele>68</ele>
        <time>2019-08-01T19:48:53Z</time>
      </trkpt>
      <trkpt lat="48.346040" lon="-1.677080">
        <ele>68</ele>
        <time>2019-08-01T19:48:58Z</time>
      </trkpt>
      <trkpt lat="48.348550" lon="-1.678570">
        <ele>67</ele>
        <time>2019-08-01T19:49:00Z</time>
      </trkpt>
      <trkpt lat="48.348770" lon="-1.678820">
        <ele>68</ele>
        <time>2019-08-01T19:49:04Z</time>
      </trkpt>
      <trkpt lat="48.348830" lon="-1.678970">
        <ele>68</ele>
        <time>2019-08-01T19:49:33Z</time>
      </trkpt>
      <trkpt lat="48.348930" lon="-1.679320">
        <ele>68</ele>
        <time>2019-08-01T19:49:39Z</time>
      </trkpt>
      <trkpt lat="48.349350" lon="-1.681690">
        <ele>62</ele>
        <time>2019-08-01T19:49:50Z</time>
      </trkpt>
      <trkpt lat="48.349410" lon="-1.682150">
        <ele>61</ele>
        <time>2019-08-01T19:49:53Z</time>
      </trkpt>
      <trkpt lat="48.349470" lon="-1.683100">
        <ele>61</ele>
        <time>2019-08-01T19:50:01Z</time>
      </trkpt>
      <trkpt lat="48.349510" lon="-1.683330">
        <ele>61</ele>
        <time>2019-08-01T19:50:19Z</time>
      </trkpt>
      <trkpt lat="48.349710" lon="-1.683890">
        <ele>61</ele>
        <time>2019-08-01T19:50:23Z</time>
      </trkpt>
      <trkpt lat="48.350300" lon="-1.685170">
        <ele>62</ele>
        <time>2019-08-01T19:50:32Z</time>
      </trkpt>
      <trkpt lat="48.350430" lon="-1.685500">
        <ele>63</ele>
        <time>2019-08-01T19:50:34Z</time>
      </trkpt>
      <trkpt lat="48.350560" lon="-1.686200">
        <ele>64</ele>
        <time>2019-08-01T19:50:36Z</time>
      </trkpt>
      <trkpt lat="48.350610" lon="-1.686330">
        <ele>64</ele>
        <time>2019-08-01T19:50:40Z</time>
      </trkpt>
      <trkpt lat="48.350680" lon="-1.686430">
        <ele>64</ele>
        <time>2019-08-01T19:50:48Z</time>
      </trkpt>
      <trkpt lat="48.350870" lon="-1.686630">
        <ele>64</ele>
        <time>2019-08-01T19:51:03Z</time>
      </trkpt>
      <trkpt lat="48.351270" lon="-1.686980">
        <ele>63</ele>
        <time>2019-08-01T19:51:06Z</time>
      </trkpt>
      <trkpt lat="48.351910" lon="-1.687810">
        <ele>64</ele>
        <time>2019-08-01T19:51:10Z</time>
      </trkpt>
      <trkpt lat="48.352020" lon="-1.687990">
        <ele>64</ele>
        <time>2019-08-01T19:51:30Z</time>
      </trkpt>
      <trkpt lat="48.352140" lon="-1.688260">
        <ele>63</ele>
        <time>2019-08-01T19:52:08Z</time>
      </trkpt>
      <trkpt lat="48.352690" lon="-1.689790">
        <ele>63</ele>
        <time>2019-08-01T19:52:14Z</time>
      </trkpt>
      <trkpt lat="48.353840" lon="-1.692510">
        <ele>63</ele>
        <time>2019-08-01T19:53:01Z</time>
      </trkpt>
      <trkpt lat="48.354000" lon="-1.692940">
        <ele>64</ele>
        <time>2019-08-01T19:53:12Z</time>
      </trkpt>
      <trkpt lat="48.355120" lon="-1.696520">
        <ele>66</ele>
        <time>2019-08-01T19:53:15Z</time>
      </trkpt>
      <trkpt lat="48.355350" lon="-1.697380">
        <ele>67</ele>
        <time>2019-08-01T19:53:42Z</time>
      </trkpt>
      <trkpt lat="48.355390" lon="-1.697670">
        <ele>67</ele>
        <time>2019-08-01T19:53:48Z</time>
      </trkpt>
      <trkpt lat="48.355640" lon="-1.699880">
        <ele>66</ele>
        <time>2019-08-01T19:54:44Z</time>
      </trkpt>
      <trkpt lat="48.355680" lon="-1.700400">
        <ele>66</ele>
        <time>2019-08-01T19:54:49Z</time>
      </trkpt>
      <trkpt lat="48.355780" lon="-1.705080">
        <ele>73</ele>
        <time>2019-08-01T19:55:12Z</time>
      </trkpt>
      <trkpt lat="48.355800" lon="-1.705580">
        <ele>74</ele>
        <time>2019-08-01T19:55:17Z</time>
      </trkpt>
      <trkpt lat="48.355960" lon="-1.707440">
        <ele>78</ele>
        <time>2019-08-01T19:55:23Z</time>
      </trkpt>
      <trkpt lat="48.356020" lon="-1.707850">
        <ele>79</ele>
        <time>2019-08-01T19:55:33Z</time>
      </trkpt>
      <trkpt lat="48.356150" lon="-1.708330">
        <ele>79</ele>
        <time>2019-08-01T19:55:33Z</time>
      </trkpt>
      <trkpt lat="48.356460" lon="-1.709090">
        <ele>81</ele>
        <time>2019-08-01T19:56:01Z</time>
      </trkpt>
      <trkpt lat="48.356460" lon="-1.709090">
        <ele>81</ele>
        <time>2019-08-01T19:56:04Z</time>
      </trkpt>
      <trkpt lat="48.357260" lon="-1.711090">
        <ele>82</ele>
        <time>2019-08-01T19:56:06Z</time>
      </trkpt>
      <trkpt lat="48.357370" lon="-1.711270">
        <ele>81</ele>
        <time>2019-08-01T19:56:15Z</time>
      </trkpt>
      <trkpt lat="48.357440" lon="-1.711420">
        <ele>81</ele>
        <time>2019-08-01T19:56:16Z</time>
      </trkpt>
      <trkpt lat="48.357570" lon="-1.712120">
        <ele>82</ele>
        <time>2019-08-01T19:56:22Z</time>
      </trkpt>
      <trkpt lat="48.357630" lon="-1.712260">
        <ele>82</ele>
        <time>2019-08-01T19:56:24Z</time>
      </trkpt>
      <trkpt lat="48.357850" lon="-1.712540">
        <ele>83</ele>
        <time>2019-08-01T19:56:30Z</time>
      </trkpt>
      <trkpt lat="48.357920" lon="-1.712760">
        <ele>84</ele>
        <time>2019-08-01T19:56:31Z</time>
      </trkpt>
      <trkpt lat="48.357990" lon="-1.713190">
        <ele>85</ele>
        <time>2019-08-01T19:56:39Z</time>
      </trkpt>
      <trkpt lat="48.357990" lon="-1.713340">
        <ele>85</ele>
        <time>2019-08-01T19:56:41Z</time>
      </trkpt>
      <trkpt lat="48.357960" lon="-1.713940">
        <ele>87</ele>
        <time>2019-08-01T19:56:45Z</time>
      </trkpt>
      <trkpt lat="48.358000" lon="-1.714120">
        <ele>88</ele>
        <time>2019-08-01T19:56:47Z</time>
      </trkpt>
      <trkpt lat="48.358110" lon="-1.714450">
        <ele>89</ele>
        <time>2019-08-01T19:57:00Z</time>
      </trkpt>
      <trkpt lat="48.358150" lon="-1.714610">
        <ele>90</ele>
        <time>2019-08-01T19:57:01Z</time>
      </trkpt>
      <trkpt lat="48.357470" lon="-1.714820">
        <ele>90</ele>
        <time>2019-08-01T19:57:03Z</time>
      </trkpt>
      <trkpt lat="48.357390" lon="-1.714900">
        <ele>90</ele>
        <time>2019-08-01T19:57:09Z</time>
      </trkpt>
      <trkpt lat="48.357340" lon="-1.715020">
        <ele>91</ele>
        <time>2019-08-01T19:57:13Z</time>
      </trkpt>
      <trkpt lat="48.357260" lon="-1.715510">
        <ele>92</ele>
        <time>2019-08-01T19:57:28Z</time>
      </trkpt>
      <trkpt lat="48.357250" lon="-1.715890">
        <ele>93</ele>
        <time>2019-08-01T19:57:53Z</time>
      </trkpt>
      <trkpt lat="48.357380" lon="-1.717080">
        <ele>94</ele>
        <time>2019-08-01T19:58:12Z</time>
      </trkpt>
      <trkpt lat="48.357540" lon="-1.719220">
        <ele>95</ele>
        <time>2019-08-01T19:58:19Z</time>
      </trkpt>
      <trkpt lat="48.357690" lon="-1.720790">
        <ele>99</ele>
        <time>2019-08-01T19:58:21Z</time>
      </trkpt>
      <trkpt lat="48.357770" lon="-1.721340">
        <ele>100</ele>
        <time>2019-08-01T19:58:23Z</time>
      </trkpt>
      <trkpt lat="48.357760" lon="-1.721520">
        <ele>100</ele>
        <time>2019-08-01T19:58:32Z</time>
      </trkpt>
      <trkpt lat="48.357740" lon="-1.721700">
        <ele>100</ele>
        <time>2019-08-01T19:58:36Z</time>
      </trkpt>
      <trkpt lat="48.357600" lon="-1.722470">
        <ele>98</ele>
        <time>2019-08-01T19:58:49Z</time>
      </trkpt>
      <trkpt lat="48.357500" lon="-1.722770">
        <ele>96</ele>
        <time>2019-08-01T19:58:55Z</time>
      </trkpt>
      <trkpt lat="48.357110" lon="-1.723720">
        <ele>94</ele>
        <time>2019-08-01T19:59:00Z</time>
      </trkpt>
      <trkpt lat="48.356910" lon="-1.724090">
        <ele>91</ele>
        <time>2019-08-01T19:59:05Z</time>
      </trkpt>
      <trkpt lat="48.356730" lon="-1.724350">
        <ele>90</ele>
        <time>2019-08-01T19:59:13Z</time>
      </trkpt>
      <trkpt lat="48.356500" lon="-1.724620">
        <ele>88</ele>
        <time>2019-08-01T19:59:15Z</time>
      </trkpt>
      <trkpt lat="48.356100" lon="-1.724920">
        <ele>86</ele>
        <time>2019-08-01T19:59:18Z</time>
      </trkpt>
      <trkpt lat="48.355990" lon="-1.725040">
        <ele>85</ele>
        <time>2019-08-01T19:59:22Z</time>
      </trkpt>
      <trkpt lat="48.355900" lon="-1.725290">
        <ele>86</ele>
        <time>2019-08-01T19:59:38Z</time>
      </trkpt>
      <trkpt lat="48.355840" lon="-1.725550">
        <ele>86</ele>
        <time>2019-08-01T19:59:47Z</time>
      </trkpt>
      <trkpt lat="48.355660" lon="-1.726870">
        <ele>87</ele>
        <time>2019-08-01T19:59:50Z</time>
      </trkpt>
      <trkpt lat="48.355520" lon="-1.727600">
        <ele>86</ele>
        <time>2019-08-01T19:59:55Z</time>
      </trkpt>
      <trkpt lat="48.355490" lon="-1.727900">
        <ele>86</ele>
        <time>2019-08-01T20:00:15Z</time>
      </trkpt>
      <trkpt lat="48.355460" lon="-1.728260">
        <ele>86</ele>
        <time>2019-08-01T20:00:19Z</time>
      </trkpt>
      <trkpt lat="48.355380" lon="-1.729960">
        <ele>83</ele>
        <time>2019-08-01T20:00:22Z</time>
      </trkpt>
      <trkpt lat="48.355370" lon="-1.730290">
        <ele>83</ele>
        <time>2019-08-01T20:00:33Z</time>
      </trkpt>
      <trkpt lat="48.355390" lon="-1.730570">
        <ele>84</ele>
        <time>2019-08-01T20:00:36Z</time>
      </trkpt>
      <trkpt lat="48.355510" lon="-1.731510">
        <ele>85</ele>
        <time>2019-08-01T20:00:39Z</time>
      </trkpt>
      <trkpt lat="48.355520" lon="-1.731750">
        <ele>85</ele>
        <time>2019-08-01T20:00:52Z</time>
      </trkpt>
      <trkpt lat="48.355500" lon="-1.732010">
        <ele>86</ele>
        <time>2019-08-01T20:00:56Z</time>
      </trkpt>
      <trkpt lat="48.355300" lon="-1.733050">
        <ele>85</ele>
        <time>2019-08-01T20:01:00Z</time>
      </trkpt>
      <trkpt lat="48.355260" lon="-1.733420">
        <ele>85</ele>
        <time>2019-08-01T20:01:05Z</time>
      </trkpt>
      <trkpt lat="48.355270" lon="-1.733760">
        <ele>85</ele>
        <time>2019-08-01T20:01:16Z</time>
      </trkpt>
      <trkpt lat="48.355300" lon="-1.734110">
        <ele>86</ele>
        <time>2019-08-01T20:01:19Z</time>
      </trkpt>
      <trkpt lat="48.355430" lon="-1.735050">
        <ele>88</ele>
        <time>2019-08-01T20:01:23Z</time>
      </trkpt>
      <trkpt lat="48.355450" lon="-1.735330">
        <ele>88</ele>
        <time>2019-08-01T20:01:42Z</time>
      </trkpt>
      <trkpt lat="48.355440" lon="-1.735620">
        <ele>88</ele>
        <time>2019-08-01T20:01:48Z</time>
      </trkpt>
      <trkpt lat="48.355260" lon="-1.737200">
        <ele>90</ele>
        <time>2019-08-01T20:01:55Z</time>
      </trkpt>
      <trkpt lat="48.355270" lon="-1.737740">
        <ele>90</ele>
        <time>2019-08-01T20:02:02Z</time>
      </trkpt>
      <trkpt lat="48.355340" lon="-1.738330">
        <ele>90</ele>
        <time>2019-08-01T20:02:28Z</time>
      </trkpt>
      <trkpt lat="48.355350" lon="-1.738940">
        <ele>90</ele>
        <time>2019-08-01T20:02:34Z</time>
      </trkpt>
      <trkpt lat="48.355230" lon="-1.741080">
        <ele>88</ele>
        <time>2019-08-01T20:02:37Z</time>
      </trkpt>
      <trkpt lat="48.355190" lon="-1.741600">
        <ele>87</ele>
        <time>2019-08-01T20:02:42Z</time>
      </trkpt>
      <trkpt lat="48.355140" lon="-1.741870">
        <ele>87</ele>
        <time>2019-08-01T20:02:53Z</time>
      </trkpt>
      <trkpt lat="48.355030" lon="-1.742250">
        <ele>86</ele>
        <time>2019-08-01T20:02:57Z</time>
      </trkpt>
      <trkpt lat="48.354750" lon="-1.743090">
        <ele>85</ele>
        <time>2019-08-01T20:03:00Z</time>
      </trkpt>
      <trkpt lat="48.354670" lon="-1.743400">
        <ele>84</ele>
        <time>2019-08-01T20:03:02Z</time>
      </trkpt>
      <trkpt lat="48.354640" lon="-1.743620">
        <ele>85</ele>
        <time>2019-08-01T20:03:11Z</time>
      </trkpt>
      <trkpt lat="48.354630" lon="-1.743840">
        <ele>85</ele>
        <time>2019-08-01T20:03:14Z</time>
      </trkpt>
      <trkpt lat="48.354740" lon="-1.744550">
        <ele>85</ele>
        <time>2019-08-01T20:03:16Z</time>
      </trkpt>
      <trkpt lat="48.354750" lon="-1.744810">
        <ele>84</ele>
        <time>2019-08-01T20:03:21Z</time>
      </trkpt>
      <trkpt lat="48.354720" lon="-1.744980">
        <ele>84</ele>
        <time>2019-08-01T20:03:25Z</time>
      </trkpt>
      <trkpt lat="48.354620" lon="-1.745360">
        <ele>83</ele>
        <time>2019-08-01T20:03:41Z</time>
      </trkpt>
      <trkpt lat="48.354510" lon="-1.745620">
        <ele>83</ele>
        <time>2019-08-01T20:03:45Z</time>
      </trkpt>
      <trkpt lat="48.353890" lon="-1.746650">
        <ele>81</ele>
        <time>2019-08-01T20:03:49Z</time>
      </trkpt>
      <trkpt lat="48.353770" lon="-1.746880">
        <ele>81</ele>
        <time>2019-08-01T20:03:52Z</time>
      </trkpt>
      <trkpt lat="48.353690" lon="-1.747210">
        <ele>81</ele>
        <time>2019-08-01T20:06:37Z</time>
      </trkpt>
      <trkpt lat="48.353630" lon="-1.747510">
        <ele>80</ele>
        <time>2019-08-01T20:06:37Z</time>
      </trkpt>
      <trkpt lat="48.352600" lon="-1.761360">
        <ele>77</ele>
        <time>2019-08-01T20:09:58Z</time>
      </trkpt>
      <trkpt lat="48.352600" lon="-1.761360">
        <ele>77</ele>
        <time>2019-08-01T20:10:01Z</time>
      </trkpt>
      <trkpt lat="48.351390" lon="-1.778280">
        <ele>75</ele>
        <time>2019-08-01T20:10:03Z</time>
      </trkpt>
      <trkpt lat="48.351360" lon="-1.778470">
        <ele>75</ele>
        <time>2019-08-01T20:10:09Z</time>
      </trkpt>
      <trkpt lat="48.351320" lon="-1.778630">
        <ele>75</ele>
        <time>2019-08-01T20:10:11Z</time>
      </trkpt>
      <trkpt lat="48.351140" lon="-1.779040">
        <ele>76</ele>
        <time>2019-08-01T20:10:13Z</time>
      </trkpt>
      <trkpt lat="48.351090" lon="-1.779200">
        <ele>76</ele>
        <time>2019-08-01T20:10:15Z</time>
      </trkpt>
      <trkpt lat="48.351130" lon="-1.779420">
        <ele>76</ele>
        <time>2019-08-01T20:10:18Z</time>
      </trkpt>
      <trkpt lat="48.351130" lon="-1.779540">
        <ele>76</ele>
        <time>2019-08-01T20:10:20Z</time>
      </trkpt>
      <trkpt lat="48.351170" lon="-1.779770">
        <ele>76</ele>
        <time>2019-08-01T20:11:01Z</time>
      </trkpt>
      <trkpt lat="48.351170" lon="-1.779940">
        <ele>76</ele>
        <time>2019-08-01T20:14:00Z</time>
      </trkpt>
      <trkpt lat="48.350560" lon="-1.783310">
        <ele>79</ele>
        <time>2019-08-01T20:16:35Z</time>
      </trkpt>
      <trkpt lat="48.347820" lon="-1.797910">
        <ele>76</ele>
        <time>2019-08-01T20:16:41Z</time>
      </trkpt>
      <trkpt lat="48.345450" lon="-1.810520">
        <ele>76</ele>
        <time>2019-08-01T20:16:45Z</time>
      </trkpt>
      <trkpt lat="48.345330" lon="-1.810960">
        <ele>77</ele>
        <time>2019-08-01T20:16:49Z</time>
      </trkpt>
      <trkpt lat="48.345220" lon="-1.811280">
        <ele>77</ele>
        <time>2019-08-01T20:16:54Z</time>
      </trkpt>
      <trkpt lat="48.345090" lon="-1.811560">
        <ele>77</ele>
        <time>2019-08-01T20:17:00Z</time>
      </trkpt>
      <trkpt lat="48.344910" lon="-1.811850">
        <ele>76</ele>
        <time>2019-08-01T20:21:33Z</time>
      </trkpt>
      <trkpt lat="48.344680" lon="-1.812180">
        <ele>75</ele>
        <time>2019-08-01T20:21:35Z</time>
      </trkpt>
      <trkpt lat="48.333270" lon="-1.827650">
        <ele>51</ele>
        <time>2019-08-01T20:21:39Z</time>
      </trkpt>
      <trkpt lat="48.333220" lon="-1.827520">
        <ele>52</ele>
        <time>2019-08-01T20:22:16Z</time>
      </trkpt>
      <trkpt lat="48.333140" lon="-1.827170">
        <ele>52</ele>
      </trkpt>
      <trkpt lat="48.332480" lon="-1.824170">
        <ele>49</ele>
      </trkpt>
    </trkseg>
  </trk>
</gpx>
